<?xml version="1.0" encoding="UTF-8" standalone="no" ?>
<gpx xmlns="http://www.topografix.com/GPX/1/1" xmlns:xsi="http://www.w3.org/2001/XMLSchema-instance" xsi:schemaLocation="http://www.topografix.com/GPX/1/1 http://www.topografix.com/GPX/1/1/gpx.xsd" version="1.1" creator="VisuGPX - https://www.visugpx.com">
  <metadata>
    <name>MB. Sortie du 11/08/2019</name>
    <desc><![CDATA[Sortie VTT du dimanche 11 août 2019]]></desc>
  </metadata>
  <trk>
    <name><![CDATA[Pornichet Cyclisme]]></name>
    <trkseg>
      <trkpt lat="47.26405" lon="-2.31567">
        <ele>11.60000038147</ele>
        <time>2019-08-11T06:55:20.000Z</time>
      </trkpt>
      <trkpt lat="47.26405" lon="-2.31576">
        <ele>11.60000038147</ele>
        <time>2019-08-11T06:55:22.000Z</time>
      </trkpt>
      <trkpt lat="47.26406" lon="-2.3158">
        <ele>11.60000038147</ele>
        <time>2019-08-11T06:55:23.000Z</time>
      </trkpt>
      <trkpt lat="47.26407" lon="-2.31595">
        <ele>11.60000038147</ele>
        <time>2019-08-11T06:55:27.000Z</time>
      </trkpt>
      <trkpt lat="47.26407" lon="-2.31597">
        <ele>11.60000038147</ele>
        <time>2019-08-11T06:55:28.000Z</time>
      </trkpt>
      <trkpt lat="47.26405" lon="-2.31599">
        <ele>11.60000038147</ele>
        <time>2019-08-11T06:55:30.000Z</time>
      </trkpt>
      <trkpt lat="47.26403" lon="-2.31598">
        <ele>11.60000038147</ele>
        <time>2019-08-11T06:55:31.000Z</time>
      </trkpt>
      <trkpt lat="47.26404" lon="-2.31589">
        <ele>11.60000038147</ele>
        <time>2019-08-11T06:55:34.000Z</time>
      </trkpt>
      <trkpt lat="47.26404" lon="-2.31584">
        <ele>11.60000038147</ele>
        <time>2019-08-11T06:55:36.000Z</time>
      </trkpt>
      <trkpt lat="47.26405" lon="-2.3158">
        <ele>11.60000038147</ele>
        <time>2019-08-11T06:55:39.000Z</time>
      </trkpt>
      <trkpt lat="47.26405" lon="-2.31591">
        <ele>11.60000038147</ele>
        <time>2019-08-11T06:55:42.000Z</time>
      </trkpt>
      <trkpt lat="47.26404" lon="-2.31621">
        <ele>11.60000038147</ele>
        <time>2019-08-11T06:55:48.000Z</time>
      </trkpt>
      <trkpt lat="47.26406" lon="-2.31659">
        <ele>11.60000038147</ele>
        <time>2019-08-11T06:55:55.000Z</time>
      </trkpt>
      <trkpt lat="47.26406" lon="-2.31669">
        <ele>11.60000038147</ele>
        <time>2019-08-11T06:55:59.000Z</time>
      </trkpt>
      <trkpt lat="47.26406" lon="-2.31671">
        <ele>11.60000038147</ele>
        <time>2019-08-11T06:56:00.000Z</time>
      </trkpt>
      <trkpt lat="47.26409" lon="-2.31669">
        <ele>11.60000038147</ele>
        <time>2019-08-11T06:56:01.000Z</time>
      </trkpt>
      <trkpt lat="47.2641" lon="-2.31666">
        <ele>11.60000038147</ele>
        <time>2019-08-11T06:56:02.000Z</time>
      </trkpt>
      <trkpt lat="47.2641" lon="-2.31653">
        <ele>11.60000038147</ele>
        <time>2019-08-11T06:56:05.000Z</time>
      </trkpt>
      <trkpt lat="47.2641" lon="-2.31648">
        <ele>11.60000038147</ele>
        <time>2019-08-11T06:56:06.000Z</time>
      </trkpt>
      <trkpt lat="47.26407" lon="-2.31631">
        <ele>11.60000038147</ele>
        <time>2019-08-11T06:56:09.000Z</time>
      </trkpt>
      <trkpt lat="47.26407" lon="-2.31618">
        <ele>11.60000038147</ele>
        <time>2019-08-11T06:56:11.000Z</time>
      </trkpt>
      <trkpt lat="47.26407" lon="-2.31605">
        <ele>11.60000038147</ele>
        <time>2019-08-11T06:56:13.000Z</time>
      </trkpt>
      <trkpt lat="47.26407" lon="-2.31598">
        <ele>11.60000038147</ele>
        <time>2019-08-11T06:56:14.000Z</time>
      </trkpt>
      <trkpt lat="47.26407" lon="-2.31578">
        <ele>11.60000038147</ele>
        <time>2019-08-11T06:56:17.000Z</time>
      </trkpt>
      <trkpt lat="47.2641" lon="-2.31553">
        <ele>11.60000038147</ele>
        <time>2019-08-11T06:56:22.000Z</time>
      </trkpt>
      <trkpt lat="47.26416" lon="-2.31552">
        <ele>11.60000038147</ele>
        <time>2019-08-11T06:56:26.000Z</time>
      </trkpt>
      <trkpt lat="47.26418" lon="-2.31551">
        <ele>11.60000038147</ele>
        <time>2019-08-11T06:56:30.000Z</time>
      </trkpt>
      <trkpt lat="47.26414" lon="-2.31551">
        <ele>11.60000038147</ele>
        <time>2019-08-11T06:57:50.000Z</time>
      </trkpt>
      <trkpt lat="47.26411" lon="-2.31552">
        <ele>11.60000038147</ele>
        <time>2019-08-11T06:57:53.000Z</time>
      </trkpt>
      <trkpt lat="47.26411" lon="-2.31552">
        <ele>11.60000038147</ele>
        <time>2019-08-11T06:57:55.000Z</time>
      </trkpt>
      <trkpt lat="47.26408" lon="-2.31556">
        <ele>11.60000038147</ele>
        <time>2019-08-11T06:57:57.000Z</time>
      </trkpt>
      <trkpt lat="47.26408" lon="-2.31564">
        <ele>11.60000038147</ele>
        <time>2019-08-11T06:57:59.000Z</time>
      </trkpt>
      <trkpt lat="47.26408" lon="-2.31575">
        <ele>11.60000038147</ele>
        <time>2019-08-11T06:58:01.000Z</time>
      </trkpt>
      <trkpt lat="47.26409" lon="-2.31589">
        <ele>11.60000038147</ele>
        <time>2019-08-11T06:58:03.000Z</time>
      </trkpt>
      <trkpt lat="47.26409" lon="-2.31639">
        <ele>11.60000038147</ele>
        <time>2019-08-11T06:58:10.000Z</time>
      </trkpt>
      <trkpt lat="47.26409" lon="-2.31646">
        <ele>11.60000038147</ele>
        <time>2019-08-11T06:58:11.000Z</time>
      </trkpt>
      <trkpt lat="47.26407" lon="-2.31663">
        <ele>11.60000038147</ele>
        <time>2019-08-11T06:58:14.000Z</time>
      </trkpt>
      <trkpt lat="47.26395" lon="-2.31671">
        <ele>11.60000038147</ele>
        <time>2019-08-11T06:58:17.000Z</time>
      </trkpt>
      <trkpt lat="47.2639" lon="-2.31673">
        <ele>11.60000038147</ele>
        <time>2019-08-11T06:58:18.000Z</time>
      </trkpt>
      <trkpt lat="47.26366" lon="-2.31687">
        <ele>11.60000038147</ele>
        <time>2019-08-11T06:58:23.000Z</time>
      </trkpt>
      <trkpt lat="47.26356" lon="-2.31694">
        <ele>11</ele>
        <time>2019-08-11T06:58:25.000Z</time>
      </trkpt>
      <trkpt lat="47.26351" lon="-2.31697">
        <ele>10.60000038147</ele>
        <time>2019-08-11T06:58:26.000Z</time>
      </trkpt>
      <trkpt lat="47.26345" lon="-2.31699">
        <ele>10.199999809265</ele>
        <time>2019-08-11T06:58:27.000Z</time>
      </trkpt>
      <trkpt lat="47.2634" lon="-2.31701">
        <ele>9.8000001907349</ele>
        <time>2019-08-11T06:58:28.000Z</time>
      </trkpt>
      <trkpt lat="47.26335" lon="-2.31703">
        <ele>9.1999998092651</ele>
        <time>2019-08-11T06:58:29.000Z</time>
      </trkpt>
      <trkpt lat="47.26331" lon="-2.31705">
        <ele>9.1999998092651</ele>
        <time>2019-08-11T06:58:30.000Z</time>
      </trkpt>
      <trkpt lat="47.26313" lon="-2.31714">
        <ele>9.1999998092651</ele>
        <time>2019-08-11T06:58:34.000Z</time>
      </trkpt>
      <trkpt lat="47.26305" lon="-2.31721">
        <ele>8.8000001907349</ele>
        <time>2019-08-11T06:58:36.000Z</time>
      </trkpt>
      <trkpt lat="47.26303" lon="-2.31725">
        <ele>8.3999996185303</ele>
        <time>2019-08-11T06:58:37.000Z</time>
      </trkpt>
      <trkpt lat="47.26302" lon="-2.3173">
        <ele>8</ele>
        <time>2019-08-11T06:58:38.000Z</time>
      </trkpt>
      <trkpt lat="47.26301" lon="-2.31736">
        <ele>7.5999999046326</ele>
        <time>2019-08-11T06:58:39.000Z</time>
      </trkpt>
      <trkpt lat="47.26301" lon="-2.31741">
        <ele>7.1999998092651</ele>
        <time>2019-08-11T06:58:40.000Z</time>
      </trkpt>
      <trkpt lat="47.26301" lon="-2.31759">
        <ele>7.1999998092651</ele>
        <time>2019-08-11T06:58:43.000Z</time>
      </trkpt>
      <trkpt lat="47.26304" lon="-2.31795">
        <ele>7.1999998092651</ele>
        <time>2019-08-11T06:58:49.000Z</time>
      </trkpt>
      <trkpt lat="47.26304" lon="-2.31807">
        <ele>7.1999998092651</ele>
        <time>2019-08-11T06:58:51.000Z</time>
      </trkpt>
      <trkpt lat="47.26303" lon="-2.31825">
        <ele>7.1999998092651</ele>
        <time>2019-08-11T06:58:54.000Z</time>
      </trkpt>
      <trkpt lat="47.26302" lon="-2.31845">
        <ele>7.1999998092651</ele>
        <time>2019-08-11T06:58:57.000Z</time>
      </trkpt>
      <trkpt lat="47.26301" lon="-2.31865">
        <ele>7.1999998092651</ele>
        <time>2019-08-11T06:59:00.000Z</time>
      </trkpt>
      <trkpt lat="47.263" lon="-2.31876">
        <ele>7.1999998092651</ele>
        <time>2019-08-11T06:59:02.000Z</time>
      </trkpt>
      <trkpt lat="47.26298" lon="-2.31884">
        <ele>7.1999998092651</ele>
        <time>2019-08-11T06:59:04.000Z</time>
      </trkpt>
      <trkpt lat="47.26283" lon="-2.319">
        <ele>7.1999998092651</ele>
        <time>2019-08-11T06:59:09.000Z</time>
      </trkpt>
      <trkpt lat="47.26266" lon="-2.31929">
        <ele>7.1999998092651</ele>
        <time>2019-08-11T06:59:15.000Z</time>
      </trkpt>
      <trkpt lat="47.26258" lon="-2.31948">
        <ele>7.1999998092651</ele>
        <time>2019-08-11T06:59:19.000Z</time>
      </trkpt>
      <trkpt lat="47.26248" lon="-2.31967">
        <ele>7.1999998092651</ele>
        <time>2019-08-11T06:59:23.000Z</time>
      </trkpt>
      <trkpt lat="47.26245" lon="-2.31967">
        <ele>6.5999999046326</ele>
        <time>2019-08-11T06:59:24.000Z</time>
      </trkpt>
      <trkpt lat="47.26241" lon="-2.31968">
        <ele>6.1999998092651</ele>
        <time>2019-08-11T06:59:25.000Z</time>
      </trkpt>
      <trkpt lat="47.26238" lon="-2.31969">
        <ele>5.8000001907349</ele>
        <time>2019-08-11T06:59:26.000Z</time>
      </trkpt>
      <trkpt lat="47.26236" lon="-2.31972">
        <ele>5.4000000953674</ele>
        <time>2019-08-11T06:59:27.000Z</time>
      </trkpt>
      <trkpt lat="47.26234" lon="-2.31975">
        <ele>5</ele>
        <time>2019-08-11T06:59:28.000Z</time>
      </trkpt>
      <trkpt lat="47.26228" lon="-2.31982">
        <ele>5</ele>
        <time>2019-08-11T06:59:30.000Z</time>
      </trkpt>
      <trkpt lat="47.26212" lon="-2.31995">
        <ele>5</ele>
        <time>2019-08-11T06:59:34.000Z</time>
      </trkpt>
      <trkpt lat="47.26201" lon="-2.32008">
        <ele>5</ele>
        <time>2019-08-11T06:59:39.000Z</time>
      </trkpt>
      <trkpt lat="47.26199" lon="-2.32015">
        <ele>5</ele>
        <time>2019-08-11T06:59:41.000Z</time>
      </trkpt>
      <trkpt lat="47.26194" lon="-2.32018">
        <ele>5</ele>
        <time>2019-08-11T06:59:43.000Z</time>
      </trkpt>
      <trkpt lat="47.2619" lon="-2.32018">
        <ele>5</ele>
        <time>2019-08-11T06:59:45.000Z</time>
      </trkpt>
      <trkpt lat="47.26176" lon="-2.32021">
        <ele>5</ele>
        <time>2019-08-11T06:59:49.000Z</time>
      </trkpt>
      <trkpt lat="47.26159" lon="-2.32033">
        <ele>5</ele>
        <time>2019-08-11T06:59:54.000Z</time>
      </trkpt>
      <trkpt lat="47.2615" lon="-2.32054">
        <ele>5</ele>
        <time>2019-08-11T06:59:58.000Z</time>
      </trkpt>
      <trkpt lat="47.26148" lon="-2.32061">
        <ele>5</ele>
        <time>2019-08-11T06:59:59.000Z</time>
      </trkpt>
      <trkpt lat="47.2614" lon="-2.32094">
        <ele>5</ele>
        <time>2019-08-11T07:00:04.000Z</time>
      </trkpt>
      <trkpt lat="47.2613" lon="-2.32134">
        <ele>5</ele>
        <time>2019-08-11T07:00:10.000Z</time>
      </trkpt>
      <trkpt lat="47.26113" lon="-2.32179">
        <ele>5</ele>
        <time>2019-08-11T07:00:17.000Z</time>
      </trkpt>
      <trkpt lat="47.26096" lon="-2.32215">
        <ele>5</ele>
        <time>2019-08-11T07:00:23.000Z</time>
      </trkpt>
      <trkpt lat="47.26075" lon="-2.32244">
        <ele>5</ele>
        <time>2019-08-11T07:00:29.000Z</time>
      </trkpt>
      <trkpt lat="47.26057" lon="-2.32264">
        <ele>5</ele>
        <time>2019-08-11T07:00:34.000Z</time>
      </trkpt>
      <trkpt lat="47.26029" lon="-2.32296">
        <ele>5</ele>
        <time>2019-08-11T07:00:41.000Z</time>
      </trkpt>
      <trkpt lat="47.26025" lon="-2.323">
        <ele>5</ele>
        <time>2019-08-11T07:00:42.000Z</time>
      </trkpt>
      <trkpt lat="47.26013" lon="-2.32314">
        <ele>5</ele>
        <time>2019-08-11T07:00:45.000Z</time>
      </trkpt>
      <trkpt lat="47.26009" lon="-2.3232">
        <ele>5</ele>
        <time>2019-08-11T07:00:46.000Z</time>
      </trkpt>
      <trkpt lat="47.25978" lon="-2.3236">
        <ele>5</ele>
        <time>2019-08-11T07:00:54.000Z</time>
      </trkpt>
      <trkpt lat="47.25956" lon="-2.32387">
        <ele>5</ele>
        <time>2019-08-11T07:01:00.000Z</time>
      </trkpt>
      <trkpt lat="47.25931" lon="-2.3242">
        <ele>5</ele>
        <time>2019-08-11T07:01:07.000Z</time>
      </trkpt>
      <trkpt lat="47.2591" lon="-2.32447">
        <ele>5</ele>
        <time>2019-08-11T07:01:13.000Z</time>
      </trkpt>
      <trkpt lat="47.25907" lon="-2.32451">
        <ele>5</ele>
        <time>2019-08-11T07:01:14.000Z</time>
      </trkpt>
      <trkpt lat="47.25887" lon="-2.32473">
        <ele>5</ele>
        <time>2019-08-11T07:01:20.000Z</time>
      </trkpt>
      <trkpt lat="47.25883" lon="-2.32476">
        <ele>5</ele>
        <time>2019-08-11T07:01:21.000Z</time>
      </trkpt>
      <trkpt lat="47.2587" lon="-2.32479">
        <ele>5</ele>
        <time>2019-08-11T07:01:24.000Z</time>
      </trkpt>
      <trkpt lat="47.25837" lon="-2.32477">
        <ele>5</ele>
        <time>2019-08-11T07:01:31.000Z</time>
      </trkpt>
      <trkpt lat="47.25832" lon="-2.32475">
        <ele>5</ele>
        <time>2019-08-11T07:01:32.000Z</time>
      </trkpt>
      <trkpt lat="47.25811" lon="-2.32461">
        <ele>5</ele>
        <time>2019-08-11T07:01:37.000Z</time>
      </trkpt>
      <trkpt lat="47.25802" lon="-2.32459">
        <ele>5</ele>
        <time>2019-08-11T07:01:39.000Z</time>
      </trkpt>
      <trkpt lat="47.2579" lon="-2.3246">
        <ele>5</ele>
        <time>2019-08-11T07:01:42.000Z</time>
      </trkpt>
      <trkpt lat="47.25776" lon="-2.3245">
        <ele>5</ele>
        <time>2019-08-11T07:01:46.000Z</time>
      </trkpt>
      <trkpt lat="47.25769" lon="-2.32435">
        <ele>5</ele>
        <time>2019-08-11T07:01:49.000Z</time>
      </trkpt>
      <trkpt lat="47.25766" lon="-2.32431">
        <ele>5</ele>
        <time>2019-08-11T07:01:50.000Z</time>
      </trkpt>
      <trkpt lat="47.25761" lon="-2.32429">
        <ele>5</ele>
        <time>2019-08-11T07:01:51.000Z</time>
      </trkpt>
      <trkpt lat="47.25741" lon="-2.32428">
        <ele>5</ele>
        <time>2019-08-11T07:01:55.000Z</time>
      </trkpt>
      <trkpt lat="47.25705" lon="-2.32427">
        <ele>5</ele>
        <time>2019-08-11T07:02:02.000Z</time>
      </trkpt>
      <trkpt lat="47.25673" lon="-2.32424">
        <ele>5</ele>
        <time>2019-08-11T07:02:09.000Z</time>
      </trkpt>
      <trkpt lat="47.25669" lon="-2.32425">
        <ele>5</ele>
        <time>2019-08-11T07:02:10.000Z</time>
      </trkpt>
      <trkpt lat="47.25662" lon="-2.32434">
        <ele>5</ele>
        <time>2019-08-11T07:02:12.000Z</time>
      </trkpt>
      <trkpt lat="47.25663" lon="-2.32452">
        <ele>5</ele>
        <time>2019-08-11T07:02:15.000Z</time>
      </trkpt>
      <trkpt lat="47.25667" lon="-2.32465">
        <ele>5.4000000953674</ele>
        <time>2019-08-11T07:02:17.000Z</time>
      </trkpt>
      <trkpt lat="47.25669" lon="-2.32471">
        <ele>6</ele>
        <time>2019-08-11T07:02:18.000Z</time>
      </trkpt>
      <trkpt lat="47.2567" lon="-2.32477">
        <ele>6.4000000953674</ele>
        <time>2019-08-11T07:02:19.000Z</time>
      </trkpt>
      <trkpt lat="47.25672" lon="-2.32482">
        <ele>6.8000001907349</ele>
        <time>2019-08-11T07:02:20.000Z</time>
      </trkpt>
      <trkpt lat="47.25674" lon="-2.32488">
        <ele>7.1999998092651</ele>
        <time>2019-08-11T07:02:21.000Z</time>
      </trkpt>
      <trkpt lat="47.25688" lon="-2.32529">
        <ele>7.1999998092651</ele>
        <time>2019-08-11T07:02:28.000Z</time>
      </trkpt>
      <trkpt lat="47.2569" lon="-2.32535">
        <ele>7.1999998092651</ele>
        <time>2019-08-11T07:02:29.000Z</time>
      </trkpt>
      <trkpt lat="47.25693" lon="-2.32546">
        <ele>7.5999999046326</ele>
        <time>2019-08-11T07:02:31.000Z</time>
      </trkpt>
      <trkpt lat="47.25695" lon="-2.32552">
        <ele>8</ele>
        <time>2019-08-11T07:02:32.000Z</time>
      </trkpt>
      <trkpt lat="47.25696" lon="-2.32558">
        <ele>8.3999996185303</ele>
        <time>2019-08-11T07:02:33.000Z</time>
      </trkpt>
      <trkpt lat="47.25698" lon="-2.32564">
        <ele>8.8000001907349</ele>
        <time>2019-08-11T07:02:34.000Z</time>
      </trkpt>
      <trkpt lat="47.25699" lon="-2.3257">
        <ele>9.1999998092651</ele>
        <time>2019-08-11T07:02:35.000Z</time>
      </trkpt>
      <trkpt lat="47.25708" lon="-2.32611">
        <ele>9.1999998092651</ele>
        <time>2019-08-11T07:02:42.000Z</time>
      </trkpt>
      <trkpt lat="47.25703" lon="-2.32627">
        <ele>9.1999998092651</ele>
        <time>2019-08-11T07:02:45.000Z</time>
      </trkpt>
      <trkpt lat="47.25691" lon="-2.32633">
        <ele>9.1999998092651</ele>
        <time>2019-08-11T07:02:48.000Z</time>
      </trkpt>
      <trkpt lat="47.25687" lon="-2.32634">
        <ele>9.1999998092651</ele>
        <time>2019-08-11T07:02:49.000Z</time>
      </trkpt>
      <trkpt lat="47.25679" lon="-2.32638">
        <ele>9.8000001907349</ele>
        <time>2019-08-11T07:02:51.000Z</time>
      </trkpt>
      <trkpt lat="47.25675" lon="-2.3264">
        <ele>10.199999809265</ele>
        <time>2019-08-11T07:02:52.000Z</time>
      </trkpt>
      <trkpt lat="47.25671" lon="-2.32642">
        <ele>10.60000038147</ele>
        <time>2019-08-11T07:02:53.000Z</time>
      </trkpt>
      <trkpt lat="47.25667" lon="-2.32644">
        <ele>11</ele>
        <time>2019-08-11T07:02:54.000Z</time>
      </trkpt>
      <trkpt lat="47.25663" lon="-2.32645">
        <ele>11.39999961853</ele>
        <time>2019-08-11T07:02:55.000Z</time>
      </trkpt>
      <trkpt lat="47.25645" lon="-2.32652">
        <ele>11.39999961853</ele>
        <time>2019-08-11T07:02:59.000Z</time>
      </trkpt>
      <trkpt lat="47.25633" lon="-2.32658">
        <ele>11.39999961853</ele>
        <time>2019-08-11T07:03:02.000Z</time>
      </trkpt>
      <trkpt lat="47.25624" lon="-2.32661">
        <ele>11.800000190735</ele>
        <time>2019-08-11T07:03:04.000Z</time>
      </trkpt>
      <trkpt lat="47.2562" lon="-2.32663">
        <ele>12.199999809265</ele>
        <time>2019-08-11T07:03:05.000Z</time>
      </trkpt>
      <trkpt lat="47.25616" lon="-2.32665">
        <ele>12.60000038147</ele>
        <time>2019-08-11T07:03:06.000Z</time>
      </trkpt>
      <trkpt lat="47.25611" lon="-2.32667">
        <ele>13.199999809265</ele>
        <time>2019-08-11T07:03:07.000Z</time>
      </trkpt>
      <trkpt lat="47.25607" lon="-2.32669">
        <ele>13.60000038147</ele>
        <time>2019-08-11T07:03:08.000Z</time>
      </trkpt>
      <trkpt lat="47.25598" lon="-2.32673">
        <ele>13.60000038147</ele>
        <time>2019-08-11T07:03:10.000Z</time>
      </trkpt>
      <trkpt lat="47.25594" lon="-2.32674">
        <ele>13.60000038147</ele>
        <time>2019-08-11T07:03:11.000Z</time>
      </trkpt>
      <trkpt lat="47.25573" lon="-2.32681">
        <ele>13.60000038147</ele>
        <time>2019-08-11T07:03:16.000Z</time>
      </trkpt>
      <trkpt lat="47.25536" lon="-2.32699">
        <ele>13.60000038147</ele>
        <time>2019-08-11T07:03:24.000Z</time>
      </trkpt>
      <trkpt lat="47.25521" lon="-2.32705">
        <ele>13.60000038147</ele>
        <time>2019-08-11T07:03:27.000Z</time>
      </trkpt>
      <trkpt lat="47.25505" lon="-2.32707">
        <ele>13.60000038147</ele>
        <time>2019-08-11T07:03:30.000Z</time>
      </trkpt>
      <trkpt lat="47.2549" lon="-2.32708">
        <ele>13.60000038147</ele>
        <time>2019-08-11T07:03:33.000Z</time>
      </trkpt>
      <trkpt lat="47.25481" lon="-2.32712">
        <ele>13.60000038147</ele>
        <time>2019-08-11T07:03:35.000Z</time>
      </trkpt>
      <trkpt lat="47.25469" lon="-2.32725">
        <ele>13.60000038147</ele>
        <time>2019-08-11T07:03:38.000Z</time>
      </trkpt>
      <trkpt lat="47.25465" lon="-2.3273">
        <ele>13.60000038147</ele>
        <time>2019-08-11T07:03:39.000Z</time>
      </trkpt>
      <trkpt lat="47.25439" lon="-2.32767">
        <ele>13.60000038147</ele>
        <time>2019-08-11T07:03:46.000Z</time>
      </trkpt>
      <trkpt lat="47.25436" lon="-2.32773">
        <ele>13.60000038147</ele>
        <time>2019-08-11T07:03:47.000Z</time>
      </trkpt>
      <trkpt lat="47.25425" lon="-2.32795">
        <ele>13.60000038147</ele>
        <time>2019-08-11T07:03:51.000Z</time>
      </trkpt>
      <trkpt lat="47.25417" lon="-2.32806">
        <ele>13.60000038147</ele>
        <time>2019-08-11T07:03:53.000Z</time>
      </trkpt>
      <trkpt lat="47.25396" lon="-2.32833">
        <ele>13.60000038147</ele>
        <time>2019-08-11T07:03:58.000Z</time>
      </trkpt>
      <trkpt lat="47.25393" lon="-2.32839">
        <ele>13.199999809265</ele>
        <time>2019-08-11T07:03:59.000Z</time>
      </trkpt>
      <trkpt lat="47.25389" lon="-2.32844">
        <ele>12.199999809265</ele>
        <time>2019-08-11T07:04:00.000Z</time>
      </trkpt>
      <trkpt lat="47.25385" lon="-2.32849">
        <ele>11.800000190735</ele>
        <time>2019-08-11T07:04:01.000Z</time>
      </trkpt>
      <trkpt lat="47.25381" lon="-2.32853">
        <ele>11.39999961853</ele>
        <time>2019-08-11T07:04:02.000Z</time>
      </trkpt>
      <trkpt lat="47.25369" lon="-2.32865">
        <ele>11.39999961853</ele>
        <time>2019-08-11T07:04:05.000Z</time>
      </trkpt>
      <trkpt lat="47.25346" lon="-2.32889">
        <ele>11.39999961853</ele>
        <time>2019-08-11T07:04:11.000Z</time>
      </trkpt>
      <trkpt lat="47.25318" lon="-2.32917">
        <ele>11.39999961853</ele>
        <time>2019-08-11T07:04:18.000Z</time>
      </trkpt>
      <trkpt lat="47.25314" lon="-2.32919">
        <ele>11.39999961853</ele>
        <time>2019-08-11T07:04:19.000Z</time>
      </trkpt>
      <trkpt lat="47.25308" lon="-2.32936">
        <ele>11.39999961853</ele>
        <time>2019-08-11T07:04:22.000Z</time>
      </trkpt>
      <trkpt lat="47.25312" lon="-2.3296">
        <ele>11.39999961853</ele>
        <time>2019-08-11T07:04:26.000Z</time>
      </trkpt>
      <trkpt lat="47.2532" lon="-2.32978">
        <ele>11.39999961853</ele>
        <time>2019-08-11T07:04:29.000Z</time>
      </trkpt>
      <trkpt lat="47.25322" lon="-2.32984">
        <ele>11.39999961853</ele>
        <time>2019-08-11T07:04:30.000Z</time>
      </trkpt>
      <trkpt lat="47.25327" lon="-2.32996">
        <ele>11.39999961853</ele>
        <time>2019-08-11T07:04:32.000Z</time>
      </trkpt>
      <trkpt lat="47.25342" lon="-2.33031">
        <ele>11.39999961853</ele>
        <time>2019-08-11T07:04:38.000Z</time>
      </trkpt>
      <trkpt lat="47.25361" lon="-2.3308">
        <ele>11.39999961853</ele>
        <time>2019-08-11T07:04:46.000Z</time>
      </trkpt>
      <trkpt lat="47.25365" lon="-2.33092">
        <ele>11</ele>
        <time>2019-08-11T07:04:48.000Z</time>
      </trkpt>
      <trkpt lat="47.25366" lon="-2.33098">
        <ele>10.199999809265</ele>
        <time>2019-08-11T07:04:49.000Z</time>
      </trkpt>
      <trkpt lat="47.25368" lon="-2.33103">
        <ele>9.8000001907349</ele>
        <time>2019-08-11T07:04:50.000Z</time>
      </trkpt>
      <trkpt lat="47.2537" lon="-2.33108">
        <ele>9.3999996185303</ele>
        <time>2019-08-11T07:04:51.000Z</time>
      </trkpt>
      <trkpt lat="47.25376" lon="-2.33128">
        <ele>9.3999996185303</ele>
        <time>2019-08-11T07:04:56.000Z</time>
      </trkpt>
      <trkpt lat="47.25376" lon="-2.33128">
        <ele>9.3999996185303</ele>
        <time>2019-08-11T07:04:57.000Z</time>
      </trkpt>
      <trkpt lat="47.25373" lon="-2.33123">
        <ele>9.3999996185303</ele>
        <time>2019-08-11T07:05:04.000Z</time>
      </trkpt>
      <trkpt lat="47.25373" lon="-2.33124">
        <ele>9.3999996185303</ele>
        <time>2019-08-11T07:05:05.000Z</time>
      </trkpt>
      <trkpt lat="47.25372" lon="-2.33125">
        <ele>9.3999996185303</ele>
        <time>2019-08-11T07:05:06.000Z</time>
      </trkpt>
      <trkpt lat="47.25377" lon="-2.33124">
        <ele>7.4000000953674</ele>
        <time>2019-08-11T07:10:49.000Z</time>
      </trkpt>
      <trkpt lat="47.2538" lon="-2.33131">
        <ele>7.4000000953674</ele>
        <time>2019-08-11T07:10:51.000Z</time>
      </trkpt>
      <trkpt lat="47.25391" lon="-2.33139">
        <ele>7.4000000953674</ele>
        <time>2019-08-11T07:10:55.000Z</time>
      </trkpt>
      <trkpt lat="47.25405" lon="-2.33129">
        <ele>7.4000000953674</ele>
        <time>2019-08-11T07:10:59.000Z</time>
      </trkpt>
      <trkpt lat="47.25428" lon="-2.3312">
        <ele>7.4000000953674</ele>
        <time>2019-08-11T07:11:05.000Z</time>
      </trkpt>
      <trkpt lat="47.25465" lon="-2.33104">
        <ele>7.4000000953674</ele>
        <time>2019-08-11T07:11:14.000Z</time>
      </trkpt>
      <trkpt lat="47.25478" lon="-2.33096">
        <ele>7</ele>
        <time>2019-08-11T07:11:17.000Z</time>
      </trkpt>
      <trkpt lat="47.25481" lon="-2.33093">
        <ele>6.5999999046326</ele>
        <time>2019-08-11T07:11:18.000Z</time>
      </trkpt>
      <trkpt lat="47.25484" lon="-2.33091">
        <ele>6.1999998092651</ele>
        <time>2019-08-11T07:11:19.000Z</time>
      </trkpt>
      <trkpt lat="47.25487" lon="-2.33089">
        <ele>5.8000001907349</ele>
        <time>2019-08-11T07:11:20.000Z</time>
      </trkpt>
      <trkpt lat="47.25489" lon="-2.33085">
        <ele>5.4000000953674</ele>
        <time>2019-08-11T07:11:21.000Z</time>
      </trkpt>
      <trkpt lat="47.25497" lon="-2.33077">
        <ele>5.4000000953674</ele>
        <time>2019-08-11T07:11:24.000Z</time>
      </trkpt>
      <trkpt lat="47.25514" lon="-2.33057">
        <ele>5.4000000953674</ele>
        <time>2019-08-11T07:11:30.000Z</time>
      </trkpt>
      <trkpt lat="47.25534" lon="-2.33044">
        <ele>5.4000000953674</ele>
        <time>2019-08-11T07:11:36.000Z</time>
      </trkpt>
      <trkpt lat="47.25556" lon="-2.33039">
        <ele>5.4000000953674</ele>
        <time>2019-08-11T07:11:42.000Z</time>
      </trkpt>
      <trkpt lat="47.25582" lon="-2.33035">
        <ele>5.8000001907349</ele>
        <time>2019-08-11T07:11:49.000Z</time>
      </trkpt>
      <trkpt lat="47.25586" lon="-2.33034">
        <ele>6.1999998092651</ele>
        <time>2019-08-11T07:11:50.000Z</time>
      </trkpt>
      <trkpt lat="47.25589" lon="-2.33032">
        <ele>6.5999999046326</ele>
        <time>2019-08-11T07:11:51.000Z</time>
      </trkpt>
      <trkpt lat="47.25593" lon="-2.33031">
        <ele>7</ele>
        <time>2019-08-11T07:11:52.000Z</time>
      </trkpt>
      <trkpt lat="47.25597" lon="-2.33032">
        <ele>7.4000000953674</ele>
        <time>2019-08-11T07:11:53.000Z</time>
      </trkpt>
      <trkpt lat="47.25604" lon="-2.3303">
        <ele>7.4000000953674</ele>
        <time>2019-08-11T07:11:55.000Z</time>
      </trkpt>
      <trkpt lat="47.25616" lon="-2.33017">
        <ele>7.4000000953674</ele>
        <time>2019-08-11T07:11:59.000Z</time>
      </trkpt>
      <trkpt lat="47.25616" lon="-2.32999">
        <ele>7.4000000953674</ele>
        <time>2019-08-11T07:12:02.000Z</time>
      </trkpt>
      <trkpt lat="47.25612" lon="-2.32987">
        <ele>7.4000000953674</ele>
        <time>2019-08-11T07:12:04.000Z</time>
      </trkpt>
      <trkpt lat="47.25608" lon="-2.32964">
        <ele>7.4000000953674</ele>
        <time>2019-08-11T07:12:08.000Z</time>
      </trkpt>
      <trkpt lat="47.25606" lon="-2.32952">
        <ele>7.4000000953674</ele>
        <time>2019-08-11T07:12:10.000Z</time>
      </trkpt>
      <trkpt lat="47.25603" lon="-2.32934">
        <ele>8.1999998092651</ele>
        <time>2019-08-11T07:12:13.000Z</time>
      </trkpt>
      <trkpt lat="47.25602" lon="-2.32927">
        <ele>8.6000003814697</ele>
        <time>2019-08-11T07:12:14.000Z</time>
      </trkpt>
      <trkpt lat="47.25601" lon="-2.3292">
        <ele>9</ele>
        <time>2019-08-11T07:12:15.000Z</time>
      </trkpt>
      <trkpt lat="47.25599" lon="-2.32913">
        <ele>9.3999996185303</ele>
        <time>2019-08-11T07:12:16.000Z</time>
      </trkpt>
      <trkpt lat="47.25594" lon="-2.32866">
        <ele>9.3999996185303</ele>
        <time>2019-08-11T07:12:23.000Z</time>
      </trkpt>
      <trkpt lat="47.25591" lon="-2.3283">
        <ele>9.3999996185303</ele>
        <time>2019-08-11T07:12:28.000Z</time>
      </trkpt>
      <trkpt lat="47.25597" lon="-2.32801">
        <ele>9.3999996185303</ele>
        <time>2019-08-11T07:12:32.000Z</time>
      </trkpt>
      <trkpt lat="47.25598" lon="-2.32794">
        <ele>9.3999996185303</ele>
        <time>2019-08-11T07:12:33.000Z</time>
      </trkpt>
      <trkpt lat="47.25602" lon="-2.32744">
        <ele>9.3999996185303</ele>
        <time>2019-08-11T07:12:40.000Z</time>
      </trkpt>
      <trkpt lat="47.25603" lon="-2.32702">
        <ele>9.3999996185303</ele>
        <time>2019-08-11T07:12:46.000Z</time>
      </trkpt>
      <trkpt lat="47.25604" lon="-2.32694">
        <ele>9.3999996185303</ele>
        <time>2019-08-11T07:12:47.000Z</time>
      </trkpt>
      <trkpt lat="47.25605" lon="-2.32673">
        <ele>9.3999996185303</ele>
        <time>2019-08-11T07:12:50.000Z</time>
      </trkpt>
      <trkpt lat="47.25607" lon="-2.32666">
        <ele>9.3999996185303</ele>
        <time>2019-08-11T07:12:52.000Z</time>
      </trkpt>
      <trkpt lat="47.25614" lon="-2.32658">
        <ele>9.3999996185303</ele>
        <time>2019-08-11T07:12:55.000Z</time>
      </trkpt>
      <trkpt lat="47.25622" lon="-2.32653">
        <ele>9.3999996185303</ele>
        <time>2019-08-11T07:12:57.000Z</time>
      </trkpt>
      <trkpt lat="47.25642" lon="-2.32646">
        <ele>9.3999996185303</ele>
        <time>2019-08-11T07:13:01.000Z</time>
      </trkpt>
      <trkpt lat="47.25648" lon="-2.32644">
        <ele>9.3999996185303</ele>
        <time>2019-08-11T07:13:02.000Z</time>
      </trkpt>
      <trkpt lat="47.25668" lon="-2.32637">
        <ele>9.3999996185303</ele>
        <time>2019-08-11T07:13:06.000Z</time>
      </trkpt>
      <trkpt lat="47.25678" lon="-2.32632">
        <ele>9.3999996185303</ele>
        <time>2019-08-11T07:13:08.000Z</time>
      </trkpt>
      <trkpt lat="47.25705" lon="-2.32619">
        <ele>9.3999996185303</ele>
        <time>2019-08-11T07:13:13.000Z</time>
      </trkpt>
      <trkpt lat="47.25708" lon="-2.32612">
        <ele>9.3999996185303</ele>
        <time>2019-08-11T07:13:14.000Z</time>
      </trkpt>
      <trkpt lat="47.25708" lon="-2.32597">
        <ele>9</ele>
        <time>2019-08-11T07:13:16.000Z</time>
      </trkpt>
      <trkpt lat="47.25705" lon="-2.32591">
        <ele>8.6000003814697</ele>
        <time>2019-08-11T07:13:17.000Z</time>
      </trkpt>
      <trkpt lat="47.25703" lon="-2.32585">
        <ele>8.1999998092651</ele>
        <time>2019-08-11T07:13:18.000Z</time>
      </trkpt>
      <trkpt lat="47.25701" lon="-2.32578">
        <ele>7.5999999046326</ele>
        <time>2019-08-11T07:13:19.000Z</time>
      </trkpt>
      <trkpt lat="47.257" lon="-2.32572">
        <ele>7.1999998092651</ele>
        <time>2019-08-11T07:13:20.000Z</time>
      </trkpt>
      <trkpt lat="47.2569" lon="-2.32544">
        <ele>7.1999998092651</ele>
        <time>2019-08-11T07:13:24.000Z</time>
      </trkpt>
      <trkpt lat="47.25673" lon="-2.3249">
        <ele>6.8000001907349</ele>
        <time>2019-08-11T07:13:31.000Z</time>
      </trkpt>
      <trkpt lat="47.2567" lon="-2.32482">
        <ele>6.4000000953674</ele>
        <time>2019-08-11T07:13:32.000Z</time>
      </trkpt>
      <trkpt lat="47.25667" lon="-2.32473">
        <ele>6</ele>
        <time>2019-08-11T07:13:33.000Z</time>
      </trkpt>
      <trkpt lat="47.25665" lon="-2.32465">
        <ele>5.5999999046326</ele>
        <time>2019-08-11T07:13:34.000Z</time>
      </trkpt>
      <trkpt lat="47.25662" lon="-2.32456">
        <ele>5.1999998092651</ele>
        <time>2019-08-11T07:13:35.000Z</time>
      </trkpt>
      <trkpt lat="47.25657" lon="-2.32429">
        <ele>5.1999998092651</ele>
        <time>2019-08-11T07:13:38.000Z</time>
      </trkpt>
      <trkpt lat="47.25655" lon="-2.3242">
        <ele>5.1999998092651</ele>
        <time>2019-08-11T07:13:39.000Z</time>
      </trkpt>
      <trkpt lat="47.25658" lon="-2.32402">
        <ele>5.1999998092651</ele>
        <time>2019-08-11T07:13:42.000Z</time>
      </trkpt>
      <trkpt lat="47.25666" lon="-2.32407">
        <ele>5.1999998092651</ele>
        <time>2019-08-11T07:13:44.000Z</time>
      </trkpt>
      <trkpt lat="47.25669" lon="-2.32412">
        <ele>4.8000001907349</ele>
        <time>2019-08-11T07:13:45.000Z</time>
      </trkpt>
      <trkpt lat="47.25673" lon="-2.32417">
        <ele>4.4000000953674</ele>
        <time>2019-08-11T07:13:46.000Z</time>
      </trkpt>
      <trkpt lat="47.25677" lon="-2.32421">
        <ele>4</ele>
        <time>2019-08-11T07:13:47.000Z</time>
      </trkpt>
      <trkpt lat="47.25683" lon="-2.32422">
        <ele>3.5999999046326</ele>
        <time>2019-08-11T07:13:48.000Z</time>
      </trkpt>
      <trkpt lat="47.25688" lon="-2.32422">
        <ele>3.2000000476837</ele>
        <time>2019-08-11T07:13:49.000Z</time>
      </trkpt>
      <trkpt lat="47.25694" lon="-2.32422">
        <ele>3.2000000476837</ele>
        <time>2019-08-11T07:13:50.000Z</time>
      </trkpt>
      <trkpt lat="47.25699" lon="-2.32423">
        <ele>3.2000000476837</ele>
        <time>2019-08-11T07:13:51.000Z</time>
      </trkpt>
      <trkpt lat="47.25722" lon="-2.32424">
        <ele>3.2000000476837</ele>
        <time>2019-08-11T07:13:55.000Z</time>
      </trkpt>
      <trkpt lat="47.25756" lon="-2.32423">
        <ele>3.2000000476837</ele>
        <time>2019-08-11T07:14:01.000Z</time>
      </trkpt>
      <trkpt lat="47.25768" lon="-2.32421">
        <ele>3.2000000476837</ele>
        <time>2019-08-11T07:14:04.000Z</time>
      </trkpt>
      <trkpt lat="47.25773" lon="-2.32419">
        <ele>3.2000000476837</ele>
        <time>2019-08-11T07:14:05.000Z</time>
      </trkpt>
      <trkpt lat="47.25777" lon="-2.32418">
        <ele>3.2000000476837</ele>
        <time>2019-08-11T07:14:06.000Z</time>
      </trkpt>
      <trkpt lat="47.2579" lon="-2.32427">
        <ele>3.2000000476837</ele>
        <time>2019-08-11T07:14:09.000Z</time>
      </trkpt>
      <trkpt lat="47.258" lon="-2.32446">
        <ele>3.2000000476837</ele>
        <time>2019-08-11T07:14:12.000Z</time>
      </trkpt>
      <trkpt lat="47.25804" lon="-2.32451">
        <ele>3.2000000476837</ele>
        <time>2019-08-11T07:14:13.000Z</time>
      </trkpt>
      <trkpt lat="47.25826" lon="-2.32465">
        <ele>3.2000000476837</ele>
        <time>2019-08-11T07:14:17.000Z</time>
      </trkpt>
      <trkpt lat="47.25855" lon="-2.32474">
        <ele>3.2000000476837</ele>
        <time>2019-08-11T07:14:22.000Z</time>
      </trkpt>
      <trkpt lat="47.25861" lon="-2.32474">
        <ele>3.2000000476837</ele>
        <time>2019-08-11T07:14:23.000Z</time>
      </trkpt>
      <trkpt lat="47.25887" lon="-2.32469">
        <ele>3.2000000476837</ele>
        <time>2019-08-11T07:14:28.000Z</time>
      </trkpt>
      <trkpt lat="47.25893" lon="-2.32467">
        <ele>3.2000000476837</ele>
        <time>2019-08-11T07:14:29.000Z</time>
      </trkpt>
      <trkpt lat="47.25908" lon="-2.32452">
        <ele>3.2000000476837</ele>
        <time>2019-08-11T07:14:32.000Z</time>
      </trkpt>
      <trkpt lat="47.25913" lon="-2.32446">
        <ele>3.2000000476837</ele>
        <time>2019-08-11T07:14:33.000Z</time>
      </trkpt>
      <trkpt lat="47.25938" lon="-2.32411">
        <ele>3.2000000476837</ele>
        <time>2019-08-11T07:14:39.000Z</time>
      </trkpt>
      <trkpt lat="47.25977" lon="-2.32359">
        <ele>3.2000000476837</ele>
        <time>2019-08-11T07:14:48.000Z</time>
      </trkpt>
      <trkpt lat="47.26009" lon="-2.32319">
        <ele>3.2000000476837</ele>
        <time>2019-08-11T07:14:55.000Z</time>
      </trkpt>
      <trkpt lat="47.26013" lon="-2.32314">
        <ele>3.2000000476837</ele>
        <time>2019-08-11T07:14:56.000Z</time>
      </trkpt>
      <trkpt lat="47.26044" lon="-2.32278">
        <ele>3.2000000476837</ele>
        <time>2019-08-11T07:15:03.000Z</time>
      </trkpt>
      <trkpt lat="47.26074" lon="-2.32243">
        <ele>3.2000000476837</ele>
        <time>2019-08-11T07:15:10.000Z</time>
      </trkpt>
      <trkpt lat="47.26083" lon="-2.32231">
        <ele>3.2000000476837</ele>
        <time>2019-08-11T07:15:12.000Z</time>
      </trkpt>
      <trkpt lat="47.26096" lon="-2.32213">
        <ele>3.2000000476837</ele>
        <time>2019-08-11T07:15:15.000Z</time>
      </trkpt>
      <trkpt lat="47.26099" lon="-2.32206">
        <ele>3.2000000476837</ele>
        <time>2019-08-11T07:15:16.000Z</time>
      </trkpt>
      <trkpt lat="47.26111" lon="-2.32177">
        <ele>3.2000000476837</ele>
        <time>2019-08-11T07:15:20.000Z</time>
      </trkpt>
      <trkpt lat="47.26124" lon="-2.32139">
        <ele>3.2000000476837</ele>
        <time>2019-08-11T07:15:25.000Z</time>
      </trkpt>
      <trkpt lat="47.26136" lon="-2.32099">
        <ele>3.2000000476837</ele>
        <time>2019-08-11T07:15:30.000Z</time>
      </trkpt>
      <trkpt lat="47.26139" lon="-2.32091">
        <ele>3.2000000476837</ele>
        <time>2019-08-11T07:15:31.000Z</time>
      </trkpt>
      <trkpt lat="47.26152" lon="-2.32049">
        <ele>3.2000000476837</ele>
        <time>2019-08-11T07:15:37.000Z</time>
      </trkpt>
      <trkpt lat="47.2616" lon="-2.32032">
        <ele>3.2000000476837</ele>
        <time>2019-08-11T07:15:40.000Z</time>
      </trkpt>
      <trkpt lat="47.26165" lon="-2.32022">
        <ele>2.7999999523163</ele>
        <time>2019-08-11T07:15:42.000Z</time>
      </trkpt>
      <trkpt lat="47.26168" lon="-2.32019">
        <ele>2.4000000953674</ele>
        <time>2019-08-11T07:15:43.000Z</time>
      </trkpt>
      <trkpt lat="47.26171" lon="-2.32018">
        <ele>2</ele>
        <time>2019-08-11T07:15:44.000Z</time>
      </trkpt>
      <trkpt lat="47.26174" lon="-2.32019">
        <ele>1.6000000238419</ele>
        <time>2019-08-11T07:15:45.000Z</time>
      </trkpt>
      <trkpt lat="47.26176" lon="-2.3202">
        <ele>1.2000000476837</ele>
        <time>2019-08-11T07:15:46.000Z</time>
      </trkpt>
      <trkpt lat="47.26183" lon="-2.32021">
        <ele>1.2000000476837</ele>
        <time>2019-08-11T07:15:51.000Z</time>
      </trkpt>
      <trkpt lat="47.26191" lon="-2.32026">
        <ele>1.2000000476837</ele>
        <time>2019-08-11T07:15:56.000Z</time>
      </trkpt>
      <trkpt lat="47.26194" lon="-2.32026">
        <ele>1.2000000476837</ele>
        <time>2019-08-11T07:15:57.000Z</time>
      </trkpt>
      <trkpt lat="47.26195" lon="-2.32021">
        <ele>1.2000000476837</ele>
        <time>2019-08-11T07:16:00.000Z</time>
      </trkpt>
      <trkpt lat="47.26201" lon="-2.32008">
        <ele>1.2000000476837</ele>
        <time>2019-08-11T07:16:04.000Z</time>
      </trkpt>
      <trkpt lat="47.2621" lon="-2.32001">
        <ele>1.2000000476837</ele>
        <time>2019-08-11T07:16:08.000Z</time>
      </trkpt>
      <trkpt lat="47.26214" lon="-2.31996">
        <ele>1.2000000476837</ele>
        <time>2019-08-11T07:16:10.000Z</time>
      </trkpt>
      <trkpt lat="47.26222" lon="-2.31989">
        <ele>1.2000000476837</ele>
        <time>2019-08-11T07:16:13.000Z</time>
      </trkpt>
      <trkpt lat="47.26228" lon="-2.31989">
        <ele>1.2000000476837</ele>
        <time>2019-08-11T07:16:15.000Z</time>
      </trkpt>
      <trkpt lat="47.26244" lon="-2.31978">
        <ele>1.2000000476837</ele>
        <time>2019-08-11T07:16:19.000Z</time>
      </trkpt>
      <trkpt lat="47.26248" lon="-2.31964">
        <ele>1.2000000476837</ele>
        <time>2019-08-11T07:16:21.000Z</time>
      </trkpt>
      <trkpt lat="47.2625" lon="-2.31958">
        <ele>1.2000000476837</ele>
        <time>2019-08-11T07:16:22.000Z</time>
      </trkpt>
      <trkpt lat="47.26263" lon="-2.3193">
        <ele>1.2000000476837</ele>
        <time>2019-08-11T07:16:28.000Z</time>
      </trkpt>
      <trkpt lat="47.26282" lon="-2.31911">
        <ele>1.2000000476837</ele>
        <time>2019-08-11T07:16:33.000Z</time>
      </trkpt>
      <trkpt lat="47.26287" lon="-2.31909">
        <ele>1.2000000476837</ele>
        <time>2019-08-11T07:16:34.000Z</time>
      </trkpt>
      <trkpt lat="47.26291" lon="-2.31912">
        <ele>1.2000000476837</ele>
        <time>2019-08-11T07:16:36.000Z</time>
      </trkpt>
      <trkpt lat="47.26295" lon="-2.31924">
        <ele>1.2000000476837</ele>
        <time>2019-08-11T07:16:40.000Z</time>
      </trkpt>
      <trkpt lat="47.26299" lon="-2.31929">
        <ele>1.2000000476837</ele>
        <time>2019-08-11T07:16:41.000Z</time>
      </trkpt>
      <trkpt lat="47.26305" lon="-2.31932">
        <ele>1.2000000476837</ele>
        <time>2019-08-11T07:16:43.000Z</time>
      </trkpt>
      <trkpt lat="47.26312" lon="-2.31931">
        <ele>1.2000000476837</ele>
        <time>2019-08-11T07:16:45.000Z</time>
      </trkpt>
      <trkpt lat="47.26321" lon="-2.31929">
        <ele>1.2000000476837</ele>
        <time>2019-08-11T07:16:48.000Z</time>
      </trkpt>
      <trkpt lat="47.26337" lon="-2.31935">
        <ele>1.2000000476837</ele>
        <time>2019-08-11T07:16:52.000Z</time>
      </trkpt>
      <trkpt lat="47.26339" lon="-2.3194">
        <ele>1.6000000238419</ele>
        <time>2019-08-11T07:16:53.000Z</time>
      </trkpt>
      <trkpt lat="47.26341" lon="-2.31944">
        <ele>2</ele>
        <time>2019-08-11T07:16:54.000Z</time>
      </trkpt>
      <trkpt lat="47.26343" lon="-2.3195">
        <ele>2.4000000953674</ele>
        <time>2019-08-11T07:16:55.000Z</time>
      </trkpt>
      <trkpt lat="47.26345" lon="-2.31955">
        <ele>2.7999999523163</ele>
        <time>2019-08-11T07:16:56.000Z</time>
      </trkpt>
      <trkpt lat="47.2635" lon="-2.31962">
        <ele>3.2000000476837</ele>
        <time>2019-08-11T07:16:57.000Z</time>
      </trkpt>
      <trkpt lat="47.26351" lon="-2.31966">
        <ele>3.2000000476837</ele>
        <time>2019-08-11T07:16:58.000Z</time>
      </trkpt>
      <trkpt lat="47.26356" lon="-2.31975">
        <ele>3.2000000476837</ele>
        <time>2019-08-11T07:17:00.000Z</time>
      </trkpt>
      <trkpt lat="47.2636" lon="-2.31978">
        <ele>3.2000000476837</ele>
        <time>2019-08-11T07:17:01.000Z</time>
      </trkpt>
      <trkpt lat="47.26369" lon="-2.31981">
        <ele>3.2000000476837</ele>
        <time>2019-08-11T07:17:03.000Z</time>
      </trkpt>
      <trkpt lat="47.26377" lon="-2.31983">
        <ele>3.2000000476837</ele>
        <time>2019-08-11T07:17:06.000Z</time>
      </trkpt>
      <trkpt lat="47.2638" lon="-2.31983">
        <ele>3.2000000476837</ele>
        <time>2019-08-11T07:17:07.000Z</time>
      </trkpt>
      <trkpt lat="47.26383" lon="-2.31984">
        <ele>3.5999999046326</ele>
        <time>2019-08-11T07:17:08.000Z</time>
      </trkpt>
      <trkpt lat="47.26387" lon="-2.31986">
        <ele>4.4000000953674</ele>
        <time>2019-08-11T07:17:09.000Z</time>
      </trkpt>
      <trkpt lat="47.26389" lon="-2.31986">
        <ele>4.8000001907349</ele>
        <time>2019-08-11T07:17:10.000Z</time>
      </trkpt>
      <trkpt lat="47.26391" lon="-2.31987">
        <ele>5.1999998092651</ele>
        <time>2019-08-11T07:17:11.000Z</time>
      </trkpt>
      <trkpt lat="47.26393" lon="-2.31988">
        <ele>5.1999998092651</ele>
        <time>2019-08-11T07:17:12.000Z</time>
      </trkpt>
      <trkpt lat="47.26399" lon="-2.3199">
        <ele>5.5999999046326</ele>
        <time>2019-08-11T07:17:15.000Z</time>
      </trkpt>
      <trkpt lat="47.26402" lon="-2.3199">
        <ele>6</ele>
        <time>2019-08-11T07:17:16.000Z</time>
      </trkpt>
      <trkpt lat="47.26407" lon="-2.31992">
        <ele>6.4000000953674</ele>
        <time>2019-08-11T07:17:17.000Z</time>
      </trkpt>
      <trkpt lat="47.26411" lon="-2.31993">
        <ele>6.8000001907349</ele>
        <time>2019-08-11T07:17:18.000Z</time>
      </trkpt>
      <trkpt lat="47.26415" lon="-2.31994">
        <ele>7.1999998092651</ele>
        <time>2019-08-11T07:17:19.000Z</time>
      </trkpt>
      <trkpt lat="47.26428" lon="-2.31995">
        <ele>7.1999998092651</ele>
        <time>2019-08-11T07:17:23.000Z</time>
      </trkpt>
      <trkpt lat="47.26446" lon="-2.31997">
        <ele>7.5999999046326</ele>
        <time>2019-08-11T07:17:28.000Z</time>
      </trkpt>
      <trkpt lat="47.26449" lon="-2.31997">
        <ele>8</ele>
        <time>2019-08-11T07:17:29.000Z</time>
      </trkpt>
      <trkpt lat="47.26451" lon="-2.31998">
        <ele>8.6000003814697</ele>
        <time>2019-08-11T07:17:30.000Z</time>
      </trkpt>
      <trkpt lat="47.26454" lon="-2.31998">
        <ele>9</ele>
        <time>2019-08-11T07:17:31.000Z</time>
      </trkpt>
      <trkpt lat="47.26456" lon="-2.31997">
        <ele>9.3999996185303</ele>
        <time>2019-08-11T07:17:32.000Z</time>
      </trkpt>
      <trkpt lat="47.26461" lon="-2.31998">
        <ele>9.3999996185303</ele>
        <time>2019-08-11T07:17:34.000Z</time>
      </trkpt>
      <trkpt lat="47.26476" lon="-2.31999">
        <ele>9.8000001907349</ele>
        <time>2019-08-11T07:17:39.000Z</time>
      </trkpt>
      <trkpt lat="47.26477" lon="-2.31999">
        <ele>10.199999809265</ele>
        <time>2019-08-11T07:17:40.000Z</time>
      </trkpt>
      <trkpt lat="47.2648" lon="-2.32">
        <ele>10.60000038147</ele>
        <time>2019-08-11T07:17:41.000Z</time>
      </trkpt>
      <trkpt lat="47.26482" lon="-2.32">
        <ele>11</ele>
        <time>2019-08-11T07:17:42.000Z</time>
      </trkpt>
      <trkpt lat="47.26485" lon="-2.32">
        <ele>11.60000038147</ele>
        <time>2019-08-11T07:17:43.000Z</time>
      </trkpt>
      <trkpt lat="47.2649" lon="-2.31998">
        <ele>11.60000038147</ele>
        <time>2019-08-11T07:17:45.000Z</time>
      </trkpt>
      <trkpt lat="47.26492" lon="-2.31997">
        <ele>11.60000038147</ele>
        <time>2019-08-11T07:17:46.000Z</time>
      </trkpt>
      <trkpt lat="47.26504" lon="-2.31993">
        <ele>12</ele>
        <time>2019-08-11T07:17:52.000Z</time>
      </trkpt>
      <trkpt lat="47.26507" lon="-2.31993">
        <ele>12.39999961853</ele>
        <time>2019-08-11T07:17:53.000Z</time>
      </trkpt>
      <trkpt lat="47.26509" lon="-2.31994">
        <ele>12.800000190735</ele>
        <time>2019-08-11T07:17:54.000Z</time>
      </trkpt>
      <trkpt lat="47.26512" lon="-2.31994">
        <ele>13.199999809265</ele>
        <time>2019-08-11T07:17:55.000Z</time>
      </trkpt>
      <trkpt lat="47.26513" lon="-2.31994">
        <ele>13.60000038147</ele>
        <time>2019-08-11T07:17:56.000Z</time>
      </trkpt>
      <trkpt lat="47.26515" lon="-2.31995">
        <ele>13.60000038147</ele>
        <time>2019-08-11T07:17:57.000Z</time>
      </trkpt>
      <trkpt lat="47.26522" lon="-2.31997">
        <ele>14.39999961853</ele>
        <time>2019-08-11T07:17:59.000Z</time>
      </trkpt>
      <trkpt lat="47.26525" lon="-2.31998">
        <ele>14.800000190735</ele>
        <time>2019-08-11T07:18:00.000Z</time>
      </trkpt>
      <trkpt lat="47.26527" lon="-2.32">
        <ele>15.199999809265</ele>
        <time>2019-08-11T07:18:01.000Z</time>
      </trkpt>
      <trkpt lat="47.26528" lon="-2.32002">
        <ele>15.60000038147</ele>
        <time>2019-08-11T07:18:02.000Z</time>
      </trkpt>
      <trkpt lat="47.26531" lon="-2.32007">
        <ele>15.60000038147</ele>
        <time>2019-08-11T07:18:05.000Z</time>
      </trkpt>
      <trkpt lat="47.26539" lon="-2.3202">
        <ele>15.60000038147</ele>
        <time>2019-08-11T07:18:10.000Z</time>
      </trkpt>
      <trkpt lat="47.26543" lon="-2.32033">
        <ele>15.60000038147</ele>
        <time>2019-08-11T07:18:14.000Z</time>
      </trkpt>
      <trkpt lat="47.26545" lon="-2.32035">
        <ele>15.60000038147</ele>
        <time>2019-08-11T07:18:15.000Z</time>
      </trkpt>
      <trkpt lat="47.26548" lon="-2.32035">
        <ele>16</ele>
        <time>2019-08-11T07:18:16.000Z</time>
      </trkpt>
      <trkpt lat="47.26551" lon="-2.32035">
        <ele>16.39999961853</ele>
        <time>2019-08-11T07:18:17.000Z</time>
      </trkpt>
      <trkpt lat="47.26554" lon="-2.32034">
        <ele>16.799999237061</ele>
        <time>2019-08-11T07:18:18.000Z</time>
      </trkpt>
      <trkpt lat="47.26558" lon="-2.32033">
        <ele>17.200000762939</ele>
        <time>2019-08-11T07:18:19.000Z</time>
      </trkpt>
      <trkpt lat="47.26562" lon="-2.32032">
        <ele>17.60000038147</ele>
        <time>2019-08-11T07:18:20.000Z</time>
      </trkpt>
      <trkpt lat="47.26578" lon="-2.32027">
        <ele>18</ele>
        <time>2019-08-11T07:18:24.000Z</time>
      </trkpt>
      <trkpt lat="47.26582" lon="-2.32026">
        <ele>18.39999961853</ele>
        <time>2019-08-11T07:18:25.000Z</time>
      </trkpt>
      <trkpt lat="47.26586" lon="-2.32024">
        <ele>18.799999237061</ele>
        <time>2019-08-11T07:18:26.000Z</time>
      </trkpt>
      <trkpt lat="47.2659" lon="-2.32022">
        <ele>19.200000762939</ele>
        <time>2019-08-11T07:18:27.000Z</time>
      </trkpt>
      <trkpt lat="47.26595" lon="-2.32021">
        <ele>19.60000038147</ele>
        <time>2019-08-11T07:18:28.000Z</time>
      </trkpt>
      <trkpt lat="47.26616" lon="-2.32014">
        <ele>19.60000038147</ele>
        <time>2019-08-11T07:18:33.000Z</time>
      </trkpt>
      <trkpt lat="47.26642" lon="-2.32005">
        <ele>19.60000038147</ele>
        <time>2019-08-11T07:18:40.000Z</time>
      </trkpt>
      <trkpt lat="47.26649" lon="-2.32009">
        <ele>19.60000038147</ele>
        <time>2019-08-11T07:18:42.000Z</time>
      </trkpt>
      <trkpt lat="47.26651" lon="-2.32014">
        <ele>19.60000038147</ele>
        <time>2019-08-11T07:18:43.000Z</time>
      </trkpt>
      <trkpt lat="47.26658" lon="-2.32047">
        <ele>20.39999961853</ele>
        <time>2019-08-11T07:18:48.000Z</time>
      </trkpt>
      <trkpt lat="47.26659" lon="-2.32054">
        <ele>21</ele>
        <time>2019-08-11T07:18:49.000Z</time>
      </trkpt>
      <trkpt lat="47.26661" lon="-2.32062">
        <ele>21.39999961853</ele>
        <time>2019-08-11T07:18:50.000Z</time>
      </trkpt>
      <trkpt lat="47.26662" lon="-2.32069">
        <ele>21.799999237061</ele>
        <time>2019-08-11T07:18:51.000Z</time>
      </trkpt>
      <trkpt lat="47.26668" lon="-2.32098">
        <ele>21.799999237061</ele>
        <time>2019-08-11T07:18:55.000Z</time>
      </trkpt>
      <trkpt lat="47.26673" lon="-2.32118">
        <ele>21.799999237061</ele>
        <time>2019-08-11T07:18:58.000Z</time>
      </trkpt>
      <trkpt lat="47.26678" lon="-2.32124">
        <ele>21.799999237061</ele>
        <time>2019-08-11T07:19:00.000Z</time>
      </trkpt>
      <trkpt lat="47.26683" lon="-2.32114">
        <ele>21.799999237061</ele>
        <time>2019-08-11T07:19:03.000Z</time>
      </trkpt>
      <trkpt lat="47.26685" lon="-2.32082">
        <ele>21.799999237061</ele>
        <time>2019-08-11T07:19:08.000Z</time>
      </trkpt>
      <trkpt lat="47.26685" lon="-2.32067">
        <ele>21.799999237061</ele>
        <time>2019-08-11T07:19:10.000Z</time>
      </trkpt>
      <trkpt lat="47.26686" lon="-2.32047">
        <ele>21.799999237061</ele>
        <time>2019-08-11T07:19:13.000Z</time>
      </trkpt>
      <trkpt lat="47.26689" lon="-2.32029">
        <ele>21.799999237061</ele>
        <time>2019-08-11T07:19:16.000Z</time>
      </trkpt>
      <trkpt lat="47.26692" lon="-2.32024">
        <ele>21.799999237061</ele>
        <time>2019-08-11T07:19:17.000Z</time>
      </trkpt>
      <trkpt lat="47.26704" lon="-2.32003">
        <ele>21.799999237061</ele>
        <time>2019-08-11T07:19:21.000Z</time>
      </trkpt>
      <trkpt lat="47.26709" lon="-2.31999">
        <ele>21.799999237061</ele>
        <time>2019-08-11T07:19:22.000Z</time>
      </trkpt>
      <trkpt lat="47.26734" lon="-2.31985">
        <ele>21.799999237061</ele>
        <time>2019-08-11T07:19:27.000Z</time>
      </trkpt>
      <trkpt lat="47.2674" lon="-2.31981">
        <ele>21.39999961853</ele>
        <time>2019-08-11T07:19:28.000Z</time>
      </trkpt>
      <trkpt lat="47.26745" lon="-2.31977">
        <ele>21</ele>
        <time>2019-08-11T07:19:29.000Z</time>
      </trkpt>
      <trkpt lat="47.26748" lon="-2.31973">
        <ele>20.39999961853</ele>
        <time>2019-08-11T07:19:30.000Z</time>
      </trkpt>
      <trkpt lat="47.26752" lon="-2.31967">
        <ele>20</ele>
        <time>2019-08-11T07:19:31.000Z</time>
      </trkpt>
      <trkpt lat="47.26755" lon="-2.3196">
        <ele>19.60000038147</ele>
        <time>2019-08-11T07:19:32.000Z</time>
      </trkpt>
      <trkpt lat="47.2676" lon="-2.31946">
        <ele>19.60000038147</ele>
        <time>2019-08-11T07:19:34.000Z</time>
      </trkpt>
      <trkpt lat="47.26761" lon="-2.3194">
        <ele>19.60000038147</ele>
        <time>2019-08-11T07:19:35.000Z</time>
      </trkpt>
      <trkpt lat="47.26757" lon="-2.31923">
        <ele>19.60000038147</ele>
        <time>2019-08-11T07:19:38.000Z</time>
      </trkpt>
      <trkpt lat="47.26754" lon="-2.31917">
        <ele>19.60000038147</ele>
        <time>2019-08-11T07:19:39.000Z</time>
      </trkpt>
      <trkpt lat="47.2674" lon="-2.31889">
        <ele>19.60000038147</ele>
        <time>2019-08-11T07:19:44.000Z</time>
      </trkpt>
      <trkpt lat="47.26735" lon="-2.31868">
        <ele>19.60000038147</ele>
        <time>2019-08-11T07:19:48.000Z</time>
      </trkpt>
      <trkpt lat="47.26741" lon="-2.31856">
        <ele>19.60000038147</ele>
        <time>2019-08-11T07:19:51.000Z</time>
      </trkpt>
      <trkpt lat="47.26747" lon="-2.31848">
        <ele>19.60000038147</ele>
        <time>2019-08-11T07:19:53.000Z</time>
      </trkpt>
      <trkpt lat="47.26751" lon="-2.31844">
        <ele>20</ele>
        <time>2019-08-11T07:19:54.000Z</time>
      </trkpt>
      <trkpt lat="47.26756" lon="-2.31841">
        <ele>20.39999961853</ele>
        <time>2019-08-11T07:19:55.000Z</time>
      </trkpt>
      <trkpt lat="47.2676" lon="-2.31837">
        <ele>20.799999237061</ele>
        <time>2019-08-11T07:19:56.000Z</time>
      </trkpt>
      <trkpt lat="47.26764" lon="-2.31834">
        <ele>21.200000762939</ele>
        <time>2019-08-11T07:19:57.000Z</time>
      </trkpt>
      <trkpt lat="47.26769" lon="-2.3183">
        <ele>21.60000038147</ele>
        <time>2019-08-11T07:19:58.000Z</time>
      </trkpt>
      <trkpt lat="47.26778" lon="-2.31823">
        <ele>21.60000038147</ele>
        <time>2019-08-11T07:20:00.000Z</time>
      </trkpt>
      <trkpt lat="47.26788" lon="-2.31818">
        <ele>21.60000038147</ele>
        <time>2019-08-11T07:20:02.000Z</time>
      </trkpt>
      <trkpt lat="47.26812" lon="-2.31806">
        <ele>21.60000038147</ele>
        <time>2019-08-11T07:20:07.000Z</time>
      </trkpt>
      <trkpt lat="47.26815" lon="-2.31806">
        <ele>21.60000038147</ele>
        <time>2019-08-11T07:20:08.000Z</time>
      </trkpt>
      <trkpt lat="47.26818" lon="-2.31815">
        <ele>21.60000038147</ele>
        <time>2019-08-11T07:20:11.000Z</time>
      </trkpt>
      <trkpt lat="47.26821" lon="-2.31825">
        <ele>21.60000038147</ele>
        <time>2019-08-11T07:20:13.000Z</time>
      </trkpt>
      <trkpt lat="47.26823" lon="-2.3183">
        <ele>21.60000038147</ele>
        <time>2019-08-11T07:20:14.000Z</time>
      </trkpt>
      <trkpt lat="47.26837" lon="-2.31865">
        <ele>21.200000762939</ele>
        <time>2019-08-11T07:20:19.000Z</time>
      </trkpt>
      <trkpt lat="47.2684" lon="-2.31872">
        <ele>20.799999237061</ele>
        <time>2019-08-11T07:20:20.000Z</time>
      </trkpt>
      <trkpt lat="47.26843" lon="-2.31878">
        <ele>20.39999961853</ele>
        <time>2019-08-11T07:20:21.000Z</time>
      </trkpt>
      <trkpt lat="47.26848" lon="-2.31884">
        <ele>20</ele>
        <time>2019-08-11T07:20:22.000Z</time>
      </trkpt>
      <trkpt lat="47.26854" lon="-2.31887">
        <ele>19.39999961853</ele>
        <time>2019-08-11T07:20:23.000Z</time>
      </trkpt>
      <trkpt lat="47.26871" lon="-2.31892">
        <ele>19</ele>
        <time>2019-08-11T07:20:26.000Z</time>
      </trkpt>
      <trkpt lat="47.26876" lon="-2.31894">
        <ele>18.200000762939</ele>
        <time>2019-08-11T07:20:27.000Z</time>
      </trkpt>
      <trkpt lat="47.26881" lon="-2.31897">
        <ele>17.799999237061</ele>
        <time>2019-08-11T07:20:28.000Z</time>
      </trkpt>
      <trkpt lat="47.26886" lon="-2.31902">
        <ele>17.39999961853</ele>
        <time>2019-08-11T07:20:29.000Z</time>
      </trkpt>
      <trkpt lat="47.26894" lon="-2.31912">
        <ele>17.39999961853</ele>
        <time>2019-08-11T07:20:31.000Z</time>
      </trkpt>
      <trkpt lat="47.26897" lon="-2.31918">
        <ele>17.39999961853</ele>
        <time>2019-08-11T07:20:32.000Z</time>
      </trkpt>
      <trkpt lat="47.26901" lon="-2.31924">
        <ele>16.799999237061</ele>
        <time>2019-08-11T07:20:33.000Z</time>
      </trkpt>
      <trkpt lat="47.26906" lon="-2.3193">
        <ele>16.39999961853</ele>
        <time>2019-08-11T07:20:34.000Z</time>
      </trkpt>
      <trkpt lat="47.26911" lon="-2.31936">
        <ele>16</ele>
        <time>2019-08-11T07:20:35.000Z</time>
      </trkpt>
      <trkpt lat="47.26915" lon="-2.31943">
        <ele>15.60000038147</ele>
        <time>2019-08-11T07:20:36.000Z</time>
      </trkpt>
      <trkpt lat="47.2692" lon="-2.31949">
        <ele>15.199999809265</ele>
        <time>2019-08-11T07:20:37.000Z</time>
      </trkpt>
      <trkpt lat="47.26929" lon="-2.31961">
        <ele>15.199999809265</ele>
        <time>2019-08-11T07:20:39.000Z</time>
      </trkpt>
      <trkpt lat="47.26933" lon="-2.31968">
        <ele>14.800000190735</ele>
        <time>2019-08-11T07:20:40.000Z</time>
      </trkpt>
      <trkpt lat="47.26937" lon="-2.31975">
        <ele>14.39999961853</ele>
        <time>2019-08-11T07:20:41.000Z</time>
      </trkpt>
      <trkpt lat="47.26942" lon="-2.31982">
        <ele>14</ele>
        <time>2019-08-11T07:20:42.000Z</time>
      </trkpt>
      <trkpt lat="47.26946" lon="-2.31988">
        <ele>13.60000038147</ele>
        <time>2019-08-11T07:20:43.000Z</time>
      </trkpt>
      <trkpt lat="47.26949" lon="-2.31993">
        <ele>13.199999809265</ele>
        <time>2019-08-11T07:20:44.000Z</time>
      </trkpt>
      <trkpt lat="47.26953" lon="-2.31996">
        <ele>12.800000190735</ele>
        <time>2019-08-11T07:20:45.000Z</time>
      </trkpt>
      <trkpt lat="47.26956" lon="-2.31996">
        <ele>12.199999809265</ele>
        <time>2019-08-11T07:20:46.000Z</time>
      </trkpt>
      <trkpt lat="47.2696" lon="-2.31996">
        <ele>11.800000190735</ele>
        <time>2019-08-11T07:20:47.000Z</time>
      </trkpt>
      <trkpt lat="47.26964" lon="-2.31995">
        <ele>11.39999961853</ele>
        <time>2019-08-11T07:20:48.000Z</time>
      </trkpt>
      <trkpt lat="47.26967" lon="-2.31994">
        <ele>11</ele>
        <time>2019-08-11T07:20:49.000Z</time>
      </trkpt>
      <trkpt lat="47.26985" lon="-2.31992">
        <ele>11</ele>
        <time>2019-08-11T07:20:53.000Z</time>
      </trkpt>
      <trkpt lat="47.26993" lon="-2.3199">
        <ele>11</ele>
        <time>2019-08-11T07:20:55.000Z</time>
      </trkpt>
      <trkpt lat="47.26997" lon="-2.31989">
        <ele>11</ele>
        <time>2019-08-11T07:20:56.000Z</time>
      </trkpt>
      <trkpt lat="47.27" lon="-2.31992">
        <ele>10.60000038147</ele>
        <time>2019-08-11T07:20:57.000Z</time>
      </trkpt>
      <trkpt lat="47.27002" lon="-2.31995">
        <ele>10.199999809265</ele>
        <time>2019-08-11T07:20:58.000Z</time>
      </trkpt>
      <trkpt lat="47.27004" lon="-2.32">
        <ele>9.8000001907349</ele>
        <time>2019-08-11T07:20:59.000Z</time>
      </trkpt>
      <trkpt lat="47.27006" lon="-2.32005">
        <ele>9.3999996185303</ele>
        <time>2019-08-11T07:21:00.000Z</time>
      </trkpt>
      <trkpt lat="47.27009" lon="-2.32011">
        <ele>9</ele>
        <time>2019-08-11T07:21:01.000Z</time>
      </trkpt>
      <trkpt lat="47.27012" lon="-2.32018">
        <ele>9</ele>
        <time>2019-08-11T07:21:02.000Z</time>
      </trkpt>
      <trkpt lat="47.27014" lon="-2.32026">
        <ele>9</ele>
        <time>2019-08-11T07:21:03.000Z</time>
      </trkpt>
      <trkpt lat="47.27018" lon="-2.32053">
        <ele>9</ele>
        <time>2019-08-11T07:21:06.000Z</time>
      </trkpt>
      <trkpt lat="47.27018" lon="-2.32063">
        <ele>9</ele>
        <time>2019-08-11T07:21:07.000Z</time>
      </trkpt>
      <trkpt lat="47.27017" lon="-2.32089">
        <ele>9</ele>
        <time>2019-08-11T07:21:10.000Z</time>
      </trkpt>
      <trkpt lat="47.27013" lon="-2.32104">
        <ele>8.6000003814697</ele>
        <time>2019-08-11T07:21:12.000Z</time>
      </trkpt>
      <trkpt lat="47.27011" lon="-2.3211">
        <ele>8.1999998092651</ele>
        <time>2019-08-11T07:21:13.000Z</time>
      </trkpt>
      <trkpt lat="47.27007" lon="-2.32115">
        <ele>7.8000001907349</ele>
        <time>2019-08-11T07:21:14.000Z</time>
      </trkpt>
      <trkpt lat="47.27002" lon="-2.32119">
        <ele>7.4000000953674</ele>
        <time>2019-08-11T07:21:15.000Z</time>
      </trkpt>
      <trkpt lat="47.26998" lon="-2.32125">
        <ele>7</ele>
        <time>2019-08-11T07:21:16.000Z</time>
      </trkpt>
      <trkpt lat="47.26994" lon="-2.32139">
        <ele>7</ele>
        <time>2019-08-11T07:21:18.000Z</time>
      </trkpt>
      <trkpt lat="47.27002" lon="-2.32159">
        <ele>7</ele>
        <time>2019-08-11T07:21:21.000Z</time>
      </trkpt>
      <trkpt lat="47.27016" lon="-2.32183">
        <ele>7</ele>
        <time>2019-08-11T07:21:25.000Z</time>
      </trkpt>
      <trkpt lat="47.2702" lon="-2.3219">
        <ele>7</ele>
        <time>2019-08-11T07:21:26.000Z</time>
      </trkpt>
      <trkpt lat="47.27027" lon="-2.32212">
        <ele>7</ele>
        <time>2019-08-11T07:21:29.000Z</time>
      </trkpt>
      <trkpt lat="47.27027" lon="-2.32237">
        <ele>7</ele>
        <time>2019-08-11T07:21:32.000Z</time>
      </trkpt>
      <trkpt lat="47.27026" lon="-2.32245">
        <ele>7</ele>
        <time>2019-08-11T07:21:33.000Z</time>
      </trkpt>
      <trkpt lat="47.27026" lon="-2.32253">
        <ele>7</ele>
        <time>2019-08-11T07:21:34.000Z</time>
      </trkpt>
      <trkpt lat="47.27029" lon="-2.32285">
        <ele>7</ele>
        <time>2019-08-11T07:21:38.000Z</time>
      </trkpt>
      <trkpt lat="47.27032" lon="-2.32337">
        <ele>7</ele>
        <time>2019-08-11T07:21:44.000Z</time>
      </trkpt>
      <trkpt lat="47.27036" lon="-2.32394">
        <ele>7</ele>
        <time>2019-08-11T07:21:50.000Z</time>
      </trkpt>
      <trkpt lat="47.27037" lon="-2.32405">
        <ele>7</ele>
        <time>2019-08-11T07:21:51.000Z</time>
      </trkpt>
      <trkpt lat="47.2704" lon="-2.32425">
        <ele>7</ele>
        <time>2019-08-11T07:21:53.000Z</time>
      </trkpt>
      <trkpt lat="47.2704" lon="-2.32444">
        <ele>7</ele>
        <time>2019-08-11T07:21:55.000Z</time>
      </trkpt>
      <trkpt lat="47.2704" lon="-2.32471">
        <ele>7</ele>
        <time>2019-08-11T07:21:58.000Z</time>
      </trkpt>
      <trkpt lat="47.27035" lon="-2.32486">
        <ele>7</ele>
        <time>2019-08-11T07:22:00.000Z</time>
      </trkpt>
      <trkpt lat="47.27018" lon="-2.32501">
        <ele>7</ele>
        <time>2019-08-11T07:22:03.000Z</time>
      </trkpt>
      <trkpt lat="47.27003" lon="-2.32493">
        <ele>7</ele>
        <time>2019-08-11T07:22:06.000Z</time>
      </trkpt>
      <trkpt lat="47.26992" lon="-2.32475">
        <ele>7</ele>
        <time>2019-08-11T07:22:09.000Z</time>
      </trkpt>
      <trkpt lat="47.26981" lon="-2.32456">
        <ele>7</ele>
        <time>2019-08-11T07:22:12.000Z</time>
      </trkpt>
      <trkpt lat="47.26973" lon="-2.32446">
        <ele>7</ele>
        <time>2019-08-11T07:22:14.000Z</time>
      </trkpt>
      <trkpt lat="47.26957" lon="-2.32424">
        <ele>7</ele>
        <time>2019-08-11T07:22:18.000Z</time>
      </trkpt>
      <trkpt lat="47.2695" lon="-2.32412">
        <ele>7</ele>
        <time>2019-08-11T07:22:20.000Z</time>
      </trkpt>
      <trkpt lat="47.26937" lon="-2.32369">
        <ele>7</ele>
        <time>2019-08-11T07:22:26.000Z</time>
      </trkpt>
      <trkpt lat="47.26934" lon="-2.32355">
        <ele>7.4000000953674</ele>
        <time>2019-08-11T07:22:28.000Z</time>
      </trkpt>
      <trkpt lat="47.26931" lon="-2.32349">
        <ele>7.8000001907349</ele>
        <time>2019-08-11T07:22:29.000Z</time>
      </trkpt>
      <trkpt lat="47.26928" lon="-2.32344">
        <ele>8.1999998092651</ele>
        <time>2019-08-11T07:22:30.000Z</time>
      </trkpt>
      <trkpt lat="47.26924" lon="-2.32339">
        <ele>9.1999998092651</ele>
        <time>2019-08-11T07:22:31.000Z</time>
      </trkpt>
      <trkpt lat="47.26909" lon="-2.32335">
        <ele>9.1999998092651</ele>
        <time>2019-08-11T07:22:34.000Z</time>
      </trkpt>
      <trkpt lat="47.269" lon="-2.32337">
        <ele>9.1999998092651</ele>
        <time>2019-08-11T07:22:36.000Z</time>
      </trkpt>
      <trkpt lat="47.26887" lon="-2.3234">
        <ele>9.1999998092651</ele>
        <time>2019-08-11T07:22:39.000Z</time>
      </trkpt>
      <trkpt lat="47.26878" lon="-2.32343">
        <ele>9.1999998092651</ele>
        <time>2019-08-11T07:22:41.000Z</time>
      </trkpt>
      <trkpt lat="47.26874" lon="-2.32344">
        <ele>9.6000003814697</ele>
        <time>2019-08-11T07:22:42.000Z</time>
      </trkpt>
      <trkpt lat="47.2687" lon="-2.32345">
        <ele>10</ele>
        <time>2019-08-11T07:22:43.000Z</time>
      </trkpt>
      <trkpt lat="47.26865" lon="-2.32347">
        <ele>10.60000038147</ele>
        <time>2019-08-11T07:22:44.000Z</time>
      </trkpt>
      <trkpt lat="47.26861" lon="-2.32348">
        <ele>11</ele>
        <time>2019-08-11T07:22:45.000Z</time>
      </trkpt>
      <trkpt lat="47.26857" lon="-2.32349">
        <ele>11.60000038147</ele>
        <time>2019-08-11T07:22:46.000Z</time>
      </trkpt>
      <trkpt lat="47.26852" lon="-2.3235">
        <ele>11.60000038147</ele>
        <time>2019-08-11T07:22:47.000Z</time>
      </trkpt>
      <trkpt lat="47.2684" lon="-2.32351">
        <ele>11.60000038147</ele>
        <time>2019-08-11T07:22:50.000Z</time>
      </trkpt>
      <trkpt lat="47.26836" lon="-2.32352">
        <ele>12</ele>
        <time>2019-08-11T07:22:51.000Z</time>
      </trkpt>
      <trkpt lat="47.26832" lon="-2.32352">
        <ele>12.39999961853</ele>
        <time>2019-08-11T07:22:52.000Z</time>
      </trkpt>
      <trkpt lat="47.26827" lon="-2.32353">
        <ele>12.800000190735</ele>
        <time>2019-08-11T07:22:53.000Z</time>
      </trkpt>
      <trkpt lat="47.26823" lon="-2.32353">
        <ele>13.199999809265</ele>
        <time>2019-08-11T07:22:54.000Z</time>
      </trkpt>
      <trkpt lat="47.26819" lon="-2.32354">
        <ele>13.60000038147</ele>
        <time>2019-08-11T07:22:55.000Z</time>
      </trkpt>
      <trkpt lat="47.26815" lon="-2.32355">
        <ele>14</ele>
        <time>2019-08-11T07:22:56.000Z</time>
      </trkpt>
      <trkpt lat="47.26812" lon="-2.32355">
        <ele>14.60000038147</ele>
        <time>2019-08-11T07:22:57.000Z</time>
      </trkpt>
      <trkpt lat="47.26808" lon="-2.32356">
        <ele>15</ele>
        <time>2019-08-11T07:22:58.000Z</time>
      </trkpt>
      <trkpt lat="47.26804" lon="-2.32357">
        <ele>15.39999961853</ele>
        <time>2019-08-11T07:22:59.000Z</time>
      </trkpt>
      <trkpt lat="47.268" lon="-2.32358">
        <ele>15.800000190735</ele>
        <time>2019-08-11T07:23:00.000Z</time>
      </trkpt>
      <trkpt lat="47.26787" lon="-2.32366">
        <ele>16.200000762939</ele>
        <time>2019-08-11T07:23:04.000Z</time>
      </trkpt>
      <trkpt lat="47.26783" lon="-2.32368">
        <ele>16.60000038147</ele>
        <time>2019-08-11T07:23:05.000Z</time>
      </trkpt>
      <trkpt lat="47.26781" lon="-2.3237">
        <ele>17</ele>
        <time>2019-08-11T07:23:06.000Z</time>
      </trkpt>
      <trkpt lat="47.26778" lon="-2.32374">
        <ele>17.60000038147</ele>
        <time>2019-08-11T07:23:07.000Z</time>
      </trkpt>
      <trkpt lat="47.26778" lon="-2.32379">
        <ele>18</ele>
        <time>2019-08-11T07:23:08.000Z</time>
      </trkpt>
      <trkpt lat="47.26782" lon="-2.32402">
        <ele>18</ele>
        <time>2019-08-11T07:23:12.000Z</time>
      </trkpt>
      <trkpt lat="47.26789" lon="-2.32453">
        <ele>18</ele>
        <time>2019-08-11T07:23:19.000Z</time>
      </trkpt>
      <trkpt lat="47.26793" lon="-2.32484">
        <ele>18</ele>
        <time>2019-08-11T07:23:23.000Z</time>
      </trkpt>
      <trkpt lat="47.26795" lon="-2.32501">
        <ele>18</ele>
        <time>2019-08-11T07:23:25.000Z</time>
      </trkpt>
      <trkpt lat="47.26798" lon="-2.32554">
        <ele>18</ele>
        <time>2019-08-11T07:23:31.000Z</time>
      </trkpt>
      <trkpt lat="47.26799" lon="-2.32572">
        <ele>18</ele>
        <time>2019-08-11T07:23:33.000Z</time>
      </trkpt>
      <trkpt lat="47.26802" lon="-2.32597">
        <ele>18</ele>
        <time>2019-08-11T07:23:36.000Z</time>
      </trkpt>
      <trkpt lat="47.26811" lon="-2.32651">
        <ele>18</ele>
        <time>2019-08-11T07:23:43.000Z</time>
      </trkpt>
      <trkpt lat="47.26806" lon="-2.32671">
        <ele>18</ele>
        <time>2019-08-11T07:23:46.000Z</time>
      </trkpt>
      <trkpt lat="47.26801" lon="-2.3269">
        <ele>18</ele>
        <time>2019-08-11T07:23:49.000Z</time>
      </trkpt>
      <trkpt lat="47.26808" lon="-2.32709">
        <ele>18</ele>
        <time>2019-08-11T07:23:52.000Z</time>
      </trkpt>
      <trkpt lat="47.26811" lon="-2.32715">
        <ele>18</ele>
        <time>2019-08-11T07:23:53.000Z</time>
      </trkpt>
      <trkpt lat="47.26829" lon="-2.32758">
        <ele>18</ele>
        <time>2019-08-11T07:23:59.000Z</time>
      </trkpt>
      <trkpt lat="47.26834" lon="-2.32774">
        <ele>17.60000038147</ele>
        <time>2019-08-11T07:24:01.000Z</time>
      </trkpt>
      <trkpt lat="47.26836" lon="-2.32783">
        <ele>17.200000762939</ele>
        <time>2019-08-11T07:24:02.000Z</time>
      </trkpt>
      <trkpt lat="47.26838" lon="-2.32791">
        <ele>16.799999237061</ele>
        <time>2019-08-11T07:24:03.000Z</time>
      </trkpt>
      <trkpt lat="47.26841" lon="-2.328">
        <ele>16.200000762939</ele>
        <time>2019-08-11T07:24:04.000Z</time>
      </trkpt>
      <trkpt lat="47.26843" lon="-2.32809">
        <ele>15.800000190735</ele>
        <time>2019-08-11T07:24:05.000Z</time>
      </trkpt>
      <trkpt lat="47.26845" lon="-2.32817">
        <ele>15.199999809265</ele>
        <time>2019-08-11T07:24:06.000Z</time>
      </trkpt>
      <trkpt lat="47.26848" lon="-2.32826">
        <ele>14.60000038147</ele>
        <time>2019-08-11T07:24:07.000Z</time>
      </trkpt>
      <trkpt lat="47.26851" lon="-2.32834">
        <ele>14</ele>
        <time>2019-08-11T07:24:08.000Z</time>
      </trkpt>
      <trkpt lat="47.26854" lon="-2.32841">
        <ele>13.39999961853</ele>
        <time>2019-08-11T07:24:09.000Z</time>
      </trkpt>
      <trkpt lat="47.26858" lon="-2.32849">
        <ele>12</ele>
        <time>2019-08-11T07:24:10.000Z</time>
      </trkpt>
      <trkpt lat="47.26861" lon="-2.32856">
        <ele>11.199999809265</ele>
        <time>2019-08-11T07:24:11.000Z</time>
      </trkpt>
      <trkpt lat="47.26863" lon="-2.32863">
        <ele>10.60000038147</ele>
        <time>2019-08-11T07:24:12.000Z</time>
      </trkpt>
      <trkpt lat="47.26864" lon="-2.3287">
        <ele>9.8000001907349</ele>
        <time>2019-08-11T07:24:13.000Z</time>
      </trkpt>
      <trkpt lat="47.26862" lon="-2.32875">
        <ele>9</ele>
        <time>2019-08-11T07:24:14.000Z</time>
      </trkpt>
      <trkpt lat="47.26859" lon="-2.32879">
        <ele>8.3999996185303</ele>
        <time>2019-08-11T07:24:15.000Z</time>
      </trkpt>
      <trkpt lat="47.26855" lon="-2.32881">
        <ele>7.8000001907349</ele>
        <time>2019-08-11T07:24:16.000Z</time>
      </trkpt>
      <trkpt lat="47.2685" lon="-2.32883">
        <ele>7.1999998092651</ele>
        <time>2019-08-11T07:24:17.000Z</time>
      </trkpt>
      <trkpt lat="47.26844" lon="-2.32884">
        <ele>6.5999999046326</ele>
        <time>2019-08-11T07:24:18.000Z</time>
      </trkpt>
      <trkpt lat="47.26839" lon="-2.32887">
        <ele>6</ele>
        <time>2019-08-11T07:24:19.000Z</time>
      </trkpt>
      <trkpt lat="47.26823" lon="-2.32898">
        <ele>6</ele>
        <time>2019-08-11T07:24:22.000Z</time>
      </trkpt>
      <trkpt lat="47.2681" lon="-2.32913">
        <ele>6</ele>
        <time>2019-08-11T07:24:25.000Z</time>
      </trkpt>
      <trkpt lat="47.26802" lon="-2.32923">
        <ele>6</ele>
        <time>2019-08-11T07:24:27.000Z</time>
      </trkpt>
      <trkpt lat="47.26791" lon="-2.32928">
        <ele>6</ele>
        <time>2019-08-11T07:24:29.000Z</time>
      </trkpt>
      <trkpt lat="47.26786" lon="-2.32932">
        <ele>6</ele>
        <time>2019-08-11T07:24:30.000Z</time>
      </trkpt>
      <trkpt lat="47.26776" lon="-2.32942">
        <ele>6</ele>
        <time>2019-08-11T07:24:32.000Z</time>
      </trkpt>
      <trkpt lat="47.26766" lon="-2.32953">
        <ele>6</ele>
        <time>2019-08-11T07:24:34.000Z</time>
      </trkpt>
      <trkpt lat="47.26748" lon="-2.32972">
        <ele>6</ele>
        <time>2019-08-11T07:24:38.000Z</time>
      </trkpt>
      <trkpt lat="47.2674" lon="-2.32983">
        <ele>6</ele>
        <time>2019-08-11T07:24:40.000Z</time>
      </trkpt>
      <trkpt lat="47.26734" lon="-2.32998">
        <ele>6</ele>
        <time>2019-08-11T07:24:42.000Z</time>
      </trkpt>
      <trkpt lat="47.26732" lon="-2.33026">
        <ele>6</ele>
        <time>2019-08-11T07:24:46.000Z</time>
      </trkpt>
      <trkpt lat="47.26731" lon="-2.33032">
        <ele>6</ele>
        <time>2019-08-11T07:24:47.000Z</time>
      </trkpt>
      <trkpt lat="47.26729" lon="-2.33046">
        <ele>6</ele>
        <time>2019-08-11T07:24:49.000Z</time>
      </trkpt>
      <trkpt lat="47.26734" lon="-2.33064">
        <ele>5.5999999046326</ele>
        <time>2019-08-11T07:24:52.000Z</time>
      </trkpt>
      <trkpt lat="47.26736" lon="-2.33066">
        <ele>5</ele>
        <time>2019-08-11T07:24:53.000Z</time>
      </trkpt>
      <trkpt lat="47.26739" lon="-2.33067">
        <ele>4.5999999046326</ele>
        <time>2019-08-11T07:24:54.000Z</time>
      </trkpt>
      <trkpt lat="47.26741" lon="-2.33067">
        <ele>4.1999998092651</ele>
        <time>2019-08-11T07:24:55.000Z</time>
      </trkpt>
      <trkpt lat="47.26743" lon="-2.33066">
        <ele>3.7999999523163</ele>
        <time>2019-08-11T07:24:56.000Z</time>
      </trkpt>
      <trkpt lat="47.2675" lon="-2.3306">
        <ele>3.7999999523163</ele>
        <time>2019-08-11T07:24:59.000Z</time>
      </trkpt>
      <trkpt lat="47.26753" lon="-2.33057">
        <ele>3.7999999523163</ele>
        <time>2019-08-11T07:25:00.000Z</time>
      </trkpt>
      <trkpt lat="47.26761" lon="-2.33049">
        <ele>3.7999999523163</ele>
        <time>2019-08-11T07:25:02.000Z</time>
      </trkpt>
      <trkpt lat="47.26778" lon="-2.33032">
        <ele>3.7999999523163</ele>
        <time>2019-08-11T07:25:06.000Z</time>
      </trkpt>
      <trkpt lat="47.26807" lon="-2.33004">
        <ele>3.7999999523163</ele>
        <time>2019-08-11T07:25:12.000Z</time>
      </trkpt>
      <trkpt lat="47.26829" lon="-2.32985">
        <ele>3.7999999523163</ele>
        <time>2019-08-11T07:25:17.000Z</time>
      </trkpt>
      <trkpt lat="47.26839" lon="-2.32976">
        <ele>3.7999999523163</ele>
        <time>2019-08-11T07:25:19.000Z</time>
      </trkpt>
      <trkpt lat="47.26849" lon="-2.32967">
        <ele>4.1999998092651</ele>
        <time>2019-08-11T07:25:21.000Z</time>
      </trkpt>
      <trkpt lat="47.26853" lon="-2.32963">
        <ele>4.5999999046326</ele>
        <time>2019-08-11T07:25:22.000Z</time>
      </trkpt>
      <trkpt lat="47.26858" lon="-2.32958">
        <ele>5</ele>
        <time>2019-08-11T07:25:23.000Z</time>
      </trkpt>
      <trkpt lat="47.26862" lon="-2.32954">
        <ele>5.8000001907349</ele>
        <time>2019-08-11T07:25:24.000Z</time>
      </trkpt>
      <trkpt lat="47.26871" lon="-2.32946">
        <ele>5.8000001907349</ele>
        <time>2019-08-11T07:25:26.000Z</time>
      </trkpt>
      <trkpt lat="47.26876" lon="-2.32943">
        <ele>5.8000001907349</ele>
        <time>2019-08-11T07:25:27.000Z</time>
      </trkpt>
      <trkpt lat="47.26899" lon="-2.32923">
        <ele>5.8000001907349</ele>
        <time>2019-08-11T07:25:32.000Z</time>
      </trkpt>
      <trkpt lat="47.26914" lon="-2.32907">
        <ele>5.8000001907349</ele>
        <time>2019-08-11T07:25:36.000Z</time>
      </trkpt>
      <trkpt lat="47.26932" lon="-2.3289">
        <ele>5.8000001907349</ele>
        <time>2019-08-11T07:25:42.000Z</time>
      </trkpt>
      <trkpt lat="47.26958" lon="-2.32865">
        <ele>5.8000001907349</ele>
        <time>2019-08-11T07:25:48.000Z</time>
      </trkpt>
      <trkpt lat="47.26988" lon="-2.32837">
        <ele>5.8000001907349</ele>
        <time>2019-08-11T07:25:55.000Z</time>
      </trkpt>
      <trkpt lat="47.27012" lon="-2.32815">
        <ele>5.8000001907349</ele>
        <time>2019-08-11T07:26:00.000Z</time>
      </trkpt>
      <trkpt lat="47.27057" lon="-2.32773">
        <ele>5.8000001907349</ele>
        <time>2019-08-11T07:26:09.000Z</time>
      </trkpt>
      <trkpt lat="47.27092" lon="-2.32741">
        <ele>5.8000001907349</ele>
        <time>2019-08-11T07:26:16.000Z</time>
      </trkpt>
      <trkpt lat="47.27119" lon="-2.32716">
        <ele>5.8000001907349</ele>
        <time>2019-08-11T07:26:22.000Z</time>
      </trkpt>
      <trkpt lat="47.27132" lon="-2.32704">
        <ele>5.8000001907349</ele>
        <time>2019-08-11T07:26:25.000Z</time>
      </trkpt>
      <trkpt lat="47.27136" lon="-2.32694">
        <ele>5.8000001907349</ele>
        <time>2019-08-11T07:26:27.000Z</time>
      </trkpt>
      <trkpt lat="47.27146" lon="-2.32685">
        <ele>5.8000001907349</ele>
        <time>2019-08-11T07:26:30.000Z</time>
      </trkpt>
      <trkpt lat="47.27149" lon="-2.32682">
        <ele>5.8000001907349</ele>
        <time>2019-08-11T07:26:31.000Z</time>
      </trkpt>
      <trkpt lat="47.27169" lon="-2.32661">
        <ele>5.8000001907349</ele>
        <time>2019-08-11T07:26:36.000Z</time>
      </trkpt>
      <trkpt lat="47.27173" lon="-2.32658">
        <ele>6.1999998092651</ele>
        <time>2019-08-11T07:26:37.000Z</time>
      </trkpt>
      <trkpt lat="47.27177" lon="-2.32654">
        <ele>7</ele>
        <time>2019-08-11T07:26:38.000Z</time>
      </trkpt>
      <trkpt lat="47.27181" lon="-2.3265">
        <ele>7.4000000953674</ele>
        <time>2019-08-11T07:26:39.000Z</time>
      </trkpt>
      <trkpt lat="47.27185" lon="-2.32646">
        <ele>7.8000001907349</ele>
        <time>2019-08-11T07:26:40.000Z</time>
      </trkpt>
      <trkpt lat="47.27195" lon="-2.32638">
        <ele>7.8000001907349</ele>
        <time>2019-08-11T07:26:42.000Z</time>
      </trkpt>
      <trkpt lat="47.27217" lon="-2.32614">
        <ele>7.8000001907349</ele>
        <time>2019-08-11T07:26:47.000Z</time>
      </trkpt>
      <trkpt lat="47.27238" lon="-2.32592">
        <ele>7.8000001907349</ele>
        <time>2019-08-11T07:26:52.000Z</time>
      </trkpt>
      <trkpt lat="47.2727" lon="-2.32559">
        <ele>7.8000001907349</ele>
        <time>2019-08-11T07:26:59.000Z</time>
      </trkpt>
      <trkpt lat="47.27291" lon="-2.32532">
        <ele>7.8000001907349</ele>
        <time>2019-08-11T07:27:04.000Z</time>
      </trkpt>
      <trkpt lat="47.27318" lon="-2.3249">
        <ele>7.8000001907349</ele>
        <time>2019-08-11T07:27:11.000Z</time>
      </trkpt>
      <trkpt lat="47.27337" lon="-2.32457">
        <ele>7.8000001907349</ele>
        <time>2019-08-11T07:27:16.000Z</time>
      </trkpt>
      <trkpt lat="47.2734" lon="-2.3245">
        <ele>7.4000000953674</ele>
        <time>2019-08-11T07:27:17.000Z</time>
      </trkpt>
      <trkpt lat="47.27343" lon="-2.32443">
        <ele>6.8000001907349</ele>
        <time>2019-08-11T07:27:18.000Z</time>
      </trkpt>
      <trkpt lat="47.27345" lon="-2.32436">
        <ele>6.4000000953674</ele>
        <time>2019-08-11T07:27:19.000Z</time>
      </trkpt>
      <trkpt lat="47.27348" lon="-2.32428">
        <ele>6</ele>
        <time>2019-08-11T07:27:20.000Z</time>
      </trkpt>
      <trkpt lat="47.27351" lon="-2.32421">
        <ele>5.5999999046326</ele>
        <time>2019-08-11T07:27:21.000Z</time>
      </trkpt>
      <trkpt lat="47.27355" lon="-2.32406">
        <ele>5.5999999046326</ele>
        <time>2019-08-11T07:27:23.000Z</time>
      </trkpt>
      <trkpt lat="47.27364" lon="-2.32361">
        <ele>5.5999999046326</ele>
        <time>2019-08-11T07:27:29.000Z</time>
      </trkpt>
      <trkpt lat="47.27373" lon="-2.32325">
        <ele>5.5999999046326</ele>
        <time>2019-08-11T07:27:35.000Z</time>
      </trkpt>
      <trkpt lat="47.27375" lon="-2.32313">
        <ele>6</ele>
        <time>2019-08-11T07:27:37.000Z</time>
      </trkpt>
      <trkpt lat="47.27376" lon="-2.32307">
        <ele>6.4000000953674</ele>
        <time>2019-08-11T07:27:38.000Z</time>
      </trkpt>
      <trkpt lat="47.27378" lon="-2.323">
        <ele>6.8000001907349</ele>
        <time>2019-08-11T07:27:39.000Z</time>
      </trkpt>
      <trkpt lat="47.27379" lon="-2.32295">
        <ele>7.1999998092651</ele>
        <time>2019-08-11T07:27:40.000Z</time>
      </trkpt>
      <trkpt lat="47.2738" lon="-2.3229">
        <ele>7.5999999046326</ele>
        <time>2019-08-11T07:27:41.000Z</time>
      </trkpt>
      <trkpt lat="47.27381" lon="-2.32285">
        <ele>7.5999999046326</ele>
        <time>2019-08-11T07:27:42.000Z</time>
      </trkpt>
      <trkpt lat="47.27383" lon="-2.32272">
        <ele>7.5999999046326</ele>
        <time>2019-08-11T07:27:44.000Z</time>
      </trkpt>
      <trkpt lat="47.27389" lon="-2.32258">
        <ele>7.5999999046326</ele>
        <time>2019-08-11T07:27:46.000Z</time>
      </trkpt>
      <trkpt lat="47.27396" lon="-2.32234">
        <ele>7.5999999046326</ele>
        <time>2019-08-11T07:27:49.000Z</time>
      </trkpt>
      <trkpt lat="47.27399" lon="-2.32208">
        <ele>6.8000001907349</ele>
        <time>2019-08-11T07:27:52.000Z</time>
      </trkpt>
      <trkpt lat="47.274" lon="-2.32199">
        <ele>6.4000000953674</ele>
        <time>2019-08-11T07:27:53.000Z</time>
      </trkpt>
      <trkpt lat="47.27401" lon="-2.3219">
        <ele>6</ele>
        <time>2019-08-11T07:27:54.000Z</time>
      </trkpt>
      <trkpt lat="47.27402" lon="-2.32182">
        <ele>5.5999999046326</ele>
        <time>2019-08-11T07:27:55.000Z</time>
      </trkpt>
      <trkpt lat="47.27406" lon="-2.32154">
        <ele>5.5999999046326</ele>
        <time>2019-08-11T07:27:58.000Z</time>
      </trkpt>
      <trkpt lat="47.27409" lon="-2.32129">
        <ele>5.5999999046326</ele>
        <time>2019-08-11T07:28:01.000Z</time>
      </trkpt>
      <trkpt lat="47.27411" lon="-2.32113">
        <ele>5.5999999046326</ele>
        <time>2019-08-11T07:28:03.000Z</time>
      </trkpt>
      <trkpt lat="47.27409" lon="-2.32085">
        <ele>5.5999999046326</ele>
        <time>2019-08-11T07:28:06.000Z</time>
      </trkpt>
      <trkpt lat="47.274" lon="-2.32067">
        <ele>5.5999999046326</ele>
        <time>2019-08-11T07:28:09.000Z</time>
      </trkpt>
      <trkpt lat="47.27396" lon="-2.32062">
        <ele>5.5999999046326</ele>
        <time>2019-08-11T07:28:10.000Z</time>
      </trkpt>
      <trkpt lat="47.27376" lon="-2.3204">
        <ele>5.5999999046326</ele>
        <time>2019-08-11T07:28:15.000Z</time>
      </trkpt>
      <trkpt lat="47.27368" lon="-2.32031">
        <ele>5.5999999046326</ele>
        <time>2019-08-11T07:28:17.000Z</time>
      </trkpt>
      <trkpt lat="47.27359" lon="-2.32016">
        <ele>5.5999999046326</ele>
        <time>2019-08-11T07:28:20.000Z</time>
      </trkpt>
      <trkpt lat="47.27357" lon="-2.3201">
        <ele>5.5999999046326</ele>
        <time>2019-08-11T07:28:22.000Z</time>
      </trkpt>
      <trkpt lat="47.27357" lon="-2.32007">
        <ele>5.5999999046326</ele>
        <time>2019-08-11T07:28:23.000Z</time>
      </trkpt>
      <trkpt lat="47.27357" lon="-2.32005">
        <ele>5.5999999046326</ele>
        <time>2019-08-11T07:28:24.000Z</time>
      </trkpt>
      <trkpt lat="47.27361" lon="-2.32005">
        <ele>5.5999999046326</ele>
        <time>2019-08-11T07:28:26.000Z</time>
      </trkpt>
      <trkpt lat="47.27365" lon="-2.32011">
        <ele>5.5999999046326</ele>
        <time>2019-08-11T07:28:29.000Z</time>
      </trkpt>
      <trkpt lat="47.27369" lon="-2.32015">
        <ele>5.5999999046326</ele>
        <time>2019-08-11T07:28:31.000Z</time>
      </trkpt>
      <trkpt lat="47.27378" lon="-2.32026">
        <ele>5.5999999046326</ele>
        <time>2019-08-11T07:28:36.000Z</time>
      </trkpt>
      <trkpt lat="47.27391" lon="-2.32039">
        <ele>5.5999999046326</ele>
        <time>2019-08-11T07:28:43.000Z</time>
      </trkpt>
      <trkpt lat="47.27405" lon="-2.32056">
        <ele>6</ele>
        <time>2019-08-11T07:28:51.000Z</time>
      </trkpt>
      <trkpt lat="47.27406" lon="-2.32058">
        <ele>6.4000000953674</ele>
        <time>2019-08-11T07:28:52.000Z</time>
      </trkpt>
      <trkpt lat="47.27408" lon="-2.3206">
        <ele>6.8000001907349</ele>
        <time>2019-08-11T07:28:53.000Z</time>
      </trkpt>
      <trkpt lat="47.2741" lon="-2.32062">
        <ele>7.1999998092651</ele>
        <time>2019-08-11T07:28:54.000Z</time>
      </trkpt>
      <trkpt lat="47.27412" lon="-2.32064">
        <ele>7.5999999046326</ele>
        <time>2019-08-11T07:28:55.000Z</time>
      </trkpt>
      <trkpt lat="47.2742" lon="-2.32071">
        <ele>7.5999999046326</ele>
        <time>2019-08-11T07:28:59.000Z</time>
      </trkpt>
      <trkpt lat="47.27434" lon="-2.32086">
        <ele>7.5999999046326</ele>
        <time>2019-08-11T07:29:06.000Z</time>
      </trkpt>
      <trkpt lat="47.27446" lon="-2.32104">
        <ele>7.5999999046326</ele>
        <time>2019-08-11T07:29:13.000Z</time>
      </trkpt>
      <trkpt lat="47.27456" lon="-2.32118">
        <ele>7.5999999046326</ele>
        <time>2019-08-11T07:29:19.000Z</time>
      </trkpt>
      <trkpt lat="47.27473" lon="-2.3214">
        <ele>8</ele>
        <time>2019-08-11T07:29:27.000Z</time>
      </trkpt>
      <trkpt lat="47.27475" lon="-2.32143">
        <ele>8.3999996185303</ele>
        <time>2019-08-11T07:29:28.000Z</time>
      </trkpt>
      <trkpt lat="47.27478" lon="-2.32146">
        <ele>8.8000001907349</ele>
        <time>2019-08-11T07:29:29.000Z</time>
      </trkpt>
      <trkpt lat="47.2748" lon="-2.32149">
        <ele>9.1999998092651</ele>
        <time>2019-08-11T07:29:30.000Z</time>
      </trkpt>
      <trkpt lat="47.27482" lon="-2.32152">
        <ele>9.6000003814697</ele>
        <time>2019-08-11T07:29:31.000Z</time>
      </trkpt>
      <trkpt lat="47.27486" lon="-2.32158">
        <ele>9.6000003814697</ele>
        <time>2019-08-11T07:29:33.000Z</time>
      </trkpt>
      <trkpt lat="47.27507" lon="-2.32184">
        <ele>9.6000003814697</ele>
        <time>2019-08-11T07:29:42.000Z</time>
      </trkpt>
      <trkpt lat="47.27526" lon="-2.32208">
        <ele>9.6000003814697</ele>
        <time>2019-08-11T07:29:50.000Z</time>
      </trkpt>
      <trkpt lat="47.27529" lon="-2.32211">
        <ele>10</ele>
        <time>2019-08-11T07:29:51.000Z</time>
      </trkpt>
      <trkpt lat="47.27531" lon="-2.32213">
        <ele>10.39999961853</ele>
        <time>2019-08-11T07:29:52.000Z</time>
      </trkpt>
      <trkpt lat="47.27534" lon="-2.32216">
        <ele>11</ele>
        <time>2019-08-11T07:29:53.000Z</time>
      </trkpt>
      <trkpt lat="47.27536" lon="-2.32218">
        <ele>11.39999961853</ele>
        <time>2019-08-11T07:29:54.000Z</time>
      </trkpt>
      <trkpt lat="47.27539" lon="-2.32221">
        <ele>11.800000190735</ele>
        <time>2019-08-11T07:29:55.000Z</time>
      </trkpt>
      <trkpt lat="47.27549" lon="-2.3223">
        <ele>11.800000190735</ele>
        <time>2019-08-11T07:29:59.000Z</time>
      </trkpt>
      <trkpt lat="47.27564" lon="-2.32243">
        <ele>12.199999809265</ele>
        <time>2019-08-11T07:30:05.000Z</time>
      </trkpt>
      <trkpt lat="47.27567" lon="-2.32245">
        <ele>12.60000038147</ele>
        <time>2019-08-11T07:30:06.000Z</time>
      </trkpt>
      <trkpt lat="47.2757" lon="-2.32247">
        <ele>13</ele>
        <time>2019-08-11T07:30:07.000Z</time>
      </trkpt>
      <trkpt lat="47.27572" lon="-2.32249">
        <ele>13.39999961853</ele>
        <time>2019-08-11T07:30:08.000Z</time>
      </trkpt>
      <trkpt lat="47.27575" lon="-2.32252">
        <ele>13.800000190735</ele>
        <time>2019-08-11T07:30:09.000Z</time>
      </trkpt>
      <trkpt lat="47.27586" lon="-2.32261">
        <ele>13.800000190735</ele>
        <time>2019-08-11T07:30:13.000Z</time>
      </trkpt>
      <trkpt lat="47.27599" lon="-2.32272">
        <ele>14.199999809265</ele>
        <time>2019-08-11T07:30:18.000Z</time>
      </trkpt>
      <trkpt lat="47.27603" lon="-2.32274">
        <ele>14.60000038147</ele>
        <time>2019-08-11T07:30:19.000Z</time>
      </trkpt>
      <trkpt lat="47.27606" lon="-2.32276">
        <ele>15</ele>
        <time>2019-08-11T07:30:20.000Z</time>
      </trkpt>
      <trkpt lat="47.2761" lon="-2.32278">
        <ele>15.800000190735</ele>
        <time>2019-08-11T07:30:21.000Z</time>
      </trkpt>
      <trkpt lat="47.27615" lon="-2.32286">
        <ele>15.800000190735</ele>
        <time>2019-08-11T07:30:23.000Z</time>
      </trkpt>
      <trkpt lat="47.27618" lon="-2.32291">
        <ele>15.800000190735</ele>
        <time>2019-08-11T07:30:24.000Z</time>
      </trkpt>
      <trkpt lat="47.27632" lon="-2.32304">
        <ele>15.800000190735</ele>
        <time>2019-08-11T07:30:28.000Z</time>
      </trkpt>
      <trkpt lat="47.27635" lon="-2.32305">
        <ele>16.200000762939</ele>
        <time>2019-08-11T07:30:29.000Z</time>
      </trkpt>
      <trkpt lat="47.27639" lon="-2.32308">
        <ele>16.799999237061</ele>
        <time>2019-08-11T07:30:30.000Z</time>
      </trkpt>
      <trkpt lat="47.27643" lon="-2.3231">
        <ele>17.200000762939</ele>
        <time>2019-08-11T07:30:31.000Z</time>
      </trkpt>
      <trkpt lat="47.27646" lon="-2.32311">
        <ele>17.60000038147</ele>
        <time>2019-08-11T07:30:32.000Z</time>
      </trkpt>
      <trkpt lat="47.2765" lon="-2.32312">
        <ele>18</ele>
        <time>2019-08-11T07:30:33.000Z</time>
      </trkpt>
      <trkpt lat="47.27657" lon="-2.32314">
        <ele>18</ele>
        <time>2019-08-11T07:30:35.000Z</time>
      </trkpt>
      <trkpt lat="47.27686" lon="-2.32323">
        <ele>18</ele>
        <time>2019-08-11T07:30:42.000Z</time>
      </trkpt>
      <trkpt lat="47.27702" lon="-2.32329">
        <ele>18.39999961853</ele>
        <time>2019-08-11T07:30:46.000Z</time>
      </trkpt>
      <trkpt lat="47.27706" lon="-2.32331">
        <ele>18.799999237061</ele>
        <time>2019-08-11T07:30:47.000Z</time>
      </trkpt>
      <trkpt lat="47.27711" lon="-2.32333">
        <ele>19.200000762939</ele>
        <time>2019-08-11T07:30:48.000Z</time>
      </trkpt>
      <trkpt lat="47.27716" lon="-2.32337">
        <ele>19.60000038147</ele>
        <time>2019-08-11T07:30:49.000Z</time>
      </trkpt>
      <trkpt lat="47.2772" lon="-2.32341">
        <ele>20</ele>
        <time>2019-08-11T07:30:50.000Z</time>
      </trkpt>
      <trkpt lat="47.27737" lon="-2.32353">
        <ele>20</ele>
        <time>2019-08-11T07:30:54.000Z</time>
      </trkpt>
      <trkpt lat="47.27751" lon="-2.3236">
        <ele>20</ele>
        <time>2019-08-11T07:30:58.000Z</time>
      </trkpt>
      <trkpt lat="47.27769" lon="-2.32372">
        <ele>20</ele>
        <time>2019-08-11T07:31:03.000Z</time>
      </trkpt>
      <trkpt lat="47.2778" lon="-2.32372">
        <ele>20</ele>
        <time>2019-08-11T07:31:07.000Z</time>
      </trkpt>
      <trkpt lat="47.27784" lon="-2.32372">
        <ele>20</ele>
        <time>2019-08-11T07:31:08.000Z</time>
      </trkpt>
      <trkpt lat="47.27797" lon="-2.32371">
        <ele>20</ele>
        <time>2019-08-11T07:31:11.000Z</time>
      </trkpt>
      <trkpt lat="47.27815" lon="-2.32369">
        <ele>20</ele>
        <time>2019-08-11T07:31:16.000Z</time>
      </trkpt>
      <trkpt lat="47.27819" lon="-2.32368">
        <ele>19.60000038147</ele>
        <time>2019-08-11T07:31:17.000Z</time>
      </trkpt>
      <trkpt lat="47.27823" lon="-2.32368">
        <ele>19.200000762939</ele>
        <time>2019-08-11T07:31:18.000Z</time>
      </trkpt>
      <trkpt lat="47.27827" lon="-2.32368">
        <ele>18.799999237061</ele>
        <time>2019-08-11T07:31:19.000Z</time>
      </trkpt>
      <trkpt lat="47.27832" lon="-2.32369">
        <ele>18.39999961853</ele>
        <time>2019-08-11T07:31:20.000Z</time>
      </trkpt>
      <trkpt lat="47.27839" lon="-2.32372">
        <ele>18</ele>
        <time>2019-08-11T07:31:21.000Z</time>
      </trkpt>
      <trkpt lat="47.27867" lon="-2.32383">
        <ele>18</ele>
        <time>2019-08-11T07:31:26.000Z</time>
      </trkpt>
      <trkpt lat="47.27871" lon="-2.32384">
        <ele>18</ele>
        <time>2019-08-11T07:31:27.000Z</time>
      </trkpt>
      <trkpt lat="47.27876" lon="-2.32384">
        <ele>18</ele>
        <time>2019-08-11T07:31:28.000Z</time>
      </trkpt>
      <trkpt lat="47.27887" lon="-2.32382">
        <ele>18</ele>
        <time>2019-08-11T07:31:31.000Z</time>
      </trkpt>
      <trkpt lat="47.27896" lon="-2.32387">
        <ele>18</ele>
        <time>2019-08-11T07:31:35.000Z</time>
      </trkpt>
      <trkpt lat="47.27896" lon="-2.32397">
        <ele>18</ele>
        <time>2019-08-11T07:31:39.000Z</time>
      </trkpt>
      <trkpt lat="47.27889" lon="-2.32413">
        <ele>18</ele>
        <time>2019-08-11T07:31:45.000Z</time>
      </trkpt>
      <trkpt lat="47.27881" lon="-2.32425">
        <ele>18</ele>
        <time>2019-08-11T07:31:50.000Z</time>
      </trkpt>
      <trkpt lat="47.27876" lon="-2.32435">
        <ele>18</ele>
        <time>2019-08-11T07:31:54.000Z</time>
      </trkpt>
      <trkpt lat="47.27864" lon="-2.32449">
        <ele>18</ele>
        <time>2019-08-11T07:31:59.000Z</time>
      </trkpt>
      <trkpt lat="47.27855" lon="-2.32461">
        <ele>18</ele>
        <time>2019-08-11T07:32:02.000Z</time>
      </trkpt>
      <trkpt lat="47.27851" lon="-2.32468">
        <ele>18</ele>
        <time>2019-08-11T07:32:03.000Z</time>
      </trkpt>
      <trkpt lat="47.27844" lon="-2.3248">
        <ele>18</ele>
        <time>2019-08-11T07:32:05.000Z</time>
      </trkpt>
      <trkpt lat="47.27837" lon="-2.32496">
        <ele>18</ele>
        <time>2019-08-11T07:32:08.000Z</time>
      </trkpt>
      <trkpt lat="47.27832" lon="-2.32506">
        <ele>18</ele>
        <time>2019-08-11T07:32:10.000Z</time>
      </trkpt>
      <trkpt lat="47.27821" lon="-2.32523">
        <ele>18</ele>
        <time>2019-08-11T07:32:14.000Z</time>
      </trkpt>
      <trkpt lat="47.27801" lon="-2.32551">
        <ele>18</ele>
        <time>2019-08-11T07:32:20.000Z</time>
      </trkpt>
      <trkpt lat="47.27786" lon="-2.32571">
        <ele>18</ele>
        <time>2019-08-11T07:32:24.000Z</time>
      </trkpt>
      <trkpt lat="47.27783" lon="-2.32576">
        <ele>18</ele>
        <time>2019-08-11T07:32:25.000Z</time>
      </trkpt>
      <trkpt lat="47.27772" lon="-2.32591">
        <ele>18</ele>
        <time>2019-08-11T07:32:28.000Z</time>
      </trkpt>
      <trkpt lat="47.27765" lon="-2.32603">
        <ele>18</ele>
        <time>2019-08-11T07:32:30.000Z</time>
      </trkpt>
      <trkpt lat="47.27751" lon="-2.32629">
        <ele>18</ele>
        <time>2019-08-11T07:32:34.000Z</time>
      </trkpt>
      <trkpt lat="47.27748" lon="-2.32637">
        <ele>17.60000038147</ele>
        <time>2019-08-11T07:32:35.000Z</time>
      </trkpt>
      <trkpt lat="47.27745" lon="-2.32645">
        <ele>17</ele>
        <time>2019-08-11T07:32:36.000Z</time>
      </trkpt>
      <trkpt lat="47.27741" lon="-2.32653">
        <ele>16.60000038147</ele>
        <time>2019-08-11T07:32:37.000Z</time>
      </trkpt>
      <trkpt lat="47.27737" lon="-2.32662">
        <ele>16.200000762939</ele>
        <time>2019-08-11T07:32:38.000Z</time>
      </trkpt>
      <trkpt lat="47.27733" lon="-2.3267">
        <ele>15.60000038147</ele>
        <time>2019-08-11T07:32:39.000Z</time>
      </trkpt>
      <trkpt lat="47.2773" lon="-2.32678">
        <ele>15.199999809265</ele>
        <time>2019-08-11T07:32:40.000Z</time>
      </trkpt>
      <trkpt lat="47.27726" lon="-2.32684">
        <ele>14.39999961853</ele>
        <time>2019-08-11T07:32:41.000Z</time>
      </trkpt>
      <trkpt lat="47.27721" lon="-2.3269">
        <ele>13.60000038147</ele>
        <time>2019-08-11T07:32:42.000Z</time>
      </trkpt>
      <trkpt lat="47.27717" lon="-2.32694">
        <ele>12.800000190735</ele>
        <time>2019-08-11T07:32:43.000Z</time>
      </trkpt>
      <trkpt lat="47.27715" lon="-2.32698">
        <ele>12</ele>
        <time>2019-08-11T07:32:44.000Z</time>
      </trkpt>
      <trkpt lat="47.27714" lon="-2.32701">
        <ele>11.199999809265</ele>
        <time>2019-08-11T07:32:45.000Z</time>
      </trkpt>
      <trkpt lat="47.27713" lon="-2.32703">
        <ele>10.39999961853</ele>
        <time>2019-08-11T07:32:46.000Z</time>
      </trkpt>
      <trkpt lat="47.27711" lon="-2.32705">
        <ele>9.6000003814697</ele>
        <time>2019-08-11T07:32:47.000Z</time>
      </trkpt>
      <trkpt lat="47.2771" lon="-2.32708">
        <ele>8.1999998092651</ele>
        <time>2019-08-11T07:32:48.000Z</time>
      </trkpt>
      <trkpt lat="47.27708" lon="-2.32711">
        <ele>7.4000000953674</ele>
        <time>2019-08-11T07:32:49.000Z</time>
      </trkpt>
      <trkpt lat="47.27702" lon="-2.32718">
        <ele>7.4000000953674</ele>
        <time>2019-08-11T07:32:51.000Z</time>
      </trkpt>
      <trkpt lat="47.27688" lon="-2.32729">
        <ele>7.4000000953674</ele>
        <time>2019-08-11T07:32:55.000Z</time>
      </trkpt>
      <trkpt lat="47.27676" lon="-2.32731">
        <ele>7.4000000953674</ele>
        <time>2019-08-11T07:32:58.000Z</time>
      </trkpt>
      <trkpt lat="47.27669" lon="-2.32729">
        <ele>7.4000000953674</ele>
        <time>2019-08-11T07:33:00.000Z</time>
      </trkpt>
      <trkpt lat="47.27661" lon="-2.32727">
        <ele>7.4000000953674</ele>
        <time>2019-08-11T07:33:02.000Z</time>
      </trkpt>
      <trkpt lat="47.27636" lon="-2.32716">
        <ele>7.4000000953674</ele>
        <time>2019-08-11T07:33:08.000Z</time>
      </trkpt>
      <trkpt lat="47.27626" lon="-2.32703">
        <ele>7.4000000953674</ele>
        <time>2019-08-11T07:33:11.000Z</time>
      </trkpt>
      <trkpt lat="47.27615" lon="-2.32706">
        <ele>7.4000000953674</ele>
        <time>2019-08-11T07:33:14.000Z</time>
      </trkpt>
      <trkpt lat="47.27607" lon="-2.32714">
        <ele>7.4000000953674</ele>
        <time>2019-08-11T07:33:17.000Z</time>
      </trkpt>
      <trkpt lat="47.27605" lon="-2.32718">
        <ele>7.4000000953674</ele>
        <time>2019-08-11T07:33:18.000Z</time>
      </trkpt>
      <trkpt lat="47.27596" lon="-2.32745">
        <ele>7.4000000953674</ele>
        <time>2019-08-11T07:33:24.000Z</time>
      </trkpt>
      <trkpt lat="47.27596" lon="-2.32748">
        <ele>8</ele>
        <time>2019-08-11T07:33:25.000Z</time>
      </trkpt>
      <trkpt lat="47.27595" lon="-2.32752">
        <ele>8.3999996185303</ele>
        <time>2019-08-11T07:33:26.000Z</time>
      </trkpt>
      <trkpt lat="47.27595" lon="-2.32755">
        <ele>9</ele>
        <time>2019-08-11T07:33:27.000Z</time>
      </trkpt>
      <trkpt lat="47.27594" lon="-2.32759">
        <ele>9.6000003814697</ele>
        <time>2019-08-11T07:33:28.000Z</time>
      </trkpt>
      <trkpt lat="47.27593" lon="-2.32763">
        <ele>10.199999809265</ele>
        <time>2019-08-11T07:33:29.000Z</time>
      </trkpt>
      <trkpt lat="47.27592" lon="-2.32768">
        <ele>10.60000038147</ele>
        <time>2019-08-11T07:33:30.000Z</time>
      </trkpt>
      <trkpt lat="47.27592" lon="-2.32773">
        <ele>11</ele>
        <time>2019-08-11T07:33:31.000Z</time>
      </trkpt>
      <trkpt lat="47.2759" lon="-2.32779">
        <ele>11.39999961853</ele>
        <time>2019-08-11T07:33:32.000Z</time>
      </trkpt>
      <trkpt lat="47.27589" lon="-2.32784">
        <ele>11.800000190735</ele>
        <time>2019-08-11T07:33:33.000Z</time>
      </trkpt>
      <trkpt lat="47.27589" lon="-2.3279">
        <ele>12.199999809265</ele>
        <time>2019-08-11T07:33:34.000Z</time>
      </trkpt>
      <trkpt lat="47.27586" lon="-2.32803">
        <ele>12.199999809265</ele>
        <time>2019-08-11T07:33:37.000Z</time>
      </trkpt>
      <trkpt lat="47.27584" lon="-2.32808">
        <ele>12.199999809265</ele>
        <time>2019-08-11T07:33:38.000Z</time>
      </trkpt>
      <trkpt lat="47.2758" lon="-2.3282">
        <ele>12.60000038147</ele>
        <time>2019-08-11T07:33:42.000Z</time>
      </trkpt>
      <trkpt lat="47.27579" lon="-2.32822">
        <ele>13</ele>
        <time>2019-08-11T07:33:43.000Z</time>
      </trkpt>
      <trkpt lat="47.27577" lon="-2.32825">
        <ele>13.39999961853</ele>
        <time>2019-08-11T07:33:44.000Z</time>
      </trkpt>
      <trkpt lat="47.27576" lon="-2.32828">
        <ele>13.800000190735</ele>
        <time>2019-08-11T07:33:45.000Z</time>
      </trkpt>
      <trkpt lat="47.27574" lon="-2.32829">
        <ele>14.199999809265</ele>
        <time>2019-08-11T07:33:46.000Z</time>
      </trkpt>
      <trkpt lat="47.27568" lon="-2.32835">
        <ele>14.199999809265</ele>
        <time>2019-08-11T07:33:48.000Z</time>
      </trkpt>
      <trkpt lat="47.27549" lon="-2.32848">
        <ele>14.199999809265</ele>
        <time>2019-08-11T07:33:55.000Z</time>
      </trkpt>
      <trkpt lat="47.27541" lon="-2.32857">
        <ele>14.199999809265</ele>
        <time>2019-08-11T07:33:59.000Z</time>
      </trkpt>
      <trkpt lat="47.27542" lon="-2.32861">
        <ele>14.199999809265</ele>
        <time>2019-08-11T07:34:00.000Z</time>
      </trkpt>
      <trkpt lat="47.27548" lon="-2.32868">
        <ele>14.199999809265</ele>
        <time>2019-08-11T07:34:04.000Z</time>
      </trkpt>
      <trkpt lat="47.2755" lon="-2.3287">
        <ele>14.199999809265</ele>
        <time>2019-08-11T07:34:05.000Z</time>
      </trkpt>
      <trkpt lat="47.2756" lon="-2.32884">
        <ele>14.199999809265</ele>
        <time>2019-08-11T07:34:10.000Z</time>
      </trkpt>
      <trkpt lat="47.2757" lon="-2.32896">
        <ele>14.199999809265</ele>
        <time>2019-08-11T07:34:16.000Z</time>
      </trkpt>
      <trkpt lat="47.27572" lon="-2.32899">
        <ele>14.199999809265</ele>
        <time>2019-08-11T07:34:20.000Z</time>
      </trkpt>
      <trkpt lat="47.27572" lon="-2.32899">
        <ele>14.199999809265</ele>
        <time>2019-08-11T07:34:21.000Z</time>
      </trkpt>
      <trkpt lat="47.27577" lon="-2.32902">
        <ele>16.39999961853</ele>
        <time>2019-08-11T07:34:30.000Z</time>
      </trkpt>
      <trkpt lat="47.27581" lon="-2.32906">
        <ele>16.39999961853</ele>
        <time>2019-08-11T07:34:32.000Z</time>
      </trkpt>
      <trkpt lat="47.27596" lon="-2.32916">
        <ele>16.39999961853</ele>
        <time>2019-08-11T07:34:37.000Z</time>
      </trkpt>
      <trkpt lat="47.27621" lon="-2.32939">
        <ele>16.39999961853</ele>
        <time>2019-08-11T07:34:44.000Z</time>
      </trkpt>
      <trkpt lat="47.27639" lon="-2.32957">
        <ele>16.39999961853</ele>
        <time>2019-08-11T07:34:50.000Z</time>
      </trkpt>
      <trkpt lat="47.27659" lon="-2.32973">
        <ele>16.39999961853</ele>
        <time>2019-08-11T07:34:57.000Z</time>
      </trkpt>
      <trkpt lat="47.27667" lon="-2.32978">
        <ele>16.39999961853</ele>
        <time>2019-08-11T07:35:01.000Z</time>
      </trkpt>
      <trkpt lat="47.27678" lon="-2.32986">
        <ele>16.39999961853</ele>
        <time>2019-08-11T07:35:05.000Z</time>
      </trkpt>
      <trkpt lat="47.27697" lon="-2.33001">
        <ele>16.39999961853</ele>
        <time>2019-08-11T07:35:12.000Z</time>
      </trkpt>
      <trkpt lat="47.27709" lon="-2.33008">
        <ele>16.39999961853</ele>
        <time>2019-08-11T07:35:16.000Z</time>
      </trkpt>
      <trkpt lat="47.27713" lon="-2.3301">
        <ele>16.39999961853</ele>
        <time>2019-08-11T07:35:17.000Z</time>
      </trkpt>
      <trkpt lat="47.27719" lon="-2.33005">
        <ele>16.39999961853</ele>
        <time>2019-08-11T07:35:19.000Z</time>
      </trkpt>
      <trkpt lat="47.27717" lon="-2.32985">
        <ele>16.39999961853</ele>
        <time>2019-08-11T07:35:22.000Z</time>
      </trkpt>
      <trkpt lat="47.27718" lon="-2.32978">
        <ele>16.39999961853</ele>
        <time>2019-08-11T07:35:23.000Z</time>
      </trkpt>
      <trkpt lat="47.27724" lon="-2.32975">
        <ele>16.39999961853</ele>
        <time>2019-08-11T07:35:25.000Z</time>
      </trkpt>
      <trkpt lat="47.2773" lon="-2.3299">
        <ele>16.39999961853</ele>
        <time>2019-08-11T07:35:28.000Z</time>
      </trkpt>
      <trkpt lat="47.27727" lon="-2.33014">
        <ele>16.39999961853</ele>
        <time>2019-08-11T07:35:32.000Z</time>
      </trkpt>
      <trkpt lat="47.27729" lon="-2.33027">
        <ele>16.39999961853</ele>
        <time>2019-08-11T07:35:36.000Z</time>
      </trkpt>
      <trkpt lat="47.27729" lon="-2.33029">
        <ele>16.39999961853</ele>
        <time>2019-08-11T07:35:38.000Z</time>
      </trkpt>
      <trkpt lat="47.27736" lon="-2.3304">
        <ele>16.39999961853</ele>
        <time>2019-08-11T07:38:10.000Z</time>
      </trkpt>
      <trkpt lat="47.27744" lon="-2.33047">
        <ele>16.39999961853</ele>
        <time>2019-08-11T07:38:15.000Z</time>
      </trkpt>
      <trkpt lat="47.27746" lon="-2.33049">
        <ele>16.39999961853</ele>
        <time>2019-08-11T07:38:16.000Z</time>
      </trkpt>
      <trkpt lat="47.27747" lon="-2.33051">
        <ele>16.39999961853</ele>
        <time>2019-08-11T07:38:17.000Z</time>
      </trkpt>
      <trkpt lat="47.2775" lon="-2.33057">
        <ele>16.39999961853</ele>
        <time>2019-08-11T07:38:19.000Z</time>
      </trkpt>
      <trkpt lat="47.27755" lon="-2.33078">
        <ele>16.39999961853</ele>
        <time>2019-08-11T07:38:23.000Z</time>
      </trkpt>
      <trkpt lat="47.27757" lon="-2.33112">
        <ele>16.39999961853</ele>
        <time>2019-08-11T07:38:29.000Z</time>
      </trkpt>
      <trkpt lat="47.27761" lon="-2.33134">
        <ele>16.799999237061</ele>
        <time>2019-08-11T07:38:33.000Z</time>
      </trkpt>
      <trkpt lat="47.27763" lon="-2.33138">
        <ele>17.200000762939</ele>
        <time>2019-08-11T07:38:34.000Z</time>
      </trkpt>
      <trkpt lat="47.27767" lon="-2.3314">
        <ele>18</ele>
        <time>2019-08-11T07:38:35.000Z</time>
      </trkpt>
      <trkpt lat="47.27771" lon="-2.33141">
        <ele>18.39999961853</ele>
        <time>2019-08-11T07:38:36.000Z</time>
      </trkpt>
      <trkpt lat="47.2778" lon="-2.33134">
        <ele>18.39999961853</ele>
        <time>2019-08-11T07:38:38.000Z</time>
      </trkpt>
      <trkpt lat="47.27788" lon="-2.33124">
        <ele>18.39999961853</ele>
        <time>2019-08-11T07:38:40.000Z</time>
      </trkpt>
      <trkpt lat="47.27805" lon="-2.33104">
        <ele>18.39999961853</ele>
        <time>2019-08-11T07:38:44.000Z</time>
      </trkpt>
      <trkpt lat="47.27831" lon="-2.33077">
        <ele>18.39999961853</ele>
        <time>2019-08-11T07:38:49.000Z</time>
      </trkpt>
      <trkpt lat="47.27837" lon="-2.33071">
        <ele>18</ele>
        <time>2019-08-11T07:38:50.000Z</time>
      </trkpt>
      <trkpt lat="47.27843" lon="-2.33063">
        <ele>17.60000038147</ele>
        <time>2019-08-11T07:38:51.000Z</time>
      </trkpt>
      <trkpt lat="47.27849" lon="-2.33056">
        <ele>17.200000762939</ele>
        <time>2019-08-11T07:38:52.000Z</time>
      </trkpt>
      <trkpt lat="47.27856" lon="-2.33049">
        <ele>16.799999237061</ele>
        <time>2019-08-11T07:38:53.000Z</time>
      </trkpt>
      <trkpt lat="47.27862" lon="-2.3304">
        <ele>16.39999961853</ele>
        <time>2019-08-11T07:38:54.000Z</time>
      </trkpt>
      <trkpt lat="47.27868" lon="-2.33031">
        <ele>16.39999961853</ele>
        <time>2019-08-11T07:38:55.000Z</time>
      </trkpt>
      <trkpt lat="47.27884" lon="-2.33">
        <ele>16</ele>
        <time>2019-08-11T07:38:58.000Z</time>
      </trkpt>
      <trkpt lat="47.27889" lon="-2.32989">
        <ele>15.60000038147</ele>
        <time>2019-08-11T07:38:59.000Z</time>
      </trkpt>
      <trkpt lat="47.27893" lon="-2.32978">
        <ele>14.60000038147</ele>
        <time>2019-08-11T07:39:00.000Z</time>
      </trkpt>
      <trkpt lat="47.27898" lon="-2.32968">
        <ele>14.199999809265</ele>
        <time>2019-08-11T07:39:01.000Z</time>
      </trkpt>
      <trkpt lat="47.27908" lon="-2.32936">
        <ele>14.199999809265</ele>
        <time>2019-08-11T07:39:04.000Z</time>
      </trkpt>
      <trkpt lat="47.27912" lon="-2.32916">
        <ele>14.199999809265</ele>
        <time>2019-08-11T07:39:06.000Z</time>
      </trkpt>
      <trkpt lat="47.27914" lon="-2.32906">
        <ele>13.800000190735</ele>
        <time>2019-08-11T07:39:07.000Z</time>
      </trkpt>
      <trkpt lat="47.27916" lon="-2.32896">
        <ele>13.39999961853</ele>
        <time>2019-08-11T07:39:08.000Z</time>
      </trkpt>
      <trkpt lat="47.27918" lon="-2.32887">
        <ele>13</ele>
        <time>2019-08-11T07:39:09.000Z</time>
      </trkpt>
      <trkpt lat="47.2792" lon="-2.32878">
        <ele>12.60000038147</ele>
        <time>2019-08-11T07:39:10.000Z</time>
      </trkpt>
      <trkpt lat="47.27923" lon="-2.32869">
        <ele>12</ele>
        <time>2019-08-11T07:39:11.000Z</time>
      </trkpt>
      <trkpt lat="47.27932" lon="-2.3283">
        <ele>12</ele>
        <time>2019-08-11T07:39:16.000Z</time>
      </trkpt>
      <trkpt lat="47.27934" lon="-2.32824">
        <ele>12.60000038147</ele>
        <time>2019-08-11T07:39:17.000Z</time>
      </trkpt>
      <trkpt lat="47.27936" lon="-2.32818">
        <ele>13</ele>
        <time>2019-08-11T07:39:18.000Z</time>
      </trkpt>
      <trkpt lat="47.27938" lon="-2.32811">
        <ele>13.39999961853</ele>
        <time>2019-08-11T07:39:19.000Z</time>
      </trkpt>
      <trkpt lat="47.2794" lon="-2.32805">
        <ele>13.800000190735</ele>
        <time>2019-08-11T07:39:20.000Z</time>
      </trkpt>
      <trkpt lat="47.27943" lon="-2.32798">
        <ele>14.39999961853</ele>
        <time>2019-08-11T07:39:21.000Z</time>
      </trkpt>
      <trkpt lat="47.27945" lon="-2.32791">
        <ele>14.39999961853</ele>
        <time>2019-08-11T07:39:22.000Z</time>
      </trkpt>
      <trkpt lat="47.27952" lon="-2.32771">
        <ele>14.800000190735</ele>
        <time>2019-08-11T07:39:25.000Z</time>
      </trkpt>
      <trkpt lat="47.27954" lon="-2.32763">
        <ele>15.199999809265</ele>
        <time>2019-08-11T07:39:26.000Z</time>
      </trkpt>
      <trkpt lat="47.27957" lon="-2.32756">
        <ele>15.60000038147</ele>
        <time>2019-08-11T07:39:27.000Z</time>
      </trkpt>
      <trkpt lat="47.2796" lon="-2.32748">
        <ele>16</ele>
        <time>2019-08-11T07:39:28.000Z</time>
      </trkpt>
      <trkpt lat="47.27963" lon="-2.32739">
        <ele>16.60000038147</ele>
        <time>2019-08-11T07:39:29.000Z</time>
      </trkpt>
      <trkpt lat="47.27985" lon="-2.32684">
        <ele>16.60000038147</ele>
        <time>2019-08-11T07:39:36.000Z</time>
      </trkpt>
      <trkpt lat="47.28011" lon="-2.32624">
        <ele>16.60000038147</ele>
        <time>2019-08-11T07:39:44.000Z</time>
      </trkpt>
      <trkpt lat="47.2802" lon="-2.32602">
        <ele>16.60000038147</ele>
        <time>2019-08-11T07:39:47.000Z</time>
      </trkpt>
      <trkpt lat="47.28029" lon="-2.3258">
        <ele>16.60000038147</ele>
        <time>2019-08-11T07:39:50.000Z</time>
      </trkpt>
      <trkpt lat="47.28054" lon="-2.32526">
        <ele>16.60000038147</ele>
        <time>2019-08-11T07:39:58.000Z</time>
      </trkpt>
      <trkpt lat="47.28058" lon="-2.32519">
        <ele>16.60000038147</ele>
        <time>2019-08-11T07:39:59.000Z</time>
      </trkpt>
      <trkpt lat="47.28072" lon="-2.32493">
        <ele>16.60000038147</ele>
        <time>2019-08-11T07:40:03.000Z</time>
      </trkpt>
      <trkpt lat="47.28095" lon="-2.32453">
        <ele>16.60000038147</ele>
        <time>2019-08-11T07:40:09.000Z</time>
      </trkpt>
      <trkpt lat="47.28099" lon="-2.32451">
        <ele>16.60000038147</ele>
        <time>2019-08-11T07:40:10.000Z</time>
      </trkpt>
      <trkpt lat="47.28107" lon="-2.32452">
        <ele>16.60000038147</ele>
        <time>2019-08-11T07:40:12.000Z</time>
      </trkpt>
      <trkpt lat="47.28122" lon="-2.32459">
        <ele>16.60000038147</ele>
        <time>2019-08-11T07:40:15.000Z</time>
      </trkpt>
      <trkpt lat="47.28127" lon="-2.32459">
        <ele>16.60000038147</ele>
        <time>2019-08-11T07:40:16.000Z</time>
      </trkpt>
      <trkpt lat="47.28148" lon="-2.32458">
        <ele>16.60000038147</ele>
        <time>2019-08-11T07:40:20.000Z</time>
      </trkpt>
      <trkpt lat="47.28154" lon="-2.32457">
        <ele>16.60000038147</ele>
        <time>2019-08-11T07:40:21.000Z</time>
      </trkpt>
      <trkpt lat="47.28172" lon="-2.32453">
        <ele>16.60000038147</ele>
        <time>2019-08-11T07:40:24.000Z</time>
      </trkpt>
      <trkpt lat="47.28185" lon="-2.32453">
        <ele>16.60000038147</ele>
        <time>2019-08-11T07:40:26.000Z</time>
      </trkpt>
      <trkpt lat="47.28205" lon="-2.32454">
        <ele>16.60000038147</ele>
        <time>2019-08-11T07:40:29.000Z</time>
      </trkpt>
      <trkpt lat="47.28212" lon="-2.32458">
        <ele>16.60000038147</ele>
        <time>2019-08-11T07:40:30.000Z</time>
      </trkpt>
      <trkpt lat="47.28241" lon="-2.32482">
        <ele>16.60000038147</ele>
        <time>2019-08-11T07:40:35.000Z</time>
      </trkpt>
      <trkpt lat="47.28251" lon="-2.32495">
        <ele>16.60000038147</ele>
        <time>2019-08-11T07:40:37.000Z</time>
      </trkpt>
      <trkpt lat="47.28262" lon="-2.32507">
        <ele>16.60000038147</ele>
        <time>2019-08-11T07:40:39.000Z</time>
      </trkpt>
      <trkpt lat="47.28268" lon="-2.3251">
        <ele>16.60000038147</ele>
        <time>2019-08-11T07:40:40.000Z</time>
      </trkpt>
      <trkpt lat="47.28288" lon="-2.32513">
        <ele>16.60000038147</ele>
        <time>2019-08-11T07:40:43.000Z</time>
      </trkpt>
      <trkpt lat="47.28295" lon="-2.32513">
        <ele>16.60000038147</ele>
        <time>2019-08-11T07:40:44.000Z</time>
      </trkpt>
      <trkpt lat="47.28335" lon="-2.32514">
        <ele>16.60000038147</ele>
        <time>2019-08-11T07:40:50.000Z</time>
      </trkpt>
      <trkpt lat="47.28352" lon="-2.32515">
        <ele>16.60000038147</ele>
        <time>2019-08-11T07:40:53.000Z</time>
      </trkpt>
      <trkpt lat="47.28361" lon="-2.32516">
        <ele>16</ele>
        <time>2019-08-11T07:40:55.000Z</time>
      </trkpt>
      <trkpt lat="47.28365" lon="-2.32517">
        <ele>15.60000038147</ele>
        <time>2019-08-11T07:40:56.000Z</time>
      </trkpt>
      <trkpt lat="47.2837" lon="-2.32518">
        <ele>15.199999809265</ele>
        <time>2019-08-11T07:40:57.000Z</time>
      </trkpt>
      <trkpt lat="47.28374" lon="-2.32518">
        <ele>14.800000190735</ele>
        <time>2019-08-11T07:40:58.000Z</time>
      </trkpt>
      <trkpt lat="47.28378" lon="-2.32517">
        <ele>14.39999961853</ele>
        <time>2019-08-11T07:40:59.000Z</time>
      </trkpt>
      <trkpt lat="47.28381" lon="-2.32518">
        <ele>14.39999961853</ele>
        <time>2019-08-11T07:41:00.000Z</time>
      </trkpt>
      <trkpt lat="47.28384" lon="-2.32521">
        <ele>14.39999961853</ele>
        <time>2019-08-11T07:41:02.000Z</time>
      </trkpt>
      <trkpt lat="47.28384" lon="-2.32521">
        <ele>14.39999961853</ele>
        <time>2019-08-11T07:41:03.000Z</time>
      </trkpt>
      <trkpt lat="47.28384" lon="-2.32524">
        <ele>14.39999961853</ele>
        <time>2019-08-11T07:41:07.000Z</time>
      </trkpt>
      <trkpt lat="47.28381" lon="-2.32524">
        <ele>14.39999961853</ele>
        <time>2019-08-11T07:41:10.000Z</time>
      </trkpt>
      <trkpt lat="47.2838" lon="-2.32525">
        <ele>14.39999961853</ele>
        <time>2019-08-11T07:41:11.000Z</time>
      </trkpt>
      <trkpt lat="47.28375" lon="-2.32524">
        <ele>14.39999961853</ele>
        <time>2019-08-11T07:41:15.000Z</time>
      </trkpt>
      <trkpt lat="47.28368" lon="-2.32523">
        <ele>14.39999961853</ele>
        <time>2019-08-11T07:41:18.000Z</time>
      </trkpt>
      <trkpt lat="47.28363" lon="-2.32524">
        <ele>14.39999961853</ele>
        <time>2019-08-11T07:41:20.000Z</time>
      </trkpt>
      <trkpt lat="47.28362" lon="-2.32527">
        <ele>14.39999961853</ele>
        <time>2019-08-11T07:41:21.000Z</time>
      </trkpt>
      <trkpt lat="47.28361" lon="-2.32545">
        <ele>14.39999961853</ele>
        <time>2019-08-11T07:41:25.000Z</time>
      </trkpt>
      <trkpt lat="47.28362" lon="-2.32566">
        <ele>14.39999961853</ele>
        <time>2019-08-11T07:41:28.000Z</time>
      </trkpt>
      <trkpt lat="47.28364" lon="-2.32571">
        <ele>14.39999961853</ele>
        <time>2019-08-11T07:41:29.000Z</time>
      </trkpt>
      <trkpt lat="47.28369" lon="-2.32577">
        <ele>14.39999961853</ele>
        <time>2019-08-11T07:41:31.000Z</time>
      </trkpt>
      <trkpt lat="47.28373" lon="-2.32578">
        <ele>14.39999961853</ele>
        <time>2019-08-11T07:41:32.000Z</time>
      </trkpt>
      <trkpt lat="47.28386" lon="-2.32576">
        <ele>14.39999961853</ele>
        <time>2019-08-11T07:41:35.000Z</time>
      </trkpt>
      <trkpt lat="47.28391" lon="-2.32579">
        <ele>14.39999961853</ele>
        <time>2019-08-11T07:41:37.000Z</time>
      </trkpt>
      <trkpt lat="47.28394" lon="-2.32584">
        <ele>14.39999961853</ele>
        <time>2019-08-11T07:41:39.000Z</time>
      </trkpt>
      <trkpt lat="47.28399" lon="-2.32599">
        <ele>14.39999961853</ele>
        <time>2019-08-11T07:41:43.000Z</time>
      </trkpt>
      <trkpt lat="47.28402" lon="-2.32601">
        <ele>14.39999961853</ele>
        <time>2019-08-11T07:41:44.000Z</time>
      </trkpt>
      <trkpt lat="47.28406" lon="-2.32618">
        <ele>14.39999961853</ele>
        <time>2019-08-11T07:41:47.000Z</time>
      </trkpt>
      <trkpt lat="47.28401" lon="-2.32642">
        <ele>14.39999961853</ele>
        <time>2019-08-11T07:41:50.000Z</time>
      </trkpt>
      <trkpt lat="47.28389" lon="-2.32697">
        <ele>14.39999961853</ele>
        <time>2019-08-11T07:41:56.000Z</time>
      </trkpt>
      <trkpt lat="47.28377" lon="-2.32751">
        <ele>14.39999961853</ele>
        <time>2019-08-11T07:42:02.000Z</time>
      </trkpt>
      <trkpt lat="47.28368" lon="-2.32798">
        <ele>14.39999961853</ele>
        <time>2019-08-11T07:42:07.000Z</time>
      </trkpt>
      <trkpt lat="47.28365" lon="-2.32818">
        <ele>14.39999961853</ele>
        <time>2019-08-11T07:42:09.000Z</time>
      </trkpt>
      <trkpt lat="47.28365" lon="-2.32848">
        <ele>14.39999961853</ele>
        <time>2019-08-11T07:42:12.000Z</time>
      </trkpt>
      <trkpt lat="47.28365" lon="-2.32867">
        <ele>14.39999961853</ele>
        <time>2019-08-11T07:42:14.000Z</time>
      </trkpt>
      <trkpt lat="47.28364" lon="-2.32887">
        <ele>14.39999961853</ele>
        <time>2019-08-11T07:42:16.000Z</time>
      </trkpt>
      <trkpt lat="47.28363" lon="-2.32896">
        <ele>14.39999961853</ele>
        <time>2019-08-11T07:42:17.000Z</time>
      </trkpt>
      <trkpt lat="47.28357" lon="-2.32923">
        <ele>14.39999961853</ele>
        <time>2019-08-11T07:42:20.000Z</time>
      </trkpt>
      <trkpt lat="47.28353" lon="-2.3293">
        <ele>14.39999961853</ele>
        <time>2019-08-11T07:42:21.000Z</time>
      </trkpt>
      <trkpt lat="47.2833" lon="-2.32954">
        <ele>14.39999961853</ele>
        <time>2019-08-11T07:42:25.000Z</time>
      </trkpt>
      <trkpt lat="47.28311" lon="-2.32971">
        <ele>14</ele>
        <time>2019-08-11T07:42:28.000Z</time>
      </trkpt>
      <trkpt lat="47.28305" lon="-2.32976">
        <ele>13.60000038147</ele>
        <time>2019-08-11T07:42:29.000Z</time>
      </trkpt>
      <trkpt lat="47.28298" lon="-2.32982">
        <ele>13.199999809265</ele>
        <time>2019-08-11T07:42:30.000Z</time>
      </trkpt>
      <trkpt lat="47.28292" lon="-2.32988">
        <ele>12.800000190735</ele>
        <time>2019-08-11T07:42:31.000Z</time>
      </trkpt>
      <trkpt lat="47.28286" lon="-2.32993">
        <ele>12.39999961853</ele>
        <time>2019-08-11T07:42:32.000Z</time>
      </trkpt>
      <trkpt lat="47.28248" lon="-2.33023">
        <ele>12.39999961853</ele>
        <time>2019-08-11T07:42:38.000Z</time>
      </trkpt>
      <trkpt lat="47.28231" lon="-2.33039">
        <ele>12.39999961853</ele>
        <time>2019-08-11T07:42:41.000Z</time>
      </trkpt>
      <trkpt lat="47.28221" lon="-2.33053">
        <ele>12.39999961853</ele>
        <time>2019-08-11T07:42:43.000Z</time>
      </trkpt>
      <trkpt lat="47.28201" lon="-2.33095">
        <ele>12.39999961853</ele>
        <time>2019-08-11T07:42:48.000Z</time>
      </trkpt>
      <trkpt lat="47.28198" lon="-2.33104">
        <ele>12.39999961853</ele>
        <time>2019-08-11T07:42:49.000Z</time>
      </trkpt>
      <trkpt lat="47.28194" lon="-2.33135">
        <ele>12.39999961853</ele>
        <time>2019-08-11T07:42:52.000Z</time>
      </trkpt>
      <trkpt lat="47.28193" lon="-2.33145">
        <ele>12.39999961853</ele>
        <time>2019-08-11T07:42:53.000Z</time>
      </trkpt>
      <trkpt lat="47.28192" lon="-2.33183">
        <ele>12.39999961853</ele>
        <time>2019-08-11T07:42:57.000Z</time>
      </trkpt>
      <trkpt lat="47.28188" lon="-2.33243">
        <ele>12.39999961853</ele>
        <time>2019-08-11T07:43:03.000Z</time>
      </trkpt>
      <trkpt lat="47.28179" lon="-2.33297">
        <ele>12.39999961853</ele>
        <time>2019-08-11T07:43:09.000Z</time>
      </trkpt>
      <trkpt lat="47.28174" lon="-2.33312">
        <ele>12.39999961853</ele>
        <time>2019-08-11T07:43:11.000Z</time>
      </trkpt>
      <trkpt lat="47.28163" lon="-2.33336">
        <ele>12.39999961853</ele>
        <time>2019-08-11T07:43:14.000Z</time>
      </trkpt>
      <trkpt lat="47.28156" lon="-2.33352">
        <ele>12.800000190735</ele>
        <time>2019-08-11T07:43:16.000Z</time>
      </trkpt>
      <trkpt lat="47.28153" lon="-2.33359">
        <ele>13.199999809265</ele>
        <time>2019-08-11T07:43:17.000Z</time>
      </trkpt>
      <trkpt lat="47.28149" lon="-2.33367">
        <ele>13.60000038147</ele>
        <time>2019-08-11T07:43:18.000Z</time>
      </trkpt>
      <trkpt lat="47.28145" lon="-2.33374">
        <ele>14</ele>
        <time>2019-08-11T07:43:19.000Z</time>
      </trkpt>
      <trkpt lat="47.28141" lon="-2.33383">
        <ele>14.39999961853</ele>
        <time>2019-08-11T07:43:20.000Z</time>
      </trkpt>
      <trkpt lat="47.28138" lon="-2.3339">
        <ele>14.39999961853</ele>
        <time>2019-08-11T07:43:21.000Z</time>
      </trkpt>
      <trkpt lat="47.28117" lon="-2.33437">
        <ele>14.39999961853</ele>
        <time>2019-08-11T07:43:27.000Z</time>
      </trkpt>
      <trkpt lat="47.28093" lon="-2.3349">
        <ele>14.39999961853</ele>
        <time>2019-08-11T07:43:34.000Z</time>
      </trkpt>
      <trkpt lat="47.28081" lon="-2.33509">
        <ele>14.39999961853</ele>
        <time>2019-08-11T07:43:37.000Z</time>
      </trkpt>
      <trkpt lat="47.28075" lon="-2.33522">
        <ele>14.39999961853</ele>
        <time>2019-08-11T07:43:39.000Z</time>
      </trkpt>
      <trkpt lat="47.28075" lon="-2.33542">
        <ele>14.39999961853</ele>
        <time>2019-08-11T07:43:42.000Z</time>
      </trkpt>
      <trkpt lat="47.28076" lon="-2.33548">
        <ele>14.39999961853</ele>
        <time>2019-08-11T07:43:43.000Z</time>
      </trkpt>
      <trkpt lat="47.28083" lon="-2.33585">
        <ele>14.39999961853</ele>
        <time>2019-08-11T07:43:49.000Z</time>
      </trkpt>
      <trkpt lat="47.28085" lon="-2.33597">
        <ele>14.39999961853</ele>
        <time>2019-08-11T07:43:51.000Z</time>
      </trkpt>
      <trkpt lat="47.28088" lon="-2.33609">
        <ele>14.39999961853</ele>
        <time>2019-08-11T07:43:53.000Z</time>
      </trkpt>
      <trkpt lat="47.28089" lon="-2.33622">
        <ele>14.39999961853</ele>
        <time>2019-08-11T07:43:55.000Z</time>
      </trkpt>
      <trkpt lat="47.28091" lon="-2.33632">
        <ele>14.39999961853</ele>
        <time>2019-08-11T07:43:57.000Z</time>
      </trkpt>
      <trkpt lat="47.28091" lon="-2.33644">
        <ele>14.39999961853</ele>
        <time>2019-08-11T07:44:00.000Z</time>
      </trkpt>
      <trkpt lat="47.28093" lon="-2.33652">
        <ele>14.39999961853</ele>
        <time>2019-08-11T07:44:02.000Z</time>
      </trkpt>
      <trkpt lat="47.28097" lon="-2.3366">
        <ele>14.39999961853</ele>
        <time>2019-08-11T07:44:04.000Z</time>
      </trkpt>
      <trkpt lat="47.28102" lon="-2.33666">
        <ele>14.39999961853</ele>
        <time>2019-08-11T07:44:06.000Z</time>
      </trkpt>
      <trkpt lat="47.28106" lon="-2.33673">
        <ele>14.39999961853</ele>
        <time>2019-08-11T07:44:08.000Z</time>
      </trkpt>
      <trkpt lat="47.28111" lon="-2.33679">
        <ele>14.39999961853</ele>
        <time>2019-08-11T07:44:10.000Z</time>
      </trkpt>
      <trkpt lat="47.28119" lon="-2.33687">
        <ele>14.39999961853</ele>
        <time>2019-08-11T07:44:13.000Z</time>
      </trkpt>
      <trkpt lat="47.28132" lon="-2.33704">
        <ele>14.800000190735</ele>
        <time>2019-08-11T07:44:19.000Z</time>
      </trkpt>
      <trkpt lat="47.28134" lon="-2.33708">
        <ele>15.60000038147</ele>
        <time>2019-08-11T07:44:20.000Z</time>
      </trkpt>
      <trkpt lat="47.28137" lon="-2.33711">
        <ele>16</ele>
        <time>2019-08-11T07:44:21.000Z</time>
      </trkpt>
      <trkpt lat="47.28139" lon="-2.33715">
        <ele>16.39999961853</ele>
        <time>2019-08-11T07:44:22.000Z</time>
      </trkpt>
      <trkpt lat="47.28149" lon="-2.33729">
        <ele>16.39999961853</ele>
        <time>2019-08-11T07:44:26.000Z</time>
      </trkpt>
      <trkpt lat="47.2817" lon="-2.33751">
        <ele>16.39999961853</ele>
        <time>2019-08-11T07:44:32.000Z</time>
      </trkpt>
      <trkpt lat="47.28185" lon="-2.33769">
        <ele>16.39999961853</ele>
        <time>2019-08-11T07:44:37.000Z</time>
      </trkpt>
      <trkpt lat="47.28208" lon="-2.33791">
        <ele>16.39999961853</ele>
        <time>2019-08-11T07:44:43.000Z</time>
      </trkpt>
      <trkpt lat="47.2823" lon="-2.33799">
        <ele>16.39999961853</ele>
        <time>2019-08-11T07:44:48.000Z</time>
      </trkpt>
      <trkpt lat="47.28238" lon="-2.33803">
        <ele>16.39999961853</ele>
        <time>2019-08-11T07:44:50.000Z</time>
      </trkpt>
      <trkpt lat="47.2825" lon="-2.33811">
        <ele>16.39999961853</ele>
        <time>2019-08-11T07:44:53.000Z</time>
      </trkpt>
      <trkpt lat="47.28259" lon="-2.33823">
        <ele>17</ele>
        <time>2019-08-11T07:44:56.000Z</time>
      </trkpt>
      <trkpt lat="47.28261" lon="-2.33829">
        <ele>17.39999961853</ele>
        <time>2019-08-11T07:44:57.000Z</time>
      </trkpt>
      <trkpt lat="47.28264" lon="-2.33835">
        <ele>17.799999237061</ele>
        <time>2019-08-11T07:44:58.000Z</time>
      </trkpt>
      <trkpt lat="47.28267" lon="-2.3384">
        <ele>18.200000762939</ele>
        <time>2019-08-11T07:44:59.000Z</time>
      </trkpt>
      <trkpt lat="47.28269" lon="-2.33846">
        <ele>18.60000038147</ele>
        <time>2019-08-11T07:45:00.000Z</time>
      </trkpt>
      <trkpt lat="47.2828" lon="-2.33871">
        <ele>18.60000038147</ele>
        <time>2019-08-11T07:45:04.000Z</time>
      </trkpt>
      <trkpt lat="47.28297" lon="-2.3391">
        <ele>18.60000038147</ele>
        <time>2019-08-11T07:45:11.000Z</time>
      </trkpt>
      <trkpt lat="47.28311" lon="-2.33944">
        <ele>18.60000038147</ele>
        <time>2019-08-11T07:45:18.000Z</time>
      </trkpt>
      <trkpt lat="47.28321" lon="-2.33968">
        <ele>18.60000038147</ele>
        <time>2019-08-11T07:45:23.000Z</time>
      </trkpt>
      <trkpt lat="47.28322" lon="-2.33974">
        <ele>18.60000038147</ele>
        <time>2019-08-11T07:45:24.000Z</time>
      </trkpt>
      <trkpt lat="47.28329" lon="-2.33991">
        <ele>19</ele>
        <time>2019-08-11T07:45:27.000Z</time>
      </trkpt>
      <trkpt lat="47.28331" lon="-2.33996">
        <ele>19.39999961853</ele>
        <time>2019-08-11T07:45:28.000Z</time>
      </trkpt>
      <trkpt lat="47.28333" lon="-2.34002">
        <ele>19.799999237061</ele>
        <time>2019-08-11T07:45:29.000Z</time>
      </trkpt>
      <trkpt lat="47.28335" lon="-2.34006">
        <ele>20.200000762939</ele>
        <time>2019-08-11T07:45:30.000Z</time>
      </trkpt>
      <trkpt lat="47.28337" lon="-2.34009">
        <ele>20.799999237061</ele>
        <time>2019-08-11T07:45:31.000Z</time>
      </trkpt>
      <trkpt lat="47.28341" lon="-2.34009">
        <ele>20.799999237061</ele>
        <time>2019-08-11T07:45:32.000Z</time>
      </trkpt>
      <trkpt lat="47.28348" lon="-2.3401">
        <ele>20.799999237061</ele>
        <time>2019-08-11T07:45:34.000Z</time>
      </trkpt>
      <trkpt lat="47.28361" lon="-2.34005">
        <ele>20.799999237061</ele>
        <time>2019-08-11T07:45:38.000Z</time>
      </trkpt>
      <trkpt lat="47.28365" lon="-2.34003">
        <ele>20.799999237061</ele>
        <time>2019-08-11T07:45:39.000Z</time>
      </trkpt>
      <trkpt lat="47.2839" lon="-2.3399">
        <ele>20.799999237061</ele>
        <time>2019-08-11T07:45:46.000Z</time>
      </trkpt>
      <trkpt lat="47.28405" lon="-2.33989">
        <ele>21.200000762939</ele>
        <time>2019-08-11T07:45:50.000Z</time>
      </trkpt>
      <trkpt lat="47.28409" lon="-2.33991">
        <ele>21.60000038147</ele>
        <time>2019-08-11T07:45:51.000Z</time>
      </trkpt>
      <trkpt lat="47.28411" lon="-2.33995">
        <ele>22</ele>
        <time>2019-08-11T07:45:52.000Z</time>
      </trkpt>
      <trkpt lat="47.28413" lon="-2.33999">
        <ele>22.39999961853</ele>
        <time>2019-08-11T07:45:53.000Z</time>
      </trkpt>
      <trkpt lat="47.28414" lon="-2.34005">
        <ele>22.799999237061</ele>
        <time>2019-08-11T07:45:54.000Z</time>
      </trkpt>
      <trkpt lat="47.2842" lon="-2.34022">
        <ele>22.799999237061</ele>
        <time>2019-08-11T07:45:57.000Z</time>
      </trkpt>
      <trkpt lat="47.28423" lon="-2.34041">
        <ele>22.799999237061</ele>
        <time>2019-08-11T07:46:00.000Z</time>
      </trkpt>
      <trkpt lat="47.28433" lon="-2.34098">
        <ele>22.799999237061</ele>
        <time>2019-08-11T07:46:09.000Z</time>
      </trkpt>
      <trkpt lat="47.2844" lon="-2.3414">
        <ele>22.799999237061</ele>
        <time>2019-08-11T07:46:16.000Z</time>
      </trkpt>
      <trkpt lat="47.28446" lon="-2.34174">
        <ele>22.799999237061</ele>
        <time>2019-08-11T07:46:23.000Z</time>
      </trkpt>
      <trkpt lat="47.28445" lon="-2.34177">
        <ele>22.799999237061</ele>
        <time>2019-08-11T07:46:24.000Z</time>
      </trkpt>
      <trkpt lat="47.28442" lon="-2.34183">
        <ele>22.799999237061</ele>
        <time>2019-08-11T07:46:27.000Z</time>
      </trkpt>
      <trkpt lat="47.28438" lon="-2.34187">
        <ele>22.799999237061</ele>
        <time>2019-08-11T07:46:30.000Z</time>
      </trkpt>
      <trkpt lat="47.28437" lon="-2.34187">
        <ele>22.799999237061</ele>
        <time>2019-08-11T07:46:32.000Z</time>
      </trkpt>
      <trkpt lat="47.28435" lon="-2.3419">
        <ele>22.799999237061</ele>
        <time>2019-08-11T07:48:22.000Z</time>
      </trkpt>
      <trkpt lat="47.28425" lon="-2.34193">
        <ele>22.799999237061</ele>
        <time>2019-08-11T07:48:26.000Z</time>
      </trkpt>
      <trkpt lat="47.28401" lon="-2.34204">
        <ele>22.799999237061</ele>
        <time>2019-08-11T07:48:32.000Z</time>
      </trkpt>
      <trkpt lat="47.28366" lon="-2.34223">
        <ele>22.799999237061</ele>
        <time>2019-08-11T07:48:40.000Z</time>
      </trkpt>
      <trkpt lat="47.28334" lon="-2.34241">
        <ele>22.799999237061</ele>
        <time>2019-08-11T07:48:47.000Z</time>
      </trkpt>
      <trkpt lat="47.28308" lon="-2.34259">
        <ele>22.799999237061</ele>
        <time>2019-08-11T07:48:53.000Z</time>
      </trkpt>
      <trkpt lat="47.28299" lon="-2.34264">
        <ele>22.799999237061</ele>
        <time>2019-08-11T07:48:55.000Z</time>
      </trkpt>
      <trkpt lat="47.28275" lon="-2.34276">
        <ele>22.799999237061</ele>
        <time>2019-08-11T07:49:00.000Z</time>
      </trkpt>
      <trkpt lat="47.28251" lon="-2.34283">
        <ele>22.799999237061</ele>
        <time>2019-08-11T07:49:05.000Z</time>
      </trkpt>
      <trkpt lat="47.2822" lon="-2.34296">
        <ele>22.799999237061</ele>
        <time>2019-08-11T07:49:11.000Z</time>
      </trkpt>
      <trkpt lat="47.28193" lon="-2.34309">
        <ele>23.39999961853</ele>
        <time>2019-08-11T07:49:16.000Z</time>
      </trkpt>
      <trkpt lat="47.28178" lon="-2.34317">
        <ele>24.60000038147</ele>
        <time>2019-08-11T07:49:17.000Z</time>
      </trkpt>
      <trkpt lat="47.28173" lon="-2.34319">
        <ele>25</ele>
        <time>2019-08-11T07:49:21.000Z</time>
      </trkpt>
      <trkpt lat="47.28168" lon="-2.34321">
        <ele>25</ele>
        <time>2019-08-11T07:49:22.000Z</time>
      </trkpt>
      <trkpt lat="47.28163" lon="-2.34322">
        <ele>25</ele>
        <time>2019-08-11T07:49:23.000Z</time>
      </trkpt>
      <trkpt lat="47.28145" lon="-2.34319">
        <ele>25</ele>
        <time>2019-08-11T07:49:26.000Z</time>
      </trkpt>
      <trkpt lat="47.2811" lon="-2.34309">
        <ele>25</ele>
        <time>2019-08-11T07:49:32.000Z</time>
      </trkpt>
      <trkpt lat="47.28071" lon="-2.34308">
        <ele>25</ele>
        <time>2019-08-11T07:49:39.000Z</time>
      </trkpt>
      <trkpt lat="47.28056" lon="-2.34313">
        <ele>25</ele>
        <time>2019-08-11T07:49:42.000Z</time>
      </trkpt>
      <trkpt lat="47.28053" lon="-2.3432">
        <ele>25</ele>
        <time>2019-08-11T07:49:43.000Z</time>
      </trkpt>
      <trkpt lat="47.28051" lon="-2.34344">
        <ele>25</ele>
        <time>2019-08-11T07:49:46.000Z</time>
      </trkpt>
      <trkpt lat="47.2806" lon="-2.34361">
        <ele>25</ele>
        <time>2019-08-11T07:49:49.000Z</time>
      </trkpt>
      <trkpt lat="47.28072" lon="-2.34383">
        <ele>25</ele>
        <time>2019-08-11T07:49:53.000Z</time>
      </trkpt>
      <trkpt lat="47.28074" lon="-2.34388">
        <ele>25</ele>
        <time>2019-08-11T07:49:54.000Z</time>
      </trkpt>
      <trkpt lat="47.2809" lon="-2.34412">
        <ele>25</ele>
        <time>2019-08-11T07:49:59.000Z</time>
      </trkpt>
      <trkpt lat="47.28115" lon="-2.34447">
        <ele>25</ele>
        <time>2019-08-11T07:50:06.000Z</time>
      </trkpt>
      <trkpt lat="47.28132" lon="-2.34473">
        <ele>25</ele>
        <time>2019-08-11T07:50:11.000Z</time>
      </trkpt>
      <trkpt lat="47.28144" lon="-2.34495">
        <ele>25</ele>
        <time>2019-08-11T07:50:15.000Z</time>
      </trkpt>
      <trkpt lat="47.28148" lon="-2.34508">
        <ele>25</ele>
        <time>2019-08-11T07:50:17.000Z</time>
      </trkpt>
      <trkpt lat="47.28151" lon="-2.34513">
        <ele>25</ele>
        <time>2019-08-11T07:50:18.000Z</time>
      </trkpt>
      <trkpt lat="47.28152" lon="-2.34523">
        <ele>25</ele>
        <time>2019-08-11T07:50:20.000Z</time>
      </trkpt>
      <trkpt lat="47.28142" lon="-2.34538">
        <ele>25</ele>
        <time>2019-08-11T07:50:23.000Z</time>
      </trkpt>
      <trkpt lat="47.28139" lon="-2.34544">
        <ele>25</ele>
        <time>2019-08-11T07:50:24.000Z</time>
      </trkpt>
      <trkpt lat="47.28132" lon="-2.34554">
        <ele>25</ele>
        <time>2019-08-11T07:50:26.000Z</time>
      </trkpt>
      <trkpt lat="47.28122" lon="-2.34561">
        <ele>25</ele>
        <time>2019-08-11T07:50:28.000Z</time>
      </trkpt>
      <trkpt lat="47.28107" lon="-2.34582">
        <ele>25</ele>
        <time>2019-08-11T07:50:32.000Z</time>
      </trkpt>
      <trkpt lat="47.28107" lon="-2.34613">
        <ele>25</ele>
        <time>2019-08-11T07:50:36.000Z</time>
      </trkpt>
      <trkpt lat="47.28117" lon="-2.34641">
        <ele>25</ele>
        <time>2019-08-11T07:50:40.000Z</time>
      </trkpt>
      <trkpt lat="47.28146" lon="-2.34713">
        <ele>25</ele>
        <time>2019-08-11T07:50:50.000Z</time>
      </trkpt>
      <trkpt lat="47.28155" lon="-2.34743">
        <ele>25</ele>
        <time>2019-08-11T07:50:54.000Z</time>
      </trkpt>
      <trkpt lat="47.28159" lon="-2.34758">
        <ele>25</ele>
        <time>2019-08-11T07:50:56.000Z</time>
      </trkpt>
      <trkpt lat="47.28159" lon="-2.34766">
        <ele>24.60000038147</ele>
        <time>2019-08-11T07:50:57.000Z</time>
      </trkpt>
      <trkpt lat="47.28162" lon="-2.34773">
        <ele>24.200000762939</ele>
        <time>2019-08-11T07:50:58.000Z</time>
      </trkpt>
      <trkpt lat="47.28165" lon="-2.34778">
        <ele>23.799999237061</ele>
        <time>2019-08-11T07:50:59.000Z</time>
      </trkpt>
      <trkpt lat="47.2817" lon="-2.34782">
        <ele>23.39999961853</ele>
        <time>2019-08-11T07:51:00.000Z</time>
      </trkpt>
      <trkpt lat="47.28174" lon="-2.34786">
        <ele>23</ele>
        <time>2019-08-11T07:51:01.000Z</time>
      </trkpt>
      <trkpt lat="47.28176" lon="-2.34792">
        <ele>23</ele>
        <time>2019-08-11T07:51:02.000Z</time>
      </trkpt>
      <trkpt lat="47.2818" lon="-2.34807">
        <ele>23</ele>
        <time>2019-08-11T07:51:04.000Z</time>
      </trkpt>
      <trkpt lat="47.28181" lon="-2.34816">
        <ele>23</ele>
        <time>2019-08-11T07:51:05.000Z</time>
      </trkpt>
      <trkpt lat="47.28182" lon="-2.34834">
        <ele>23</ele>
        <time>2019-08-11T07:51:07.000Z</time>
      </trkpt>
      <trkpt lat="47.28182" lon="-2.34844">
        <ele>23</ele>
        <time>2019-08-11T07:51:08.000Z</time>
      </trkpt>
      <trkpt lat="47.28186" lon="-2.34862">
        <ele>23</ele>
        <time>2019-08-11T07:51:10.000Z</time>
      </trkpt>
      <trkpt lat="47.28192" lon="-2.34887">
        <ele>23</ele>
        <time>2019-08-11T07:51:13.000Z</time>
      </trkpt>
      <trkpt lat="47.28211" lon="-2.34955">
        <ele>23</ele>
        <time>2019-08-11T07:51:21.000Z</time>
      </trkpt>
      <trkpt lat="47.28228" lon="-2.34992">
        <ele>23</ele>
        <time>2019-08-11T07:51:26.000Z</time>
      </trkpt>
      <trkpt lat="47.2825" lon="-2.35031">
        <ele>23</ele>
        <time>2019-08-11T07:51:33.000Z</time>
      </trkpt>
      <trkpt lat="47.28274" lon="-2.35059">
        <ele>23</ele>
        <time>2019-08-11T07:51:40.000Z</time>
      </trkpt>
      <trkpt lat="47.28299" lon="-2.35074">
        <ele>23</ele>
        <time>2019-08-11T07:51:47.000Z</time>
      </trkpt>
      <trkpt lat="47.28323" lon="-2.3508">
        <ele>23</ele>
        <time>2019-08-11T07:51:53.000Z</time>
      </trkpt>
      <trkpt lat="47.2834" lon="-2.3509">
        <ele>23</ele>
        <time>2019-08-11T07:51:58.000Z</time>
      </trkpt>
      <trkpt lat="47.28351" lon="-2.35111">
        <ele>23</ele>
        <time>2019-08-11T07:52:03.000Z</time>
      </trkpt>
      <trkpt lat="47.28362" lon="-2.35143">
        <ele>23</ele>
        <time>2019-08-11T07:52:09.000Z</time>
      </trkpt>
      <trkpt lat="47.28377" lon="-2.35187">
        <ele>23</ele>
        <time>2019-08-11T07:52:16.000Z</time>
      </trkpt>
      <trkpt lat="47.28388" lon="-2.35225">
        <ele>23</ele>
        <time>2019-08-11T07:52:21.000Z</time>
      </trkpt>
      <trkpt lat="47.28387" lon="-2.35233">
        <ele>23</ele>
        <time>2019-08-11T07:52:22.000Z</time>
      </trkpt>
      <trkpt lat="47.28379" lon="-2.35253">
        <ele>23</ele>
        <time>2019-08-11T07:52:25.000Z</time>
      </trkpt>
      <trkpt lat="47.28372" lon="-2.35265">
        <ele>23</ele>
        <time>2019-08-11T07:52:27.000Z</time>
      </trkpt>
      <trkpt lat="47.28358" lon="-2.35286">
        <ele>23</ele>
        <time>2019-08-11T07:52:31.000Z</time>
      </trkpt>
      <trkpt lat="47.2835" lon="-2.35302">
        <ele>23</ele>
        <time>2019-08-11T07:52:34.000Z</time>
      </trkpt>
      <trkpt lat="47.2835" lon="-2.35313">
        <ele>23</ele>
        <time>2019-08-11T07:52:36.000Z</time>
      </trkpt>
      <trkpt lat="47.28358" lon="-2.35339">
        <ele>23</ele>
        <time>2019-08-11T07:52:40.000Z</time>
      </trkpt>
      <trkpt lat="47.2836" lon="-2.35346">
        <ele>22.39999961853</ele>
        <time>2019-08-11T07:52:41.000Z</time>
      </trkpt>
      <trkpt lat="47.28361" lon="-2.35352">
        <ele>22</ele>
        <time>2019-08-11T07:52:42.000Z</time>
      </trkpt>
      <trkpt lat="47.28362" lon="-2.35356">
        <ele>21.60000038147</ele>
        <time>2019-08-11T07:52:43.000Z</time>
      </trkpt>
      <trkpt lat="47.28363" lon="-2.35359">
        <ele>21.200000762939</ele>
        <time>2019-08-11T07:52:44.000Z</time>
      </trkpt>
      <trkpt lat="47.28363" lon="-2.35362">
        <ele>20.799999237061</ele>
        <time>2019-08-11T07:52:45.000Z</time>
      </trkpt>
      <trkpt lat="47.28363" lon="-2.35365">
        <ele>20.799999237061</ele>
        <time>2019-08-11T07:52:46.000Z</time>
      </trkpt>
      <trkpt lat="47.28365" lon="-2.35373">
        <ele>21.200000762939</ele>
        <time>2019-08-11T07:52:49.000Z</time>
      </trkpt>
      <trkpt lat="47.28365" lon="-2.35375">
        <ele>21.60000038147</ele>
        <time>2019-08-11T07:52:50.000Z</time>
      </trkpt>
      <trkpt lat="47.28366" lon="-2.35377">
        <ele>22</ele>
        <time>2019-08-11T07:52:51.000Z</time>
      </trkpt>
      <trkpt lat="47.28367" lon="-2.35379">
        <ele>22.39999961853</ele>
        <time>2019-08-11T07:52:52.000Z</time>
      </trkpt>
      <trkpt lat="47.28369" lon="-2.35381">
        <ele>22.799999237061</ele>
        <time>2019-08-11T07:52:53.000Z</time>
      </trkpt>
      <trkpt lat="47.28369" lon="-2.35384">
        <ele>23.200000762939</ele>
        <time>2019-08-11T07:52:54.000Z</time>
      </trkpt>
      <trkpt lat="47.2837" lon="-2.35385">
        <ele>23.60000038147</ele>
        <time>2019-08-11T07:52:55.000Z</time>
      </trkpt>
      <trkpt lat="47.2837" lon="-2.35388">
        <ele>24.200000762939</ele>
        <time>2019-08-11T07:52:56.000Z</time>
      </trkpt>
      <trkpt lat="47.28371" lon="-2.35391">
        <ele>24.60000038147</ele>
        <time>2019-08-11T07:52:57.000Z</time>
      </trkpt>
      <trkpt lat="47.28373" lon="-2.35393">
        <ele>25</ele>
        <time>2019-08-11T07:52:58.000Z</time>
      </trkpt>
      <trkpt lat="47.28374" lon="-2.35395">
        <ele>25.39999961853</ele>
        <time>2019-08-11T07:52:59.000Z</time>
      </trkpt>
      <trkpt lat="47.28376" lon="-2.35397">
        <ele>25.799999237061</ele>
        <time>2019-08-11T07:53:00.000Z</time>
      </trkpt>
      <trkpt lat="47.28377" lon="-2.35399">
        <ele>26.799999237061</ele>
        <time>2019-08-11T07:53:01.000Z</time>
      </trkpt>
      <trkpt lat="47.28379" lon="-2.35402">
        <ele>27.200000762939</ele>
        <time>2019-08-11T07:53:02.000Z</time>
      </trkpt>
      <trkpt lat="47.28383" lon="-2.35407">
        <ele>27.60000038147</ele>
        <time>2019-08-11T07:53:04.000Z</time>
      </trkpt>
      <trkpt lat="47.28384" lon="-2.35408">
        <ele>28</ele>
        <time>2019-08-11T07:53:05.000Z</time>
      </trkpt>
      <trkpt lat="47.28386" lon="-2.35411">
        <ele>28.60000038147</ele>
        <time>2019-08-11T07:53:06.000Z</time>
      </trkpt>
      <trkpt lat="47.28387" lon="-2.35412">
        <ele>29</ele>
        <time>2019-08-11T07:53:07.000Z</time>
      </trkpt>
      <trkpt lat="47.28389" lon="-2.35413">
        <ele>29.39999961853</ele>
        <time>2019-08-11T07:53:08.000Z</time>
      </trkpt>
      <trkpt lat="47.28393" lon="-2.35419">
        <ele>29.39999961853</ele>
        <time>2019-08-11T07:53:14.000Z</time>
      </trkpt>
      <trkpt lat="47.28397" lon="-2.35421">
        <ele>29.39999961853</ele>
        <time>2019-08-11T07:53:25.000Z</time>
      </trkpt>
      <trkpt lat="47.28401" lon="-2.35423">
        <ele>29.39999961853</ele>
        <time>2019-08-11T07:53:27.000Z</time>
      </trkpt>
      <trkpt lat="47.28405" lon="-2.3542">
        <ele>29.39999961853</ele>
        <time>2019-08-11T07:53:30.000Z</time>
      </trkpt>
      <trkpt lat="47.28406" lon="-2.35416">
        <ele>29.39999961853</ele>
        <time>2019-08-11T07:53:31.000Z</time>
      </trkpt>
      <trkpt lat="47.28414" lon="-2.3541">
        <ele>29.39999961853</ele>
        <time>2019-08-11T07:53:36.000Z</time>
      </trkpt>
      <trkpt lat="47.28416" lon="-2.35408">
        <ele>29.39999961853</ele>
        <time>2019-08-11T07:53:37.000Z</time>
      </trkpt>
      <trkpt lat="47.28417" lon="-2.35407">
        <ele>29.39999961853</ele>
        <time>2019-08-11T07:53:38.000Z</time>
      </trkpt>
      <trkpt lat="47.28419" lon="-2.35407">
        <ele>29.799999237061</ele>
        <time>2019-08-11T07:53:39.000Z</time>
      </trkpt>
      <trkpt lat="47.28421" lon="-2.35407">
        <ele>30.200000762939</ele>
        <time>2019-08-11T07:53:40.000Z</time>
      </trkpt>
      <trkpt lat="47.28423" lon="-2.35408">
        <ele>30.60000038147</ele>
        <time>2019-08-11T07:53:41.000Z</time>
      </trkpt>
      <trkpt lat="47.28425" lon="-2.35409">
        <ele>31</ele>
        <time>2019-08-11T07:53:42.000Z</time>
      </trkpt>
      <trkpt lat="47.28428" lon="-2.35408">
        <ele>31.39999961853</ele>
        <time>2019-08-11T07:53:43.000Z</time>
      </trkpt>
      <trkpt lat="47.2843" lon="-2.35407">
        <ele>31.39999961853</ele>
        <time>2019-08-11T07:53:44.000Z</time>
      </trkpt>
      <trkpt lat="47.28432" lon="-2.35402">
        <ele>31.39999961853</ele>
        <time>2019-08-11T07:53:46.000Z</time>
      </trkpt>
      <trkpt lat="47.28433" lon="-2.35398">
        <ele>31</ele>
        <time>2019-08-11T07:53:47.000Z</time>
      </trkpt>
      <trkpt lat="47.28433" lon="-2.35393">
        <ele>30.60000038147</ele>
        <time>2019-08-11T07:53:48.000Z</time>
      </trkpt>
      <trkpt lat="47.28432" lon="-2.35389">
        <ele>30</ele>
        <time>2019-08-11T07:53:49.000Z</time>
      </trkpt>
      <trkpt lat="47.28433" lon="-2.35385">
        <ele>29.60000038147</ele>
        <time>2019-08-11T07:53:50.000Z</time>
      </trkpt>
      <trkpt lat="47.28436" lon="-2.35382">
        <ele>28.799999237061</ele>
        <time>2019-08-11T07:53:51.000Z</time>
      </trkpt>
      <trkpt lat="47.28437" lon="-2.35378">
        <ele>28.39999961853</ele>
        <time>2019-08-11T07:53:52.000Z</time>
      </trkpt>
      <trkpt lat="47.28439" lon="-2.35374">
        <ele>28</ele>
        <time>2019-08-11T07:53:53.000Z</time>
      </trkpt>
      <trkpt lat="47.2844" lon="-2.35371">
        <ele>27.60000038147</ele>
        <time>2019-08-11T07:53:54.000Z</time>
      </trkpt>
      <trkpt lat="47.28441" lon="-2.35367">
        <ele>27</ele>
        <time>2019-08-11T07:53:55.000Z</time>
      </trkpt>
      <trkpt lat="47.28442" lon="-2.35363">
        <ele>26.39999961853</ele>
        <time>2019-08-11T07:53:56.000Z</time>
      </trkpt>
      <trkpt lat="47.28443" lon="-2.35359">
        <ele>25.799999237061</ele>
        <time>2019-08-11T07:53:57.000Z</time>
      </trkpt>
      <trkpt lat="47.28444" lon="-2.35356">
        <ele>25.39999961853</ele>
        <time>2019-08-11T07:53:58.000Z</time>
      </trkpt>
      <trkpt lat="47.28447" lon="-2.35354">
        <ele>24.799999237061</ele>
        <time>2019-08-11T07:53:59.000Z</time>
      </trkpt>
      <trkpt lat="47.2845" lon="-2.35354">
        <ele>24.200000762939</ele>
        <time>2019-08-11T07:54:00.000Z</time>
      </trkpt>
      <trkpt lat="47.28451" lon="-2.35355">
        <ele>23.60000038147</ele>
        <time>2019-08-11T07:54:01.000Z</time>
      </trkpt>
      <trkpt lat="47.28454" lon="-2.35355">
        <ele>23</ele>
        <time>2019-08-11T07:54:02.000Z</time>
      </trkpt>
      <trkpt lat="47.28456" lon="-2.35355">
        <ele>22.39999961853</ele>
        <time>2019-08-11T07:54:03.000Z</time>
      </trkpt>
      <trkpt lat="47.28463" lon="-2.35363">
        <ele>22.39999961853</ele>
        <time>2019-08-11T07:54:05.000Z</time>
      </trkpt>
      <trkpt lat="47.28467" lon="-2.35369">
        <ele>22.39999961853</ele>
        <time>2019-08-11T07:54:06.000Z</time>
      </trkpt>
      <trkpt lat="47.28478" lon="-2.35391">
        <ele>22.39999961853</ele>
        <time>2019-08-11T07:54:11.000Z</time>
      </trkpt>
      <trkpt lat="47.28486" lon="-2.35414">
        <ele>22.39999961853</ele>
        <time>2019-08-11T07:54:16.000Z</time>
      </trkpt>
      <trkpt lat="47.28492" lon="-2.35428">
        <ele>22.799999237061</ele>
        <time>2019-08-11T07:54:20.000Z</time>
      </trkpt>
      <trkpt lat="47.28493" lon="-2.35433">
        <ele>23.200000762939</ele>
        <time>2019-08-11T07:54:21.000Z</time>
      </trkpt>
      <trkpt lat="47.28495" lon="-2.35437">
        <ele>23.799999237061</ele>
        <time>2019-08-11T07:54:22.000Z</time>
      </trkpt>
      <trkpt lat="47.28497" lon="-2.3544">
        <ele>24.200000762939</ele>
        <time>2019-08-11T07:54:23.000Z</time>
      </trkpt>
      <trkpt lat="47.28499" lon="-2.35445">
        <ele>24.60000038147</ele>
        <time>2019-08-11T07:54:24.000Z</time>
      </trkpt>
      <trkpt lat="47.28512" lon="-2.35466">
        <ele>24.60000038147</ele>
        <time>2019-08-11T07:54:29.000Z</time>
      </trkpt>
      <trkpt lat="47.28517" lon="-2.35475">
        <ele>24.60000038147</ele>
        <time>2019-08-11T07:54:34.000Z</time>
      </trkpt>
      <trkpt lat="47.28519" lon="-2.3548">
        <ele>24.60000038147</ele>
        <time>2019-08-11T07:54:39.000Z</time>
      </trkpt>
      <trkpt lat="47.28522" lon="-2.35489">
        <ele>24.60000038147</ele>
        <time>2019-08-11T07:54:48.000Z</time>
      </trkpt>
      <trkpt lat="47.28522" lon="-2.35492">
        <ele>24.60000038147</ele>
        <time>2019-08-11T07:54:49.000Z</time>
      </trkpt>
      <trkpt lat="47.28522" lon="-2.35494">
        <ele>24.60000038147</ele>
        <time>2019-08-11T07:54:50.000Z</time>
      </trkpt>
      <trkpt lat="47.28521" lon="-2.35507">
        <ele>24.60000038147</ele>
        <time>2019-08-11T07:54:54.000Z</time>
      </trkpt>
      <trkpt lat="47.28521" lon="-2.3552">
        <ele>25</ele>
        <time>2019-08-11T07:54:57.000Z</time>
      </trkpt>
      <trkpt lat="47.28522" lon="-2.35524">
        <ele>25.39999961853</ele>
        <time>2019-08-11T07:54:58.000Z</time>
      </trkpt>
      <trkpt lat="47.28524" lon="-2.35526">
        <ele>25.799999237061</ele>
        <time>2019-08-11T07:54:59.000Z</time>
      </trkpt>
      <trkpt lat="47.28525" lon="-2.3553">
        <ele>26.39999961853</ele>
        <time>2019-08-11T07:55:00.000Z</time>
      </trkpt>
      <trkpt lat="47.28526" lon="-2.35534">
        <ele>26.799999237061</ele>
        <time>2019-08-11T07:55:01.000Z</time>
      </trkpt>
      <trkpt lat="47.28529" lon="-2.35548">
        <ele>27.200000762939</ele>
        <time>2019-08-11T07:55:04.000Z</time>
      </trkpt>
      <trkpt lat="47.2853" lon="-2.35552">
        <ele>27.60000038147</ele>
        <time>2019-08-11T07:55:05.000Z</time>
      </trkpt>
      <trkpt lat="47.28531" lon="-2.35556">
        <ele>28</ele>
        <time>2019-08-11T07:55:06.000Z</time>
      </trkpt>
      <trkpt lat="47.28532" lon="-2.35559">
        <ele>28.60000038147</ele>
        <time>2019-08-11T07:55:07.000Z</time>
      </trkpt>
      <trkpt lat="47.28532" lon="-2.35563">
        <ele>29</ele>
        <time>2019-08-11T07:55:08.000Z</time>
      </trkpt>
      <trkpt lat="47.2853" lon="-2.35569">
        <ele>29</ele>
        <time>2019-08-11T07:55:10.000Z</time>
      </trkpt>
      <trkpt lat="47.28529" lon="-2.35572">
        <ele>29</ele>
        <time>2019-08-11T07:55:11.000Z</time>
      </trkpt>
      <trkpt lat="47.28526" lon="-2.35581">
        <ele>29</ele>
        <time>2019-08-11T07:55:13.000Z</time>
      </trkpt>
      <trkpt lat="47.28526" lon="-2.35586">
        <ele>29.39999961853</ele>
        <time>2019-08-11T07:55:15.000Z</time>
      </trkpt>
      <trkpt lat="47.28526" lon="-2.35588">
        <ele>29.799999237061</ele>
        <time>2019-08-11T07:55:16.000Z</time>
      </trkpt>
      <trkpt lat="47.28526" lon="-2.3559">
        <ele>30.200000762939</ele>
        <time>2019-08-11T07:55:17.000Z</time>
      </trkpt>
      <trkpt lat="47.28525" lon="-2.35594">
        <ele>30.60000038147</ele>
        <time>2019-08-11T07:55:18.000Z</time>
      </trkpt>
      <trkpt lat="47.28523" lon="-2.35597">
        <ele>31</ele>
        <time>2019-08-11T07:55:19.000Z</time>
      </trkpt>
      <trkpt lat="47.2852" lon="-2.35601">
        <ele>31</ele>
        <time>2019-08-11T07:55:21.000Z</time>
      </trkpt>
      <trkpt lat="47.28518" lon="-2.35602">
        <ele>31</ele>
        <time>2019-08-11T07:55:22.000Z</time>
      </trkpt>
      <trkpt lat="47.28515" lon="-2.35604">
        <ele>31.60000038147</ele>
        <time>2019-08-11T07:55:24.000Z</time>
      </trkpt>
      <trkpt lat="47.28513" lon="-2.35605">
        <ele>32</ele>
        <time>2019-08-11T07:55:25.000Z</time>
      </trkpt>
      <trkpt lat="47.2851" lon="-2.35606">
        <ele>32.400001525879</ele>
        <time>2019-08-11T07:55:26.000Z</time>
      </trkpt>
      <trkpt lat="47.28507" lon="-2.35606">
        <ele>33.200000762939</ele>
        <time>2019-08-11T07:55:27.000Z</time>
      </trkpt>
      <trkpt lat="47.28502" lon="-2.35603">
        <ele>33.200000762939</ele>
        <time>2019-08-11T07:55:30.000Z</time>
      </trkpt>
      <trkpt lat="47.28499" lon="-2.35595">
        <ele>33.200000762939</ele>
        <time>2019-08-11T07:55:34.000Z</time>
      </trkpt>
      <trkpt lat="47.28498" lon="-2.35591">
        <ele>33.599998474121</ele>
        <time>2019-08-11T07:55:35.000Z</time>
      </trkpt>
      <trkpt lat="47.28497" lon="-2.35588">
        <ele>34</ele>
        <time>2019-08-11T07:55:36.000Z</time>
      </trkpt>
      <trkpt lat="47.28497" lon="-2.35585">
        <ele>34.400001525879</ele>
        <time>2019-08-11T07:55:37.000Z</time>
      </trkpt>
      <trkpt lat="47.28496" lon="-2.35582">
        <ele>34.799999237061</ele>
        <time>2019-08-11T07:55:38.000Z</time>
      </trkpt>
      <trkpt lat="47.28494" lon="-2.35579">
        <ele>35.200000762939</ele>
        <time>2019-08-11T07:55:39.000Z</time>
      </trkpt>
      <trkpt lat="47.28489" lon="-2.35568">
        <ele>35.200000762939</ele>
        <time>2019-08-11T07:55:43.000Z</time>
      </trkpt>
      <trkpt lat="47.28482" lon="-2.35551">
        <ele>35.599998474121</ele>
        <time>2019-08-11T07:55:49.000Z</time>
      </trkpt>
      <trkpt lat="47.28482" lon="-2.35548">
        <ele>36.200000762939</ele>
        <time>2019-08-11T07:55:50.000Z</time>
      </trkpt>
      <trkpt lat="47.28482" lon="-2.35543">
        <ele>36.599998474121</ele>
        <time>2019-08-11T07:55:51.000Z</time>
      </trkpt>
      <trkpt lat="47.28482" lon="-2.35539">
        <ele>37</ele>
        <time>2019-08-11T07:55:52.000Z</time>
      </trkpt>
      <trkpt lat="47.28481" lon="-2.35536">
        <ele>37.400001525879</ele>
        <time>2019-08-11T07:55:53.000Z</time>
      </trkpt>
      <trkpt lat="47.28481" lon="-2.35533">
        <ele>37.400001525879</ele>
        <time>2019-08-11T07:55:54.000Z</time>
      </trkpt>
      <trkpt lat="47.28477" lon="-2.3552">
        <ele>37.400001525879</ele>
        <time>2019-08-11T07:55:58.000Z</time>
      </trkpt>
      <trkpt lat="47.28473" lon="-2.35508">
        <ele>37.400001525879</ele>
        <time>2019-08-11T07:56:01.000Z</time>
      </trkpt>
      <trkpt lat="47.28467" lon="-2.35499">
        <ele>37.400001525879</ele>
        <time>2019-08-11T07:56:03.000Z</time>
      </trkpt>
      <trkpt lat="47.2846" lon="-2.35489">
        <ele>37.400001525879</ele>
        <time>2019-08-11T07:56:05.000Z</time>
      </trkpt>
      <trkpt lat="47.28455" lon="-2.35478">
        <ele>37</ele>
        <time>2019-08-11T07:56:07.000Z</time>
      </trkpt>
      <trkpt lat="47.28454" lon="-2.35473">
        <ele>36.400001525879</ele>
        <time>2019-08-11T07:56:08.000Z</time>
      </trkpt>
      <trkpt lat="47.28453" lon="-2.35467">
        <ele>36</ele>
        <time>2019-08-11T07:56:09.000Z</time>
      </trkpt>
      <trkpt lat="47.28452" lon="-2.35461">
        <ele>35.599998474121</ele>
        <time>2019-08-11T07:56:10.000Z</time>
      </trkpt>
      <trkpt lat="47.28451" lon="-2.35455">
        <ele>35</ele>
        <time>2019-08-11T07:56:11.000Z</time>
      </trkpt>
      <trkpt lat="47.28449" lon="-2.35451">
        <ele>34.599998474121</ele>
        <time>2019-08-11T07:56:12.000Z</time>
      </trkpt>
      <trkpt lat="47.28447" lon="-2.35448">
        <ele>34.200000762939</ele>
        <time>2019-08-11T07:56:13.000Z</time>
      </trkpt>
      <trkpt lat="47.28444" lon="-2.35445">
        <ele>33.799999237061</ele>
        <time>2019-08-11T07:56:14.000Z</time>
      </trkpt>
      <trkpt lat="47.28439" lon="-2.35443">
        <ele>33.400001525879</ele>
        <time>2019-08-11T07:56:15.000Z</time>
      </trkpt>
      <trkpt lat="47.28435" lon="-2.35443">
        <ele>32.799999237061</ele>
        <time>2019-08-11T07:56:16.000Z</time>
      </trkpt>
      <trkpt lat="47.28432" lon="-2.35447">
        <ele>32.400001525879</ele>
        <time>2019-08-11T07:56:17.000Z</time>
      </trkpt>
      <trkpt lat="47.28429" lon="-2.35451">
        <ele>31.799999237061</ele>
        <time>2019-08-11T07:56:18.000Z</time>
      </trkpt>
      <trkpt lat="47.28426" lon="-2.35457">
        <ele>30.799999237061</ele>
        <time>2019-08-11T07:56:19.000Z</time>
      </trkpt>
      <trkpt lat="47.28419" lon="-2.35467">
        <ele>30.799999237061</ele>
        <time>2019-08-11T07:56:21.000Z</time>
      </trkpt>
      <trkpt lat="47.28416" lon="-2.35473">
        <ele>30.200000762939</ele>
        <time>2019-08-11T07:56:22.000Z</time>
      </trkpt>
      <trkpt lat="47.28413" lon="-2.35479">
        <ele>29.799999237061</ele>
        <time>2019-08-11T07:56:23.000Z</time>
      </trkpt>
      <trkpt lat="47.28411" lon="-2.35485">
        <ele>29.200000762939</ele>
        <time>2019-08-11T07:56:24.000Z</time>
      </trkpt>
      <trkpt lat="47.2841" lon="-2.3549">
        <ele>28.799999237061</ele>
        <time>2019-08-11T07:56:25.000Z</time>
      </trkpt>
      <trkpt lat="47.28408" lon="-2.35497">
        <ele>28.200000762939</ele>
        <time>2019-08-11T07:56:26.000Z</time>
      </trkpt>
      <trkpt lat="47.28405" lon="-2.3551">
        <ele>27.799999237061</ele>
        <time>2019-08-11T07:56:28.000Z</time>
      </trkpt>
      <trkpt lat="47.28405" lon="-2.35517">
        <ele>27.39999961853</ele>
        <time>2019-08-11T07:56:29.000Z</time>
      </trkpt>
      <trkpt lat="47.28406" lon="-2.35523">
        <ele>27</ele>
        <time>2019-08-11T07:56:30.000Z</time>
      </trkpt>
      <trkpt lat="47.28408" lon="-2.35529">
        <ele>26.60000038147</ele>
        <time>2019-08-11T07:56:31.000Z</time>
      </trkpt>
      <trkpt lat="47.28409" lon="-2.35535">
        <ele>26.200000762939</ele>
        <time>2019-08-11T07:56:32.000Z</time>
      </trkpt>
      <trkpt lat="47.28416" lon="-2.35545">
        <ele>26.200000762939</ele>
        <time>2019-08-11T07:56:34.000Z</time>
      </trkpt>
      <trkpt lat="47.28419" lon="-2.3555">
        <ele>26.200000762939</ele>
        <time>2019-08-11T07:56:35.000Z</time>
      </trkpt>
      <trkpt lat="47.28427" lon="-2.3557">
        <ele>26.200000762939</ele>
        <time>2019-08-11T07:56:39.000Z</time>
      </trkpt>
      <trkpt lat="47.28432" lon="-2.35579">
        <ele>26.200000762939</ele>
        <time>2019-08-11T07:56:41.000Z</time>
      </trkpt>
      <trkpt lat="47.28439" lon="-2.35592">
        <ele>26.200000762939</ele>
        <time>2019-08-11T07:56:44.000Z</time>
      </trkpt>
      <trkpt lat="47.2844" lon="-2.35606">
        <ele>26.200000762939</ele>
        <time>2019-08-11T07:56:48.000Z</time>
      </trkpt>
      <trkpt lat="47.28441" lon="-2.35619">
        <ele>26.200000762939</ele>
        <time>2019-08-11T07:56:53.000Z</time>
      </trkpt>
      <trkpt lat="47.28441" lon="-2.35622">
        <ele>26.200000762939</ele>
        <time>2019-08-11T07:56:54.000Z</time>
      </trkpt>
      <trkpt lat="47.28432" lon="-2.35648">
        <ele>26.200000762939</ele>
        <time>2019-08-11T07:57:01.000Z</time>
      </trkpt>
      <trkpt lat="47.28425" lon="-2.35674">
        <ele>26.200000762939</ele>
        <time>2019-08-11T07:57:05.000Z</time>
      </trkpt>
      <trkpt lat="47.28426" lon="-2.35702">
        <ele>26.200000762939</ele>
        <time>2019-08-11T07:57:10.000Z</time>
      </trkpt>
      <trkpt lat="47.28423" lon="-2.35724">
        <ele>26.200000762939</ele>
        <time>2019-08-11T07:57:15.000Z</time>
      </trkpt>
      <trkpt lat="47.28417" lon="-2.35739">
        <ele>26.200000762939</ele>
        <time>2019-08-11T07:57:20.000Z</time>
      </trkpt>
      <trkpt lat="47.28413" lon="-2.35765">
        <ele>26.200000762939</ele>
        <time>2019-08-11T07:57:25.000Z</time>
      </trkpt>
      <trkpt lat="47.28407" lon="-2.35779">
        <ele>26.200000762939</ele>
        <time>2019-08-11T07:57:29.000Z</time>
      </trkpt>
      <trkpt lat="47.28402" lon="-2.3578">
        <ele>26.200000762939</ele>
        <time>2019-08-11T07:57:30.000Z</time>
      </trkpt>
      <trkpt lat="47.28387" lon="-2.3578">
        <ele>26.200000762939</ele>
        <time>2019-08-11T07:57:33.000Z</time>
      </trkpt>
      <trkpt lat="47.28382" lon="-2.35778">
        <ele>26.200000762939</ele>
        <time>2019-08-11T07:57:34.000Z</time>
      </trkpt>
      <trkpt lat="47.28377" lon="-2.35776">
        <ele>26.200000762939</ele>
        <time>2019-08-11T07:57:35.000Z</time>
      </trkpt>
      <trkpt lat="47.28352" lon="-2.35764">
        <ele>26.200000762939</ele>
        <time>2019-08-11T07:57:40.000Z</time>
      </trkpt>
      <trkpt lat="47.28323" lon="-2.35749">
        <ele>26.200000762939</ele>
        <time>2019-08-11T07:57:46.000Z</time>
      </trkpt>
      <trkpt lat="47.28318" lon="-2.35746">
        <ele>26.200000762939</ele>
        <time>2019-08-11T07:57:50.000Z</time>
      </trkpt>
      <trkpt lat="47.28313" lon="-2.35749">
        <ele>26.200000762939</ele>
        <time>2019-08-11T07:58:25.000Z</time>
      </trkpt>
      <trkpt lat="47.28306" lon="-2.35753">
        <ele>26.200000762939</ele>
        <time>2019-08-11T07:58:28.000Z</time>
      </trkpt>
      <trkpt lat="47.28293" lon="-2.35744">
        <ele>26.200000762939</ele>
        <time>2019-08-11T07:58:33.000Z</time>
      </trkpt>
      <trkpt lat="47.28275" lon="-2.35723">
        <ele>26.200000762939</ele>
        <time>2019-08-11T07:58:38.000Z</time>
      </trkpt>
      <trkpt lat="47.28271" lon="-2.35718">
        <ele>26.200000762939</ele>
        <time>2019-08-11T07:58:39.000Z</time>
      </trkpt>
      <trkpt lat="47.28252" lon="-2.35698">
        <ele>25.799999237061</ele>
        <time>2019-08-11T07:58:44.000Z</time>
      </trkpt>
      <trkpt lat="47.28248" lon="-2.35696">
        <ele>25.200000762939</ele>
        <time>2019-08-11T07:58:45.000Z</time>
      </trkpt>
      <trkpt lat="47.28244" lon="-2.35694">
        <ele>24.799999237061</ele>
        <time>2019-08-11T07:58:46.000Z</time>
      </trkpt>
      <trkpt lat="47.28239" lon="-2.35692">
        <ele>24.39999961853</ele>
        <time>2019-08-11T07:58:47.000Z</time>
      </trkpt>
      <trkpt lat="47.28235" lon="-2.35689">
        <ele>24</ele>
        <time>2019-08-11T07:58:48.000Z</time>
      </trkpt>
      <trkpt lat="47.28222" lon="-2.35684">
        <ele>24</ele>
        <time>2019-08-11T07:58:51.000Z</time>
      </trkpt>
      <trkpt lat="47.28208" lon="-2.35676">
        <ele>23.60000038147</ele>
        <time>2019-08-11T07:58:55.000Z</time>
      </trkpt>
      <trkpt lat="47.28206" lon="-2.35676">
        <ele>23.200000762939</ele>
        <time>2019-08-11T07:58:56.000Z</time>
      </trkpt>
      <trkpt lat="47.28204" lon="-2.35677">
        <ele>22.799999237061</ele>
        <time>2019-08-11T07:58:57.000Z</time>
      </trkpt>
      <trkpt lat="47.28203" lon="-2.35679">
        <ele>22.39999961853</ele>
        <time>2019-08-11T07:58:58.000Z</time>
      </trkpt>
      <trkpt lat="47.28202" lon="-2.3568">
        <ele>22</ele>
        <time>2019-08-11T07:58:59.000Z</time>
      </trkpt>
      <trkpt lat="47.28199" lon="-2.35687">
        <ele>22</ele>
        <time>2019-08-11T07:59:02.000Z</time>
      </trkpt>
      <trkpt lat="47.28199" lon="-2.3569">
        <ele>22</ele>
        <time>2019-08-11T07:59:03.000Z</time>
      </trkpt>
      <trkpt lat="47.282" lon="-2.35693">
        <ele>22</ele>
        <time>2019-08-11T07:59:04.000Z</time>
      </trkpt>
      <trkpt lat="47.28206" lon="-2.3571">
        <ele>22</ele>
        <time>2019-08-11T07:59:10.000Z</time>
      </trkpt>
      <trkpt lat="47.28219" lon="-2.35748">
        <ele>22.799999237061</ele>
        <time>2019-08-11T07:59:46.000Z</time>
      </trkpt>
      <trkpt lat="47.28221" lon="-2.35752">
        <ele>23.200000762939</ele>
        <time>2019-08-11T07:59:47.000Z</time>
      </trkpt>
      <trkpt lat="47.28223" lon="-2.35755">
        <ele>23.60000038147</ele>
        <time>2019-08-11T07:59:48.000Z</time>
      </trkpt>
      <trkpt lat="47.28225" lon="-2.35758">
        <ele>24</ele>
        <time>2019-08-11T07:59:49.000Z</time>
      </trkpt>
      <trkpt lat="47.2824" lon="-2.35774">
        <ele>24</ele>
        <time>2019-08-11T07:59:55.000Z</time>
      </trkpt>
      <trkpt lat="47.28256" lon="-2.35795">
        <ele>24</ele>
        <time>2019-08-11T08:00:01.000Z</time>
      </trkpt>
      <trkpt lat="47.28262" lon="-2.35817">
        <ele>24</ele>
        <time>2019-08-11T08:00:06.000Z</time>
      </trkpt>
      <trkpt lat="47.28263" lon="-2.35822">
        <ele>24</ele>
        <time>2019-08-11T08:00:07.000Z</time>
      </trkpt>
      <trkpt lat="47.28268" lon="-2.3584">
        <ele>24</ele>
        <time>2019-08-11T08:00:11.000Z</time>
      </trkpt>
      <trkpt lat="47.28269" lon="-2.35843">
        <ele>24</ele>
        <time>2019-08-11T08:00:12.000Z</time>
      </trkpt>
      <trkpt lat="47.28278" lon="-2.35854">
        <ele>24</ele>
        <time>2019-08-11T08:00:16.000Z</time>
      </trkpt>
      <trkpt lat="47.2828" lon="-2.35862">
        <ele>24</ele>
        <time>2019-08-11T08:00:19.000Z</time>
      </trkpt>
      <trkpt lat="47.28278" lon="-2.35864">
        <ele>24</ele>
        <time>2019-08-11T08:00:20.000Z</time>
      </trkpt>
      <trkpt lat="47.28267" lon="-2.35874">
        <ele>24</ele>
        <time>2019-08-11T08:00:25.000Z</time>
      </trkpt>
      <trkpt lat="47.28259" lon="-2.35882">
        <ele>24</ele>
        <time>2019-08-11T08:00:28.000Z</time>
      </trkpt>
      <trkpt lat="47.28259" lon="-2.35886">
        <ele>24</ele>
        <time>2019-08-11T08:00:29.000Z</time>
      </trkpt>
      <trkpt lat="47.28262" lon="-2.359">
        <ele>24</ele>
        <time>2019-08-11T08:00:34.000Z</time>
      </trkpt>
      <trkpt lat="47.2827" lon="-2.35922">
        <ele>24</ele>
        <time>2019-08-11T08:00:38.000Z</time>
      </trkpt>
      <trkpt lat="47.28282" lon="-2.35947">
        <ele>23.60000038147</ele>
        <time>2019-08-11T08:00:42.000Z</time>
      </trkpt>
      <trkpt lat="47.28285" lon="-2.35953">
        <ele>23.200000762939</ele>
        <time>2019-08-11T08:00:43.000Z</time>
      </trkpt>
      <trkpt lat="47.28287" lon="-2.35958">
        <ele>22.799999237061</ele>
        <time>2019-08-11T08:00:44.000Z</time>
      </trkpt>
      <trkpt lat="47.28289" lon="-2.35963">
        <ele>22.39999961853</ele>
        <time>2019-08-11T08:00:45.000Z</time>
      </trkpt>
      <trkpt lat="47.28291" lon="-2.35967">
        <ele>22</ele>
        <time>2019-08-11T08:00:46.000Z</time>
      </trkpt>
      <trkpt lat="47.28293" lon="-2.35968">
        <ele>22</ele>
        <time>2019-08-11T08:00:47.000Z</time>
      </trkpt>
      <trkpt lat="47.283" lon="-2.35951">
        <ele>22</ele>
        <time>2019-08-11T08:00:52.000Z</time>
      </trkpt>
      <trkpt lat="47.28301" lon="-2.35948">
        <ele>22</ele>
        <time>2019-08-11T08:00:53.000Z</time>
      </trkpt>
      <trkpt lat="47.28309" lon="-2.35931">
        <ele>22</ele>
        <time>2019-08-11T08:00:58.000Z</time>
      </trkpt>
      <trkpt lat="47.28315" lon="-2.35925">
        <ele>22.39999961853</ele>
        <time>2019-08-11T08:01:01.000Z</time>
      </trkpt>
      <trkpt lat="47.28317" lon="-2.35923">
        <ele>22.799999237061</ele>
        <time>2019-08-11T08:01:02.000Z</time>
      </trkpt>
      <trkpt lat="47.28319" lon="-2.35921">
        <ele>23.200000762939</ele>
        <time>2019-08-11T08:01:03.000Z</time>
      </trkpt>
      <trkpt lat="47.28321" lon="-2.35918">
        <ele>23.60000038147</ele>
        <time>2019-08-11T08:01:04.000Z</time>
      </trkpt>
      <trkpt lat="47.28324" lon="-2.35916">
        <ele>24</ele>
        <time>2019-08-11T08:01:05.000Z</time>
      </trkpt>
      <trkpt lat="47.28343" lon="-2.35906">
        <ele>24</ele>
        <time>2019-08-11T08:01:10.000Z</time>
      </trkpt>
      <trkpt lat="47.28361" lon="-2.35889">
        <ele>24</ele>
        <time>2019-08-11T08:01:15.000Z</time>
      </trkpt>
      <trkpt lat="47.2838" lon="-2.35878">
        <ele>24.39999961853</ele>
        <time>2019-08-11T08:01:20.000Z</time>
      </trkpt>
      <trkpt lat="47.28383" lon="-2.35876">
        <ele>24.799999237061</ele>
        <time>2019-08-11T08:01:21.000Z</time>
      </trkpt>
      <trkpt lat="47.28386" lon="-2.35874">
        <ele>25.200000762939</ele>
        <time>2019-08-11T08:01:22.000Z</time>
      </trkpt>
      <trkpt lat="47.2839" lon="-2.35873">
        <ele>25.799999237061</ele>
        <time>2019-08-11T08:01:23.000Z</time>
      </trkpt>
      <trkpt lat="47.28393" lon="-2.35871">
        <ele>26.200000762939</ele>
        <time>2019-08-11T08:01:24.000Z</time>
      </trkpt>
      <trkpt lat="47.28398" lon="-2.35866">
        <ele>26.200000762939</ele>
        <time>2019-08-11T08:01:26.000Z</time>
      </trkpt>
      <trkpt lat="47.28414" lon="-2.35869">
        <ele>26.200000762939</ele>
        <time>2019-08-11T08:01:30.000Z</time>
      </trkpt>
      <trkpt lat="47.28433" lon="-2.3588">
        <ele>26.200000762939</ele>
        <time>2019-08-11T08:01:34.000Z</time>
      </trkpt>
      <trkpt lat="47.28436" lon="-2.35881">
        <ele>26.200000762939</ele>
        <time>2019-08-11T08:01:35.000Z</time>
      </trkpt>
      <trkpt lat="47.2845" lon="-2.35885">
        <ele>26.200000762939</ele>
        <time>2019-08-11T08:01:40.000Z</time>
      </trkpt>
      <trkpt lat="47.28458" lon="-2.35893">
        <ele>26.200000762939</ele>
        <time>2019-08-11T08:01:46.000Z</time>
      </trkpt>
      <trkpt lat="47.28456" lon="-2.35906">
        <ele>26.200000762939</ele>
        <time>2019-08-11T08:02:00.000Z</time>
      </trkpt>
      <trkpt lat="47.28452" lon="-2.35914">
        <ele>26.200000762939</ele>
        <time>2019-08-11T08:02:05.000Z</time>
      </trkpt>
      <trkpt lat="47.28452" lon="-2.35916">
        <ele>26.60000038147</ele>
        <time>2019-08-11T08:02:06.000Z</time>
      </trkpt>
      <trkpt lat="47.28451" lon="-2.35918">
        <ele>27</ele>
        <time>2019-08-11T08:02:07.000Z</time>
      </trkpt>
      <trkpt lat="47.28451" lon="-2.35919">
        <ele>27.39999961853</ele>
        <time>2019-08-11T08:02:08.000Z</time>
      </trkpt>
      <trkpt lat="47.2845" lon="-2.3596">
        <ele>33.400001525879</ele>
        <time>2019-08-11T08:02:41.000Z</time>
      </trkpt>
      <trkpt lat="47.2845" lon="-2.35962">
        <ele>33.799999237061</ele>
        <time>2019-08-11T08:02:42.000Z</time>
      </trkpt>
      <trkpt lat="47.2845" lon="-2.35964">
        <ele>34.200000762939</ele>
        <time>2019-08-11T08:02:43.000Z</time>
      </trkpt>
      <trkpt lat="47.2845" lon="-2.35966">
        <ele>34.599998474121</ele>
        <time>2019-08-11T08:02:44.000Z</time>
      </trkpt>
      <trkpt lat="47.28451" lon="-2.35972">
        <ele>35</ele>
        <time>2019-08-11T08:02:48.000Z</time>
      </trkpt>
      <trkpt lat="47.28452" lon="-2.35973">
        <ele>35.400001525879</ele>
        <time>2019-08-11T08:02:49.000Z</time>
      </trkpt>
      <trkpt lat="47.2845" lon="-2.35975">
        <ele>36.599998474121</ele>
        <time>2019-08-11T08:03:11.000Z</time>
      </trkpt>
      <trkpt lat="47.28445" lon="-2.35979">
        <ele>36.599998474121</ele>
        <time>2019-08-11T08:03:13.000Z</time>
      </trkpt>
      <trkpt lat="47.28425" lon="-2.35998">
        <ele>36.599998474121</ele>
        <time>2019-08-11T08:03:19.000Z</time>
      </trkpt>
      <trkpt lat="47.2841" lon="-2.3601">
        <ele>36.599998474121</ele>
        <time>2019-08-11T08:03:24.000Z</time>
      </trkpt>
      <trkpt lat="47.28388" lon="-2.36016">
        <ele>36.599998474121</ele>
        <time>2019-08-11T08:03:29.000Z</time>
      </trkpt>
      <trkpt lat="47.28376" lon="-2.36018">
        <ele>36.200000762939</ele>
        <time>2019-08-11T08:03:31.000Z</time>
      </trkpt>
      <trkpt lat="47.28371" lon="-2.36019">
        <ele>35.799999237061</ele>
        <time>2019-08-11T08:03:32.000Z</time>
      </trkpt>
      <trkpt lat="47.28367" lon="-2.3602">
        <ele>35.400001525879</ele>
        <time>2019-08-11T08:03:33.000Z</time>
      </trkpt>
      <trkpt lat="47.28362" lon="-2.36022">
        <ele>34.799999237061</ele>
        <time>2019-08-11T08:03:34.000Z</time>
      </trkpt>
      <trkpt lat="47.28357" lon="-2.36023">
        <ele>34.400001525879</ele>
        <time>2019-08-11T08:03:35.000Z</time>
      </trkpt>
      <trkpt lat="47.28353" lon="-2.36026">
        <ele>33.799999237061</ele>
        <time>2019-08-11T08:03:36.000Z</time>
      </trkpt>
      <trkpt lat="47.28348" lon="-2.3603">
        <ele>33.400001525879</ele>
        <time>2019-08-11T08:03:37.000Z</time>
      </trkpt>
      <trkpt lat="47.28344" lon="-2.36033">
        <ele>32.799999237061</ele>
        <time>2019-08-11T08:03:38.000Z</time>
      </trkpt>
      <trkpt lat="47.2834" lon="-2.36037">
        <ele>32.400001525879</ele>
        <time>2019-08-11T08:03:39.000Z</time>
      </trkpt>
      <trkpt lat="47.28335" lon="-2.36041">
        <ele>31.799999237061</ele>
        <time>2019-08-11T08:03:40.000Z</time>
      </trkpt>
      <trkpt lat="47.2833" lon="-2.36045">
        <ele>31.39999961853</ele>
        <time>2019-08-11T08:03:41.000Z</time>
      </trkpt>
      <trkpt lat="47.28326" lon="-2.36047">
        <ele>30.799999237061</ele>
        <time>2019-08-11T08:03:42.000Z</time>
      </trkpt>
      <trkpt lat="47.28322" lon="-2.36048">
        <ele>30.39999961853</ele>
        <time>2019-08-11T08:03:43.000Z</time>
      </trkpt>
      <trkpt lat="47.28299" lon="-2.36047">
        <ele>30.39999961853</ele>
        <time>2019-08-11T08:03:48.000Z</time>
      </trkpt>
      <trkpt lat="47.2829" lon="-2.36042">
        <ele>30</ele>
        <time>2019-08-11T08:03:50.000Z</time>
      </trkpt>
      <trkpt lat="47.28286" lon="-2.36039">
        <ele>29.39999961853</ele>
        <time>2019-08-11T08:03:51.000Z</time>
      </trkpt>
      <trkpt lat="47.28283" lon="-2.36035">
        <ele>29</ele>
        <time>2019-08-11T08:03:52.000Z</time>
      </trkpt>
      <trkpt lat="47.28281" lon="-2.36032">
        <ele>28.39999961853</ele>
        <time>2019-08-11T08:03:53.000Z</time>
      </trkpt>
      <trkpt lat="47.28279" lon="-2.36028">
        <ele>27.60000038147</ele>
        <time>2019-08-11T08:03:54.000Z</time>
      </trkpt>
      <trkpt lat="47.28278" lon="-2.36024">
        <ele>27</ele>
        <time>2019-08-11T08:03:55.000Z</time>
      </trkpt>
      <trkpt lat="47.28276" lon="-2.36019">
        <ele>26.200000762939</ele>
        <time>2019-08-11T08:03:56.000Z</time>
      </trkpt>
      <trkpt lat="47.28275" lon="-2.36015">
        <ele>25.60000038147</ele>
        <time>2019-08-11T08:03:57.000Z</time>
      </trkpt>
      <trkpt lat="47.28273" lon="-2.36012">
        <ele>24.799999237061</ele>
        <time>2019-08-11T08:03:58.000Z</time>
      </trkpt>
      <trkpt lat="47.2827" lon="-2.36011">
        <ele>24</ele>
        <time>2019-08-11T08:03:59.000Z</time>
      </trkpt>
      <trkpt lat="47.28267" lon="-2.36012">
        <ele>23.200000762939</ele>
        <time>2019-08-11T08:04:00.000Z</time>
      </trkpt>
      <trkpt lat="47.28264" lon="-2.36013">
        <ele>22.39999961853</ele>
        <time>2019-08-11T08:04:01.000Z</time>
      </trkpt>
      <trkpt lat="47.28262" lon="-2.36014">
        <ele>21.60000038147</ele>
        <time>2019-08-11T08:04:02.000Z</time>
      </trkpt>
      <trkpt lat="47.28259" lon="-2.36016">
        <ele>20.799999237061</ele>
        <time>2019-08-11T08:04:03.000Z</time>
      </trkpt>
      <trkpt lat="47.28249" lon="-2.3602">
        <ele>20.799999237061</ele>
        <time>2019-08-11T08:04:06.000Z</time>
      </trkpt>
      <trkpt lat="47.28233" lon="-2.36033">
        <ele>20</ele>
        <time>2019-08-11T08:04:10.000Z</time>
      </trkpt>
      <trkpt lat="47.28229" lon="-2.36039">
        <ele>19.60000038147</ele>
        <time>2019-08-11T08:04:11.000Z</time>
      </trkpt>
      <trkpt lat="47.28225" lon="-2.36045">
        <ele>19.200000762939</ele>
        <time>2019-08-11T08:04:12.000Z</time>
      </trkpt>
      <trkpt lat="47.28223" lon="-2.3605">
        <ele>18.799999237061</ele>
        <time>2019-08-11T08:04:13.000Z</time>
      </trkpt>
      <trkpt lat="47.28221" lon="-2.3606">
        <ele>18.799999237061</ele>
        <time>2019-08-11T08:04:15.000Z</time>
      </trkpt>
      <trkpt lat="47.28223" lon="-2.36074">
        <ele>18.799999237061</ele>
        <time>2019-08-11T08:04:18.000Z</time>
      </trkpt>
      <trkpt lat="47.28223" lon="-2.36084">
        <ele>18.799999237061</ele>
        <time>2019-08-11T08:04:20.000Z</time>
      </trkpt>
      <trkpt lat="47.28228" lon="-2.36106">
        <ele>18.799999237061</ele>
        <time>2019-08-11T08:04:24.000Z</time>
      </trkpt>
      <trkpt lat="47.2824" lon="-2.3614">
        <ele>18.799999237061</ele>
        <time>2019-08-11T08:04:30.000Z</time>
      </trkpt>
      <trkpt lat="47.28243" lon="-2.36147">
        <ele>18.799999237061</ele>
        <time>2019-08-11T08:04:31.000Z</time>
      </trkpt>
      <trkpt lat="47.28251" lon="-2.36168">
        <ele>18.799999237061</ele>
        <time>2019-08-11T08:04:34.000Z</time>
      </trkpt>
      <trkpt lat="47.28259" lon="-2.36187">
        <ele>18.799999237061</ele>
        <time>2019-08-11T08:04:37.000Z</time>
      </trkpt>
      <trkpt lat="47.28272" lon="-2.36215">
        <ele>18.799999237061</ele>
        <time>2019-08-11T08:04:42.000Z</time>
      </trkpt>
      <trkpt lat="47.28275" lon="-2.36221">
        <ele>18.799999237061</ele>
        <time>2019-08-11T08:04:43.000Z</time>
      </trkpt>
      <trkpt lat="47.2829" lon="-2.36235">
        <ele>18.799999237061</ele>
        <time>2019-08-11T08:04:47.000Z</time>
      </trkpt>
      <trkpt lat="47.28295" lon="-2.36237">
        <ele>18.799999237061</ele>
        <time>2019-08-11T08:04:48.000Z</time>
      </trkpt>
      <trkpt lat="47.28307" lon="-2.36241">
        <ele>18.799999237061</ele>
        <time>2019-08-11T08:04:51.000Z</time>
      </trkpt>
      <trkpt lat="47.28316" lon="-2.36247">
        <ele>18.799999237061</ele>
        <time>2019-08-11T08:04:53.000Z</time>
      </trkpt>
      <trkpt lat="47.28336" lon="-2.36257">
        <ele>18.799999237061</ele>
        <time>2019-08-11T08:04:58.000Z</time>
      </trkpt>
      <trkpt lat="47.2835" lon="-2.36263">
        <ele>18.799999237061</ele>
        <time>2019-08-11T08:05:03.000Z</time>
      </trkpt>
      <trkpt lat="47.28354" lon="-2.36266">
        <ele>19.200000762939</ele>
        <time>2019-08-11T08:05:05.000Z</time>
      </trkpt>
      <trkpt lat="47.28356" lon="-2.36267">
        <ele>19.60000038147</ele>
        <time>2019-08-11T08:05:06.000Z</time>
      </trkpt>
      <trkpt lat="47.28356" lon="-2.36271">
        <ele>20</ele>
        <time>2019-08-11T08:05:07.000Z</time>
      </trkpt>
      <trkpt lat="47.28355" lon="-2.36275">
        <ele>20.39999961853</ele>
        <time>2019-08-11T08:05:08.000Z</time>
      </trkpt>
      <trkpt lat="47.28355" lon="-2.36279">
        <ele>20.799999237061</ele>
        <time>2019-08-11T08:05:09.000Z</time>
      </trkpt>
      <trkpt lat="47.28354" lon="-2.36286">
        <ele>20.799999237061</ele>
        <time>2019-08-11T08:05:11.000Z</time>
      </trkpt>
      <trkpt lat="47.28356" lon="-2.3629">
        <ele>20.799999237061</ele>
        <time>2019-08-11T08:05:12.000Z</time>
      </trkpt>
      <trkpt lat="47.28361" lon="-2.363">
        <ele>20.799999237061</ele>
        <time>2019-08-11T08:05:15.000Z</time>
      </trkpt>
      <trkpt lat="47.28363" lon="-2.36304">
        <ele>20.799999237061</ele>
        <time>2019-08-11T08:05:17.000Z</time>
      </trkpt>
      <trkpt lat="47.28365" lon="-2.36307">
        <ele>20.799999237061</ele>
        <time>2019-08-11T08:05:19.000Z</time>
      </trkpt>
      <trkpt lat="47.28371" lon="-2.3631">
        <ele>21.200000762939</ele>
        <time>2019-08-11T08:05:21.000Z</time>
      </trkpt>
      <trkpt lat="47.28373" lon="-2.36312">
        <ele>21.60000038147</ele>
        <time>2019-08-11T08:05:22.000Z</time>
      </trkpt>
      <trkpt lat="47.28375" lon="-2.36314">
        <ele>22</ele>
        <time>2019-08-11T08:05:23.000Z</time>
      </trkpt>
      <trkpt lat="47.28378" lon="-2.36316">
        <ele>22.799999237061</ele>
        <time>2019-08-11T08:05:24.000Z</time>
      </trkpt>
      <trkpt lat="47.28387" lon="-2.36324">
        <ele>22.799999237061</ele>
        <time>2019-08-11T08:05:27.000Z</time>
      </trkpt>
      <trkpt lat="47.28404" lon="-2.36346">
        <ele>22.799999237061</ele>
        <time>2019-08-11T08:05:34.000Z</time>
      </trkpt>
      <trkpt lat="47.28423" lon="-2.3637">
        <ele>22.799999237061</ele>
        <time>2019-08-11T08:05:40.000Z</time>
      </trkpt>
      <trkpt lat="47.28429" lon="-2.36373">
        <ele>23.200000762939</ele>
        <time>2019-08-11T08:05:42.000Z</time>
      </trkpt>
      <trkpt lat="47.28431" lon="-2.36376">
        <ele>23.60000038147</ele>
        <time>2019-08-11T08:05:43.000Z</time>
      </trkpt>
      <trkpt lat="47.28434" lon="-2.36378">
        <ele>24</ele>
        <time>2019-08-11T08:05:44.000Z</time>
      </trkpt>
      <trkpt lat="47.28438" lon="-2.36381">
        <ele>24.39999961853</ele>
        <time>2019-08-11T08:05:45.000Z</time>
      </trkpt>
      <trkpt lat="47.2844" lon="-2.36383">
        <ele>24.799999237061</ele>
        <time>2019-08-11T08:05:46.000Z</time>
      </trkpt>
      <trkpt lat="47.2845" lon="-2.36393">
        <ele>24.799999237061</ele>
        <time>2019-08-11T08:05:50.000Z</time>
      </trkpt>
      <trkpt lat="47.28457" lon="-2.36401">
        <ele>25.200000762939</ele>
        <time>2019-08-11T08:05:54.000Z</time>
      </trkpt>
      <trkpt lat="47.28458" lon="-2.36402">
        <ele>25.60000038147</ele>
        <time>2019-08-11T08:05:55.000Z</time>
      </trkpt>
      <trkpt lat="47.28459" lon="-2.36399">
        <ele>26.39999961853</ele>
        <time>2019-08-11T08:05:57.000Z</time>
      </trkpt>
      <trkpt lat="47.28461" lon="-2.36394">
        <ele>26.799999237061</ele>
        <time>2019-08-11T08:05:58.000Z</time>
      </trkpt>
      <trkpt lat="47.28462" lon="-2.3639">
        <ele>26.799999237061</ele>
        <time>2019-08-11T08:05:59.000Z</time>
      </trkpt>
      <trkpt lat="47.28464" lon="-2.3637">
        <ele>26.799999237061</ele>
        <time>2019-08-11T08:06:04.000Z</time>
      </trkpt>
      <trkpt lat="47.28464" lon="-2.36351">
        <ele>26.799999237061</ele>
        <time>2019-08-11T08:06:08.000Z</time>
      </trkpt>
      <trkpt lat="47.28464" lon="-2.36321">
        <ele>26.799999237061</ele>
        <time>2019-08-11T08:06:13.000Z</time>
      </trkpt>
      <trkpt lat="47.2846" lon="-2.36288">
        <ele>26.799999237061</ele>
        <time>2019-08-11T08:06:18.000Z</time>
      </trkpt>
      <trkpt lat="47.28457" lon="-2.36248">
        <ele>26.799999237061</ele>
        <time>2019-08-11T08:06:25.000Z</time>
      </trkpt>
      <trkpt lat="47.28453" lon="-2.36219">
        <ele>26.799999237061</ele>
        <time>2019-08-11T08:06:31.000Z</time>
      </trkpt>
      <trkpt lat="47.28456" lon="-2.36203">
        <ele>26.799999237061</ele>
        <time>2019-08-11T08:06:34.000Z</time>
      </trkpt>
      <trkpt lat="47.28458" lon="-2.36199">
        <ele>26.799999237061</ele>
        <time>2019-08-11T08:06:35.000Z</time>
      </trkpt>
      <trkpt lat="47.28467" lon="-2.3619">
        <ele>27.200000762939</ele>
        <time>2019-08-11T08:06:39.000Z</time>
      </trkpt>
      <trkpt lat="47.28469" lon="-2.36188">
        <ele>27.60000038147</ele>
        <time>2019-08-11T08:06:40.000Z</time>
      </trkpt>
      <trkpt lat="47.28472" lon="-2.36184">
        <ele>28</ele>
        <time>2019-08-11T08:06:41.000Z</time>
      </trkpt>
      <trkpt lat="47.28474" lon="-2.36181">
        <ele>28.60000038147</ele>
        <time>2019-08-11T08:06:42.000Z</time>
      </trkpt>
      <trkpt lat="47.28476" lon="-2.36177">
        <ele>29</ele>
        <time>2019-08-11T08:06:43.000Z</time>
      </trkpt>
      <trkpt lat="47.28478" lon="-2.36174">
        <ele>29</ele>
        <time>2019-08-11T08:06:44.000Z</time>
      </trkpt>
      <trkpt lat="47.2849" lon="-2.3616">
        <ele>29</ele>
        <time>2019-08-11T08:06:50.000Z</time>
      </trkpt>
      <trkpt lat="47.28493" lon="-2.36158">
        <ele>29.39999961853</ele>
        <time>2019-08-11T08:06:51.000Z</time>
      </trkpt>
      <trkpt lat="47.28495" lon="-2.36157">
        <ele>29.799999237061</ele>
        <time>2019-08-11T08:06:52.000Z</time>
      </trkpt>
      <trkpt lat="47.28497" lon="-2.36155">
        <ele>30.200000762939</ele>
        <time>2019-08-11T08:06:53.000Z</time>
      </trkpt>
      <trkpt lat="47.28499" lon="-2.36155">
        <ele>30.60000038147</ele>
        <time>2019-08-11T08:06:54.000Z</time>
      </trkpt>
      <trkpt lat="47.28501" lon="-2.36154">
        <ele>31.200000762939</ele>
        <time>2019-08-11T08:06:55.000Z</time>
      </trkpt>
      <trkpt lat="47.28503" lon="-2.36154">
        <ele>31.200000762939</ele>
        <time>2019-08-11T08:06:56.000Z</time>
      </trkpt>
      <trkpt lat="47.28514" lon="-2.3616">
        <ele>31.200000762939</ele>
        <time>2019-08-11T08:07:01.000Z</time>
      </trkpt>
      <trkpt lat="47.28516" lon="-2.36161">
        <ele>31.60000038147</ele>
        <time>2019-08-11T08:07:02.000Z</time>
      </trkpt>
      <trkpt lat="47.28518" lon="-2.36161">
        <ele>32.400001525879</ele>
        <time>2019-08-11T08:07:03.000Z</time>
      </trkpt>
      <trkpt lat="47.2852" lon="-2.36162">
        <ele>32.799999237061</ele>
        <time>2019-08-11T08:07:04.000Z</time>
      </trkpt>
      <trkpt lat="47.28521" lon="-2.36162">
        <ele>33.200000762939</ele>
        <time>2019-08-11T08:07:05.000Z</time>
      </trkpt>
      <trkpt lat="47.28523" lon="-2.3616">
        <ele>33.200000762939</ele>
        <time>2019-08-11T08:07:07.000Z</time>
      </trkpt>
      <trkpt lat="47.28525" lon="-2.3616">
        <ele>33.200000762939</ele>
        <time>2019-08-11T08:07:08.000Z</time>
      </trkpt>
      <trkpt lat="47.28531" lon="-2.3616">
        <ele>33.599998474121</ele>
        <time>2019-08-11T08:07:11.000Z</time>
      </trkpt>
      <trkpt lat="47.28533" lon="-2.3616">
        <ele>34</ele>
        <time>2019-08-11T08:07:12.000Z</time>
      </trkpt>
      <trkpt lat="47.28536" lon="-2.36161">
        <ele>34.400001525879</ele>
        <time>2019-08-11T08:07:13.000Z</time>
      </trkpt>
      <trkpt lat="47.28538" lon="-2.36162">
        <ele>35</ele>
        <time>2019-08-11T08:07:14.000Z</time>
      </trkpt>
      <trkpt lat="47.2854" lon="-2.36163">
        <ele>35.400001525879</ele>
        <time>2019-08-11T08:07:15.000Z</time>
      </trkpt>
      <trkpt lat="47.28541" lon="-2.36164">
        <ele>35.400001525879</ele>
        <time>2019-08-11T08:07:16.000Z</time>
      </trkpt>
      <trkpt lat="47.28544" lon="-2.36167">
        <ele>35.400001525879</ele>
        <time>2019-08-11T08:07:18.000Z</time>
      </trkpt>
      <trkpt lat="47.28546" lon="-2.36168">
        <ele>35.799999237061</ele>
        <time>2019-08-11T08:07:19.000Z</time>
      </trkpt>
      <trkpt lat="47.28547" lon="-2.36171">
        <ele>36.200000762939</ele>
        <time>2019-08-11T08:07:20.000Z</time>
      </trkpt>
      <trkpt lat="47.28548" lon="-2.36174">
        <ele>36.599998474121</ele>
        <time>2019-08-11T08:07:21.000Z</time>
      </trkpt>
      <trkpt lat="47.28548" lon="-2.36178">
        <ele>37</ele>
        <time>2019-08-11T08:07:22.000Z</time>
      </trkpt>
      <trkpt lat="47.28549" lon="-2.36183">
        <ele>37.400001525879</ele>
        <time>2019-08-11T08:07:23.000Z</time>
      </trkpt>
      <trkpt lat="47.28551" lon="-2.36202">
        <ele>37.400001525879</ele>
        <time>2019-08-11T08:07:27.000Z</time>
      </trkpt>
      <trkpt lat="47.28551" lon="-2.36207">
        <ele>37.400001525879</ele>
        <time>2019-08-11T08:07:28.000Z</time>
      </trkpt>
      <trkpt lat="47.28552" lon="-2.36243">
        <ele>37.400001525879</ele>
        <time>2019-08-11T08:07:34.000Z</time>
      </trkpt>
      <trkpt lat="47.28554" lon="-2.3628">
        <ele>37.400001525879</ele>
        <time>2019-08-11T08:07:40.000Z</time>
      </trkpt>
      <trkpt lat="47.28546" lon="-2.36308">
        <ele>37.400001525879</ele>
        <time>2019-08-11T08:07:45.000Z</time>
      </trkpt>
      <trkpt lat="47.28541" lon="-2.36334">
        <ele>37.400001525879</ele>
        <time>2019-08-11T08:07:51.000Z</time>
      </trkpt>
      <trkpt lat="47.28541" lon="-2.36336">
        <ele>37.400001525879</ele>
        <time>2019-08-11T08:07:52.000Z</time>
      </trkpt>
      <trkpt lat="47.28544" lon="-2.36349">
        <ele>37.400001525879</ele>
        <time>2019-08-11T08:07:56.000Z</time>
      </trkpt>
      <trkpt lat="47.28549" lon="-2.36362">
        <ele>37.400001525879</ele>
        <time>2019-08-11T08:08:01.000Z</time>
      </trkpt>
      <trkpt lat="47.28552" lon="-2.3636">
        <ele>37.799999237061</ele>
        <time>2019-08-11T08:08:04.000Z</time>
      </trkpt>
      <trkpt lat="47.28554" lon="-2.36359">
        <ele>38.200000762939</ele>
        <time>2019-08-11T08:08:05.000Z</time>
      </trkpt>
      <trkpt lat="47.28555" lon="-2.36358">
        <ele>38.599998474121</ele>
        <time>2019-08-11T08:08:06.000Z</time>
      </trkpt>
      <trkpt lat="47.28557" lon="-2.36357">
        <ele>39</ele>
        <time>2019-08-11T08:08:07.000Z</time>
      </trkpt>
      <trkpt lat="47.2856" lon="-2.36355">
        <ele>39.400001525879</ele>
        <time>2019-08-11T08:08:08.000Z</time>
      </trkpt>
      <trkpt lat="47.28566" lon="-2.3635">
        <ele>39.400001525879</ele>
        <time>2019-08-11T08:08:10.000Z</time>
      </trkpt>
      <trkpt lat="47.28571" lon="-2.36343">
        <ele>39.400001525879</ele>
        <time>2019-08-11T08:08:12.000Z</time>
      </trkpt>
      <trkpt lat="47.28578" lon="-2.36332">
        <ele>39.400001525879</ele>
        <time>2019-08-11T08:08:14.000Z</time>
      </trkpt>
      <trkpt lat="47.28585" lon="-2.36322">
        <ele>39.400001525879</ele>
        <time>2019-08-11T08:08:16.000Z</time>
      </trkpt>
      <trkpt lat="47.28588" lon="-2.36318">
        <ele>39</ele>
        <time>2019-08-11T08:08:17.000Z</time>
      </trkpt>
      <trkpt lat="47.28591" lon="-2.36313">
        <ele>38.599998474121</ele>
        <time>2019-08-11T08:08:18.000Z</time>
      </trkpt>
      <trkpt lat="47.28595" lon="-2.3631">
        <ele>38.200000762939</ele>
        <time>2019-08-11T08:08:19.000Z</time>
      </trkpt>
      <trkpt lat="47.28598" lon="-2.36307">
        <ele>37.599998474121</ele>
        <time>2019-08-11T08:08:20.000Z</time>
      </trkpt>
      <trkpt lat="47.28601" lon="-2.36305">
        <ele>37.200000762939</ele>
        <time>2019-08-11T08:08:21.000Z</time>
      </trkpt>
      <trkpt lat="47.28615" lon="-2.36292">
        <ele>36.799999237061</ele>
        <time>2019-08-11T08:08:24.000Z</time>
      </trkpt>
      <trkpt lat="47.2862" lon="-2.3629">
        <ele>36.400001525879</ele>
        <time>2019-08-11T08:08:25.000Z</time>
      </trkpt>
      <trkpt lat="47.28624" lon="-2.36288">
        <ele>36</ele>
        <time>2019-08-11T08:08:26.000Z</time>
      </trkpt>
      <trkpt lat="47.2863" lon="-2.36287">
        <ele>35.400001525879</ele>
        <time>2019-08-11T08:08:27.000Z</time>
      </trkpt>
      <trkpt lat="47.28635" lon="-2.36286">
        <ele>35</ele>
        <time>2019-08-11T08:08:28.000Z</time>
      </trkpt>
      <trkpt lat="47.28645" lon="-2.36285">
        <ele>35</ele>
        <time>2019-08-11T08:08:30.000Z</time>
      </trkpt>
      <trkpt lat="47.28655" lon="-2.36286">
        <ele>35</ele>
        <time>2019-08-11T08:08:32.000Z</time>
      </trkpt>
      <trkpt lat="47.28669" lon="-2.36288">
        <ele>35</ele>
        <time>2019-08-11T08:08:36.000Z</time>
      </trkpt>
      <trkpt lat="47.28686" lon="-2.36288">
        <ele>35</ele>
        <time>2019-08-11T08:08:41.000Z</time>
      </trkpt>
      <trkpt lat="47.28699" lon="-2.36284">
        <ele>35</ele>
        <time>2019-08-11T08:08:45.000Z</time>
      </trkpt>
      <trkpt lat="47.28714" lon="-2.36264">
        <ele>34.599998474121</ele>
        <time>2019-08-11T08:08:51.000Z</time>
      </trkpt>
      <trkpt lat="47.28718" lon="-2.36259">
        <ele>34.200000762939</ele>
        <time>2019-08-11T08:08:52.000Z</time>
      </trkpt>
      <trkpt lat="47.28722" lon="-2.36254">
        <ele>33.799999237061</ele>
        <time>2019-08-11T08:08:53.000Z</time>
      </trkpt>
      <trkpt lat="47.28725" lon="-2.36252">
        <ele>33.400001525879</ele>
        <time>2019-08-11T08:08:54.000Z</time>
      </trkpt>
      <trkpt lat="47.28727" lon="-2.36249">
        <ele>33</ele>
        <time>2019-08-11T08:08:55.000Z</time>
      </trkpt>
      <trkpt lat="47.28738" lon="-2.36239">
        <ele>33</ele>
        <time>2019-08-11T08:08:58.000Z</time>
      </trkpt>
      <trkpt lat="47.28759" lon="-2.36216">
        <ele>33</ele>
        <time>2019-08-11T08:09:03.000Z</time>
      </trkpt>
      <trkpt lat="47.28786" lon="-2.36197">
        <ele>33</ele>
        <time>2019-08-11T08:09:08.000Z</time>
      </trkpt>
      <trkpt lat="47.28822" lon="-2.36167">
        <ele>33</ele>
        <time>2019-08-11T08:09:14.000Z</time>
      </trkpt>
      <trkpt lat="47.28848" lon="-2.36133">
        <ele>33</ele>
        <time>2019-08-11T08:09:19.000Z</time>
      </trkpt>
      <trkpt lat="47.28881" lon="-2.36099">
        <ele>33</ele>
        <time>2019-08-11T08:09:25.000Z</time>
      </trkpt>
      <trkpt lat="47.28919" lon="-2.36065">
        <ele>33</ele>
        <time>2019-08-11T08:09:32.000Z</time>
      </trkpt>
      <trkpt lat="47.28924" lon="-2.36061">
        <ele>33</ele>
        <time>2019-08-11T08:09:33.000Z</time>
      </trkpt>
      <trkpt lat="47.28958" lon="-2.36038">
        <ele>33</ele>
        <time>2019-08-11T08:09:39.000Z</time>
      </trkpt>
      <trkpt lat="47.28964" lon="-2.36034">
        <ele>33</ele>
        <time>2019-08-11T08:09:40.000Z</time>
      </trkpt>
      <trkpt lat="47.29006" lon="-2.35996">
        <ele>33</ele>
        <time>2019-08-11T08:09:48.000Z</time>
      </trkpt>
      <trkpt lat="47.29046" lon="-2.35952">
        <ele>33</ele>
        <time>2019-08-11T08:09:56.000Z</time>
      </trkpt>
      <trkpt lat="47.29077" lon="-2.35917">
        <ele>33</ele>
        <time>2019-08-11T08:10:03.000Z</time>
      </trkpt>
      <trkpt lat="47.29112" lon="-2.35874">
        <ele>33</ele>
        <time>2019-08-11T08:10:11.000Z</time>
      </trkpt>
      <trkpt lat="47.29131" lon="-2.35854">
        <ele>33</ele>
        <time>2019-08-11T08:10:15.000Z</time>
      </trkpt>
      <trkpt lat="47.29141" lon="-2.35844">
        <ele>33</ele>
        <time>2019-08-11T08:10:17.000Z</time>
      </trkpt>
      <trkpt lat="47.29171" lon="-2.35819">
        <ele>33</ele>
        <time>2019-08-11T08:10:23.000Z</time>
      </trkpt>
      <trkpt lat="47.29209" lon="-2.35792">
        <ele>33</ele>
        <time>2019-08-11T08:10:30.000Z</time>
      </trkpt>
      <trkpt lat="47.29238" lon="-2.3576">
        <ele>33</ele>
        <time>2019-08-11T08:10:37.000Z</time>
      </trkpt>
      <trkpt lat="47.29252" lon="-2.35739">
        <ele>32.599998474121</ele>
        <time>2019-08-11T08:10:42.000Z</time>
      </trkpt>
      <trkpt lat="47.29253" lon="-2.35737">
        <ele>32.200000762939</ele>
        <time>2019-08-11T08:10:43.000Z</time>
      </trkpt>
      <trkpt lat="47.29253" lon="-2.35736">
        <ele>31.799999237061</ele>
        <time>2019-08-11T08:10:44.000Z</time>
      </trkpt>
      <trkpt lat="47.29254" lon="-2.35735">
        <ele>31</ele>
        <time>2019-08-11T08:10:45.000Z</time>
      </trkpt>
      <trkpt lat="47.29256" lon="-2.35733">
        <ele>31</ele>
        <time>2019-08-11T08:10:46.000Z</time>
      </trkpt>
      <trkpt lat="47.29266" lon="-2.35735">
        <ele>31</ele>
        <time>2019-08-11T08:10:50.000Z</time>
      </trkpt>
      <trkpt lat="47.29274" lon="-2.35742">
        <ele>31</ele>
        <time>2019-08-11T08:10:52.000Z</time>
      </trkpt>
      <trkpt lat="47.29283" lon="-2.35748">
        <ele>31</ele>
        <time>2019-08-11T08:10:54.000Z</time>
      </trkpt>
      <trkpt lat="47.29311" lon="-2.35773">
        <ele>31</ele>
        <time>2019-08-11T08:11:00.000Z</time>
      </trkpt>
      <trkpt lat="47.29345" lon="-2.35806">
        <ele>31</ele>
        <time>2019-08-11T08:11:07.000Z</time>
      </trkpt>
      <trkpt lat="47.29383" lon="-2.35842">
        <ele>31</ele>
        <time>2019-08-11T08:11:15.000Z</time>
      </trkpt>
      <trkpt lat="47.29412" lon="-2.35875">
        <ele>31</ele>
        <time>2019-08-11T08:11:22.000Z</time>
      </trkpt>
      <trkpt lat="47.2944" lon="-2.35906">
        <ele>31</ele>
        <time>2019-08-11T08:11:30.000Z</time>
      </trkpt>
      <trkpt lat="47.29455" lon="-2.35902">
        <ele>31</ele>
        <time>2019-08-11T08:11:36.000Z</time>
      </trkpt>
      <trkpt lat="47.29462" lon="-2.359">
        <ele>31</ele>
        <time>2019-08-11T08:11:39.000Z</time>
      </trkpt>
      <trkpt lat="47.29468" lon="-2.35901">
        <ele>31</ele>
        <time>2019-08-11T08:11:41.000Z</time>
      </trkpt>
      <trkpt lat="47.29481" lon="-2.35901">
        <ele>31</ele>
        <time>2019-08-11T08:11:46.000Z</time>
      </trkpt>
      <trkpt lat="47.29494" lon="-2.35905">
        <ele>31</ele>
        <time>2019-08-11T08:11:50.000Z</time>
      </trkpt>
      <trkpt lat="47.29503" lon="-2.35927">
        <ele>31</ele>
        <time>2019-08-11T08:11:55.000Z</time>
      </trkpt>
      <trkpt lat="47.2951" lon="-2.35943">
        <ele>31</ele>
        <time>2019-08-11T08:11:59.000Z</time>
      </trkpt>
      <trkpt lat="47.29513" lon="-2.35944">
        <ele>31</ele>
        <time>2019-08-11T08:12:00.000Z</time>
      </trkpt>
      <trkpt lat="47.29524" lon="-2.35938">
        <ele>31</ele>
        <time>2019-08-11T08:12:03.000Z</time>
      </trkpt>
      <trkpt lat="47.29529" lon="-2.35935">
        <ele>31</ele>
        <time>2019-08-11T08:12:04.000Z</time>
      </trkpt>
      <trkpt lat="47.29543" lon="-2.35927">
        <ele>31</ele>
        <time>2019-08-11T08:12:07.000Z</time>
      </trkpt>
      <trkpt lat="47.29548" lon="-2.35925">
        <ele>31</ele>
        <time>2019-08-11T08:12:08.000Z</time>
      </trkpt>
      <trkpt lat="47.29579" lon="-2.35907">
        <ele>31</ele>
        <time>2019-08-11T08:12:14.000Z</time>
      </trkpt>
      <trkpt lat="47.29617" lon="-2.35885">
        <ele>31</ele>
        <time>2019-08-11T08:12:21.000Z</time>
      </trkpt>
      <trkpt lat="47.29637" lon="-2.35872">
        <ele>31</ele>
        <time>2019-08-11T08:12:25.000Z</time>
      </trkpt>
      <trkpt lat="47.29647" lon="-2.35862">
        <ele>31</ele>
        <time>2019-08-11T08:12:27.000Z</time>
      </trkpt>
      <trkpt lat="47.29655" lon="-2.35844">
        <ele>31</ele>
        <time>2019-08-11T08:12:30.000Z</time>
      </trkpt>
      <trkpt lat="47.29668" lon="-2.35838">
        <ele>31</ele>
        <time>2019-08-11T08:12:33.000Z</time>
      </trkpt>
      <trkpt lat="47.29679" lon="-2.35839">
        <ele>31</ele>
        <time>2019-08-11T08:12:35.000Z</time>
      </trkpt>
      <trkpt lat="47.29691" lon="-2.35839">
        <ele>31</ele>
        <time>2019-08-11T08:12:37.000Z</time>
      </trkpt>
      <trkpt lat="47.29697" lon="-2.35838">
        <ele>31</ele>
        <time>2019-08-11T08:12:38.000Z</time>
      </trkpt>
      <trkpt lat="47.2972" lon="-2.35826">
        <ele>31</ele>
        <time>2019-08-11T08:12:42.000Z</time>
      </trkpt>
      <trkpt lat="47.29725" lon="-2.35823">
        <ele>31</ele>
        <time>2019-08-11T08:12:43.000Z</time>
      </trkpt>
      <trkpt lat="47.29741" lon="-2.35813">
        <ele>31.39999961853</ele>
        <time>2019-08-11T08:12:46.000Z</time>
      </trkpt>
      <trkpt lat="47.29746" lon="-2.35811">
        <ele>31.799999237061</ele>
        <time>2019-08-11T08:12:47.000Z</time>
      </trkpt>
      <trkpt lat="47.29751" lon="-2.35808">
        <ele>32.599998474121</ele>
        <time>2019-08-11T08:12:48.000Z</time>
      </trkpt>
      <trkpt lat="47.29757" lon="-2.35806">
        <ele>33</ele>
        <time>2019-08-11T08:12:49.000Z</time>
      </trkpt>
      <trkpt lat="47.29762" lon="-2.35804">
        <ele>33</ele>
        <time>2019-08-11T08:12:50.000Z</time>
      </trkpt>
      <trkpt lat="47.29773" lon="-2.358">
        <ele>33.400001525879</ele>
        <time>2019-08-11T08:12:52.000Z</time>
      </trkpt>
      <trkpt lat="47.29778" lon="-2.35798">
        <ele>33.799999237061</ele>
        <time>2019-08-11T08:12:53.000Z</time>
      </trkpt>
      <trkpt lat="47.29783" lon="-2.35797">
        <ele>34.200000762939</ele>
        <time>2019-08-11T08:12:54.000Z</time>
      </trkpt>
      <trkpt lat="47.29788" lon="-2.35795">
        <ele>34.599998474121</ele>
        <time>2019-08-11T08:12:55.000Z</time>
      </trkpt>
      <trkpt lat="47.29794" lon="-2.35793">
        <ele>35</ele>
        <time>2019-08-11T08:12:56.000Z</time>
      </trkpt>
      <trkpt lat="47.298" lon="-2.3579">
        <ele>35</ele>
        <time>2019-08-11T08:12:57.000Z</time>
      </trkpt>
      <trkpt lat="47.29843" lon="-2.35776">
        <ele>35</ele>
        <time>2019-08-11T08:13:04.000Z</time>
      </trkpt>
      <trkpt lat="47.29877" lon="-2.35762">
        <ele>35</ele>
        <time>2019-08-11T08:13:09.000Z</time>
      </trkpt>
      <trkpt lat="47.29894" lon="-2.35754">
        <ele>34.599998474121</ele>
        <time>2019-08-11T08:13:12.000Z</time>
      </trkpt>
      <trkpt lat="47.29897" lon="-2.35749">
        <ele>33.799999237061</ele>
        <time>2019-08-11T08:13:13.000Z</time>
      </trkpt>
      <trkpt lat="47.29898" lon="-2.35744">
        <ele>33.400001525879</ele>
        <time>2019-08-11T08:13:14.000Z</time>
      </trkpt>
      <trkpt lat="47.29897" lon="-2.35738">
        <ele>33</ele>
        <time>2019-08-11T08:13:15.000Z</time>
      </trkpt>
      <trkpt lat="47.29895" lon="-2.35733">
        <ele>33</ele>
        <time>2019-08-11T08:13:16.000Z</time>
      </trkpt>
      <trkpt lat="47.29893" lon="-2.35726">
        <ele>33</ele>
        <time>2019-08-11T08:13:17.000Z</time>
      </trkpt>
      <trkpt lat="47.29883" lon="-2.35689">
        <ele>33</ele>
        <time>2019-08-11T08:13:22.000Z</time>
      </trkpt>
      <trkpt lat="47.29871" lon="-2.35628">
        <ele>33</ele>
        <time>2019-08-11T08:13:29.000Z</time>
      </trkpt>
      <trkpt lat="47.29857" lon="-2.35573">
        <ele>33</ele>
        <time>2019-08-11T08:13:35.000Z</time>
      </trkpt>
      <trkpt lat="47.29836" lon="-2.35498">
        <ele>33</ele>
        <time>2019-08-11T08:13:43.000Z</time>
      </trkpt>
      <trkpt lat="47.2983" lon="-2.35473">
        <ele>32.599998474121</ele>
        <time>2019-08-11T08:13:46.000Z</time>
      </trkpt>
      <trkpt lat="47.2983" lon="-2.35465">
        <ele>32.200000762939</ele>
        <time>2019-08-11T08:13:47.000Z</time>
      </trkpt>
      <trkpt lat="47.29833" lon="-2.35457">
        <ele>31.799999237061</ele>
        <time>2019-08-11T08:13:48.000Z</time>
      </trkpt>
      <trkpt lat="47.29837" lon="-2.3545">
        <ele>31.200000762939</ele>
        <time>2019-08-11T08:13:49.000Z</time>
      </trkpt>
      <trkpt lat="47.29841" lon="-2.35444">
        <ele>30.799999237061</ele>
        <time>2019-08-11T08:13:50.000Z</time>
      </trkpt>
      <trkpt lat="47.29852" lon="-2.35433">
        <ele>30.799999237061</ele>
        <time>2019-08-11T08:13:52.000Z</time>
      </trkpt>
      <trkpt lat="47.29869" lon="-2.35415">
        <ele>30.799999237061</ele>
        <time>2019-08-11T08:13:55.000Z</time>
      </trkpt>
      <trkpt lat="47.2991" lon="-2.35372">
        <ele>30.799999237061</ele>
        <time>2019-08-11T08:14:02.000Z</time>
      </trkpt>
      <trkpt lat="47.29936" lon="-2.35341">
        <ele>30.799999237061</ele>
        <time>2019-08-11T08:14:07.000Z</time>
      </trkpt>
      <trkpt lat="47.29976" lon="-2.35288">
        <ele>30.39999961853</ele>
        <time>2019-08-11T08:14:15.000Z</time>
      </trkpt>
      <trkpt lat="47.29981" lon="-2.35281">
        <ele>30</ele>
        <time>2019-08-11T08:14:16.000Z</time>
      </trkpt>
      <trkpt lat="47.29986" lon="-2.35276">
        <ele>29.60000038147</ele>
        <time>2019-08-11T08:14:17.000Z</time>
      </trkpt>
      <trkpt lat="47.29991" lon="-2.3527">
        <ele>29.200000762939</ele>
        <time>2019-08-11T08:14:18.000Z</time>
      </trkpt>
      <trkpt lat="47.29995" lon="-2.35265">
        <ele>28.799999237061</ele>
        <time>2019-08-11T08:14:19.000Z</time>
      </trkpt>
      <trkpt lat="47.30003" lon="-2.35258">
        <ele>28.799999237061</ele>
        <time>2019-08-11T08:14:21.000Z</time>
      </trkpt>
      <trkpt lat="47.30015" lon="-2.35252">
        <ele>28.799999237061</ele>
        <time>2019-08-11T08:14:25.000Z</time>
      </trkpt>
      <trkpt lat="47.30028" lon="-2.35246">
        <ele>28.799999237061</ele>
        <time>2019-08-11T08:14:30.000Z</time>
      </trkpt>
      <trkpt lat="47.30029" lon="-2.35246">
        <ele>28.799999237061</ele>
        <time>2019-08-11T08:14:31.000Z</time>
      </trkpt>
      <trkpt lat="47.30033" lon="-2.35244">
        <ele>28.799999237061</ele>
        <time>2019-08-11T08:14:33.000Z</time>
      </trkpt>
      <trkpt lat="47.30044" lon="-2.35239">
        <ele>28.799999237061</ele>
        <time>2019-08-11T08:14:36.000Z</time>
      </trkpt>
      <trkpt lat="47.30048" lon="-2.35236">
        <ele>28.799999237061</ele>
        <time>2019-08-11T08:14:37.000Z</time>
      </trkpt>
      <trkpt lat="47.30065" lon="-2.35227">
        <ele>28.799999237061</ele>
        <time>2019-08-11T08:14:41.000Z</time>
      </trkpt>
      <trkpt lat="47.30074" lon="-2.35221">
        <ele>28.799999237061</ele>
        <time>2019-08-11T08:14:43.000Z</time>
      </trkpt>
      <trkpt lat="47.30078" lon="-2.35219">
        <ele>28.799999237061</ele>
        <time>2019-08-11T08:14:44.000Z</time>
      </trkpt>
      <trkpt lat="47.30093" lon="-2.35213">
        <ele>28.799999237061</ele>
        <time>2019-08-11T08:14:47.000Z</time>
      </trkpt>
      <trkpt lat="47.30109" lon="-2.35206">
        <ele>28.799999237061</ele>
        <time>2019-08-11T08:14:50.000Z</time>
      </trkpt>
      <trkpt lat="47.30114" lon="-2.35204">
        <ele>28.799999237061</ele>
        <time>2019-08-11T08:14:51.000Z</time>
      </trkpt>
      <trkpt lat="47.3013" lon="-2.35198">
        <ele>28.799999237061</ele>
        <time>2019-08-11T08:14:54.000Z</time>
      </trkpt>
      <trkpt lat="47.3014" lon="-2.35197">
        <ele>28.799999237061</ele>
        <time>2019-08-11T08:14:56.000Z</time>
      </trkpt>
      <trkpt lat="47.30154" lon="-2.35195">
        <ele>28.799999237061</ele>
        <time>2019-08-11T08:14:59.000Z</time>
      </trkpt>
      <trkpt lat="47.30164" lon="-2.35186">
        <ele>28.799999237061</ele>
        <time>2019-08-11T08:15:01.000Z</time>
      </trkpt>
      <trkpt lat="47.30173" lon="-2.3518">
        <ele>28.799999237061</ele>
        <time>2019-08-11T08:15:03.000Z</time>
      </trkpt>
      <trkpt lat="47.30181" lon="-2.35177">
        <ele>28.799999237061</ele>
        <time>2019-08-11T08:15:05.000Z</time>
      </trkpt>
      <trkpt lat="47.3019" lon="-2.35175">
        <ele>28.799999237061</ele>
        <time>2019-08-11T08:15:07.000Z</time>
      </trkpt>
      <trkpt lat="47.302" lon="-2.35167">
        <ele>28.799999237061</ele>
        <time>2019-08-11T08:15:09.000Z</time>
      </trkpt>
      <trkpt lat="47.30206" lon="-2.35148">
        <ele>28.799999237061</ele>
        <time>2019-08-11T08:15:12.000Z</time>
      </trkpt>
      <trkpt lat="47.30206" lon="-2.35134">
        <ele>28.799999237061</ele>
        <time>2019-08-11T08:15:14.000Z</time>
      </trkpt>
      <trkpt lat="47.30207" lon="-2.35112">
        <ele>28.799999237061</ele>
        <time>2019-08-11T08:15:17.000Z</time>
      </trkpt>
      <trkpt lat="47.30209" lon="-2.35064">
        <ele>28.799999237061</ele>
        <time>2019-08-11T08:15:23.000Z</time>
      </trkpt>
      <trkpt lat="47.30208" lon="-2.35027">
        <ele>29.200000762939</ele>
        <time>2019-08-11T08:15:28.000Z</time>
      </trkpt>
      <trkpt lat="47.30208" lon="-2.35019">
        <ele>29.60000038147</ele>
        <time>2019-08-11T08:15:29.000Z</time>
      </trkpt>
      <trkpt lat="47.30207" lon="-2.35012">
        <ele>30</ele>
        <time>2019-08-11T08:15:30.000Z</time>
      </trkpt>
      <trkpt lat="47.30207" lon="-2.35005">
        <ele>30.39999961853</ele>
        <time>2019-08-11T08:15:31.000Z</time>
      </trkpt>
      <trkpt lat="47.30207" lon="-2.34998">
        <ele>31</ele>
        <time>2019-08-11T08:15:32.000Z</time>
      </trkpt>
      <trkpt lat="47.30207" lon="-2.34976">
        <ele>31</ele>
        <time>2019-08-11T08:15:35.000Z</time>
      </trkpt>
      <trkpt lat="47.30207" lon="-2.34969">
        <ele>31</ele>
        <time>2019-08-11T08:15:36.000Z</time>
      </trkpt>
      <trkpt lat="47.30207" lon="-2.3494">
        <ele>31.39999961853</ele>
        <time>2019-08-11T08:15:40.000Z</time>
      </trkpt>
      <trkpt lat="47.30207" lon="-2.34934">
        <ele>31.799999237061</ele>
        <time>2019-08-11T08:15:41.000Z</time>
      </trkpt>
      <trkpt lat="47.30206" lon="-2.34928">
        <ele>32.599998474121</ele>
        <time>2019-08-11T08:15:42.000Z</time>
      </trkpt>
      <trkpt lat="47.30207" lon="-2.34922">
        <ele>33</ele>
        <time>2019-08-11T08:15:43.000Z</time>
      </trkpt>
      <trkpt lat="47.30207" lon="-2.34916">
        <ele>33</ele>
        <time>2019-08-11T08:15:44.000Z</time>
      </trkpt>
      <trkpt lat="47.3021" lon="-2.34907">
        <ele>33</ele>
        <time>2019-08-11T08:15:46.000Z</time>
      </trkpt>
      <trkpt lat="47.30217" lon="-2.349">
        <ele>33</ele>
        <time>2019-08-11T08:15:48.000Z</time>
      </trkpt>
      <trkpt lat="47.30226" lon="-2.3489">
        <ele>33</ele>
        <time>2019-08-11T08:15:50.000Z</time>
      </trkpt>
      <trkpt lat="47.30231" lon="-2.34886">
        <ele>33</ele>
        <time>2019-08-11T08:15:51.000Z</time>
      </trkpt>
      <trkpt lat="47.30246" lon="-2.34877">
        <ele>33</ele>
        <time>2019-08-11T08:15:54.000Z</time>
      </trkpt>
      <trkpt lat="47.30251" lon="-2.34874">
        <ele>33</ele>
        <time>2019-08-11T08:15:55.000Z</time>
      </trkpt>
      <trkpt lat="47.30275" lon="-2.3486">
        <ele>33</ele>
        <time>2019-08-11T08:16:00.000Z</time>
      </trkpt>
      <trkpt lat="47.3029" lon="-2.3485">
        <ele>33</ele>
        <time>2019-08-11T08:16:03.000Z</time>
      </trkpt>
      <trkpt lat="47.30294" lon="-2.34845">
        <ele>33</ele>
        <time>2019-08-11T08:16:04.000Z</time>
      </trkpt>
      <trkpt lat="47.30306" lon="-2.34829">
        <ele>33</ele>
        <time>2019-08-11T08:16:07.000Z</time>
      </trkpt>
      <trkpt lat="47.30311" lon="-2.34823">
        <ele>33</ele>
        <time>2019-08-11T08:16:08.000Z</time>
      </trkpt>
      <trkpt lat="47.30325" lon="-2.34799">
        <ele>33</ele>
        <time>2019-08-11T08:16:12.000Z</time>
      </trkpt>
      <trkpt lat="47.30332" lon="-2.34787">
        <ele>33.400001525879</ele>
        <time>2019-08-11T08:16:14.000Z</time>
      </trkpt>
      <trkpt lat="47.30336" lon="-2.34782">
        <ele>33.799999237061</ele>
        <time>2019-08-11T08:16:15.000Z</time>
      </trkpt>
      <trkpt lat="47.30341" lon="-2.34778">
        <ele>34.200000762939</ele>
        <time>2019-08-11T08:16:16.000Z</time>
      </trkpt>
      <trkpt lat="47.30346" lon="-2.34775">
        <ele>34.599998474121</ele>
        <time>2019-08-11T08:16:17.000Z</time>
      </trkpt>
      <trkpt lat="47.30351" lon="-2.34771">
        <ele>35</ele>
        <time>2019-08-11T08:16:18.000Z</time>
      </trkpt>
      <trkpt lat="47.30376" lon="-2.34754">
        <ele>35</ele>
        <time>2019-08-11T08:16:23.000Z</time>
      </trkpt>
      <trkpt lat="47.30386" lon="-2.34748">
        <ele>35</ele>
        <time>2019-08-11T08:16:25.000Z</time>
      </trkpt>
      <trkpt lat="47.304" lon="-2.34738">
        <ele>35</ele>
        <time>2019-08-11T08:16:28.000Z</time>
      </trkpt>
      <trkpt lat="47.30426" lon="-2.34718">
        <ele>35</ele>
        <time>2019-08-11T08:16:33.000Z</time>
      </trkpt>
      <trkpt lat="47.3043" lon="-2.34713">
        <ele>35</ele>
        <time>2019-08-11T08:16:34.000Z</time>
      </trkpt>
      <trkpt lat="47.30439" lon="-2.34704">
        <ele>35</ele>
        <time>2019-08-11T08:16:36.000Z</time>
      </trkpt>
      <trkpt lat="47.30454" lon="-2.3469">
        <ele>35</ele>
        <time>2019-08-11T08:16:39.000Z</time>
      </trkpt>
      <trkpt lat="47.30477" lon="-2.34667">
        <ele>35</ele>
        <time>2019-08-11T08:16:43.000Z</time>
      </trkpt>
      <trkpt lat="47.30492" lon="-2.34651">
        <ele>35</ele>
        <time>2019-08-11T08:16:46.000Z</time>
      </trkpt>
      <trkpt lat="47.30505" lon="-2.34631">
        <ele>35</ele>
        <time>2019-08-11T08:16:49.000Z</time>
      </trkpt>
      <trkpt lat="47.30513" lon="-2.3462">
        <ele>35</ele>
        <time>2019-08-11T08:16:51.000Z</time>
      </trkpt>
      <trkpt lat="47.30526" lon="-2.34606">
        <ele>35</ele>
        <time>2019-08-11T08:16:54.000Z</time>
      </trkpt>
      <trkpt lat="47.30539" lon="-2.34592">
        <ele>35</ele>
        <time>2019-08-11T08:16:57.000Z</time>
      </trkpt>
      <trkpt lat="47.30545" lon="-2.34579">
        <ele>35</ele>
        <time>2019-08-11T08:16:59.000Z</time>
      </trkpt>
      <trkpt lat="47.30551" lon="-2.3457">
        <ele>35</ele>
        <time>2019-08-11T08:17:01.000Z</time>
      </trkpt>
      <trkpt lat="47.30557" lon="-2.34559">
        <ele>35</ele>
        <time>2019-08-11T08:17:04.000Z</time>
      </trkpt>
      <trkpt lat="47.30562" lon="-2.34552">
        <ele>35</ele>
        <time>2019-08-11T08:17:08.000Z</time>
      </trkpt>
      <trkpt lat="47.30563" lon="-2.34546">
        <ele>35</ele>
        <time>2019-08-11T08:17:19.000Z</time>
      </trkpt>
      <trkpt lat="47.3056" lon="-2.34537">
        <ele>35</ele>
        <time>2019-08-11T08:17:24.000Z</time>
      </trkpt>
      <trkpt lat="47.3056" lon="-2.34536">
        <ele>35</ele>
        <time>2019-08-11T08:17:25.000Z</time>
      </trkpt>
      <trkpt lat="47.30554" lon="-2.34524">
        <ele>35</ele>
        <time>2019-08-11T08:17:30.000Z</time>
      </trkpt>
      <trkpt lat="47.30542" lon="-2.34504">
        <ele>35</ele>
        <time>2019-08-11T08:17:35.000Z</time>
      </trkpt>
      <trkpt lat="47.30538" lon="-2.345">
        <ele>35</ele>
        <time>2019-08-11T08:17:36.000Z</time>
      </trkpt>
      <trkpt lat="47.30526" lon="-2.34492">
        <ele>35</ele>
        <time>2019-08-11T08:17:39.000Z</time>
      </trkpt>
      <trkpt lat="47.3051" lon="-2.34475">
        <ele>35</ele>
        <time>2019-08-11T08:17:44.000Z</time>
      </trkpt>
      <trkpt lat="47.30501" lon="-2.3445">
        <ele>35</ele>
        <time>2019-08-11T08:17:49.000Z</time>
      </trkpt>
      <trkpt lat="47.30502" lon="-2.34425">
        <ele>35</ele>
        <time>2019-08-11T08:17:53.000Z</time>
      </trkpt>
      <trkpt lat="47.30508" lon="-2.34389">
        <ele>35</ele>
        <time>2019-08-11T08:17:59.000Z</time>
      </trkpt>
      <trkpt lat="47.3051" lon="-2.3438">
        <ele>35</ele>
        <time>2019-08-11T08:18:00.000Z</time>
      </trkpt>
      <trkpt lat="47.30511" lon="-2.34357">
        <ele>35</ele>
        <time>2019-08-11T08:18:03.000Z</time>
      </trkpt>
      <trkpt lat="47.3051" lon="-2.34342">
        <ele>35</ele>
        <time>2019-08-11T08:18:05.000Z</time>
      </trkpt>
      <trkpt lat="47.30507" lon="-2.34319">
        <ele>35</ele>
        <time>2019-08-11T08:18:08.000Z</time>
      </trkpt>
      <trkpt lat="47.30492" lon="-2.34286">
        <ele>35</ele>
        <time>2019-08-11T08:18:13.000Z</time>
      </trkpt>
      <trkpt lat="47.3049" lon="-2.34279">
        <ele>35</ele>
        <time>2019-08-11T08:18:14.000Z</time>
      </trkpt>
      <trkpt lat="47.30487" lon="-2.34262">
        <ele>35</ele>
        <time>2019-08-11T08:18:17.000Z</time>
      </trkpt>
      <trkpt lat="47.30496" lon="-2.34241">
        <ele>35</ele>
        <time>2019-08-11T08:18:20.000Z</time>
      </trkpt>
      <trkpt lat="47.30508" lon="-2.34209">
        <ele>35</ele>
        <time>2019-08-11T08:18:25.000Z</time>
      </trkpt>
      <trkpt lat="47.30521" lon="-2.34191">
        <ele>35</ele>
        <time>2019-08-11T08:18:29.000Z</time>
      </trkpt>
      <trkpt lat="47.30543" lon="-2.34174">
        <ele>35</ele>
        <time>2019-08-11T08:18:35.000Z</time>
      </trkpt>
      <trkpt lat="47.30547" lon="-2.3417">
        <ele>34.599998474121</ele>
        <time>2019-08-11T08:18:36.000Z</time>
      </trkpt>
      <trkpt lat="47.30551" lon="-2.34167">
        <ele>34.200000762939</ele>
        <time>2019-08-11T08:18:37.000Z</time>
      </trkpt>
      <trkpt lat="47.30555" lon="-2.34161">
        <ele>33.799999237061</ele>
        <time>2019-08-11T08:18:38.000Z</time>
      </trkpt>
      <trkpt lat="47.30559" lon="-2.34155">
        <ele>33.400001525879</ele>
        <time>2019-08-11T08:18:39.000Z</time>
      </trkpt>
      <trkpt lat="47.30562" lon="-2.34149">
        <ele>33</ele>
        <time>2019-08-11T08:18:40.000Z</time>
      </trkpt>
      <trkpt lat="47.30567" lon="-2.34146">
        <ele>33</ele>
        <time>2019-08-11T08:18:41.000Z</time>
      </trkpt>
      <trkpt lat="47.30579" lon="-2.34135">
        <ele>33</ele>
        <time>2019-08-11T08:18:44.000Z</time>
      </trkpt>
      <trkpt lat="47.3059" lon="-2.34115">
        <ele>33</ele>
        <time>2019-08-11T08:18:48.000Z</time>
      </trkpt>
      <trkpt lat="47.30592" lon="-2.34109">
        <ele>33</ele>
        <time>2019-08-11T08:18:49.000Z</time>
      </trkpt>
      <trkpt lat="47.30595" lon="-2.34103">
        <ele>33</ele>
        <time>2019-08-11T08:18:50.000Z</time>
      </trkpt>
      <trkpt lat="47.30604" lon="-2.34083">
        <ele>33</ele>
        <time>2019-08-11T08:18:54.000Z</time>
      </trkpt>
      <trkpt lat="47.30607" lon="-2.34079">
        <ele>33</ele>
        <time>2019-08-11T08:18:55.000Z</time>
      </trkpt>
      <trkpt lat="47.30621" lon="-2.34066">
        <ele>33</ele>
        <time>2019-08-11T08:18:59.000Z</time>
      </trkpt>
      <trkpt lat="47.30625" lon="-2.34064">
        <ele>33</ele>
        <time>2019-08-11T08:19:00.000Z</time>
      </trkpt>
      <trkpt lat="47.30642" lon="-2.34056">
        <ele>33</ele>
        <time>2019-08-11T08:19:04.000Z</time>
      </trkpt>
      <trkpt lat="47.30651" lon="-2.34052">
        <ele>33</ele>
        <time>2019-08-11T08:19:06.000Z</time>
      </trkpt>
      <trkpt lat="47.30659" lon="-2.34046">
        <ele>33</ele>
        <time>2019-08-11T08:19:08.000Z</time>
      </trkpt>
      <trkpt lat="47.30668" lon="-2.34036">
        <ele>33</ele>
        <time>2019-08-11T08:19:11.000Z</time>
      </trkpt>
      <trkpt lat="47.30688" lon="-2.34023">
        <ele>33</ele>
        <time>2019-08-11T08:19:17.000Z</time>
      </trkpt>
      <trkpt lat="47.30707" lon="-2.34021">
        <ele>33</ele>
        <time>2019-08-11T08:19:23.000Z</time>
      </trkpt>
      <trkpt lat="47.30718" lon="-2.34009">
        <ele>33</ele>
        <time>2019-08-11T08:19:28.000Z</time>
      </trkpt>
      <trkpt lat="47.30718" lon="-2.34005">
        <ele>33</ele>
        <time>2019-08-11T08:19:29.000Z</time>
      </trkpt>
      <trkpt lat="47.30721" lon="-2.33991">
        <ele>33</ele>
        <time>2019-08-11T08:19:32.000Z</time>
      </trkpt>
      <trkpt lat="47.30731" lon="-2.33982">
        <ele>33</ele>
        <time>2019-08-11T08:19:36.000Z</time>
      </trkpt>
      <trkpt lat="47.30749" lon="-2.33977">
        <ele>33</ele>
        <time>2019-08-11T08:19:41.000Z</time>
      </trkpt>
      <trkpt lat="47.30765" lon="-2.33972">
        <ele>33</ele>
        <time>2019-08-11T08:19:47.000Z</time>
      </trkpt>
      <trkpt lat="47.3078" lon="-2.33972">
        <ele>33</ele>
        <time>2019-08-11T08:19:52.000Z</time>
      </trkpt>
      <trkpt lat="47.30802" lon="-2.33964">
        <ele>33</ele>
        <time>2019-08-11T08:19:59.000Z</time>
      </trkpt>
      <trkpt lat="47.30823" lon="-2.33958">
        <ele>33</ele>
        <time>2019-08-11T08:20:05.000Z</time>
      </trkpt>
      <trkpt lat="47.30841" lon="-2.33954">
        <ele>33</ele>
        <time>2019-08-11T08:20:11.000Z</time>
      </trkpt>
      <trkpt lat="47.30859" lon="-2.3395">
        <ele>33</ele>
        <time>2019-08-11T08:20:16.000Z</time>
      </trkpt>
      <trkpt lat="47.30882" lon="-2.33947">
        <ele>33</ele>
        <time>2019-08-11T08:20:23.000Z</time>
      </trkpt>
      <trkpt lat="47.30903" lon="-2.33944">
        <ele>33</ele>
        <time>2019-08-11T08:20:29.000Z</time>
      </trkpt>
      <trkpt lat="47.30927" lon="-2.33947">
        <ele>33</ele>
        <time>2019-08-11T08:20:35.000Z</time>
      </trkpt>
      <trkpt lat="47.30951" lon="-2.33952">
        <ele>33</ele>
        <time>2019-08-11T08:20:42.000Z</time>
      </trkpt>
      <trkpt lat="47.30981" lon="-2.33954">
        <ele>33</ele>
        <time>2019-08-11T08:20:49.000Z</time>
      </trkpt>
      <trkpt lat="47.30999" lon="-2.33953">
        <ele>33</ele>
        <time>2019-08-11T08:20:53.000Z</time>
      </trkpt>
      <trkpt lat="47.31013" lon="-2.33952">
        <ele>33</ele>
        <time>2019-08-11T08:20:56.000Z</time>
      </trkpt>
      <trkpt lat="47.31047" lon="-2.33944">
        <ele>33</ele>
        <time>2019-08-11T08:21:03.000Z</time>
      </trkpt>
      <trkpt lat="47.3105" lon="-2.33943">
        <ele>32.599998474121</ele>
        <time>2019-08-11T08:21:04.000Z</time>
      </trkpt>
      <trkpt lat="47.31052" lon="-2.33942">
        <ele>32.200000762939</ele>
        <time>2019-08-11T08:21:05.000Z</time>
      </trkpt>
      <trkpt lat="47.31054" lon="-2.33942">
        <ele>31.60000038147</ele>
        <time>2019-08-11T08:21:06.000Z</time>
      </trkpt>
      <trkpt lat="47.31057" lon="-2.33943">
        <ele>31.200000762939</ele>
        <time>2019-08-11T08:21:07.000Z</time>
      </trkpt>
      <trkpt lat="47.31059" lon="-2.33944">
        <ele>30.799999237061</ele>
        <time>2019-08-11T08:21:08.000Z</time>
      </trkpt>
      <trkpt lat="47.31064" lon="-2.33957">
        <ele>30.799999237061</ele>
        <time>2019-08-11T08:21:11.000Z</time>
      </trkpt>
      <trkpt lat="47.31064" lon="-2.3397">
        <ele>30.799999237061</ele>
        <time>2019-08-11T08:21:13.000Z</time>
      </trkpt>
      <trkpt lat="47.31065" lon="-2.33983">
        <ele>30.799999237061</ele>
        <time>2019-08-11T08:21:15.000Z</time>
      </trkpt>
      <trkpt lat="47.31068" lon="-2.34032">
        <ele>30.799999237061</ele>
        <time>2019-08-11T08:21:22.000Z</time>
      </trkpt>
      <trkpt lat="47.31069" lon="-2.3404">
        <ele>30.799999237061</ele>
        <time>2019-08-11T08:21:23.000Z</time>
      </trkpt>
      <trkpt lat="47.31078" lon="-2.3408">
        <ele>30.799999237061</ele>
        <time>2019-08-11T08:21:28.000Z</time>
      </trkpt>
      <trkpt lat="47.31098" lon="-2.3413">
        <ele>30.39999961853</ele>
        <time>2019-08-11T08:21:34.000Z</time>
      </trkpt>
      <trkpt lat="47.31103" lon="-2.34139">
        <ele>30</ele>
        <time>2019-08-11T08:21:35.000Z</time>
      </trkpt>
      <trkpt lat="47.31107" lon="-2.34149">
        <ele>29.60000038147</ele>
        <time>2019-08-11T08:21:36.000Z</time>
      </trkpt>
      <trkpt lat="47.31112" lon="-2.34159">
        <ele>29</ele>
        <time>2019-08-11T08:21:37.000Z</time>
      </trkpt>
      <trkpt lat="47.31117" lon="-2.34169">
        <ele>28.60000038147</ele>
        <time>2019-08-11T08:21:38.000Z</time>
      </trkpt>
      <trkpt lat="47.31128" lon="-2.3419">
        <ele>28.200000762939</ele>
        <time>2019-08-11T08:21:40.000Z</time>
      </trkpt>
      <trkpt lat="47.31134" lon="-2.342">
        <ele>27.60000038147</ele>
        <time>2019-08-11T08:21:41.000Z</time>
      </trkpt>
      <trkpt lat="47.3114" lon="-2.34211">
        <ele>27.200000762939</ele>
        <time>2019-08-11T08:21:42.000Z</time>
      </trkpt>
      <trkpt lat="47.31145" lon="-2.34222">
        <ele>26.60000038147</ele>
        <time>2019-08-11T08:21:43.000Z</time>
      </trkpt>
      <trkpt lat="47.31151" lon="-2.34233">
        <ele>26.200000762939</ele>
        <time>2019-08-11T08:21:44.000Z</time>
      </trkpt>
      <trkpt lat="47.31156" lon="-2.34243">
        <ele>25.60000038147</ele>
        <time>2019-08-11T08:21:45.000Z</time>
      </trkpt>
      <trkpt lat="47.3116" lon="-2.34253">
        <ele>25.200000762939</ele>
        <time>2019-08-11T08:21:46.000Z</time>
      </trkpt>
      <trkpt lat="47.31164" lon="-2.34262">
        <ele>24.60000038147</ele>
        <time>2019-08-11T08:21:47.000Z</time>
      </trkpt>
      <trkpt lat="47.31169" lon="-2.3427">
        <ele>24</ele>
        <time>2019-08-11T08:21:48.000Z</time>
      </trkpt>
      <trkpt lat="47.31173" lon="-2.34278">
        <ele>23.60000038147</ele>
        <time>2019-08-11T08:21:49.000Z</time>
      </trkpt>
      <trkpt lat="47.31177" lon="-2.34286">
        <ele>23.200000762939</ele>
        <time>2019-08-11T08:21:50.000Z</time>
      </trkpt>
      <trkpt lat="47.31181" lon="-2.34295">
        <ele>22.799999237061</ele>
        <time>2019-08-11T08:21:51.000Z</time>
      </trkpt>
      <trkpt lat="47.31184" lon="-2.34304">
        <ele>22</ele>
        <time>2019-08-11T08:21:52.000Z</time>
      </trkpt>
      <trkpt lat="47.31191" lon="-2.34319">
        <ele>22</ele>
        <time>2019-08-11T08:21:54.000Z</time>
      </trkpt>
      <trkpt lat="47.31201" lon="-2.34332">
        <ele>22</ele>
        <time>2019-08-11T08:21:56.000Z</time>
      </trkpt>
      <trkpt lat="47.31225" lon="-2.34347">
        <ele>22</ele>
        <time>2019-08-11T08:22:00.000Z</time>
      </trkpt>
      <trkpt lat="47.31231" lon="-2.3435">
        <ele>22</ele>
        <time>2019-08-11T08:22:01.000Z</time>
      </trkpt>
      <trkpt lat="47.31252" lon="-2.34359">
        <ele>22</ele>
        <time>2019-08-11T08:22:05.000Z</time>
      </trkpt>
      <trkpt lat="47.31265" lon="-2.34374">
        <ele>22</ele>
        <time>2019-08-11T08:22:09.000Z</time>
      </trkpt>
      <trkpt lat="47.31271" lon="-2.34396">
        <ele>22</ele>
        <time>2019-08-11T08:22:13.000Z</time>
      </trkpt>
      <trkpt lat="47.31273" lon="-2.34401">
        <ele>22</ele>
        <time>2019-08-11T08:22:14.000Z</time>
      </trkpt>
      <trkpt lat="47.31274" lon="-2.34407">
        <ele>22</ele>
        <time>2019-08-11T08:22:15.000Z</time>
      </trkpt>
      <trkpt lat="47.31275" lon="-2.34422">
        <ele>22.39999961853</ele>
        <time>2019-08-11T08:22:17.000Z</time>
      </trkpt>
      <trkpt lat="47.31275" lon="-2.34429">
        <ele>22.799999237061</ele>
        <time>2019-08-11T08:22:18.000Z</time>
      </trkpt>
      <trkpt lat="47.31275" lon="-2.34437">
        <ele>23.200000762939</ele>
        <time>2019-08-11T08:22:19.000Z</time>
      </trkpt>
      <trkpt lat="47.31276" lon="-2.34444">
        <ele>23.60000038147</ele>
        <time>2019-08-11T08:22:20.000Z</time>
      </trkpt>
      <trkpt lat="47.31277" lon="-2.34451">
        <ele>24.200000762939</ele>
        <time>2019-08-11T08:22:21.000Z</time>
      </trkpt>
      <trkpt lat="47.3128" lon="-2.34502">
        <ele>24.200000762939</ele>
        <time>2019-08-11T08:22:28.000Z</time>
      </trkpt>
      <trkpt lat="47.31281" lon="-2.3451">
        <ele>24.60000038147</ele>
        <time>2019-08-11T08:22:29.000Z</time>
      </trkpt>
      <trkpt lat="47.31282" lon="-2.34517">
        <ele>25</ele>
        <time>2019-08-11T08:22:30.000Z</time>
      </trkpt>
      <trkpt lat="47.31282" lon="-2.34525">
        <ele>25.39999961853</ele>
        <time>2019-08-11T08:22:31.000Z</time>
      </trkpt>
      <trkpt lat="47.31283" lon="-2.34532">
        <ele>25.799999237061</ele>
        <time>2019-08-11T08:22:32.000Z</time>
      </trkpt>
      <trkpt lat="47.31284" lon="-2.3454">
        <ele>26.200000762939</ele>
        <time>2019-08-11T08:22:33.000Z</time>
      </trkpt>
      <trkpt lat="47.31287" lon="-2.34571">
        <ele>26.200000762939</ele>
        <time>2019-08-11T08:22:37.000Z</time>
      </trkpt>
      <trkpt lat="47.31289" lon="-2.34594">
        <ele>26.60000038147</ele>
        <time>2019-08-11T08:22:40.000Z</time>
      </trkpt>
      <trkpt lat="47.3129" lon="-2.34603">
        <ele>27.39999961853</ele>
        <time>2019-08-11T08:22:41.000Z</time>
      </trkpt>
      <trkpt lat="47.3129" lon="-2.3461">
        <ele>27.799999237061</ele>
        <time>2019-08-11T08:22:42.000Z</time>
      </trkpt>
      <trkpt lat="47.31291" lon="-2.34617">
        <ele>28.200000762939</ele>
        <time>2019-08-11T08:22:43.000Z</time>
      </trkpt>
      <trkpt lat="47.31294" lon="-2.34631">
        <ele>28.200000762939</ele>
        <time>2019-08-11T08:22:45.000Z</time>
      </trkpt>
      <trkpt lat="47.31297" lon="-2.34651">
        <ele>28.200000762939</ele>
        <time>2019-08-11T08:22:48.000Z</time>
      </trkpt>
      <trkpt lat="47.31302" lon="-2.34658">
        <ele>28.60000038147</ele>
        <time>2019-08-11T08:22:50.000Z</time>
      </trkpt>
      <trkpt lat="47.31304" lon="-2.34663">
        <ele>29.200000762939</ele>
        <time>2019-08-11T08:22:51.000Z</time>
      </trkpt>
      <trkpt lat="47.31303" lon="-2.34669">
        <ele>29.60000038147</ele>
        <time>2019-08-11T08:22:52.000Z</time>
      </trkpt>
      <trkpt lat="47.31301" lon="-2.34673">
        <ele>30</ele>
        <time>2019-08-11T08:22:53.000Z</time>
      </trkpt>
      <trkpt lat="47.31297" lon="-2.34676">
        <ele>30.39999961853</ele>
        <time>2019-08-11T08:22:54.000Z</time>
      </trkpt>
      <trkpt lat="47.31293" lon="-2.3468">
        <ele>30.39999961853</ele>
        <time>2019-08-11T08:22:55.000Z</time>
      </trkpt>
      <trkpt lat="47.31289" lon="-2.34686">
        <ele>30.39999961853</ele>
        <time>2019-08-11T08:22:56.000Z</time>
      </trkpt>
      <trkpt lat="47.3128" lon="-2.347">
        <ele>30.39999961853</ele>
        <time>2019-08-11T08:22:59.000Z</time>
      </trkpt>
      <trkpt lat="47.31279" lon="-2.34714">
        <ele>30.39999961853</ele>
        <time>2019-08-11T08:23:01.000Z</time>
      </trkpt>
      <trkpt lat="47.3128" lon="-2.34729">
        <ele>30.39999961853</ele>
        <time>2019-08-11T08:23:03.000Z</time>
      </trkpt>
      <trkpt lat="47.31285" lon="-2.34761">
        <ele>30.39999961853</ele>
        <time>2019-08-11T08:23:07.000Z</time>
      </trkpt>
      <trkpt lat="47.31293" lon="-2.34801">
        <ele>30.799999237061</ele>
        <time>2019-08-11T08:23:12.000Z</time>
      </trkpt>
      <trkpt lat="47.31294" lon="-2.3481">
        <ele>31.200000762939</ele>
        <time>2019-08-11T08:23:13.000Z</time>
      </trkpt>
      <trkpt lat="47.31296" lon="-2.34818">
        <ele>31.60000038147</ele>
        <time>2019-08-11T08:23:14.000Z</time>
      </trkpt>
      <trkpt lat="47.31298" lon="-2.34827">
        <ele>32</ele>
        <time>2019-08-11T08:23:15.000Z</time>
      </trkpt>
      <trkpt lat="47.31299" lon="-2.34836">
        <ele>32.400001525879</ele>
        <time>2019-08-11T08:23:16.000Z</time>
      </trkpt>
      <trkpt lat="47.31309" lon="-2.34881">
        <ele>32.400001525879</ele>
        <time>2019-08-11T08:23:21.000Z</time>
      </trkpt>
      <trkpt lat="47.31329" lon="-2.34948">
        <ele>32.400001525879</ele>
        <time>2019-08-11T08:23:28.000Z</time>
      </trkpt>
      <trkpt lat="47.31345" lon="-2.35031">
        <ele>32.400001525879</ele>
        <time>2019-08-11T08:23:36.000Z</time>
      </trkpt>
      <trkpt lat="47.31345" lon="-2.35085">
        <ele>32.400001525879</ele>
        <time>2019-08-11T08:23:41.000Z</time>
      </trkpt>
      <trkpt lat="47.31343" lon="-2.35165">
        <ele>32.400001525879</ele>
        <time>2019-08-11T08:23:48.000Z</time>
      </trkpt>
      <trkpt lat="47.31342" lon="-2.35199">
        <ele>32.400001525879</ele>
        <time>2019-08-11T08:23:51.000Z</time>
      </trkpt>
      <trkpt lat="47.3134" lon="-2.35278">
        <ele>32.400001525879</ele>
        <time>2019-08-11T08:23:58.000Z</time>
      </trkpt>
      <trkpt lat="47.31339" lon="-2.3536">
        <ele>32.400001525879</ele>
        <time>2019-08-11T08:24:05.000Z</time>
      </trkpt>
      <trkpt lat="47.3134" lon="-2.3537">
        <ele>32.400001525879</ele>
        <time>2019-08-11T08:24:06.000Z</time>
      </trkpt>
      <trkpt lat="47.31339" lon="-2.35459">
        <ele>32.400001525879</ele>
        <time>2019-08-11T08:24:14.000Z</time>
      </trkpt>
      <trkpt lat="47.31336" lon="-2.35526">
        <ele>32.400001525879</ele>
        <time>2019-08-11T08:24:20.000Z</time>
      </trkpt>
      <trkpt lat="47.3133" lon="-2.3558">
        <ele>32.400001525879</ele>
        <time>2019-08-11T08:24:25.000Z</time>
      </trkpt>
      <trkpt lat="47.31331" lon="-2.3559">
        <ele>32.400001525879</ele>
        <time>2019-08-11T08:24:26.000Z</time>
      </trkpt>
      <trkpt lat="47.31333" lon="-2.35635">
        <ele>32.400001525879</ele>
        <time>2019-08-11T08:24:31.000Z</time>
      </trkpt>
      <trkpt lat="47.31333" lon="-2.35644">
        <ele>32.400001525879</ele>
        <time>2019-08-11T08:24:32.000Z</time>
      </trkpt>
      <trkpt lat="47.31333" lon="-2.35692">
        <ele>32.400001525879</ele>
        <time>2019-08-11T08:24:38.000Z</time>
      </trkpt>
      <trkpt lat="47.31333" lon="-2.35708">
        <ele>32.799999237061</ele>
        <time>2019-08-11T08:24:40.000Z</time>
      </trkpt>
      <trkpt lat="47.31334" lon="-2.35716">
        <ele>33.200000762939</ele>
        <time>2019-08-11T08:24:41.000Z</time>
      </trkpt>
      <trkpt lat="47.31334" lon="-2.35724">
        <ele>33.599998474121</ele>
        <time>2019-08-11T08:24:42.000Z</time>
      </trkpt>
      <trkpt lat="47.31334" lon="-2.35731">
        <ele>34</ele>
        <time>2019-08-11T08:24:43.000Z</time>
      </trkpt>
      <trkpt lat="47.31334" lon="-2.35738">
        <ele>34.599998474121</ele>
        <time>2019-08-11T08:24:44.000Z</time>
      </trkpt>
      <trkpt lat="47.31334" lon="-2.35766">
        <ele>34.599998474121</ele>
        <time>2019-08-11T08:24:48.000Z</time>
      </trkpt>
      <trkpt lat="47.31339" lon="-2.35812">
        <ele>34.599998474121</ele>
        <time>2019-08-11T08:24:54.000Z</time>
      </trkpt>
      <trkpt lat="47.31346" lon="-2.35862">
        <ele>34.599998474121</ele>
        <time>2019-08-11T08:25:00.000Z</time>
      </trkpt>
      <trkpt lat="47.31349" lon="-2.3587">
        <ele>34</ele>
        <time>2019-08-11T08:25:01.000Z</time>
      </trkpt>
      <trkpt lat="47.31353" lon="-2.35879">
        <ele>33.599998474121</ele>
        <time>2019-08-11T08:25:02.000Z</time>
      </trkpt>
      <trkpt lat="47.31357" lon="-2.35888">
        <ele>33.200000762939</ele>
        <time>2019-08-11T08:25:03.000Z</time>
      </trkpt>
      <trkpt lat="47.31362" lon="-2.35896">
        <ele>32.799999237061</ele>
        <time>2019-08-11T08:25:04.000Z</time>
      </trkpt>
      <trkpt lat="47.31366" lon="-2.35905">
        <ele>32.400001525879</ele>
        <time>2019-08-11T08:25:05.000Z</time>
      </trkpt>
      <trkpt lat="47.31388" lon="-2.35945">
        <ele>32.400001525879</ele>
        <time>2019-08-11T08:25:10.000Z</time>
      </trkpt>
      <trkpt lat="47.31399" lon="-2.35968">
        <ele>32.400001525879</ele>
        <time>2019-08-11T08:25:13.000Z</time>
      </trkpt>
      <trkpt lat="47.31404" lon="-2.35984">
        <ele>32.400001525879</ele>
        <time>2019-08-11T08:25:15.000Z</time>
      </trkpt>
      <trkpt lat="47.31405" lon="-2.35991">
        <ele>32.400001525879</ele>
        <time>2019-08-11T08:25:16.000Z</time>
      </trkpt>
      <trkpt lat="47.31413" lon="-2.36013">
        <ele>32.400001525879</ele>
        <time>2019-08-11T08:25:19.000Z</time>
      </trkpt>
      <trkpt lat="47.31416" lon="-2.3602">
        <ele>32.400001525879</ele>
        <time>2019-08-11T08:25:20.000Z</time>
      </trkpt>
      <trkpt lat="47.31428" lon="-2.36054">
        <ele>32.400001525879</ele>
        <time>2019-08-11T08:25:25.000Z</time>
      </trkpt>
      <trkpt lat="47.3143" lon="-2.36061">
        <ele>32.799999237061</ele>
        <time>2019-08-11T08:25:26.000Z</time>
      </trkpt>
      <trkpt lat="47.31433" lon="-2.36068">
        <ele>33.400001525879</ele>
        <time>2019-08-11T08:25:27.000Z</time>
      </trkpt>
      <trkpt lat="47.31435" lon="-2.36075">
        <ele>33.799999237061</ele>
        <time>2019-08-11T08:25:28.000Z</time>
      </trkpt>
      <trkpt lat="47.31438" lon="-2.36082">
        <ele>34.200000762939</ele>
        <time>2019-08-11T08:25:29.000Z</time>
      </trkpt>
      <trkpt lat="47.3144" lon="-2.3609">
        <ele>34.799999237061</ele>
        <time>2019-08-11T08:25:30.000Z</time>
      </trkpt>
      <trkpt lat="47.31443" lon="-2.36097">
        <ele>34.799999237061</ele>
        <time>2019-08-11T08:25:31.000Z</time>
      </trkpt>
      <trkpt lat="47.31449" lon="-2.36109">
        <ele>34.799999237061</ele>
        <time>2019-08-11T08:25:33.000Z</time>
      </trkpt>
      <trkpt lat="47.31456" lon="-2.36131">
        <ele>34.799999237061</ele>
        <time>2019-08-11T08:25:36.000Z</time>
      </trkpt>
      <trkpt lat="47.31463" lon="-2.36153">
        <ele>34.799999237061</ele>
        <time>2019-08-11T08:25:39.000Z</time>
      </trkpt>
      <trkpt lat="47.31469" lon="-2.36164">
        <ele>34.799999237061</ele>
        <time>2019-08-11T08:25:41.000Z</time>
      </trkpt>
      <trkpt lat="47.31472" lon="-2.36164">
        <ele>34.799999237061</ele>
        <time>2019-08-11T08:25:42.000Z</time>
      </trkpt>
      <trkpt lat="47.31478" lon="-2.36157">
        <ele>34.799999237061</ele>
        <time>2019-08-11T08:25:45.000Z</time>
      </trkpt>
      <trkpt lat="47.31481" lon="-2.36154">
        <ele>34.799999237061</ele>
        <time>2019-08-11T08:25:46.000Z</time>
      </trkpt>
      <trkpt lat="47.31487" lon="-2.36147">
        <ele>34.799999237061</ele>
        <time>2019-08-11T08:25:48.000Z</time>
      </trkpt>
      <trkpt lat="47.31495" lon="-2.3614">
        <ele>34.799999237061</ele>
        <time>2019-08-11T08:25:50.000Z</time>
      </trkpt>
      <trkpt lat="47.31509" lon="-2.36124">
        <ele>34.799999237061</ele>
        <time>2019-08-11T08:25:53.000Z</time>
      </trkpt>
      <trkpt lat="47.31513" lon="-2.3612">
        <ele>34.799999237061</ele>
        <time>2019-08-11T08:25:54.000Z</time>
      </trkpt>
      <trkpt lat="47.31518" lon="-2.36115">
        <ele>34.799999237061</ele>
        <time>2019-08-11T08:25:55.000Z</time>
      </trkpt>
      <trkpt lat="47.31534" lon="-2.36096">
        <ele>34.799999237061</ele>
        <time>2019-08-11T08:25:58.000Z</time>
      </trkpt>
      <trkpt lat="47.31549" lon="-2.3608">
        <ele>34.799999237061</ele>
        <time>2019-08-11T08:26:01.000Z</time>
      </trkpt>
      <trkpt lat="47.3156" lon="-2.3607">
        <ele>34.799999237061</ele>
        <time>2019-08-11T08:26:03.000Z</time>
      </trkpt>
      <trkpt lat="47.31578" lon="-2.36056">
        <ele>34.799999237061</ele>
        <time>2019-08-11T08:26:06.000Z</time>
      </trkpt>
      <trkpt lat="47.31583" lon="-2.36051">
        <ele>34.799999237061</ele>
        <time>2019-08-11T08:26:07.000Z</time>
      </trkpt>
      <trkpt lat="47.31611" lon="-2.36025">
        <ele>34.799999237061</ele>
        <time>2019-08-11T08:26:12.000Z</time>
      </trkpt>
      <trkpt lat="47.31616" lon="-2.36018">
        <ele>34.799999237061</ele>
        <time>2019-08-11T08:26:13.000Z</time>
      </trkpt>
      <trkpt lat="47.31628" lon="-2.36006">
        <ele>34.799999237061</ele>
        <time>2019-08-11T08:26:15.000Z</time>
      </trkpt>
      <trkpt lat="47.31644" lon="-2.3599">
        <ele>34.799999237061</ele>
        <time>2019-08-11T08:26:18.000Z</time>
      </trkpt>
      <trkpt lat="47.31669" lon="-2.35971">
        <ele>34.799999237061</ele>
        <time>2019-08-11T08:26:22.000Z</time>
      </trkpt>
      <trkpt lat="47.31676" lon="-2.35967">
        <ele>34.799999237061</ele>
        <time>2019-08-11T08:26:23.000Z</time>
      </trkpt>
      <trkpt lat="47.31689" lon="-2.3596">
        <ele>34.799999237061</ele>
        <time>2019-08-11T08:26:25.000Z</time>
      </trkpt>
      <trkpt lat="47.31709" lon="-2.35947">
        <ele>34.799999237061</ele>
        <time>2019-08-11T08:26:28.000Z</time>
      </trkpt>
      <trkpt lat="47.31715" lon="-2.35943">
        <ele>34.200000762939</ele>
        <time>2019-08-11T08:26:29.000Z</time>
      </trkpt>
      <trkpt lat="47.31721" lon="-2.35939">
        <ele>33.799999237061</ele>
        <time>2019-08-11T08:26:30.000Z</time>
      </trkpt>
      <trkpt lat="47.31728" lon="-2.35935">
        <ele>33.200000762939</ele>
        <time>2019-08-11T08:26:31.000Z</time>
      </trkpt>
      <trkpt lat="47.31734" lon="-2.35931">
        <ele>32.799999237061</ele>
        <time>2019-08-11T08:26:32.000Z</time>
      </trkpt>
      <trkpt lat="47.3174" lon="-2.35927">
        <ele>32.400001525879</ele>
        <time>2019-08-11T08:26:33.000Z</time>
      </trkpt>
      <trkpt lat="47.31746" lon="-2.35923">
        <ele>32.400001525879</ele>
        <time>2019-08-11T08:26:34.000Z</time>
      </trkpt>
      <trkpt lat="47.31786" lon="-2.359">
        <ele>32.400001525879</ele>
        <time>2019-08-11T08:26:40.000Z</time>
      </trkpt>
      <trkpt lat="47.31799" lon="-2.35893">
        <ele>31.799999237061</ele>
        <time>2019-08-11T08:26:42.000Z</time>
      </trkpt>
      <trkpt lat="47.31804" lon="-2.3589">
        <ele>31.39999961853</ele>
        <time>2019-08-11T08:26:43.000Z</time>
      </trkpt>
      <trkpt lat="47.3181" lon="-2.35887">
        <ele>31</ele>
        <time>2019-08-11T08:26:44.000Z</time>
      </trkpt>
      <trkpt lat="47.31816" lon="-2.35884">
        <ele>30.60000038147</ele>
        <time>2019-08-11T08:26:45.000Z</time>
      </trkpt>
      <trkpt lat="47.31821" lon="-2.35881">
        <ele>30</ele>
        <time>2019-08-11T08:26:46.000Z</time>
      </trkpt>
      <trkpt lat="47.31828" lon="-2.35868">
        <ele>30</ele>
        <time>2019-08-11T08:26:48.000Z</time>
      </trkpt>
      <trkpt lat="47.31825" lon="-2.35853">
        <ele>30</ele>
        <time>2019-08-11T08:26:50.000Z</time>
      </trkpt>
      <trkpt lat="47.31814" lon="-2.35831">
        <ele>30</ele>
        <time>2019-08-11T08:26:54.000Z</time>
      </trkpt>
      <trkpt lat="47.31797" lon="-2.35812">
        <ele>30</ele>
        <time>2019-08-11T08:26:59.000Z</time>
      </trkpt>
      <trkpt lat="47.31789" lon="-2.35803">
        <ele>30</ele>
        <time>2019-08-11T08:27:01.000Z</time>
      </trkpt>
      <trkpt lat="47.31786" lon="-2.35797">
        <ele>30</ele>
        <time>2019-08-11T08:27:02.000Z</time>
      </trkpt>
      <trkpt lat="47.31783" lon="-2.35782">
        <ele>30</ele>
        <time>2019-08-11T08:27:04.000Z</time>
      </trkpt>
      <trkpt lat="47.31781" lon="-2.35758">
        <ele>30</ele>
        <time>2019-08-11T08:27:07.000Z</time>
      </trkpt>
      <trkpt lat="47.31781" lon="-2.35749">
        <ele>30</ele>
        <time>2019-08-11T08:27:08.000Z</time>
      </trkpt>
      <trkpt lat="47.31779" lon="-2.35696">
        <ele>29.200000762939</ele>
        <time>2019-08-11T08:27:13.000Z</time>
      </trkpt>
      <trkpt lat="47.31779" lon="-2.35684">
        <ele>28.799999237061</ele>
        <time>2019-08-11T08:27:14.000Z</time>
      </trkpt>
      <trkpt lat="47.31778" lon="-2.35674">
        <ele>28.200000762939</ele>
        <time>2019-08-11T08:27:15.000Z</time>
      </trkpt>
      <trkpt lat="47.31779" lon="-2.35663">
        <ele>27.799999237061</ele>
        <time>2019-08-11T08:27:16.000Z</time>
      </trkpt>
      <trkpt lat="47.3178" lon="-2.35651">
        <ele>27.799999237061</ele>
        <time>2019-08-11T08:27:17.000Z</time>
      </trkpt>
      <trkpt lat="47.31782" lon="-2.35642">
        <ele>27.39999961853</ele>
        <time>2019-08-11T08:27:18.000Z</time>
      </trkpt>
      <trkpt lat="47.31785" lon="-2.35634">
        <ele>27</ele>
        <time>2019-08-11T08:27:19.000Z</time>
      </trkpt>
      <trkpt lat="47.31789" lon="-2.35626">
        <ele>26.60000038147</ele>
        <time>2019-08-11T08:27:20.000Z</time>
      </trkpt>
      <trkpt lat="47.31795" lon="-2.35614">
        <ele>26.200000762939</ele>
        <time>2019-08-11T08:27:21.000Z</time>
      </trkpt>
      <trkpt lat="47.318" lon="-2.35604">
        <ele>25.799999237061</ele>
        <time>2019-08-11T08:27:22.000Z</time>
      </trkpt>
      <trkpt lat="47.31813" lon="-2.3558">
        <ele>25.799999237061</ele>
        <time>2019-08-11T08:27:25.000Z</time>
      </trkpt>
      <trkpt lat="47.3182" lon="-2.35576">
        <ele>25.799999237061</ele>
        <time>2019-08-11T08:27:26.000Z</time>
      </trkpt>
      <trkpt lat="47.31841" lon="-2.35556">
        <ele>25.39999961853</ele>
        <time>2019-08-11T08:27:30.000Z</time>
      </trkpt>
      <trkpt lat="47.31843" lon="-2.35551">
        <ele>25</ele>
        <time>2019-08-11T08:27:31.000Z</time>
      </trkpt>
      <trkpt lat="47.31845" lon="-2.35545">
        <ele>24.60000038147</ele>
        <time>2019-08-11T08:27:32.000Z</time>
      </trkpt>
      <trkpt lat="47.31845" lon="-2.3554">
        <ele>24</ele>
        <time>2019-08-11T08:27:33.000Z</time>
      </trkpt>
      <trkpt lat="47.31846" lon="-2.35535">
        <ele>23.60000038147</ele>
        <time>2019-08-11T08:27:34.000Z</time>
      </trkpt>
      <trkpt lat="47.31837" lon="-2.3552">
        <ele>23.60000038147</ele>
        <time>2019-08-11T08:27:36.000Z</time>
      </trkpt>
      <trkpt lat="47.31834" lon="-2.35513">
        <ele>23.60000038147</ele>
        <time>2019-08-11T08:27:37.000Z</time>
      </trkpt>
      <trkpt lat="47.31813" lon="-2.35476">
        <ele>23.60000038147</ele>
        <time>2019-08-11T08:27:42.000Z</time>
      </trkpt>
      <trkpt lat="47.31794" lon="-2.3544">
        <ele>23.60000038147</ele>
        <time>2019-08-11T08:27:48.000Z</time>
      </trkpt>
      <trkpt lat="47.31781" lon="-2.35418">
        <ele>24</ele>
        <time>2019-08-11T08:27:52.000Z</time>
      </trkpt>
      <trkpt lat="47.31777" lon="-2.35412">
        <ele>24.60000038147</ele>
        <time>2019-08-11T08:27:53.000Z</time>
      </trkpt>
      <trkpt lat="47.31774" lon="-2.35407">
        <ele>25</ele>
        <time>2019-08-11T08:27:54.000Z</time>
      </trkpt>
      <trkpt lat="47.3177" lon="-2.35402">
        <ele>25.39999961853</ele>
        <time>2019-08-11T08:27:55.000Z</time>
      </trkpt>
      <trkpt lat="47.31767" lon="-2.35396">
        <ele>25.799999237061</ele>
        <time>2019-08-11T08:27:56.000Z</time>
      </trkpt>
      <trkpt lat="47.3176" lon="-2.35381">
        <ele>25.799999237061</ele>
        <time>2019-08-11T08:27:59.000Z</time>
      </trkpt>
      <trkpt lat="47.3176" lon="-2.35377">
        <ele>25.799999237061</ele>
        <time>2019-08-11T08:28:00.000Z</time>
      </trkpt>
      <trkpt lat="47.31765" lon="-2.35364">
        <ele>25.799999237061</ele>
        <time>2019-08-11T08:28:03.000Z</time>
      </trkpt>
      <trkpt lat="47.31779" lon="-2.35349">
        <ele>25.799999237061</ele>
        <time>2019-08-11T08:28:06.000Z</time>
      </trkpt>
      <trkpt lat="47.31784" lon="-2.35345">
        <ele>25.799999237061</ele>
        <time>2019-08-11T08:28:07.000Z</time>
      </trkpt>
      <trkpt lat="47.3179" lon="-2.35342">
        <ele>25.799999237061</ele>
        <time>2019-08-11T08:28:08.000Z</time>
      </trkpt>
      <trkpt lat="47.31806" lon="-2.35335">
        <ele>25.799999237061</ele>
        <time>2019-08-11T08:28:11.000Z</time>
      </trkpt>
      <trkpt lat="47.31811" lon="-2.35332">
        <ele>25.799999237061</ele>
        <time>2019-08-11T08:28:12.000Z</time>
      </trkpt>
      <trkpt lat="47.31833" lon="-2.35315">
        <ele>25.799999237061</ele>
        <time>2019-08-11T08:28:16.000Z</time>
      </trkpt>
      <trkpt lat="47.31838" lon="-2.35311">
        <ele>25.799999237061</ele>
        <time>2019-08-11T08:28:17.000Z</time>
      </trkpt>
      <trkpt lat="47.31844" lon="-2.35306">
        <ele>25.39999961853</ele>
        <time>2019-08-11T08:28:18.000Z</time>
      </trkpt>
      <trkpt lat="47.3185" lon="-2.35301">
        <ele>25</ele>
        <time>2019-08-11T08:28:19.000Z</time>
      </trkpt>
      <trkpt lat="47.31856" lon="-2.35295">
        <ele>24.60000038147</ele>
        <time>2019-08-11T08:28:20.000Z</time>
      </trkpt>
      <trkpt lat="47.31863" lon="-2.3529">
        <ele>24.200000762939</ele>
        <time>2019-08-11T08:28:21.000Z</time>
      </trkpt>
      <trkpt lat="47.31869" lon="-2.35284">
        <ele>23.799999237061</ele>
        <time>2019-08-11T08:28:22.000Z</time>
      </trkpt>
      <trkpt lat="47.31876" lon="-2.35278">
        <ele>23.799999237061</ele>
        <time>2019-08-11T08:28:23.000Z</time>
      </trkpt>
      <trkpt lat="47.31912" lon="-2.35242">
        <ele>23.799999237061</ele>
        <time>2019-08-11T08:28:29.000Z</time>
      </trkpt>
      <trkpt lat="47.31931" lon="-2.35226">
        <ele>23.39999961853</ele>
        <time>2019-08-11T08:28:32.000Z</time>
      </trkpt>
      <trkpt lat="47.31937" lon="-2.35221">
        <ele>23</ele>
        <time>2019-08-11T08:28:33.000Z</time>
      </trkpt>
      <trkpt lat="47.31942" lon="-2.35216">
        <ele>22.60000038147</ele>
        <time>2019-08-11T08:28:34.000Z</time>
      </trkpt>
      <trkpt lat="47.31948" lon="-2.35211">
        <ele>22</ele>
        <time>2019-08-11T08:28:35.000Z</time>
      </trkpt>
      <trkpt lat="47.31953" lon="-2.35204">
        <ele>21.60000038147</ele>
        <time>2019-08-11T08:28:36.000Z</time>
      </trkpt>
      <trkpt lat="47.31978" lon="-2.35178">
        <ele>21.60000038147</ele>
        <time>2019-08-11T08:28:40.000Z</time>
      </trkpt>
      <trkpt lat="47.32016" lon="-2.3514">
        <ele>21.60000038147</ele>
        <time>2019-08-11T08:28:46.000Z</time>
      </trkpt>
      <trkpt lat="47.32026" lon="-2.35127">
        <ele>21.60000038147</ele>
        <time>2019-08-11T08:28:48.000Z</time>
      </trkpt>
      <trkpt lat="47.32029" lon="-2.35111">
        <ele>21.60000038147</ele>
        <time>2019-08-11T08:28:50.000Z</time>
      </trkpt>
      <trkpt lat="47.32028" lon="-2.35079">
        <ele>21.60000038147</ele>
        <time>2019-08-11T08:28:54.000Z</time>
      </trkpt>
      <trkpt lat="47.32032" lon="-2.35068">
        <ele>21.60000038147</ele>
        <time>2019-08-11T08:28:56.000Z</time>
      </trkpt>
      <trkpt lat="47.32037" lon="-2.35065">
        <ele>21.60000038147</ele>
        <time>2019-08-11T08:28:57.000Z</time>
      </trkpt>
      <trkpt lat="47.32052" lon="-2.35067">
        <ele>21.60000038147</ele>
        <time>2019-08-11T08:29:00.000Z</time>
      </trkpt>
      <trkpt lat="47.32076" lon="-2.35069">
        <ele>21.60000038147</ele>
        <time>2019-08-11T08:29:04.000Z</time>
      </trkpt>
      <trkpt lat="47.32114" lon="-2.35071">
        <ele>21.60000038147</ele>
        <time>2019-08-11T08:29:10.000Z</time>
      </trkpt>
      <trkpt lat="47.32151" lon="-2.35068">
        <ele>21.60000038147</ele>
        <time>2019-08-11T08:29:16.000Z</time>
      </trkpt>
      <trkpt lat="47.32188" lon="-2.35066">
        <ele>21.60000038147</ele>
        <time>2019-08-11T08:29:22.000Z</time>
      </trkpt>
      <trkpt lat="47.32223" lon="-2.35062">
        <ele>21.60000038147</ele>
        <time>2019-08-11T08:29:28.000Z</time>
      </trkpt>
      <trkpt lat="47.32236" lon="-2.35059">
        <ele>21.60000038147</ele>
        <time>2019-08-11T08:29:30.000Z</time>
      </trkpt>
      <trkpt lat="47.3227" lon="-2.35055">
        <ele>21.60000038147</ele>
        <time>2019-08-11T08:29:36.000Z</time>
      </trkpt>
      <trkpt lat="47.32306" lon="-2.35052">
        <ele>22</ele>
        <time>2019-08-11T08:29:43.000Z</time>
      </trkpt>
      <trkpt lat="47.32311" lon="-2.35051">
        <ele>22.39999961853</ele>
        <time>2019-08-11T08:29:44.000Z</time>
      </trkpt>
      <trkpt lat="47.32316" lon="-2.35051">
        <ele>23</ele>
        <time>2019-08-11T08:29:45.000Z</time>
      </trkpt>
      <trkpt lat="47.32322" lon="-2.35052">
        <ele>23.39999961853</ele>
        <time>2019-08-11T08:29:46.000Z</time>
      </trkpt>
      <trkpt lat="47.32328" lon="-2.35052">
        <ele>23.799999237061</ele>
        <time>2019-08-11T08:29:47.000Z</time>
      </trkpt>
      <trkpt lat="47.32339" lon="-2.35052">
        <ele>23.799999237061</ele>
        <time>2019-08-11T08:29:49.000Z</time>
      </trkpt>
      <trkpt lat="47.32345" lon="-2.35052">
        <ele>23.799999237061</ele>
        <time>2019-08-11T08:29:50.000Z</time>
      </trkpt>
      <trkpt lat="47.32374" lon="-2.35053">
        <ele>23.799999237061</ele>
        <time>2019-08-11T08:29:55.000Z</time>
      </trkpt>
      <trkpt lat="47.32397" lon="-2.35049">
        <ele>24.200000762939</ele>
        <time>2019-08-11T08:29:59.000Z</time>
      </trkpt>
      <trkpt lat="47.32403" lon="-2.35048">
        <ele>24.60000038147</ele>
        <time>2019-08-11T08:30:00.000Z</time>
      </trkpt>
      <trkpt lat="47.3241" lon="-2.35047">
        <ele>25</ele>
        <time>2019-08-11T08:30:01.000Z</time>
      </trkpt>
      <trkpt lat="47.32415" lon="-2.35046">
        <ele>25.39999961853</ele>
        <time>2019-08-11T08:30:02.000Z</time>
      </trkpt>
      <trkpt lat="47.32421" lon="-2.35045">
        <ele>25.799999237061</ele>
        <time>2019-08-11T08:30:03.000Z</time>
      </trkpt>
      <trkpt lat="47.32439" lon="-2.3504">
        <ele>25.799999237061</ele>
        <time>2019-08-11T08:30:07.000Z</time>
      </trkpt>
      <trkpt lat="47.32445" lon="-2.35039">
        <ele>25.799999237061</ele>
        <time>2019-08-11T08:30:08.000Z</time>
      </trkpt>
      <trkpt lat="47.32449" lon="-2.35038">
        <ele>25.799999237061</ele>
        <time>2019-08-11T08:30:09.000Z</time>
      </trkpt>
      <trkpt lat="47.32466" lon="-2.35034">
        <ele>25.799999237061</ele>
        <time>2019-08-11T08:30:13.000Z</time>
      </trkpt>
      <trkpt lat="47.32493" lon="-2.35027">
        <ele>25.799999237061</ele>
        <time>2019-08-11T08:30:19.000Z</time>
      </trkpt>
      <trkpt lat="47.32525" lon="-2.3502">
        <ele>25.799999237061</ele>
        <time>2019-08-11T08:30:26.000Z</time>
      </trkpt>
      <trkpt lat="47.32557" lon="-2.35011">
        <ele>25.799999237061</ele>
        <time>2019-08-11T08:30:32.000Z</time>
      </trkpt>
      <trkpt lat="47.32566" lon="-2.35006">
        <ele>25.799999237061</ele>
        <time>2019-08-11T08:30:34.000Z</time>
      </trkpt>
      <trkpt lat="47.32587" lon="-2.34996">
        <ele>25.39999961853</ele>
        <time>2019-08-11T08:30:39.000Z</time>
      </trkpt>
      <trkpt lat="47.32591" lon="-2.34993">
        <ele>25</ele>
        <time>2019-08-11T08:30:40.000Z</time>
      </trkpt>
      <trkpt lat="47.32596" lon="-2.3499">
        <ele>24.60000038147</ele>
        <time>2019-08-11T08:30:41.000Z</time>
      </trkpt>
      <trkpt lat="47.326" lon="-2.34986">
        <ele>24.200000762939</ele>
        <time>2019-08-11T08:30:42.000Z</time>
      </trkpt>
      <trkpt lat="47.32605" lon="-2.34984">
        <ele>23.799999237061</ele>
        <time>2019-08-11T08:30:43.000Z</time>
      </trkpt>
      <trkpt lat="47.32624" lon="-2.34974">
        <ele>23.799999237061</ele>
        <time>2019-08-11T08:30:48.000Z</time>
      </trkpt>
      <trkpt lat="47.32635" lon="-2.34969">
        <ele>23.799999237061</ele>
        <time>2019-08-11T08:30:53.000Z</time>
      </trkpt>
      <trkpt lat="47.32649" lon="-2.34961">
        <ele>23.799999237061</ele>
        <time>2019-08-11T08:31:00.000Z</time>
      </trkpt>
      <trkpt lat="47.32653" lon="-2.34959">
        <ele>23.39999961853</ele>
        <time>2019-08-11T08:31:02.000Z</time>
      </trkpt>
      <trkpt lat="47.32655" lon="-2.34958">
        <ele>23</ele>
        <time>2019-08-11T08:31:03.000Z</time>
      </trkpt>
      <trkpt lat="47.32658" lon="-2.34956">
        <ele>22.60000038147</ele>
        <time>2019-08-11T08:31:04.000Z</time>
      </trkpt>
      <trkpt lat="47.3266" lon="-2.34953">
        <ele>22.200000762939</ele>
        <time>2019-08-11T08:31:05.000Z</time>
      </trkpt>
      <trkpt lat="47.32662" lon="-2.34951">
        <ele>21.60000038147</ele>
        <time>2019-08-11T08:31:06.000Z</time>
      </trkpt>
      <trkpt lat="47.32678" lon="-2.34937">
        <ele>21.60000038147</ele>
        <time>2019-08-11T08:31:11.000Z</time>
      </trkpt>
      <trkpt lat="47.32697" lon="-2.34926">
        <ele>21.60000038147</ele>
        <time>2019-08-11T08:31:17.000Z</time>
      </trkpt>
      <trkpt lat="47.32712" lon="-2.34915">
        <ele>21.60000038147</ele>
        <time>2019-08-11T08:31:23.000Z</time>
      </trkpt>
      <trkpt lat="47.32728" lon="-2.34904">
        <ele>21.60000038147</ele>
        <time>2019-08-11T08:31:28.000Z</time>
      </trkpt>
      <trkpt lat="47.32744" lon="-2.34893">
        <ele>21.60000038147</ele>
        <time>2019-08-11T08:31:33.000Z</time>
      </trkpt>
      <trkpt lat="47.32759" lon="-2.34883">
        <ele>21.60000038147</ele>
        <time>2019-08-11T08:31:38.000Z</time>
      </trkpt>
      <trkpt lat="47.3278" lon="-2.34868">
        <ele>21.60000038147</ele>
        <time>2019-08-11T08:31:44.000Z</time>
      </trkpt>
      <trkpt lat="47.328" lon="-2.34851">
        <ele>21.60000038147</ele>
        <time>2019-08-11T08:31:50.000Z</time>
      </trkpt>
      <trkpt lat="47.32817" lon="-2.34841">
        <ele>21.60000038147</ele>
        <time>2019-08-11T08:31:56.000Z</time>
      </trkpt>
      <trkpt lat="47.3282" lon="-2.34839">
        <ele>21.200000762939</ele>
        <time>2019-08-11T08:31:57.000Z</time>
      </trkpt>
      <trkpt lat="47.32823" lon="-2.34836">
        <ele>20.799999237061</ele>
        <time>2019-08-11T08:31:58.000Z</time>
      </trkpt>
      <trkpt lat="47.32826" lon="-2.34834">
        <ele>20.39999961853</ele>
        <time>2019-08-11T08:31:59.000Z</time>
      </trkpt>
      <trkpt lat="47.32829" lon="-2.34832">
        <ele>20</ele>
        <time>2019-08-11T08:32:00.000Z</time>
      </trkpt>
      <trkpt lat="47.32832" lon="-2.34829">
        <ele>19.60000038147</ele>
        <time>2019-08-11T08:32:01.000Z</time>
      </trkpt>
      <trkpt lat="47.32854" lon="-2.34812">
        <ele>19.60000038147</ele>
        <time>2019-08-11T08:32:08.000Z</time>
      </trkpt>
      <trkpt lat="47.3287" lon="-2.34798">
        <ele>19.60000038147</ele>
        <time>2019-08-11T08:32:14.000Z</time>
      </trkpt>
      <trkpt lat="47.32885" lon="-2.34787">
        <ele>19.60000038147</ele>
        <time>2019-08-11T08:32:19.000Z</time>
      </trkpt>
      <trkpt lat="47.32901" lon="-2.34783">
        <ele>19.60000038147</ele>
        <time>2019-08-11T08:32:25.000Z</time>
      </trkpt>
      <trkpt lat="47.32903" lon="-2.34785">
        <ele>19.60000038147</ele>
        <time>2019-08-11T08:32:26.000Z</time>
      </trkpt>
      <trkpt lat="47.32909" lon="-2.34795">
        <ele>19.60000038147</ele>
        <time>2019-08-11T08:32:32.000Z</time>
      </trkpt>
      <trkpt lat="47.32915" lon="-2.34809">
        <ele>19.60000038147</ele>
        <time>2019-08-11T08:32:37.000Z</time>
      </trkpt>
      <trkpt lat="47.32925" lon="-2.34831">
        <ele>19.60000038147</ele>
        <time>2019-08-11T08:32:42.000Z</time>
      </trkpt>
      <trkpt lat="47.32935" lon="-2.34857">
        <ele>19.60000038147</ele>
        <time>2019-08-11T08:32:47.000Z</time>
      </trkpt>
      <trkpt lat="47.32953" lon="-2.34896">
        <ele>19.60000038147</ele>
        <time>2019-08-11T08:32:54.000Z</time>
      </trkpt>
      <trkpt lat="47.32957" lon="-2.34911">
        <ele>19.60000038147</ele>
        <time>2019-08-11T08:32:56.000Z</time>
      </trkpt>
      <trkpt lat="47.32962" lon="-2.34928">
        <ele>19.60000038147</ele>
        <time>2019-08-11T08:32:59.000Z</time>
      </trkpt>
      <trkpt lat="47.32973" lon="-2.34959">
        <ele>19.60000038147</ele>
        <time>2019-08-11T08:33:05.000Z</time>
      </trkpt>
      <trkpt lat="47.32977" lon="-2.34965">
        <ele>19.60000038147</ele>
        <time>2019-08-11T08:33:07.000Z</time>
      </trkpt>
      <trkpt lat="47.32986" lon="-2.34977">
        <ele>19.60000038147</ele>
        <time>2019-08-11T08:33:10.000Z</time>
      </trkpt>
      <trkpt lat="47.32992" lon="-2.34988">
        <ele>19.60000038147</ele>
        <time>2019-08-11T08:33:12.000Z</time>
      </trkpt>
      <trkpt lat="47.32996" lon="-2.34999">
        <ele>19.60000038147</ele>
        <time>2019-08-11T08:33:14.000Z</time>
      </trkpt>
      <trkpt lat="47.33006" lon="-2.35033">
        <ele>19.60000038147</ele>
        <time>2019-08-11T08:33:21.000Z</time>
      </trkpt>
      <trkpt lat="47.33013" lon="-2.3507">
        <ele>19.60000038147</ele>
        <time>2019-08-11T08:33:28.000Z</time>
      </trkpt>
      <trkpt lat="47.3302" lon="-2.35114">
        <ele>20</ele>
        <time>2019-08-11T08:33:35.000Z</time>
      </trkpt>
      <trkpt lat="47.33021" lon="-2.35121">
        <ele>20.60000038147</ele>
        <time>2019-08-11T08:33:36.000Z</time>
      </trkpt>
      <trkpt lat="47.33022" lon="-2.35128">
        <ele>21</ele>
        <time>2019-08-11T08:33:37.000Z</time>
      </trkpt>
      <trkpt lat="47.33023" lon="-2.35134">
        <ele>21.39999961853</ele>
        <time>2019-08-11T08:33:38.000Z</time>
      </trkpt>
      <trkpt lat="47.33024" lon="-2.3514">
        <ele>21.799999237061</ele>
        <time>2019-08-11T08:33:39.000Z</time>
      </trkpt>
      <trkpt lat="47.33026" lon="-2.35159">
        <ele>21.799999237061</ele>
        <time>2019-08-11T08:33:42.000Z</time>
      </trkpt>
      <trkpt lat="47.33028" lon="-2.35172">
        <ele>21.799999237061</ele>
        <time>2019-08-11T08:33:44.000Z</time>
      </trkpt>
      <trkpt lat="47.33032" lon="-2.35186">
        <ele>21.799999237061</ele>
        <time>2019-08-11T08:33:46.000Z</time>
      </trkpt>
      <trkpt lat="47.33033" lon="-2.35192">
        <ele>21.799999237061</ele>
        <time>2019-08-11T08:33:47.000Z</time>
      </trkpt>
      <trkpt lat="47.33033" lon="-2.35215">
        <ele>21.799999237061</ele>
        <time>2019-08-11T08:33:51.000Z</time>
      </trkpt>
      <trkpt lat="47.33033" lon="-2.35227">
        <ele>21.799999237061</ele>
        <time>2019-08-11T08:33:53.000Z</time>
      </trkpt>
      <trkpt lat="47.33032" lon="-2.35247">
        <ele>21.799999237061</ele>
        <time>2019-08-11T08:33:56.000Z</time>
      </trkpt>
      <trkpt lat="47.3303" lon="-2.35262">
        <ele>21.799999237061</ele>
        <time>2019-08-11T08:33:58.000Z</time>
      </trkpt>
      <trkpt lat="47.33029" lon="-2.35281">
        <ele>21.799999237061</ele>
        <time>2019-08-11T08:34:01.000Z</time>
      </trkpt>
      <trkpt lat="47.33029" lon="-2.35287">
        <ele>21.799999237061</ele>
        <time>2019-08-11T08:34:02.000Z</time>
      </trkpt>
      <trkpt lat="47.33028" lon="-2.35314">
        <ele>21.799999237061</ele>
        <time>2019-08-11T08:34:06.000Z</time>
      </trkpt>
      <trkpt lat="47.33028" lon="-2.35356">
        <ele>21.799999237061</ele>
        <time>2019-08-11T08:34:11.000Z</time>
      </trkpt>
      <trkpt lat="47.33031" lon="-2.35382">
        <ele>21.799999237061</ele>
        <time>2019-08-11T08:34:14.000Z</time>
      </trkpt>
      <trkpt lat="47.33032" lon="-2.354">
        <ele>21.799999237061</ele>
        <time>2019-08-11T08:34:16.000Z</time>
      </trkpt>
      <trkpt lat="47.33032" lon="-2.35408">
        <ele>21.799999237061</ele>
        <time>2019-08-11T08:34:17.000Z</time>
      </trkpt>
      <trkpt lat="47.33032" lon="-2.35434">
        <ele>21.799999237061</ele>
        <time>2019-08-11T08:34:20.000Z</time>
      </trkpt>
      <trkpt lat="47.33032" lon="-2.35441">
        <ele>21.799999237061</ele>
        <time>2019-08-11T08:34:21.000Z</time>
      </trkpt>
      <trkpt lat="47.33032" lon="-2.35468">
        <ele>21.799999237061</ele>
        <time>2019-08-11T08:34:24.000Z</time>
      </trkpt>
      <trkpt lat="47.3303" lon="-2.3549">
        <ele>21.799999237061</ele>
        <time>2019-08-11T08:34:26.000Z</time>
      </trkpt>
      <trkpt lat="47.33028" lon="-2.35518">
        <ele>21.799999237061</ele>
        <time>2019-08-11T08:34:29.000Z</time>
      </trkpt>
      <trkpt lat="47.33026" lon="-2.35542">
        <ele>21.799999237061</ele>
        <time>2019-08-11T08:34:32.000Z</time>
      </trkpt>
      <trkpt lat="47.33027" lon="-2.35558">
        <ele>21.799999237061</ele>
        <time>2019-08-11T08:34:34.000Z</time>
      </trkpt>
      <trkpt lat="47.33026" lon="-2.35581">
        <ele>21.39999961853</ele>
        <time>2019-08-11T08:34:37.000Z</time>
      </trkpt>
      <trkpt lat="47.33025" lon="-2.35589">
        <ele>21</ele>
        <time>2019-08-11T08:34:38.000Z</time>
      </trkpt>
      <trkpt lat="47.33024" lon="-2.35598">
        <ele>20.60000038147</ele>
        <time>2019-08-11T08:34:39.000Z</time>
      </trkpt>
      <trkpt lat="47.33023" lon="-2.35608">
        <ele>20.200000762939</ele>
        <time>2019-08-11T08:34:40.000Z</time>
      </trkpt>
      <trkpt lat="47.33022" lon="-2.35619">
        <ele>19.799999237061</ele>
        <time>2019-08-11T08:34:41.000Z</time>
      </trkpt>
      <trkpt lat="47.33019" lon="-2.35661">
        <ele>19.799999237061</ele>
        <time>2019-08-11T08:34:45.000Z</time>
      </trkpt>
      <trkpt lat="47.33009" lon="-2.35712">
        <ele>19.799999237061</ele>
        <time>2019-08-11T08:34:50.000Z</time>
      </trkpt>
      <trkpt lat="47.33009" lon="-2.35723">
        <ele>19.799999237061</ele>
        <time>2019-08-11T08:34:51.000Z</time>
      </trkpt>
      <trkpt lat="47.33009" lon="-2.35752">
        <ele>19.799999237061</ele>
        <time>2019-08-11T08:34:54.000Z</time>
      </trkpt>
      <trkpt lat="47.33011" lon="-2.3577">
        <ele>19.799999237061</ele>
        <time>2019-08-11T08:34:56.000Z</time>
      </trkpt>
      <trkpt lat="47.33024" lon="-2.358">
        <ele>19.799999237061</ele>
        <time>2019-08-11T08:35:00.000Z</time>
      </trkpt>
      <trkpt lat="47.33045" lon="-2.35811">
        <ele>19.799999237061</ele>
        <time>2019-08-11T08:35:04.000Z</time>
      </trkpt>
      <trkpt lat="47.33057" lon="-2.35811">
        <ele>19.799999237061</ele>
        <time>2019-08-11T08:35:06.000Z</time>
      </trkpt>
      <trkpt lat="47.33075" lon="-2.35809">
        <ele>19.799999237061</ele>
        <time>2019-08-11T08:35:09.000Z</time>
      </trkpt>
      <trkpt lat="47.33106" lon="-2.35807">
        <ele>19.799999237061</ele>
        <time>2019-08-11T08:35:15.000Z</time>
      </trkpt>
      <trkpt lat="47.33147" lon="-2.35809">
        <ele>19.799999237061</ele>
        <time>2019-08-11T08:35:23.000Z</time>
      </trkpt>
      <trkpt lat="47.33157" lon="-2.3581">
        <ele>20.200000762939</ele>
        <time>2019-08-11T08:35:25.000Z</time>
      </trkpt>
      <trkpt lat="47.33161" lon="-2.35811">
        <ele>21</ele>
        <time>2019-08-11T08:35:26.000Z</time>
      </trkpt>
      <trkpt lat="47.33165" lon="-2.35811">
        <ele>21.39999961853</ele>
        <time>2019-08-11T08:35:27.000Z</time>
      </trkpt>
      <trkpt lat="47.3317" lon="-2.35812">
        <ele>21.799999237061</ele>
        <time>2019-08-11T08:35:28.000Z</time>
      </trkpt>
      <trkpt lat="47.33203" lon="-2.35816">
        <ele>21.799999237061</ele>
        <time>2019-08-11T08:35:34.000Z</time>
      </trkpt>
      <trkpt lat="47.33236" lon="-2.35831">
        <ele>21.799999237061</ele>
        <time>2019-08-11T08:35:41.000Z</time>
      </trkpt>
      <trkpt lat="47.33244" lon="-2.35837">
        <ele>22.200000762939</ele>
        <time>2019-08-11T08:35:43.000Z</time>
      </trkpt>
      <trkpt lat="47.33249" lon="-2.3584">
        <ele>22.799999237061</ele>
        <time>2019-08-11T08:35:44.000Z</time>
      </trkpt>
      <trkpt lat="47.33253" lon="-2.35844">
        <ele>23.200000762939</ele>
        <time>2019-08-11T08:35:45.000Z</time>
      </trkpt>
      <trkpt lat="47.33257" lon="-2.35848">
        <ele>23.60000038147</ele>
        <time>2019-08-11T08:35:46.000Z</time>
      </trkpt>
      <trkpt lat="47.33261" lon="-2.35853">
        <ele>24</ele>
        <time>2019-08-11T08:35:47.000Z</time>
      </trkpt>
      <trkpt lat="47.33265" lon="-2.35857">
        <ele>24</ele>
        <time>2019-08-11T08:35:48.000Z</time>
      </trkpt>
      <trkpt lat="47.33273" lon="-2.35867">
        <ele>24.39999961853</ele>
        <time>2019-08-11T08:35:50.000Z</time>
      </trkpt>
      <trkpt lat="47.33277" lon="-2.35872">
        <ele>25.39999961853</ele>
        <time>2019-08-11T08:35:51.000Z</time>
      </trkpt>
      <trkpt lat="47.33281" lon="-2.35876">
        <ele>25.799999237061</ele>
        <time>2019-08-11T08:35:52.000Z</time>
      </trkpt>
      <trkpt lat="47.33286" lon="-2.3588">
        <ele>26.200000762939</ele>
        <time>2019-08-11T08:35:53.000Z</time>
      </trkpt>
      <trkpt lat="47.33291" lon="-2.35884">
        <ele>26.200000762939</ele>
        <time>2019-08-11T08:35:54.000Z</time>
      </trkpt>
      <trkpt lat="47.33295" lon="-2.35887">
        <ele>26.200000762939</ele>
        <time>2019-08-11T08:35:55.000Z</time>
      </trkpt>
      <trkpt lat="47.33307" lon="-2.35903">
        <ele>26.799999237061</ele>
        <time>2019-08-11T08:35:58.000Z</time>
      </trkpt>
      <trkpt lat="47.3331" lon="-2.35909">
        <ele>27.200000762939</ele>
        <time>2019-08-11T08:35:59.000Z</time>
      </trkpt>
      <trkpt lat="47.33313" lon="-2.35915">
        <ele>27.60000038147</ele>
        <time>2019-08-11T08:36:00.000Z</time>
      </trkpt>
      <trkpt lat="47.33315" lon="-2.35921">
        <ele>28</ele>
        <time>2019-08-11T08:36:01.000Z</time>
      </trkpt>
      <trkpt lat="47.33317" lon="-2.35928">
        <ele>28.60000038147</ele>
        <time>2019-08-11T08:36:02.000Z</time>
      </trkpt>
      <trkpt lat="47.3332" lon="-2.35941">
        <ele>28.60000038147</ele>
        <time>2019-08-11T08:36:04.000Z</time>
      </trkpt>
      <trkpt lat="47.33322" lon="-2.35961">
        <ele>28.60000038147</ele>
        <time>2019-08-11T08:36:07.000Z</time>
      </trkpt>
      <trkpt lat="47.33319" lon="-2.36002">
        <ele>28.60000038147</ele>
        <time>2019-08-11T08:36:13.000Z</time>
      </trkpt>
      <trkpt lat="47.33316" lon="-2.36017">
        <ele>28.60000038147</ele>
        <time>2019-08-11T08:36:15.000Z</time>
      </trkpt>
      <trkpt lat="47.33314" lon="-2.36036">
        <ele>28.60000038147</ele>
        <time>2019-08-11T08:36:17.000Z</time>
      </trkpt>
      <trkpt lat="47.33312" lon="-2.36084">
        <ele>28.60000038147</ele>
        <time>2019-08-11T08:36:23.000Z</time>
      </trkpt>
      <trkpt lat="47.33311" lon="-2.36133">
        <ele>28.60000038147</ele>
        <time>2019-08-11T08:36:28.000Z</time>
      </trkpt>
      <trkpt lat="47.33311" lon="-2.36144">
        <ele>29</ele>
        <time>2019-08-11T08:36:29.000Z</time>
      </trkpt>
      <trkpt lat="47.33312" lon="-2.36154">
        <ele>29.39999961853</ele>
        <time>2019-08-11T08:36:30.000Z</time>
      </trkpt>
      <trkpt lat="47.33312" lon="-2.36163">
        <ele>29.799999237061</ele>
        <time>2019-08-11T08:36:31.000Z</time>
      </trkpt>
      <trkpt lat="47.33311" lon="-2.36173">
        <ele>30.200000762939</ele>
        <time>2019-08-11T08:36:32.000Z</time>
      </trkpt>
      <trkpt lat="47.33311" lon="-2.36182">
        <ele>30.60000038147</ele>
        <time>2019-08-11T08:36:33.000Z</time>
      </trkpt>
      <trkpt lat="47.33311" lon="-2.36207">
        <ele>30.60000038147</ele>
        <time>2019-08-11T08:36:36.000Z</time>
      </trkpt>
      <trkpt lat="47.33312" lon="-2.36213">
        <ele>30.60000038147</ele>
        <time>2019-08-11T08:36:37.000Z</time>
      </trkpt>
      <trkpt lat="47.33316" lon="-2.36215">
        <ele>30.200000762939</ele>
        <time>2019-08-11T08:36:38.000Z</time>
      </trkpt>
      <trkpt lat="47.33319" lon="-2.36215">
        <ele>29.799999237061</ele>
        <time>2019-08-11T08:36:39.000Z</time>
      </trkpt>
      <trkpt lat="47.33322" lon="-2.36213">
        <ele>29.200000762939</ele>
        <time>2019-08-11T08:36:40.000Z</time>
      </trkpt>
      <trkpt lat="47.33325" lon="-2.3621">
        <ele>28.799999237061</ele>
        <time>2019-08-11T08:36:41.000Z</time>
      </trkpt>
      <trkpt lat="47.33328" lon="-2.36208">
        <ele>28.39999961853</ele>
        <time>2019-08-11T08:36:42.000Z</time>
      </trkpt>
      <trkpt lat="47.33332" lon="-2.36205">
        <ele>28.39999961853</ele>
        <time>2019-08-11T08:36:43.000Z</time>
      </trkpt>
      <trkpt lat="47.33336" lon="-2.36203">
        <ele>28.39999961853</ele>
        <time>2019-08-11T08:36:44.000Z</time>
      </trkpt>
      <trkpt lat="47.33359" lon="-2.36189">
        <ele>28.39999961853</ele>
        <time>2019-08-11T08:36:49.000Z</time>
      </trkpt>
      <trkpt lat="47.33393" lon="-2.36166">
        <ele>28.39999961853</ele>
        <time>2019-08-11T08:36:56.000Z</time>
      </trkpt>
      <trkpt lat="47.33405" lon="-2.36155">
        <ele>28.39999961853</ele>
        <time>2019-08-11T08:37:00.000Z</time>
      </trkpt>
      <trkpt lat="47.33407" lon="-2.36154">
        <ele>28.39999961853</ele>
        <time>2019-08-11T08:37:01.000Z</time>
      </trkpt>
      <trkpt lat="47.33411" lon="-2.36159">
        <ele>28.39999961853</ele>
        <time>2019-08-11T08:37:03.000Z</time>
      </trkpt>
      <trkpt lat="47.33413" lon="-2.36169">
        <ele>28.39999961853</ele>
        <time>2019-08-11T08:37:05.000Z</time>
      </trkpt>
      <trkpt lat="47.33414" lon="-2.36174">
        <ele>28.39999961853</ele>
        <time>2019-08-11T08:37:06.000Z</time>
      </trkpt>
      <trkpt lat="47.33415" lon="-2.36187">
        <ele>28.39999961853</ele>
        <time>2019-08-11T08:37:08.000Z</time>
      </trkpt>
      <trkpt lat="47.33416" lon="-2.36202">
        <ele>28.39999961853</ele>
        <time>2019-08-11T08:37:10.000Z</time>
      </trkpt>
      <trkpt lat="47.33416" lon="-2.3621">
        <ele>28.39999961853</ele>
        <time>2019-08-11T08:37:11.000Z</time>
      </trkpt>
      <trkpt lat="47.33415" lon="-2.36219">
        <ele>28.39999961853</ele>
        <time>2019-08-11T08:37:12.000Z</time>
      </trkpt>
      <trkpt lat="47.33412" lon="-2.36248">
        <ele>28.39999961853</ele>
        <time>2019-08-11T08:37:15.000Z</time>
      </trkpt>
      <trkpt lat="47.33411" lon="-2.36257">
        <ele>28.39999961853</ele>
        <time>2019-08-11T08:37:16.000Z</time>
      </trkpt>
      <trkpt lat="47.33413" lon="-2.36285">
        <ele>28.39999961853</ele>
        <time>2019-08-11T08:37:19.000Z</time>
      </trkpt>
      <trkpt lat="47.33417" lon="-2.36304">
        <ele>28.39999961853</ele>
        <time>2019-08-11T08:37:21.000Z</time>
      </trkpt>
      <trkpt lat="47.33429" lon="-2.36348">
        <ele>28.39999961853</ele>
        <time>2019-08-11T08:37:26.000Z</time>
      </trkpt>
      <trkpt lat="47.33438" lon="-2.36374">
        <ele>28</ele>
        <time>2019-08-11T08:37:29.000Z</time>
      </trkpt>
      <trkpt lat="47.3344" lon="-2.36382">
        <ele>27.60000038147</ele>
        <time>2019-08-11T08:37:30.000Z</time>
      </trkpt>
      <trkpt lat="47.33443" lon="-2.3639">
        <ele>27.200000762939</ele>
        <time>2019-08-11T08:37:31.000Z</time>
      </trkpt>
      <trkpt lat="47.33445" lon="-2.36397">
        <ele>26.60000038147</ele>
        <time>2019-08-11T08:37:32.000Z</time>
      </trkpt>
      <trkpt lat="47.33448" lon="-2.36404">
        <ele>26.200000762939</ele>
        <time>2019-08-11T08:37:33.000Z</time>
      </trkpt>
      <trkpt lat="47.33464" lon="-2.36417">
        <ele>26.200000762939</ele>
        <time>2019-08-11T08:37:37.000Z</time>
      </trkpt>
      <trkpt lat="47.33468" lon="-2.36419">
        <ele>25.799999237061</ele>
        <time>2019-08-11T08:37:38.000Z</time>
      </trkpt>
      <trkpt lat="47.33472" lon="-2.36422">
        <ele>25.39999961853</ele>
        <time>2019-08-11T08:37:39.000Z</time>
      </trkpt>
      <trkpt lat="47.33474" lon="-2.36426">
        <ele>24.799999237061</ele>
        <time>2019-08-11T08:37:40.000Z</time>
      </trkpt>
      <trkpt lat="47.33475" lon="-2.36431">
        <ele>24.39999961853</ele>
        <time>2019-08-11T08:37:41.000Z</time>
      </trkpt>
      <trkpt lat="47.33475" lon="-2.36436">
        <ele>24</ele>
        <time>2019-08-11T08:37:42.000Z</time>
      </trkpt>
      <trkpt lat="47.33475" lon="-2.36448">
        <ele>24</ele>
        <time>2019-08-11T08:37:44.000Z</time>
      </trkpt>
      <trkpt lat="47.33475" lon="-2.36462">
        <ele>24</ele>
        <time>2019-08-11T08:37:46.000Z</time>
      </trkpt>
      <trkpt lat="47.33476" lon="-2.36501">
        <ele>24</ele>
        <time>2019-08-11T08:37:51.000Z</time>
      </trkpt>
      <trkpt lat="47.33474" lon="-2.36544">
        <ele>24</ele>
        <time>2019-08-11T08:37:56.000Z</time>
      </trkpt>
      <trkpt lat="47.33474" lon="-2.36585">
        <ele>24</ele>
        <time>2019-08-11T08:38:01.000Z</time>
      </trkpt>
      <trkpt lat="47.33475" lon="-2.36589">
        <ele>24</ele>
        <time>2019-08-11T08:38:02.000Z</time>
      </trkpt>
      <trkpt lat="47.33477" lon="-2.36592">
        <ele>23.60000038147</ele>
        <time>2019-08-11T08:38:03.000Z</time>
      </trkpt>
      <trkpt lat="47.33481" lon="-2.36593">
        <ele>23.200000762939</ele>
        <time>2019-08-11T08:38:04.000Z</time>
      </trkpt>
      <trkpt lat="47.33485" lon="-2.36593">
        <ele>22.799999237061</ele>
        <time>2019-08-11T08:38:05.000Z</time>
      </trkpt>
      <trkpt lat="47.3349" lon="-2.36594">
        <ele>22.39999961853</ele>
        <time>2019-08-11T08:38:06.000Z</time>
      </trkpt>
      <trkpt lat="47.33494" lon="-2.36595">
        <ele>22</ele>
        <time>2019-08-11T08:38:07.000Z</time>
      </trkpt>
      <trkpt lat="47.33507" lon="-2.36603">
        <ele>22</ele>
        <time>2019-08-11T08:38:10.000Z</time>
      </trkpt>
      <trkpt lat="47.33517" lon="-2.36609">
        <ele>22</ele>
        <time>2019-08-11T08:38:12.000Z</time>
      </trkpt>
      <trkpt lat="47.33525" lon="-2.36615">
        <ele>22</ele>
        <time>2019-08-11T08:38:14.000Z</time>
      </trkpt>
      <trkpt lat="47.3353" lon="-2.36622">
        <ele>21.39999961853</ele>
        <time>2019-08-11T08:38:16.000Z</time>
      </trkpt>
      <trkpt lat="47.33533" lon="-2.36625">
        <ele>21</ele>
        <time>2019-08-11T08:38:17.000Z</time>
      </trkpt>
      <trkpt lat="47.33535" lon="-2.36629">
        <ele>20.39999961853</ele>
        <time>2019-08-11T08:38:18.000Z</time>
      </trkpt>
      <trkpt lat="47.33538" lon="-2.36632">
        <ele>20</ele>
        <time>2019-08-11T08:38:19.000Z</time>
      </trkpt>
      <trkpt lat="47.33539" lon="-2.36635">
        <ele>19.39999961853</ele>
        <time>2019-08-11T08:38:20.000Z</time>
      </trkpt>
      <trkpt lat="47.33541" lon="-2.36638">
        <ele>18.60000038147</ele>
        <time>2019-08-11T08:38:21.000Z</time>
      </trkpt>
      <trkpt lat="47.33542" lon="-2.36641">
        <ele>18</ele>
        <time>2019-08-11T08:38:22.000Z</time>
      </trkpt>
      <trkpt lat="47.33541" lon="-2.36645">
        <ele>17.39999961853</ele>
        <time>2019-08-11T08:38:23.000Z</time>
      </trkpt>
      <trkpt lat="47.33538" lon="-2.36649">
        <ele>16.799999237061</ele>
        <time>2019-08-11T08:38:24.000Z</time>
      </trkpt>
      <trkpt lat="47.33535" lon="-2.36654">
        <ele>16.200000762939</ele>
        <time>2019-08-11T08:38:25.000Z</time>
      </trkpt>
      <trkpt lat="47.33532" lon="-2.36657">
        <ele>15.60000038147</ele>
        <time>2019-08-11T08:38:26.000Z</time>
      </trkpt>
      <trkpt lat="47.33529" lon="-2.3666">
        <ele>15.199999809265</ele>
        <time>2019-08-11T08:38:27.000Z</time>
      </trkpt>
      <trkpt lat="47.33526" lon="-2.36663">
        <ele>14.60000038147</ele>
        <time>2019-08-11T08:38:28.000Z</time>
      </trkpt>
      <trkpt lat="47.33515" lon="-2.36683">
        <ele>14.60000038147</ele>
        <time>2019-08-11T08:38:32.000Z</time>
      </trkpt>
      <trkpt lat="47.33501" lon="-2.36713">
        <ele>14.60000038147</ele>
        <time>2019-08-11T08:38:38.000Z</time>
      </trkpt>
      <trkpt lat="47.33487" lon="-2.36746">
        <ele>14.60000038147</ele>
        <time>2019-08-11T08:38:44.000Z</time>
      </trkpt>
      <trkpt lat="47.33479" lon="-2.36772">
        <ele>14.60000038147</ele>
        <time>2019-08-11T08:38:47.000Z</time>
      </trkpt>
      <trkpt lat="47.33477" lon="-2.3679">
        <ele>14.60000038147</ele>
        <time>2019-08-11T08:38:49.000Z</time>
      </trkpt>
      <trkpt lat="47.3347" lon="-2.36828">
        <ele>14.60000038147</ele>
        <time>2019-08-11T08:38:54.000Z</time>
      </trkpt>
      <trkpt lat="47.33468" lon="-2.36835">
        <ele>14.60000038147</ele>
        <time>2019-08-11T08:38:55.000Z</time>
      </trkpt>
      <trkpt lat="47.33462" lon="-2.36861">
        <ele>14.60000038147</ele>
        <time>2019-08-11T08:38:59.000Z</time>
      </trkpt>
      <trkpt lat="47.33462" lon="-2.36868">
        <ele>14.60000038147</ele>
        <time>2019-08-11T08:39:00.000Z</time>
      </trkpt>
      <trkpt lat="47.33462" lon="-2.36885">
        <ele>14.60000038147</ele>
        <time>2019-08-11T08:39:03.000Z</time>
      </trkpt>
      <trkpt lat="47.33464" lon="-2.36898">
        <ele>14.60000038147</ele>
        <time>2019-08-11T08:39:05.000Z</time>
      </trkpt>
      <trkpt lat="47.33469" lon="-2.36942">
        <ele>14.60000038147</ele>
        <time>2019-08-11T08:39:11.000Z</time>
      </trkpt>
      <trkpt lat="47.33469" lon="-2.3695">
        <ele>15</ele>
        <time>2019-08-11T08:39:12.000Z</time>
      </trkpt>
      <trkpt lat="47.33468" lon="-2.36958">
        <ele>15.39999961853</ele>
        <time>2019-08-11T08:39:13.000Z</time>
      </trkpt>
      <trkpt lat="47.33467" lon="-2.36965">
        <ele>15.800000190735</ele>
        <time>2019-08-11T08:39:14.000Z</time>
      </trkpt>
      <trkpt lat="47.33466" lon="-2.36971">
        <ele>16.200000762939</ele>
        <time>2019-08-11T08:39:15.000Z</time>
      </trkpt>
      <trkpt lat="47.33466" lon="-2.36977">
        <ele>16.60000038147</ele>
        <time>2019-08-11T08:39:16.000Z</time>
      </trkpt>
      <trkpt lat="47.33469" lon="-2.36986">
        <ele>16.60000038147</ele>
        <time>2019-08-11T08:39:18.000Z</time>
      </trkpt>
      <trkpt lat="47.33477" lon="-2.36995">
        <ele>16.60000038147</ele>
        <time>2019-08-11T08:39:22.000Z</time>
      </trkpt>
      <trkpt lat="47.33479" lon="-2.37004">
        <ele>16.60000038147</ele>
        <time>2019-08-11T08:39:24.000Z</time>
      </trkpt>
      <trkpt lat="47.33478" lon="-2.37011">
        <ele>16.60000038147</ele>
        <time>2019-08-11T08:39:25.000Z</time>
      </trkpt>
      <trkpt lat="47.33476" lon="-2.37039">
        <ele>16.60000038147</ele>
        <time>2019-08-11T08:39:29.000Z</time>
      </trkpt>
      <trkpt lat="47.33476" lon="-2.37055">
        <ele>16.60000038147</ele>
        <time>2019-08-11T08:39:31.000Z</time>
      </trkpt>
      <trkpt lat="47.33475" lon="-2.37071">
        <ele>17</ele>
        <time>2019-08-11T08:39:33.000Z</time>
      </trkpt>
      <trkpt lat="47.33475" lon="-2.37079">
        <ele>17.39999961853</ele>
        <time>2019-08-11T08:39:34.000Z</time>
      </trkpt>
      <trkpt lat="47.33475" lon="-2.37087">
        <ele>18</ele>
        <time>2019-08-11T08:39:35.000Z</time>
      </trkpt>
      <trkpt lat="47.33475" lon="-2.37094">
        <ele>18.39999961853</ele>
        <time>2019-08-11T08:39:36.000Z</time>
      </trkpt>
      <trkpt lat="47.33475" lon="-2.37101">
        <ele>18.799999237061</ele>
        <time>2019-08-11T08:39:37.000Z</time>
      </trkpt>
      <trkpt lat="47.33476" lon="-2.37109">
        <ele>18.799999237061</ele>
        <time>2019-08-11T08:39:38.000Z</time>
      </trkpt>
      <trkpt lat="47.33479" lon="-2.3713">
        <ele>18.799999237061</ele>
        <time>2019-08-11T08:39:41.000Z</time>
      </trkpt>
      <trkpt lat="47.3348" lon="-2.37144">
        <ele>18.799999237061</ele>
        <time>2019-08-11T08:39:43.000Z</time>
      </trkpt>
      <trkpt lat="47.33483" lon="-2.37158">
        <ele>19.200000762939</ele>
        <time>2019-08-11T08:39:45.000Z</time>
      </trkpt>
      <trkpt lat="47.33484" lon="-2.37164">
        <ele>19.60000038147</ele>
        <time>2019-08-11T08:39:46.000Z</time>
      </trkpt>
      <trkpt lat="47.33485" lon="-2.37171">
        <ele>20</ele>
        <time>2019-08-11T08:39:47.000Z</time>
      </trkpt>
      <trkpt lat="47.33485" lon="-2.37178">
        <ele>20.39999961853</ele>
        <time>2019-08-11T08:39:48.000Z</time>
      </trkpt>
      <trkpt lat="47.33487" lon="-2.37186">
        <ele>20.799999237061</ele>
        <time>2019-08-11T08:39:49.000Z</time>
      </trkpt>
      <trkpt lat="47.33488" lon="-2.37193">
        <ele>20.799999237061</ele>
        <time>2019-08-11T08:39:50.000Z</time>
      </trkpt>
      <trkpt lat="47.33489" lon="-2.372">
        <ele>20.799999237061</ele>
        <time>2019-08-11T08:39:51.000Z</time>
      </trkpt>
      <trkpt lat="47.33498" lon="-2.37225">
        <ele>20.799999237061</ele>
        <time>2019-08-11T08:39:55.000Z</time>
      </trkpt>
      <trkpt lat="47.335" lon="-2.37228">
        <ele>20.799999237061</ele>
        <time>2019-08-11T08:39:56.000Z</time>
      </trkpt>
      <trkpt lat="47.33507" lon="-2.37231">
        <ele>21.200000762939</ele>
        <time>2019-08-11T08:39:58.000Z</time>
      </trkpt>
      <trkpt lat="47.33511" lon="-2.37232">
        <ele>21.60000038147</ele>
        <time>2019-08-11T08:39:59.000Z</time>
      </trkpt>
      <trkpt lat="47.33514" lon="-2.37232">
        <ele>22</ele>
        <time>2019-08-11T08:40:00.000Z</time>
      </trkpt>
      <trkpt lat="47.33517" lon="-2.37232">
        <ele>22.39999961853</ele>
        <time>2019-08-11T08:40:01.000Z</time>
      </trkpt>
      <trkpt lat="47.3352" lon="-2.37233">
        <ele>22.799999237061</ele>
        <time>2019-08-11T08:40:02.000Z</time>
      </trkpt>
      <trkpt lat="47.33526" lon="-2.37233">
        <ele>22.799999237061</ele>
        <time>2019-08-11T08:40:04.000Z</time>
      </trkpt>
      <trkpt lat="47.3354" lon="-2.37229">
        <ele>22.799999237061</ele>
        <time>2019-08-11T08:40:10.000Z</time>
      </trkpt>
      <trkpt lat="47.33546" lon="-2.37217">
        <ele>23.200000762939</ele>
        <time>2019-08-11T08:40:15.000Z</time>
      </trkpt>
      <trkpt lat="47.33547" lon="-2.37215">
        <ele>24.200000762939</ele>
        <time>2019-08-11T08:40:16.000Z</time>
      </trkpt>
      <trkpt lat="47.33548" lon="-2.37214">
        <ele>24.60000038147</ele>
        <time>2019-08-11T08:40:17.000Z</time>
      </trkpt>
      <trkpt lat="47.33549" lon="-2.37212">
        <ele>25</ele>
        <time>2019-08-11T08:40:18.000Z</time>
      </trkpt>
      <trkpt lat="47.33549" lon="-2.37212">
        <ele>25</ele>
        <time>2019-08-11T08:40:19.000Z</time>
      </trkpt>
      <trkpt lat="47.33562" lon="-2.37209">
        <ele>25</ele>
        <time>2019-08-11T08:57:13.000Z</time>
      </trkpt>
      <trkpt lat="47.33569" lon="-2.37204">
        <ele>25</ele>
        <time>2019-08-11T08:57:17.000Z</time>
      </trkpt>
      <trkpt lat="47.33572" lon="-2.37203">
        <ele>25</ele>
        <time>2019-08-11T08:57:19.000Z</time>
      </trkpt>
      <trkpt lat="47.33585" lon="-2.37202">
        <ele>25</ele>
        <time>2019-08-11T08:57:26.000Z</time>
      </trkpt>
      <trkpt lat="47.33587" lon="-2.37203">
        <ele>25</ele>
        <time>2019-08-11T08:57:28.000Z</time>
      </trkpt>
      <trkpt lat="47.3359" lon="-2.37207">
        <ele>25</ele>
        <time>2019-08-11T08:57:30.000Z</time>
      </trkpt>
      <trkpt lat="47.33592" lon="-2.37211">
        <ele>25</ele>
        <time>2019-08-11T08:57:31.000Z</time>
      </trkpt>
      <trkpt lat="47.33599" lon="-2.37233">
        <ele>25</ele>
        <time>2019-08-11T08:57:37.000Z</time>
      </trkpt>
      <trkpt lat="47.33606" lon="-2.37256">
        <ele>25</ele>
        <time>2019-08-11T08:57:43.000Z</time>
      </trkpt>
      <trkpt lat="47.33615" lon="-2.37291">
        <ele>25</ele>
        <time>2019-08-11T08:57:52.000Z</time>
      </trkpt>
      <trkpt lat="47.33615" lon="-2.37316">
        <ele>25</ele>
        <time>2019-08-11T08:57:58.000Z</time>
      </trkpt>
      <trkpt lat="47.33609" lon="-2.37325">
        <ele>25</ele>
        <time>2019-08-11T08:58:02.000Z</time>
      </trkpt>
      <trkpt lat="47.33607" lon="-2.37326">
        <ele>25</ele>
        <time>2019-08-11T08:58:03.000Z</time>
      </trkpt>
      <trkpt lat="47.33598" lon="-2.37329">
        <ele>25</ele>
        <time>2019-08-11T08:58:07.000Z</time>
      </trkpt>
      <trkpt lat="47.33586" lon="-2.37333">
        <ele>25</ele>
        <time>2019-08-11T08:58:13.000Z</time>
      </trkpt>
      <trkpt lat="47.33571" lon="-2.37337">
        <ele>25</ele>
        <time>2019-08-11T08:58:18.000Z</time>
      </trkpt>
      <trkpt lat="47.3356" lon="-2.3734">
        <ele>25.39999961853</ele>
        <time>2019-08-11T08:58:22.000Z</time>
      </trkpt>
      <trkpt lat="47.33557" lon="-2.37342">
        <ele>25.799999237061</ele>
        <time>2019-08-11T08:58:23.000Z</time>
      </trkpt>
      <trkpt lat="47.33555" lon="-2.37344">
        <ele>26.60000038147</ele>
        <time>2019-08-11T08:58:24.000Z</time>
      </trkpt>
      <trkpt lat="47.33552" lon="-2.37347">
        <ele>27</ele>
        <time>2019-08-11T08:58:25.000Z</time>
      </trkpt>
      <trkpt lat="47.3354" lon="-2.37374">
        <ele>27</ele>
        <time>2019-08-11T08:58:32.000Z</time>
      </trkpt>
      <trkpt lat="47.33541" lon="-2.37399">
        <ele>27</ele>
        <time>2019-08-11T08:58:37.000Z</time>
      </trkpt>
      <trkpt lat="47.33541" lon="-2.37434">
        <ele>27.39999961853</ele>
        <time>2019-08-11T08:58:44.000Z</time>
      </trkpt>
      <trkpt lat="47.33541" lon="-2.3744">
        <ele>27.799999237061</ele>
        <time>2019-08-11T08:58:45.000Z</time>
      </trkpt>
      <trkpt lat="47.33541" lon="-2.37445">
        <ele>28.39999961853</ele>
        <time>2019-08-11T08:58:46.000Z</time>
      </trkpt>
      <trkpt lat="47.3354" lon="-2.37451">
        <ele>28.799999237061</ele>
        <time>2019-08-11T08:58:47.000Z</time>
      </trkpt>
      <trkpt lat="47.33539" lon="-2.37457">
        <ele>29.200000762939</ele>
        <time>2019-08-11T08:58:48.000Z</time>
      </trkpt>
      <trkpt lat="47.33535" lon="-2.37473">
        <ele>29.200000762939</ele>
        <time>2019-08-11T08:58:51.000Z</time>
      </trkpt>
      <trkpt lat="47.33522" lon="-2.37503">
        <ele>29.200000762939</ele>
        <time>2019-08-11T08:58:57.000Z</time>
      </trkpt>
      <trkpt lat="47.33504" lon="-2.37532">
        <ele>29.200000762939</ele>
        <time>2019-08-11T08:59:04.000Z</time>
      </trkpt>
      <trkpt lat="47.33499" lon="-2.37539">
        <ele>29.60000038147</ele>
        <time>2019-08-11T08:59:06.000Z</time>
      </trkpt>
      <trkpt lat="47.33497" lon="-2.37542">
        <ele>30</ele>
        <time>2019-08-11T08:59:07.000Z</time>
      </trkpt>
      <trkpt lat="47.33494" lon="-2.37545">
        <ele>30.39999961853</ele>
        <time>2019-08-11T08:59:08.000Z</time>
      </trkpt>
      <trkpt lat="47.33492" lon="-2.37549">
        <ele>30.799999237061</ele>
        <time>2019-08-11T08:59:09.000Z</time>
      </trkpt>
      <trkpt lat="47.3349" lon="-2.37553">
        <ele>31.200000762939</ele>
        <time>2019-08-11T08:59:10.000Z</time>
      </trkpt>
      <trkpt lat="47.33487" lon="-2.37557">
        <ele>31.200000762939</ele>
        <time>2019-08-11T08:59:11.000Z</time>
      </trkpt>
      <trkpt lat="47.3347" lon="-2.37583">
        <ele>31.200000762939</ele>
        <time>2019-08-11T08:59:17.000Z</time>
      </trkpt>
      <trkpt lat="47.33446" lon="-2.37604">
        <ele>31.200000762939</ele>
        <time>2019-08-11T08:59:24.000Z</time>
      </trkpt>
      <trkpt lat="47.33421" lon="-2.37623">
        <ele>31.200000762939</ele>
        <time>2019-08-11T08:59:31.000Z</time>
      </trkpt>
      <trkpt lat="47.33414" lon="-2.37629">
        <ele>31.200000762939</ele>
        <time>2019-08-11T08:59:33.000Z</time>
      </trkpt>
      <trkpt lat="47.33397" lon="-2.37651">
        <ele>31.200000762939</ele>
        <time>2019-08-11T08:59:38.000Z</time>
      </trkpt>
      <trkpt lat="47.3339" lon="-2.37674">
        <ele>31.200000762939</ele>
        <time>2019-08-11T08:59:42.000Z</time>
      </trkpt>
      <trkpt lat="47.33388" lon="-2.37702">
        <ele>31.60000038147</ele>
        <time>2019-08-11T08:59:47.000Z</time>
      </trkpt>
      <trkpt lat="47.33388" lon="-2.37707">
        <ele>32</ele>
        <time>2019-08-11T08:59:48.000Z</time>
      </trkpt>
      <trkpt lat="47.33388" lon="-2.37713">
        <ele>32.400001525879</ele>
        <time>2019-08-11T08:59:49.000Z</time>
      </trkpt>
      <trkpt lat="47.33389" lon="-2.37718">
        <ele>33</ele>
        <time>2019-08-11T08:59:50.000Z</time>
      </trkpt>
      <trkpt lat="47.33389" lon="-2.37723">
        <ele>33.400001525879</ele>
        <time>2019-08-11T08:59:51.000Z</time>
      </trkpt>
      <trkpt lat="47.33389" lon="-2.37738">
        <ele>33.400001525879</ele>
        <time>2019-08-11T08:59:54.000Z</time>
      </trkpt>
      <trkpt lat="47.33389" lon="-2.3777">
        <ele>33.400001525879</ele>
        <time>2019-08-11T09:00:00.000Z</time>
      </trkpt>
      <trkpt lat="47.33389" lon="-2.37791">
        <ele>33.400001525879</ele>
        <time>2019-08-11T09:00:05.000Z</time>
      </trkpt>
      <trkpt lat="47.33383" lon="-2.37813">
        <ele>33.400001525879</ele>
        <time>2019-08-11T09:00:12.000Z</time>
      </trkpt>
      <trkpt lat="47.33373" lon="-2.3784">
        <ele>33.400001525879</ele>
        <time>2019-08-11T09:00:18.000Z</time>
      </trkpt>
      <trkpt lat="47.3337" lon="-2.37848">
        <ele>33.400001525879</ele>
        <time>2019-08-11T09:00:21.000Z</time>
      </trkpt>
      <trkpt lat="47.33367" lon="-2.37853">
        <ele>33.400001525879</ele>
        <time>2019-08-11T09:00:24.000Z</time>
      </trkpt>
      <trkpt lat="47.33365" lon="-2.37853">
        <ele>33</ele>
        <time>2019-08-11T09:00:25.000Z</time>
      </trkpt>
      <trkpt lat="47.33364" lon="-2.37852">
        <ele>32.599998474121</ele>
        <time>2019-08-11T09:00:26.000Z</time>
      </trkpt>
      <trkpt lat="47.33364" lon="-2.37852">
        <ele>32</ele>
        <time>2019-08-11T09:00:27.000Z</time>
      </trkpt>
      <trkpt lat="47.33361" lon="-2.37853">
        <ele>31.200000762939</ele>
        <time>2019-08-11T09:00:37.000Z</time>
      </trkpt>
      <trkpt lat="47.33359" lon="-2.37853">
        <ele>31.200000762939</ele>
        <time>2019-08-11T09:00:38.000Z</time>
      </trkpt>
      <trkpt lat="47.33342" lon="-2.37855">
        <ele>31.200000762939</ele>
        <time>2019-08-11T09:00:43.000Z</time>
      </trkpt>
      <trkpt lat="47.33317" lon="-2.37864">
        <ele>31.200000762939</ele>
        <time>2019-08-11T09:00:48.000Z</time>
      </trkpt>
      <trkpt lat="47.33311" lon="-2.37866">
        <ele>31.200000762939</ele>
        <time>2019-08-11T09:00:49.000Z</time>
      </trkpt>
      <trkpt lat="47.33292" lon="-2.37872">
        <ele>31.200000762939</ele>
        <time>2019-08-11T09:00:52.000Z</time>
      </trkpt>
      <trkpt lat="47.33278" lon="-2.37876">
        <ele>30.799999237061</ele>
        <time>2019-08-11T09:00:54.000Z</time>
      </trkpt>
      <trkpt lat="47.33272" lon="-2.37879">
        <ele>30.39999961853</ele>
        <time>2019-08-11T09:00:55.000Z</time>
      </trkpt>
      <trkpt lat="47.33266" lon="-2.37879">
        <ele>30</ele>
        <time>2019-08-11T09:00:56.000Z</time>
      </trkpt>
      <trkpt lat="47.33259" lon="-2.37878">
        <ele>29.39999961853</ele>
        <time>2019-08-11T09:00:57.000Z</time>
      </trkpt>
      <trkpt lat="47.33253" lon="-2.37876">
        <ele>28.799999237061</ele>
        <time>2019-08-11T09:00:58.000Z</time>
      </trkpt>
      <trkpt lat="47.33246" lon="-2.37873">
        <ele>28.200000762939</ele>
        <time>2019-08-11T09:00:59.000Z</time>
      </trkpt>
      <trkpt lat="47.3324" lon="-2.3787">
        <ele>27.60000038147</ele>
        <time>2019-08-11T09:01:00.000Z</time>
      </trkpt>
      <trkpt lat="47.33235" lon="-2.37865">
        <ele>27</ele>
        <time>2019-08-11T09:01:01.000Z</time>
      </trkpt>
      <trkpt lat="47.3323" lon="-2.37859">
        <ele>27</ele>
        <time>2019-08-11T09:01:02.000Z</time>
      </trkpt>
      <trkpt lat="47.33218" lon="-2.37843">
        <ele>26.60000038147</ele>
        <time>2019-08-11T09:01:04.000Z</time>
      </trkpt>
      <trkpt lat="47.33213" lon="-2.37836">
        <ele>26.200000762939</ele>
        <time>2019-08-11T09:01:05.000Z</time>
      </trkpt>
      <trkpt lat="47.33208" lon="-2.37829">
        <ele>25.799999237061</ele>
        <time>2019-08-11T09:01:06.000Z</time>
      </trkpt>
      <trkpt lat="47.33203" lon="-2.3782">
        <ele>25.39999961853</ele>
        <time>2019-08-11T09:01:07.000Z</time>
      </trkpt>
      <trkpt lat="47.33198" lon="-2.37813">
        <ele>25</ele>
        <time>2019-08-11T09:01:08.000Z</time>
      </trkpt>
      <trkpt lat="47.33184" lon="-2.37788">
        <ele>25</ele>
        <time>2019-08-11T09:01:11.000Z</time>
      </trkpt>
      <trkpt lat="47.33174" lon="-2.37771">
        <ele>25</ele>
        <time>2019-08-11T09:01:13.000Z</time>
      </trkpt>
      <trkpt lat="47.33169" lon="-2.37762">
        <ele>24.60000038147</ele>
        <time>2019-08-11T09:01:14.000Z</time>
      </trkpt>
      <trkpt lat="47.33165" lon="-2.37753">
        <ele>24.200000762939</ele>
        <time>2019-08-11T09:01:15.000Z</time>
      </trkpt>
      <trkpt lat="47.33162" lon="-2.37744">
        <ele>23.799999237061</ele>
        <time>2019-08-11T09:01:16.000Z</time>
      </trkpt>
      <trkpt lat="47.33157" lon="-2.37738">
        <ele>23.39999961853</ele>
        <time>2019-08-11T09:01:17.000Z</time>
      </trkpt>
      <trkpt lat="47.33151" lon="-2.37734">
        <ele>23</ele>
        <time>2019-08-11T09:01:18.000Z</time>
      </trkpt>
      <trkpt lat="47.33145" lon="-2.37733">
        <ele>23</ele>
        <time>2019-08-11T09:01:19.000Z</time>
      </trkpt>
      <trkpt lat="47.33128" lon="-2.3774">
        <ele>23</ele>
        <time>2019-08-11T09:01:22.000Z</time>
      </trkpt>
      <trkpt lat="47.33118" lon="-2.3775">
        <ele>23</ele>
        <time>2019-08-11T09:01:24.000Z</time>
      </trkpt>
      <trkpt lat="47.33114" lon="-2.37755">
        <ele>23</ele>
        <time>2019-08-11T09:01:25.000Z</time>
      </trkpt>
      <trkpt lat="47.33093" lon="-2.3778">
        <ele>23</ele>
        <time>2019-08-11T09:01:30.000Z</time>
      </trkpt>
      <trkpt lat="47.33089" lon="-2.37784">
        <ele>23</ele>
        <time>2019-08-11T09:01:31.000Z</time>
      </trkpt>
      <trkpt lat="47.33064" lon="-2.3781">
        <ele>23</ele>
        <time>2019-08-11T09:01:37.000Z</time>
      </trkpt>
      <trkpt lat="47.33056" lon="-2.37819">
        <ele>23</ele>
        <time>2019-08-11T09:01:39.000Z</time>
      </trkpt>
      <trkpt lat="47.3304" lon="-2.37839">
        <ele>23</ele>
        <time>2019-08-11T09:01:43.000Z</time>
      </trkpt>
      <trkpt lat="47.33026" lon="-2.37858">
        <ele>23</ele>
        <time>2019-08-11T09:01:46.000Z</time>
      </trkpt>
      <trkpt lat="47.3302" lon="-2.37872">
        <ele>23</ele>
        <time>2019-08-11T09:01:48.000Z</time>
      </trkpt>
      <trkpt lat="47.33016" lon="-2.37879">
        <ele>23</ele>
        <time>2019-08-11T09:01:49.000Z</time>
      </trkpt>
      <trkpt lat="47.33004" lon="-2.379">
        <ele>23.39999961853</ele>
        <time>2019-08-11T09:01:52.000Z</time>
      </trkpt>
      <trkpt lat="47.33001" lon="-2.37906">
        <ele>23.799999237061</ele>
        <time>2019-08-11T09:01:53.000Z</time>
      </trkpt>
      <trkpt lat="47.32997" lon="-2.37913">
        <ele>24.200000762939</ele>
        <time>2019-08-11T09:01:54.000Z</time>
      </trkpt>
      <trkpt lat="47.32993" lon="-2.37919">
        <ele>24.60000038147</ele>
        <time>2019-08-11T09:01:55.000Z</time>
      </trkpt>
      <trkpt lat="47.32989" lon="-2.37925">
        <ele>25</ele>
        <time>2019-08-11T09:01:56.000Z</time>
      </trkpt>
      <trkpt lat="47.32982" lon="-2.37936">
        <ele>25</ele>
        <time>2019-08-11T09:01:58.000Z</time>
      </trkpt>
      <trkpt lat="47.32955" lon="-2.37976">
        <ele>25</ele>
        <time>2019-08-11T09:02:05.000Z</time>
      </trkpt>
      <trkpt lat="47.32952" lon="-2.3798">
        <ele>25</ele>
        <time>2019-08-11T09:02:06.000Z</time>
      </trkpt>
      <trkpt lat="47.32935" lon="-2.38">
        <ele>25</ele>
        <time>2019-08-11T09:02:10.000Z</time>
      </trkpt>
      <trkpt lat="47.32911" lon="-2.38032">
        <ele>25</ele>
        <time>2019-08-11T09:02:16.000Z</time>
      </trkpt>
      <trkpt lat="47.32908" lon="-2.38038">
        <ele>25</ele>
        <time>2019-08-11T09:02:17.000Z</time>
      </trkpt>
      <trkpt lat="47.32893" lon="-2.38073">
        <ele>25</ele>
        <time>2019-08-11T09:02:22.000Z</time>
      </trkpt>
      <trkpt lat="47.32886" lon="-2.38085">
        <ele>25.39999961853</ele>
        <time>2019-08-11T09:02:24.000Z</time>
      </trkpt>
      <trkpt lat="47.32883" lon="-2.38091">
        <ele>25.799999237061</ele>
        <time>2019-08-11T09:02:25.000Z</time>
      </trkpt>
      <trkpt lat="47.32879" lon="-2.38097">
        <ele>26.60000038147</ele>
        <time>2019-08-11T09:02:26.000Z</time>
      </trkpt>
      <trkpt lat="47.32876" lon="-2.38103">
        <ele>27</ele>
        <time>2019-08-11T09:02:27.000Z</time>
      </trkpt>
      <trkpt lat="47.32866" lon="-2.3812">
        <ele>27</ele>
        <time>2019-08-11T09:02:30.000Z</time>
      </trkpt>
      <trkpt lat="47.32844" lon="-2.38158">
        <ele>27</ele>
        <time>2019-08-11T09:02:37.000Z</time>
      </trkpt>
      <trkpt lat="47.32841" lon="-2.38163">
        <ele>27</ele>
        <time>2019-08-11T09:02:38.000Z</time>
      </trkpt>
      <trkpt lat="47.3283" lon="-2.38187">
        <ele>27.39999961853</ele>
        <time>2019-08-11T09:02:42.000Z</time>
      </trkpt>
      <trkpt lat="47.32828" lon="-2.38192">
        <ele>27.799999237061</ele>
        <time>2019-08-11T09:02:43.000Z</time>
      </trkpt>
      <trkpt lat="47.32826" lon="-2.38198">
        <ele>28.200000762939</ele>
        <time>2019-08-11T09:02:44.000Z</time>
      </trkpt>
      <trkpt lat="47.32824" lon="-2.38203">
        <ele>28.60000038147</ele>
        <time>2019-08-11T09:02:45.000Z</time>
      </trkpt>
      <trkpt lat="47.32822" lon="-2.38208">
        <ele>29</ele>
        <time>2019-08-11T09:02:46.000Z</time>
      </trkpt>
      <trkpt lat="47.32816" lon="-2.38224">
        <ele>29</ele>
        <time>2019-08-11T09:02:49.000Z</time>
      </trkpt>
      <trkpt lat="47.32808" lon="-2.38251">
        <ele>29.60000038147</ele>
        <time>2019-08-11T09:02:55.000Z</time>
      </trkpt>
      <trkpt lat="47.32806" lon="-2.38256">
        <ele>30</ele>
        <time>2019-08-11T09:02:56.000Z</time>
      </trkpt>
      <trkpt lat="47.32805" lon="-2.38261">
        <ele>30.39999961853</ele>
        <time>2019-08-11T09:02:57.000Z</time>
      </trkpt>
      <trkpt lat="47.32805" lon="-2.38267">
        <ele>30.799999237061</ele>
        <time>2019-08-11T09:02:58.000Z</time>
      </trkpt>
      <trkpt lat="47.32804" lon="-2.38273">
        <ele>31.200000762939</ele>
        <time>2019-08-11T09:02:59.000Z</time>
      </trkpt>
      <trkpt lat="47.32804" lon="-2.38279">
        <ele>31.200000762939</ele>
        <time>2019-08-11T09:03:00.000Z</time>
      </trkpt>
      <trkpt lat="47.32802" lon="-2.38291">
        <ele>31.200000762939</ele>
        <time>2019-08-11T09:03:02.000Z</time>
      </trkpt>
      <trkpt lat="47.32798" lon="-2.38303">
        <ele>31.60000038147</ele>
        <time>2019-08-11T09:03:04.000Z</time>
      </trkpt>
      <trkpt lat="47.32797" lon="-2.38308">
        <ele>32</ele>
        <time>2019-08-11T09:03:05.000Z</time>
      </trkpt>
      <trkpt lat="47.32795" lon="-2.38313">
        <ele>32.400001525879</ele>
        <time>2019-08-11T09:03:06.000Z</time>
      </trkpt>
      <trkpt lat="47.32794" lon="-2.38318">
        <ele>33</ele>
        <time>2019-08-11T09:03:07.000Z</time>
      </trkpt>
      <trkpt lat="47.32792" lon="-2.38323">
        <ele>33.400001525879</ele>
        <time>2019-08-11T09:03:08.000Z</time>
      </trkpt>
      <trkpt lat="47.32791" lon="-2.38329">
        <ele>33.400001525879</ele>
        <time>2019-08-11T09:03:09.000Z</time>
      </trkpt>
      <trkpt lat="47.3279" lon="-2.38343">
        <ele>33.400001525879</ele>
        <time>2019-08-11T09:03:11.000Z</time>
      </trkpt>
      <trkpt lat="47.32788" lon="-2.38355">
        <ele>33.799999237061</ele>
        <time>2019-08-11T09:03:13.000Z</time>
      </trkpt>
      <trkpt lat="47.32788" lon="-2.38362">
        <ele>34.200000762939</ele>
        <time>2019-08-11T09:03:14.000Z</time>
      </trkpt>
      <trkpt lat="47.32787" lon="-2.38368">
        <ele>35.200000762939</ele>
        <time>2019-08-11T09:03:15.000Z</time>
      </trkpt>
      <trkpt lat="47.32787" lon="-2.38373">
        <ele>35.599998474121</ele>
        <time>2019-08-11T09:03:16.000Z</time>
      </trkpt>
      <trkpt lat="47.32786" lon="-2.38384">
        <ele>35.599998474121</ele>
        <time>2019-08-11T09:03:18.000Z</time>
      </trkpt>
      <trkpt lat="47.32784" lon="-2.38388">
        <ele>35.599998474121</ele>
        <time>2019-08-11T09:03:19.000Z</time>
      </trkpt>
      <trkpt lat="47.32778" lon="-2.38393">
        <ele>36</ele>
        <time>2019-08-11T09:03:21.000Z</time>
      </trkpt>
      <trkpt lat="47.32775" lon="-2.38394">
        <ele>36.400001525879</ele>
        <time>2019-08-11T09:03:22.000Z</time>
      </trkpt>
      <trkpt lat="47.32771" lon="-2.38395">
        <ele>36.799999237061</ele>
        <time>2019-08-11T09:03:23.000Z</time>
      </trkpt>
      <trkpt lat="47.32767" lon="-2.38395">
        <ele>37.200000762939</ele>
        <time>2019-08-11T09:03:24.000Z</time>
      </trkpt>
      <trkpt lat="47.32763" lon="-2.38395">
        <ele>37.599998474121</ele>
        <time>2019-08-11T09:03:25.000Z</time>
      </trkpt>
      <trkpt lat="47.32759" lon="-2.38396">
        <ele>37.599998474121</ele>
        <time>2019-08-11T09:03:26.000Z</time>
      </trkpt>
      <trkpt lat="47.32747" lon="-2.384">
        <ele>37.599998474121</ele>
        <time>2019-08-11T09:03:29.000Z</time>
      </trkpt>
      <trkpt lat="47.32728" lon="-2.38404">
        <ele>37.599998474121</ele>
        <time>2019-08-11T09:03:33.000Z</time>
      </trkpt>
      <trkpt lat="47.32704" lon="-2.38405">
        <ele>37.599998474121</ele>
        <time>2019-08-11T09:03:37.000Z</time>
      </trkpt>
      <trkpt lat="47.32685" lon="-2.38393">
        <ele>36.799999237061</ele>
        <time>2019-08-11T09:03:40.000Z</time>
      </trkpt>
      <trkpt lat="47.3268" lon="-2.38386">
        <ele>36.400001525879</ele>
        <time>2019-08-11T09:03:41.000Z</time>
      </trkpt>
      <trkpt lat="47.32674" lon="-2.38377">
        <ele>36</ele>
        <time>2019-08-11T09:03:42.000Z</time>
      </trkpt>
      <trkpt lat="47.32668" lon="-2.38368">
        <ele>35.599998474121</ele>
        <time>2019-08-11T09:03:43.000Z</time>
      </trkpt>
      <trkpt lat="47.3265" lon="-2.38343">
        <ele>35</ele>
        <time>2019-08-11T09:03:46.000Z</time>
      </trkpt>
      <trkpt lat="47.32644" lon="-2.38335">
        <ele>34.599998474121</ele>
        <time>2019-08-11T09:03:47.000Z</time>
      </trkpt>
      <trkpt lat="47.32637" lon="-2.38327">
        <ele>34.200000762939</ele>
        <time>2019-08-11T09:03:48.000Z</time>
      </trkpt>
      <trkpt lat="47.32631" lon="-2.38318">
        <ele>33.799999237061</ele>
        <time>2019-08-11T09:03:49.000Z</time>
      </trkpt>
      <trkpt lat="47.32625" lon="-2.3831">
        <ele>33.200000762939</ele>
        <time>2019-08-11T09:03:50.000Z</time>
      </trkpt>
      <trkpt lat="47.32618" lon="-2.38303">
        <ele>33.200000762939</ele>
        <time>2019-08-11T09:03:51.000Z</time>
      </trkpt>
      <trkpt lat="47.3261" lon="-2.38298">
        <ele>33.200000762939</ele>
        <time>2019-08-11T09:03:52.000Z</time>
      </trkpt>
      <trkpt lat="47.32602" lon="-2.38296">
        <ele>32.799999237061</ele>
        <time>2019-08-11T09:03:53.000Z</time>
      </trkpt>
      <trkpt lat="47.32594" lon="-2.38296">
        <ele>32.400001525879</ele>
        <time>2019-08-11T09:03:54.000Z</time>
      </trkpt>
      <trkpt lat="47.32586" lon="-2.38297">
        <ele>32</ele>
        <time>2019-08-11T09:03:55.000Z</time>
      </trkpt>
      <trkpt lat="47.32578" lon="-2.38299">
        <ele>31.39999961853</ele>
        <time>2019-08-11T09:03:56.000Z</time>
      </trkpt>
      <trkpt lat="47.32571" lon="-2.38302">
        <ele>31</ele>
        <time>2019-08-11T09:03:57.000Z</time>
      </trkpt>
      <trkpt lat="47.32551" lon="-2.38308">
        <ele>30.60000038147</ele>
        <time>2019-08-11T09:04:00.000Z</time>
      </trkpt>
      <trkpt lat="47.32545" lon="-2.3831">
        <ele>30.200000762939</ele>
        <time>2019-08-11T09:04:01.000Z</time>
      </trkpt>
      <trkpt lat="47.32541" lon="-2.38312">
        <ele>29.60000038147</ele>
        <time>2019-08-11T09:04:02.000Z</time>
      </trkpt>
      <trkpt lat="47.32537" lon="-2.38313">
        <ele>29.200000762939</ele>
        <time>2019-08-11T09:04:03.000Z</time>
      </trkpt>
      <trkpt lat="47.32534" lon="-2.38314">
        <ele>28.799999237061</ele>
        <time>2019-08-11T09:04:04.000Z</time>
      </trkpt>
      <trkpt lat="47.32528" lon="-2.38319">
        <ele>28.799999237061</ele>
        <time>2019-08-11T09:04:08.000Z</time>
      </trkpt>
      <trkpt lat="47.32528" lon="-2.38321">
        <ele>28.799999237061</ele>
        <time>2019-08-11T09:04:09.000Z</time>
      </trkpt>
      <trkpt lat="47.32529" lon="-2.38332">
        <ele>28.799999237061</ele>
        <time>2019-08-11T09:04:12.000Z</time>
      </trkpt>
      <trkpt lat="47.32531" lon="-2.38351">
        <ele>29.200000762939</ele>
        <time>2019-08-11T09:04:16.000Z</time>
      </trkpt>
      <trkpt lat="47.32531" lon="-2.38356">
        <ele>29.60000038147</ele>
        <time>2019-08-11T09:04:17.000Z</time>
      </trkpt>
      <trkpt lat="47.32531" lon="-2.38361">
        <ele>30</ele>
        <time>2019-08-11T09:04:18.000Z</time>
      </trkpt>
      <trkpt lat="47.32531" lon="-2.38366">
        <ele>30.39999961853</ele>
        <time>2019-08-11T09:04:19.000Z</time>
      </trkpt>
      <trkpt lat="47.32531" lon="-2.38371">
        <ele>30.799999237061</ele>
        <time>2019-08-11T09:04:20.000Z</time>
      </trkpt>
      <trkpt lat="47.32526" lon="-2.38383">
        <ele>30.799999237061</ele>
        <time>2019-08-11T09:04:23.000Z</time>
      </trkpt>
      <trkpt lat="47.32512" lon="-2.38385">
        <ele>30.799999237061</ele>
        <time>2019-08-11T09:04:26.000Z</time>
      </trkpt>
      <trkpt lat="47.32507" lon="-2.38384">
        <ele>30.799999237061</ele>
        <time>2019-08-11T09:04:27.000Z</time>
      </trkpt>
      <trkpt lat="47.32497" lon="-2.38381">
        <ele>30.799999237061</ele>
        <time>2019-08-11T09:04:29.000Z</time>
      </trkpt>
      <trkpt lat="47.32487" lon="-2.38377">
        <ele>30.799999237061</ele>
        <time>2019-08-11T09:04:31.000Z</time>
      </trkpt>
      <trkpt lat="47.32468" lon="-2.38369">
        <ele>30.799999237061</ele>
        <time>2019-08-11T09:04:35.000Z</time>
      </trkpt>
      <trkpt lat="47.32464" lon="-2.38368">
        <ele>30.799999237061</ele>
        <time>2019-08-11T09:04:36.000Z</time>
      </trkpt>
      <trkpt lat="47.32435" lon="-2.38356">
        <ele>30.799999237061</ele>
        <time>2019-08-11T09:04:42.000Z</time>
      </trkpt>
      <trkpt lat="47.32426" lon="-2.38352">
        <ele>31.200000762939</ele>
        <time>2019-08-11T09:04:44.000Z</time>
      </trkpt>
      <trkpt lat="47.32422" lon="-2.3835">
        <ele>31.60000038147</ele>
        <time>2019-08-11T09:04:45.000Z</time>
      </trkpt>
      <trkpt lat="47.32419" lon="-2.38348">
        <ele>32</ele>
        <time>2019-08-11T09:04:46.000Z</time>
      </trkpt>
      <trkpt lat="47.32415" lon="-2.38347">
        <ele>32.400001525879</ele>
        <time>2019-08-11T09:04:47.000Z</time>
      </trkpt>
      <trkpt lat="47.3241" lon="-2.38345">
        <ele>33</ele>
        <time>2019-08-11T09:04:48.000Z</time>
      </trkpt>
      <trkpt lat="47.32398" lon="-2.38339">
        <ele>33</ele>
        <time>2019-08-11T09:04:51.000Z</time>
      </trkpt>
      <trkpt lat="47.32389" lon="-2.38335">
        <ele>33</ele>
        <time>2019-08-11T09:04:53.000Z</time>
      </trkpt>
      <trkpt lat="47.32384" lon="-2.38334">
        <ele>33</ele>
        <time>2019-08-11T09:04:54.000Z</time>
      </trkpt>
      <trkpt lat="47.3236" lon="-2.38323">
        <ele>33</ele>
        <time>2019-08-11T09:04:59.000Z</time>
      </trkpt>
      <trkpt lat="47.32355" lon="-2.38321">
        <ele>32.400001525879</ele>
        <time>2019-08-11T09:05:00.000Z</time>
      </trkpt>
      <trkpt lat="47.32349" lon="-2.38318">
        <ele>32</ele>
        <time>2019-08-11T09:05:01.000Z</time>
      </trkpt>
      <trkpt lat="47.32343" lon="-2.38316">
        <ele>31.60000038147</ele>
        <time>2019-08-11T09:05:02.000Z</time>
      </trkpt>
      <trkpt lat="47.32337" lon="-2.38313">
        <ele>31.200000762939</ele>
        <time>2019-08-11T09:05:03.000Z</time>
      </trkpt>
      <trkpt lat="47.32331" lon="-2.3831">
        <ele>30.60000038147</ele>
        <time>2019-08-11T09:05:04.000Z</time>
      </trkpt>
      <trkpt lat="47.32294" lon="-2.38294">
        <ele>30.60000038147</ele>
        <time>2019-08-11T09:05:10.000Z</time>
      </trkpt>
      <trkpt lat="47.32281" lon="-2.38292">
        <ele>30.60000038147</ele>
        <time>2019-08-11T09:05:12.000Z</time>
      </trkpt>
      <trkpt lat="47.32268" lon="-2.38292">
        <ele>30.60000038147</ele>
        <time>2019-08-11T09:05:14.000Z</time>
      </trkpt>
      <trkpt lat="47.32262" lon="-2.38293">
        <ele>30.200000762939</ele>
        <time>2019-08-11T09:05:15.000Z</time>
      </trkpt>
      <trkpt lat="47.32255" lon="-2.38294">
        <ele>29.799999237061</ele>
        <time>2019-08-11T09:05:16.000Z</time>
      </trkpt>
      <trkpt lat="47.32249" lon="-2.38295">
        <ele>29.39999961853</ele>
        <time>2019-08-11T09:05:17.000Z</time>
      </trkpt>
      <trkpt lat="47.32242" lon="-2.38297">
        <ele>29</ele>
        <time>2019-08-11T09:05:18.000Z</time>
      </trkpt>
      <trkpt lat="47.32236" lon="-2.38298">
        <ele>28.60000038147</ele>
        <time>2019-08-11T09:05:19.000Z</time>
      </trkpt>
      <trkpt lat="47.32229" lon="-2.38298">
        <ele>28.60000038147</ele>
        <time>2019-08-11T09:05:20.000Z</time>
      </trkpt>
      <trkpt lat="47.32212" lon="-2.38304">
        <ele>28.60000038147</ele>
        <time>2019-08-11T09:05:23.000Z</time>
      </trkpt>
      <trkpt lat="47.32207" lon="-2.38309">
        <ele>28.60000038147</ele>
        <time>2019-08-11T09:05:24.000Z</time>
      </trkpt>
      <trkpt lat="47.32191" lon="-2.38331">
        <ele>28.60000038147</ele>
        <time>2019-08-11T09:05:28.000Z</time>
      </trkpt>
      <trkpt lat="47.32175" lon="-2.38354">
        <ele>28.60000038147</ele>
        <time>2019-08-11T09:05:33.000Z</time>
      </trkpt>
      <trkpt lat="47.32164" lon="-2.38369">
        <ele>28.60000038147</ele>
        <time>2019-08-11T09:05:37.000Z</time>
      </trkpt>
      <trkpt lat="47.32161" lon="-2.38374">
        <ele>28.60000038147</ele>
        <time>2019-08-11T09:05:38.000Z</time>
      </trkpt>
      <trkpt lat="47.3215" lon="-2.38389">
        <ele>28.60000038147</ele>
        <time>2019-08-11T09:05:41.000Z</time>
      </trkpt>
      <trkpt lat="47.32143" lon="-2.38395">
        <ele>28.60000038147</ele>
        <time>2019-08-11T09:05:43.000Z</time>
      </trkpt>
      <trkpt lat="47.32133" lon="-2.38407">
        <ele>28.60000038147</ele>
        <time>2019-08-11T09:05:48.000Z</time>
      </trkpt>
      <trkpt lat="47.32116" lon="-2.3842">
        <ele>28.60000038147</ele>
        <time>2019-08-11T09:05:53.000Z</time>
      </trkpt>
      <trkpt lat="47.32095" lon="-2.38433">
        <ele>28.60000038147</ele>
        <time>2019-08-11T09:05:59.000Z</time>
      </trkpt>
      <trkpt lat="47.32072" lon="-2.38443">
        <ele>28.60000038147</ele>
        <time>2019-08-11T09:06:05.000Z</time>
      </trkpt>
      <trkpt lat="47.32068" lon="-2.38445">
        <ele>29</ele>
        <time>2019-08-11T09:06:06.000Z</time>
      </trkpt>
      <trkpt lat="47.32064" lon="-2.38447">
        <ele>29.39999961853</ele>
        <time>2019-08-11T09:06:07.000Z</time>
      </trkpt>
      <trkpt lat="47.32061" lon="-2.38448">
        <ele>30</ele>
        <time>2019-08-11T09:06:08.000Z</time>
      </trkpt>
      <trkpt lat="47.32057" lon="-2.3845">
        <ele>30.39999961853</ele>
        <time>2019-08-11T09:06:09.000Z</time>
      </trkpt>
      <trkpt lat="47.32053" lon="-2.38451">
        <ele>30.799999237061</ele>
        <time>2019-08-11T09:06:10.000Z</time>
      </trkpt>
      <trkpt lat="47.32025" lon="-2.38461">
        <ele>30.799999237061</ele>
        <time>2019-08-11T09:06:16.000Z</time>
      </trkpt>
      <trkpt lat="47.31999" lon="-2.38471">
        <ele>30.799999237061</ele>
        <time>2019-08-11T09:06:22.000Z</time>
      </trkpt>
      <trkpt lat="47.31989" lon="-2.38474">
        <ele>31.200000762939</ele>
        <time>2019-08-11T09:06:24.000Z</time>
      </trkpt>
      <trkpt lat="47.31985" lon="-2.38476">
        <ele>31.60000038147</ele>
        <time>2019-08-11T09:06:25.000Z</time>
      </trkpt>
      <trkpt lat="47.31981" lon="-2.38477">
        <ele>32</ele>
        <time>2019-08-11T09:06:26.000Z</time>
      </trkpt>
      <trkpt lat="47.31977" lon="-2.38479">
        <ele>32.400001525879</ele>
        <time>2019-08-11T09:06:27.000Z</time>
      </trkpt>
      <trkpt lat="47.31973" lon="-2.3848">
        <ele>32.799999237061</ele>
        <time>2019-08-11T09:06:28.000Z</time>
      </trkpt>
      <trkpt lat="47.31965" lon="-2.38482">
        <ele>32.799999237061</ele>
        <time>2019-08-11T09:06:30.000Z</time>
      </trkpt>
      <trkpt lat="47.31938" lon="-2.38489">
        <ele>32.799999237061</ele>
        <time>2019-08-11T09:06:36.000Z</time>
      </trkpt>
      <trkpt lat="47.31928" lon="-2.38491">
        <ele>33.200000762939</ele>
        <time>2019-08-11T09:06:38.000Z</time>
      </trkpt>
      <trkpt lat="47.31923" lon="-2.38493">
        <ele>33.599998474121</ele>
        <time>2019-08-11T09:06:39.000Z</time>
      </trkpt>
      <trkpt lat="47.31919" lon="-2.38495">
        <ele>34.200000762939</ele>
        <time>2019-08-11T09:06:40.000Z</time>
      </trkpt>
      <trkpt lat="47.31915" lon="-2.38497">
        <ele>34.599998474121</ele>
        <time>2019-08-11T09:06:41.000Z</time>
      </trkpt>
      <trkpt lat="47.31911" lon="-2.385">
        <ele>35</ele>
        <time>2019-08-11T09:06:42.000Z</time>
      </trkpt>
      <trkpt lat="47.31907" lon="-2.38502">
        <ele>35</ele>
        <time>2019-08-11T09:06:43.000Z</time>
      </trkpt>
      <trkpt lat="47.31884" lon="-2.38514">
        <ele>35</ele>
        <time>2019-08-11T09:06:49.000Z</time>
      </trkpt>
      <trkpt lat="47.31869" lon="-2.3852">
        <ele>35.400001525879</ele>
        <time>2019-08-11T09:06:53.000Z</time>
      </trkpt>
      <trkpt lat="47.31866" lon="-2.38522">
        <ele>35.799999237061</ele>
        <time>2019-08-11T09:06:54.000Z</time>
      </trkpt>
      <trkpt lat="47.31862" lon="-2.38523">
        <ele>36.200000762939</ele>
        <time>2019-08-11T09:06:55.000Z</time>
      </trkpt>
      <trkpt lat="47.31859" lon="-2.38525">
        <ele>36.599998474121</ele>
        <time>2019-08-11T09:06:56.000Z</time>
      </trkpt>
      <trkpt lat="47.31856" lon="-2.38526">
        <ele>37</ele>
        <time>2019-08-11T09:06:57.000Z</time>
      </trkpt>
      <trkpt lat="47.31837" lon="-2.38533">
        <ele>37</ele>
        <time>2019-08-11T09:07:03.000Z</time>
      </trkpt>
      <trkpt lat="47.31834" lon="-2.38534">
        <ele>37.400001525879</ele>
        <time>2019-08-11T09:07:04.000Z</time>
      </trkpt>
      <trkpt lat="47.31831" lon="-2.38534">
        <ele>37.799999237061</ele>
        <time>2019-08-11T09:07:05.000Z</time>
      </trkpt>
      <trkpt lat="47.31828" lon="-2.38535">
        <ele>38.400001525879</ele>
        <time>2019-08-11T09:07:06.000Z</time>
      </trkpt>
      <trkpt lat="47.31825" lon="-2.38536">
        <ele>38.799999237061</ele>
        <time>2019-08-11T09:07:07.000Z</time>
      </trkpt>
      <trkpt lat="47.31822" lon="-2.38537">
        <ele>39.200000762939</ele>
        <time>2019-08-11T09:07:08.000Z</time>
      </trkpt>
      <trkpt lat="47.3182" lon="-2.38538">
        <ele>39.200000762939</ele>
        <time>2019-08-11T09:07:09.000Z</time>
      </trkpt>
      <trkpt lat="47.31813" lon="-2.38544">
        <ele>39.200000762939</ele>
        <time>2019-08-11T09:07:14.000Z</time>
      </trkpt>
      <trkpt lat="47.31812" lon="-2.38545">
        <ele>39.200000762939</ele>
        <time>2019-08-11T09:07:16.000Z</time>
      </trkpt>
      <trkpt lat="47.31812" lon="-2.38549">
        <ele>39.200000762939</ele>
        <time>2019-08-11T09:07:34.000Z</time>
      </trkpt>
      <trkpt lat="47.31811" lon="-2.38551">
        <ele>39.200000762939</ele>
        <time>2019-08-11T09:07:35.000Z</time>
      </trkpt>
      <trkpt lat="47.31812" lon="-2.38564">
        <ele>39.200000762939</ele>
        <time>2019-08-11T09:07:39.000Z</time>
      </trkpt>
      <trkpt lat="47.31813" lon="-2.38593">
        <ele>39.200000762939</ele>
        <time>2019-08-11T09:07:45.000Z</time>
      </trkpt>
      <trkpt lat="47.31815" lon="-2.38625">
        <ele>39.200000762939</ele>
        <time>2019-08-11T09:07:51.000Z</time>
      </trkpt>
      <trkpt lat="47.31819" lon="-2.38675">
        <ele>39.200000762939</ele>
        <time>2019-08-11T09:07:59.000Z</time>
      </trkpt>
      <trkpt lat="47.31821" lon="-2.3872">
        <ele>39.200000762939</ele>
        <time>2019-08-11T09:08:05.000Z</time>
      </trkpt>
      <trkpt lat="47.31822" lon="-2.38781">
        <ele>39.200000762939</ele>
        <time>2019-08-11T09:08:13.000Z</time>
      </trkpt>
      <trkpt lat="47.31822" lon="-2.38806">
        <ele>39.200000762939</ele>
        <time>2019-08-11T09:08:16.000Z</time>
      </trkpt>
      <trkpt lat="47.31826" lon="-2.38831">
        <ele>39.200000762939</ele>
        <time>2019-08-11T09:08:19.000Z</time>
      </trkpt>
      <trkpt lat="47.31835" lon="-2.38874">
        <ele>39.200000762939</ele>
        <time>2019-08-11T09:08:25.000Z</time>
      </trkpt>
      <trkpt lat="47.3185" lon="-2.38933">
        <ele>39.200000762939</ele>
        <time>2019-08-11T09:08:33.000Z</time>
      </trkpt>
      <trkpt lat="47.31868" lon="-2.38987">
        <ele>39.200000762939</ele>
        <time>2019-08-11T09:08:40.000Z</time>
      </trkpt>
      <trkpt lat="47.31885" lon="-2.39038">
        <ele>39.200000762939</ele>
        <time>2019-08-11T09:08:47.000Z</time>
      </trkpt>
      <trkpt lat="47.31901" lon="-2.39092">
        <ele>39.200000762939</ele>
        <time>2019-08-11T09:08:54.000Z</time>
      </trkpt>
      <trkpt lat="47.31903" lon="-2.39099">
        <ele>39.200000762939</ele>
        <time>2019-08-11T09:08:55.000Z</time>
      </trkpt>
      <trkpt lat="47.31914" lon="-2.39133">
        <ele>39.200000762939</ele>
        <time>2019-08-11T09:09:00.000Z</time>
      </trkpt>
      <trkpt lat="47.31932" lon="-2.39188">
        <ele>39.200000762939</ele>
        <time>2019-08-11T09:09:08.000Z</time>
      </trkpt>
      <trkpt lat="47.31939" lon="-2.39214">
        <ele>39.200000762939</ele>
        <time>2019-08-11T09:09:12.000Z</time>
      </trkpt>
      <trkpt lat="47.31942" lon="-2.39227">
        <ele>39.200000762939</ele>
        <time>2019-08-11T09:09:14.000Z</time>
      </trkpt>
      <trkpt lat="47.31956" lon="-2.39282">
        <ele>39.200000762939</ele>
        <time>2019-08-11T09:09:22.000Z</time>
      </trkpt>
      <trkpt lat="47.31958" lon="-2.39288">
        <ele>39.599998474121</ele>
        <time>2019-08-11T09:09:23.000Z</time>
      </trkpt>
      <trkpt lat="47.31959" lon="-2.39295">
        <ele>40</ele>
        <time>2019-08-11T09:09:24.000Z</time>
      </trkpt>
      <trkpt lat="47.31962" lon="-2.39302">
        <ele>40.400001525879</ele>
        <time>2019-08-11T09:09:25.000Z</time>
      </trkpt>
      <trkpt lat="47.31964" lon="-2.39309">
        <ele>40.799999237061</ele>
        <time>2019-08-11T09:09:26.000Z</time>
      </trkpt>
      <trkpt lat="47.31966" lon="-2.39315">
        <ele>41.200000762939</ele>
        <time>2019-08-11T09:09:27.000Z</time>
      </trkpt>
      <trkpt lat="47.3198" lon="-2.39362">
        <ele>41.200000762939</ele>
        <time>2019-08-11T09:09:34.000Z</time>
      </trkpt>
      <trkpt lat="47.31991" lon="-2.39412">
        <ele>41.200000762939</ele>
        <time>2019-08-11T09:09:41.000Z</time>
      </trkpt>
      <trkpt lat="47.31994" lon="-2.39432">
        <ele>41.200000762939</ele>
        <time>2019-08-11T09:09:44.000Z</time>
      </trkpt>
      <trkpt lat="47.31998" lon="-2.39445">
        <ele>41.200000762939</ele>
        <time>2019-08-11T09:09:46.000Z</time>
      </trkpt>
      <trkpt lat="47.32009" lon="-2.39481">
        <ele>41.599998474121</ele>
        <time>2019-08-11T09:09:52.000Z</time>
      </trkpt>
      <trkpt lat="47.3201" lon="-2.39488">
        <ele>42</ele>
        <time>2019-08-11T09:09:53.000Z</time>
      </trkpt>
      <trkpt lat="47.32012" lon="-2.39494">
        <ele>42.400001525879</ele>
        <time>2019-08-11T09:09:54.000Z</time>
      </trkpt>
      <trkpt lat="47.32013" lon="-2.395">
        <ele>42.799999237061</ele>
        <time>2019-08-11T09:09:55.000Z</time>
      </trkpt>
      <trkpt lat="47.32015" lon="-2.39506">
        <ele>43.200000762939</ele>
        <time>2019-08-11T09:09:56.000Z</time>
      </trkpt>
      <trkpt lat="47.32017" lon="-2.39512">
        <ele>43.200000762939</ele>
        <time>2019-08-11T09:09:57.000Z</time>
      </trkpt>
      <trkpt lat="47.32029" lon="-2.39562">
        <ele>43.200000762939</ele>
        <time>2019-08-11T09:10:04.000Z</time>
      </trkpt>
      <trkpt lat="47.32044" lon="-2.39617">
        <ele>43.200000762939</ele>
        <time>2019-08-11T09:10:12.000Z</time>
      </trkpt>
      <trkpt lat="47.32045" lon="-2.39624">
        <ele>43.599998474121</ele>
        <time>2019-08-11T09:10:13.000Z</time>
      </trkpt>
      <trkpt lat="47.32046" lon="-2.39631">
        <ele>44</ele>
        <time>2019-08-11T09:10:14.000Z</time>
      </trkpt>
      <trkpt lat="47.32047" lon="-2.39639">
        <ele>44.400001525879</ele>
        <time>2019-08-11T09:10:15.000Z</time>
      </trkpt>
      <trkpt lat="47.32047" lon="-2.39645">
        <ele>45.400001525879</ele>
        <time>2019-08-11T09:10:16.000Z</time>
      </trkpt>
      <trkpt lat="47.32047" lon="-2.39658">
        <ele>45.400001525879</ele>
        <time>2019-08-11T09:10:18.000Z</time>
      </trkpt>
      <trkpt lat="47.32052" lon="-2.39685">
        <ele>45.400001525879</ele>
        <time>2019-08-11T09:10:22.000Z</time>
      </trkpt>
      <trkpt lat="47.32056" lon="-2.39697">
        <ele>45.400001525879</ele>
        <time>2019-08-11T09:10:24.000Z</time>
      </trkpt>
      <trkpt lat="47.32065" lon="-2.39722">
        <ele>45.400001525879</ele>
        <time>2019-08-11T09:10:28.000Z</time>
      </trkpt>
      <trkpt lat="47.32074" lon="-2.3975">
        <ele>45.400001525879</ele>
        <time>2019-08-11T09:10:33.000Z</time>
      </trkpt>
      <trkpt lat="47.32085" lon="-2.39785">
        <ele>45.400001525879</ele>
        <time>2019-08-11T09:10:40.000Z</time>
      </trkpt>
      <trkpt lat="47.32089" lon="-2.39801">
        <ele>45.400001525879</ele>
        <time>2019-08-11T09:10:45.000Z</time>
      </trkpt>
      <trkpt lat="47.32089" lon="-2.39806">
        <ele>45.400001525879</ele>
        <time>2019-08-11T09:10:46.000Z</time>
      </trkpt>
      <trkpt lat="47.32083" lon="-2.39813">
        <ele>45.799999237061</ele>
        <time>2019-08-11T09:10:48.000Z</time>
      </trkpt>
      <trkpt lat="47.3208" lon="-2.39816">
        <ele>46.200000762939</ele>
        <time>2019-08-11T09:10:49.000Z</time>
      </trkpt>
      <trkpt lat="47.32076" lon="-2.39819">
        <ele>46.599998474121</ele>
        <time>2019-08-11T09:10:50.000Z</time>
      </trkpt>
      <trkpt lat="47.32073" lon="-2.39822">
        <ele>47</ele>
        <time>2019-08-11T09:10:51.000Z</time>
      </trkpt>
      <trkpt lat="47.32069" lon="-2.39826">
        <ele>47.400001525879</ele>
        <time>2019-08-11T09:10:52.000Z</time>
      </trkpt>
      <trkpt lat="47.32066" lon="-2.39829">
        <ele>47.400001525879</ele>
        <time>2019-08-11T09:10:53.000Z</time>
      </trkpt>
      <trkpt lat="47.32062" lon="-2.39834">
        <ele>47.400001525879</ele>
        <time>2019-08-11T09:10:54.000Z</time>
      </trkpt>
      <trkpt lat="47.32036" lon="-2.39861">
        <ele>47.400001525879</ele>
        <time>2019-08-11T09:11:00.000Z</time>
      </trkpt>
      <trkpt lat="47.32003" lon="-2.39892">
        <ele>47.400001525879</ele>
        <time>2019-08-11T09:11:06.000Z</time>
      </trkpt>
      <trkpt lat="47.31971" lon="-2.39923">
        <ele>47.400001525879</ele>
        <time>2019-08-11T09:11:12.000Z</time>
      </trkpt>
      <trkpt lat="47.31967" lon="-2.39928">
        <ele>47</ele>
        <time>2019-08-11T09:11:13.000Z</time>
      </trkpt>
      <trkpt lat="47.31961" lon="-2.39933">
        <ele>46.400001525879</ele>
        <time>2019-08-11T09:11:14.000Z</time>
      </trkpt>
      <trkpt lat="47.31955" lon="-2.39939">
        <ele>46</ele>
        <time>2019-08-11T09:11:15.000Z</time>
      </trkpt>
      <trkpt lat="47.31949" lon="-2.39944">
        <ele>45.599998474121</ele>
        <time>2019-08-11T09:11:16.000Z</time>
      </trkpt>
      <trkpt lat="47.31944" lon="-2.39949">
        <ele>45.200000762939</ele>
        <time>2019-08-11T09:11:17.000Z</time>
      </trkpt>
      <trkpt lat="47.31932" lon="-2.39963">
        <ele>45.200000762939</ele>
        <time>2019-08-11T09:11:19.000Z</time>
      </trkpt>
      <trkpt lat="47.31918" lon="-2.3998">
        <ele>45.200000762939</ele>
        <time>2019-08-11T09:11:21.000Z</time>
      </trkpt>
      <trkpt lat="47.31898" lon="-2.40006">
        <ele>44.799999237061</ele>
        <time>2019-08-11T09:11:24.000Z</time>
      </trkpt>
      <trkpt lat="47.31891" lon="-2.40014">
        <ele>44.400001525879</ele>
        <time>2019-08-11T09:11:25.000Z</time>
      </trkpt>
      <trkpt lat="47.31885" lon="-2.40023">
        <ele>44</ele>
        <time>2019-08-11T09:11:26.000Z</time>
      </trkpt>
      <trkpt lat="47.31879" lon="-2.40031">
        <ele>43.599998474121</ele>
        <time>2019-08-11T09:11:27.000Z</time>
      </trkpt>
      <trkpt lat="47.31873" lon="-2.4004">
        <ele>43</ele>
        <time>2019-08-11T09:11:28.000Z</time>
      </trkpt>
      <trkpt lat="47.31861" lon="-2.40055">
        <ele>43</ele>
        <time>2019-08-11T09:11:30.000Z</time>
      </trkpt>
      <trkpt lat="47.31851" lon="-2.4007">
        <ele>43</ele>
        <time>2019-08-11T09:11:32.000Z</time>
      </trkpt>
      <trkpt lat="47.31826" lon="-2.40104">
        <ele>43</ele>
        <time>2019-08-11T09:11:37.000Z</time>
      </trkpt>
      <trkpt lat="47.31801" lon="-2.40143">
        <ele>43</ele>
        <time>2019-08-11T09:11:43.000Z</time>
      </trkpt>
      <trkpt lat="47.3178" lon="-2.40175">
        <ele>43</ele>
        <time>2019-08-11T09:11:48.000Z</time>
      </trkpt>
      <trkpt lat="47.31753" lon="-2.40217">
        <ele>43</ele>
        <time>2019-08-11T09:11:55.000Z</time>
      </trkpt>
      <trkpt lat="47.31731" lon="-2.40254">
        <ele>43</ele>
        <time>2019-08-11T09:12:01.000Z</time>
      </trkpt>
      <trkpt lat="47.31708" lon="-2.40287">
        <ele>43</ele>
        <time>2019-08-11T09:12:07.000Z</time>
      </trkpt>
      <trkpt lat="47.31692" lon="-2.40313">
        <ele>43</ele>
        <time>2019-08-11T09:12:12.000Z</time>
      </trkpt>
      <trkpt lat="47.3169" lon="-2.40319">
        <ele>43</ele>
        <time>2019-08-11T09:12:13.000Z</time>
      </trkpt>
      <trkpt lat="47.31691" lon="-2.40339">
        <ele>43</ele>
        <time>2019-08-11T09:12:16.000Z</time>
      </trkpt>
      <trkpt lat="47.31698" lon="-2.40347">
        <ele>43</ele>
        <time>2019-08-11T09:12:18.000Z</time>
      </trkpt>
      <trkpt lat="47.31714" lon="-2.40359">
        <ele>43</ele>
        <time>2019-08-11T09:12:21.000Z</time>
      </trkpt>
      <trkpt lat="47.31743" lon="-2.40377">
        <ele>43</ele>
        <time>2019-08-11T09:12:26.000Z</time>
      </trkpt>
      <trkpt lat="47.31766" lon="-2.40391">
        <ele>43</ele>
        <time>2019-08-11T09:12:30.000Z</time>
      </trkpt>
      <trkpt lat="47.31771" lon="-2.40396">
        <ele>43</ele>
        <time>2019-08-11T09:12:31.000Z</time>
      </trkpt>
      <trkpt lat="47.31816" lon="-2.40431">
        <ele>43</ele>
        <time>2019-08-11T09:12:39.000Z</time>
      </trkpt>
      <trkpt lat="47.31848" lon="-2.40454">
        <ele>43</ele>
        <time>2019-08-11T09:12:45.000Z</time>
      </trkpt>
      <trkpt lat="47.31858" lon="-2.40462">
        <ele>43.400001525879</ele>
        <time>2019-08-11T09:12:47.000Z</time>
      </trkpt>
      <trkpt lat="47.31863" lon="-2.40467">
        <ele>43.799999237061</ele>
        <time>2019-08-11T09:12:48.000Z</time>
      </trkpt>
      <trkpt lat="47.31868" lon="-2.40471">
        <ele>44.200000762939</ele>
        <time>2019-08-11T09:12:49.000Z</time>
      </trkpt>
      <trkpt lat="47.31873" lon="-2.40475">
        <ele>44.599998474121</ele>
        <time>2019-08-11T09:12:50.000Z</time>
      </trkpt>
      <trkpt lat="47.31879" lon="-2.40478">
        <ele>45</ele>
        <time>2019-08-11T09:12:51.000Z</time>
      </trkpt>
      <trkpt lat="47.31889" lon="-2.40485">
        <ele>45</ele>
        <time>2019-08-11T09:12:53.000Z</time>
      </trkpt>
      <trkpt lat="47.3192" lon="-2.40511">
        <ele>45</ele>
        <time>2019-08-11T09:12:59.000Z</time>
      </trkpt>
      <trkpt lat="47.31949" lon="-2.40535">
        <ele>45</ele>
        <time>2019-08-11T09:13:05.000Z</time>
      </trkpt>
      <trkpt lat="47.3197" lon="-2.40552">
        <ele>45.599998474121</ele>
        <time>2019-08-11T09:13:09.000Z</time>
      </trkpt>
      <trkpt lat="47.31975" lon="-2.40557">
        <ele>46.400001525879</ele>
        <time>2019-08-11T09:13:10.000Z</time>
      </trkpt>
      <trkpt lat="47.3198" lon="-2.40561">
        <ele>46.799999237061</ele>
        <time>2019-08-11T09:13:11.000Z</time>
      </trkpt>
      <trkpt lat="47.31986" lon="-2.40566">
        <ele>47.200000762939</ele>
        <time>2019-08-11T09:13:12.000Z</time>
      </trkpt>
      <trkpt lat="47.32022" lon="-2.40595">
        <ele>47.200000762939</ele>
        <time>2019-08-11T09:13:18.000Z</time>
      </trkpt>
      <trkpt lat="47.32059" lon="-2.40629">
        <ele>47.200000762939</ele>
        <time>2019-08-11T09:13:25.000Z</time>
      </trkpt>
      <trkpt lat="47.3207" lon="-2.40639">
        <ele>47.599998474121</ele>
        <time>2019-08-11T09:13:27.000Z</time>
      </trkpt>
      <trkpt lat="47.32075" lon="-2.40644">
        <ele>48</ele>
        <time>2019-08-11T09:13:28.000Z</time>
      </trkpt>
      <trkpt lat="47.3208" lon="-2.4065">
        <ele>48.400001525879</ele>
        <time>2019-08-11T09:13:29.000Z</time>
      </trkpt>
      <trkpt lat="47.32085" lon="-2.40655">
        <ele>48.799999237061</ele>
        <time>2019-08-11T09:13:30.000Z</time>
      </trkpt>
      <trkpt lat="47.32091" lon="-2.40661">
        <ele>49.200000762939</ele>
        <time>2019-08-11T09:13:31.000Z</time>
      </trkpt>
      <trkpt lat="47.32095" lon="-2.40666">
        <ele>49.200000762939</ele>
        <time>2019-08-11T09:13:32.000Z</time>
      </trkpt>
      <trkpt lat="47.32126" lon="-2.40703">
        <ele>49.200000762939</ele>
        <time>2019-08-11T09:13:39.000Z</time>
      </trkpt>
      <trkpt lat="47.32167" lon="-2.40749">
        <ele>49.200000762939</ele>
        <time>2019-08-11T09:13:48.000Z</time>
      </trkpt>
      <trkpt lat="47.32185" lon="-2.40773">
        <ele>49.200000762939</ele>
        <time>2019-08-11T09:13:53.000Z</time>
      </trkpt>
      <trkpt lat="47.32197" lon="-2.4079">
        <ele>49.200000762939</ele>
        <time>2019-08-11T09:13:58.000Z</time>
      </trkpt>
      <trkpt lat="47.32207" lon="-2.40802">
        <ele>49.200000762939</ele>
        <time>2019-08-11T09:14:02.000Z</time>
      </trkpt>
      <trkpt lat="47.32221" lon="-2.40816">
        <ele>49.200000762939</ele>
        <time>2019-08-11T09:14:06.000Z</time>
      </trkpt>
      <trkpt lat="47.32236" lon="-2.40839">
        <ele>49.200000762939</ele>
        <time>2019-08-11T09:14:10.000Z</time>
      </trkpt>
      <trkpt lat="47.32265" lon="-2.40889">
        <ele>49.599998474121</ele>
        <time>2019-08-11T09:14:17.000Z</time>
      </trkpt>
      <trkpt lat="47.32269" lon="-2.40896">
        <ele>50</ele>
        <time>2019-08-11T09:14:18.000Z</time>
      </trkpt>
      <trkpt lat="47.32273" lon="-2.40902">
        <ele>50.599998474121</ele>
        <time>2019-08-11T09:14:19.000Z</time>
      </trkpt>
      <trkpt lat="47.32277" lon="-2.40909">
        <ele>51</ele>
        <time>2019-08-11T09:14:20.000Z</time>
      </trkpt>
      <trkpt lat="47.32282" lon="-2.40916">
        <ele>51.400001525879</ele>
        <time>2019-08-11T09:14:21.000Z</time>
      </trkpt>
      <trkpt lat="47.32298" lon="-2.40946">
        <ele>51.400001525879</ele>
        <time>2019-08-11T09:14:25.000Z</time>
      </trkpt>
      <trkpt lat="47.32333" lon="-2.41011">
        <ele>51.400001525879</ele>
        <time>2019-08-11T09:14:34.000Z</time>
      </trkpt>
      <trkpt lat="47.32344" lon="-2.41034">
        <ele>51.799999237061</ele>
        <time>2019-08-11T09:14:37.000Z</time>
      </trkpt>
      <trkpt lat="47.32348" lon="-2.41041">
        <ele>52.200000762939</ele>
        <time>2019-08-11T09:14:38.000Z</time>
      </trkpt>
      <trkpt lat="47.32351" lon="-2.41049">
        <ele>52.799999237061</ele>
        <time>2019-08-11T09:14:39.000Z</time>
      </trkpt>
      <trkpt lat="47.32355" lon="-2.41056">
        <ele>53.200000762939</ele>
        <time>2019-08-11T09:14:40.000Z</time>
      </trkpt>
      <trkpt lat="47.32358" lon="-2.41062">
        <ele>53.599998474121</ele>
        <time>2019-08-11T09:14:41.000Z</time>
      </trkpt>
      <trkpt lat="47.32365" lon="-2.41079">
        <ele>53.599998474121</ele>
        <time>2019-08-11T09:14:45.000Z</time>
      </trkpt>
      <trkpt lat="47.32371" lon="-2.41096">
        <ele>53.599998474121</ele>
        <time>2019-08-11T09:14:48.000Z</time>
      </trkpt>
      <trkpt lat="47.32391" lon="-2.41132">
        <ele>53.599998474121</ele>
        <time>2019-08-11T09:14:55.000Z</time>
      </trkpt>
      <trkpt lat="47.324" lon="-2.41146">
        <ele>53.599998474121</ele>
        <time>2019-08-11T09:14:58.000Z</time>
      </trkpt>
      <trkpt lat="47.32408" lon="-2.4116">
        <ele>53.599998474121</ele>
        <time>2019-08-11T09:15:01.000Z</time>
      </trkpt>
      <trkpt lat="47.32409" lon="-2.41164">
        <ele>53.599998474121</ele>
        <time>2019-08-11T09:15:04.000Z</time>
      </trkpt>
      <trkpt lat="47.32419" lon="-2.41179">
        <ele>53.599998474121</ele>
        <time>2019-08-11T09:15:09.000Z</time>
      </trkpt>
      <trkpt lat="47.32428" lon="-2.41195">
        <ele>53.599998474121</ele>
        <time>2019-08-11T09:15:13.000Z</time>
      </trkpt>
      <trkpt lat="47.32443" lon="-2.41226">
        <ele>53.599998474121</ele>
        <time>2019-08-11T09:15:18.000Z</time>
      </trkpt>
      <trkpt lat="47.32468" lon="-2.41272">
        <ele>53.599998474121</ele>
        <time>2019-08-11T09:15:24.000Z</time>
      </trkpt>
      <trkpt lat="47.32499" lon="-2.41332">
        <ele>53.599998474121</ele>
        <time>2019-08-11T09:15:31.000Z</time>
      </trkpt>
      <trkpt lat="47.32532" lon="-2.41398">
        <ele>53.599998474121</ele>
        <time>2019-08-11T09:15:39.000Z</time>
      </trkpt>
      <trkpt lat="47.32556" lon="-2.41456">
        <ele>53.599998474121</ele>
        <time>2019-08-11T09:15:47.000Z</time>
      </trkpt>
      <trkpt lat="47.32563" lon="-2.41473">
        <ele>53.599998474121</ele>
        <time>2019-08-11T09:15:51.000Z</time>
      </trkpt>
      <trkpt lat="47.32568" lon="-2.41498">
        <ele>53.599998474121</ele>
        <time>2019-08-11T09:15:56.000Z</time>
      </trkpt>
      <trkpt lat="47.32575" lon="-2.41516">
        <ele>53.599998474121</ele>
        <time>2019-08-11T09:15:59.000Z</time>
      </trkpt>
      <trkpt lat="47.32579" lon="-2.4152">
        <ele>53.599998474121</ele>
        <time>2019-08-11T09:16:00.000Z</time>
      </trkpt>
      <trkpt lat="47.32598" lon="-2.41524">
        <ele>53.599998474121</ele>
        <time>2019-08-11T09:16:03.000Z</time>
      </trkpt>
      <trkpt lat="47.32642" lon="-2.4153">
        <ele>53.599998474121</ele>
        <time>2019-08-11T09:16:10.000Z</time>
      </trkpt>
      <trkpt lat="47.32649" lon="-2.41531">
        <ele>53.599998474121</ele>
        <time>2019-08-11T09:16:11.000Z</time>
      </trkpt>
      <trkpt lat="47.32654" lon="-2.41532">
        <ele>53.200000762939</ele>
        <time>2019-08-11T09:16:12.000Z</time>
      </trkpt>
      <trkpt lat="47.32661" lon="-2.41533">
        <ele>52.599998474121</ele>
        <time>2019-08-11T09:16:13.000Z</time>
      </trkpt>
      <trkpt lat="47.32667" lon="-2.41533">
        <ele>52.200000762939</ele>
        <time>2019-08-11T09:16:14.000Z</time>
      </trkpt>
      <trkpt lat="47.32673" lon="-2.41534">
        <ele>51.799999237061</ele>
        <time>2019-08-11T09:16:15.000Z</time>
      </trkpt>
      <trkpt lat="47.32679" lon="-2.41536">
        <ele>51.400001525879</ele>
        <time>2019-08-11T09:16:16.000Z</time>
      </trkpt>
      <trkpt lat="47.32691" lon="-2.41538">
        <ele>51.400001525879</ele>
        <time>2019-08-11T09:16:18.000Z</time>
      </trkpt>
      <trkpt lat="47.32695" lon="-2.4154">
        <ele>51.400001525879</ele>
        <time>2019-08-11T09:16:19.000Z</time>
      </trkpt>
      <trkpt lat="47.32699" lon="-2.41543">
        <ele>51</ele>
        <time>2019-08-11T09:16:20.000Z</time>
      </trkpt>
      <trkpt lat="47.32701" lon="-2.41546">
        <ele>50.400001525879</ele>
        <time>2019-08-11T09:16:21.000Z</time>
      </trkpt>
      <trkpt lat="47.32702" lon="-2.4155">
        <ele>50</ele>
        <time>2019-08-11T09:16:22.000Z</time>
      </trkpt>
      <trkpt lat="47.32702" lon="-2.41555">
        <ele>49.599998474121</ele>
        <time>2019-08-11T09:16:23.000Z</time>
      </trkpt>
      <trkpt lat="47.32702" lon="-2.41561">
        <ele>49</ele>
        <time>2019-08-11T09:16:24.000Z</time>
      </trkpt>
      <trkpt lat="47.32703" lon="-2.41577">
        <ele>49</ele>
        <time>2019-08-11T09:16:28.000Z</time>
      </trkpt>
      <trkpt lat="47.32704" lon="-2.41579">
        <ele>49</ele>
        <time>2019-08-11T09:16:29.000Z</time>
      </trkpt>
      <trkpt lat="47.32706" lon="-2.41595">
        <ele>49</ele>
        <time>2019-08-11T09:16:32.000Z</time>
      </trkpt>
      <trkpt lat="47.32717" lon="-2.41625">
        <ele>49</ele>
        <time>2019-08-11T09:16:36.000Z</time>
      </trkpt>
      <trkpt lat="47.32717" lon="-2.41654">
        <ele>49</ele>
        <time>2019-08-11T09:16:39.000Z</time>
      </trkpt>
      <trkpt lat="47.32717" lon="-2.41664">
        <ele>49</ele>
        <time>2019-08-11T09:16:40.000Z</time>
      </trkpt>
      <trkpt lat="47.32712" lon="-2.41721">
        <ele>49</ele>
        <time>2019-08-11T09:16:46.000Z</time>
      </trkpt>
      <trkpt lat="47.32709" lon="-2.41749">
        <ele>48.599998474121</ele>
        <time>2019-08-11T09:16:50.000Z</time>
      </trkpt>
      <trkpt lat="47.32709" lon="-2.41754">
        <ele>48.200000762939</ele>
        <time>2019-08-11T09:16:51.000Z</time>
      </trkpt>
      <trkpt lat="47.3271" lon="-2.4176">
        <ele>47.400001525879</ele>
        <time>2019-08-11T09:16:52.000Z</time>
      </trkpt>
      <trkpt lat="47.32712" lon="-2.41764">
        <ele>47</ele>
        <time>2019-08-11T09:16:53.000Z</time>
      </trkpt>
      <trkpt lat="47.32716" lon="-2.41769">
        <ele>47</ele>
        <time>2019-08-11T09:16:54.000Z</time>
      </trkpt>
      <trkpt lat="47.32724" lon="-2.41779">
        <ele>47</ele>
        <time>2019-08-11T09:16:56.000Z</time>
      </trkpt>
      <trkpt lat="47.32737" lon="-2.41803">
        <ele>47</ele>
        <time>2019-08-11T09:17:00.000Z</time>
      </trkpt>
      <trkpt lat="47.32758" lon="-2.41845">
        <ele>47</ele>
        <time>2019-08-11T09:17:07.000Z</time>
      </trkpt>
      <trkpt lat="47.32776" lon="-2.41894">
        <ele>47</ele>
        <time>2019-08-11T09:17:14.000Z</time>
      </trkpt>
      <trkpt lat="47.32786" lon="-2.41916">
        <ele>46.599998474121</ele>
        <time>2019-08-11T09:17:17.000Z</time>
      </trkpt>
      <trkpt lat="47.32789" lon="-2.41924">
        <ele>46.200000762939</ele>
        <time>2019-08-11T09:17:18.000Z</time>
      </trkpt>
      <trkpt lat="47.32793" lon="-2.41932">
        <ele>45.799999237061</ele>
        <time>2019-08-11T09:17:19.000Z</time>
      </trkpt>
      <trkpt lat="47.32798" lon="-2.4194">
        <ele>45.200000762939</ele>
        <time>2019-08-11T09:17:20.000Z</time>
      </trkpt>
      <trkpt lat="47.32801" lon="-2.41948">
        <ele>44.799999237061</ele>
        <time>2019-08-11T09:17:21.000Z</time>
      </trkpt>
      <trkpt lat="47.32805" lon="-2.41963">
        <ele>44.799999237061</ele>
        <time>2019-08-11T09:17:23.000Z</time>
      </trkpt>
      <trkpt lat="47.32806" lon="-2.41971">
        <ele>44.799999237061</ele>
        <time>2019-08-11T09:17:24.000Z</time>
      </trkpt>
      <trkpt lat="47.32808" lon="-2.41988">
        <ele>44.799999237061</ele>
        <time>2019-08-11T09:17:26.000Z</time>
      </trkpt>
      <trkpt lat="47.32813" lon="-2.42004">
        <ele>44.799999237061</ele>
        <time>2019-08-11T09:17:28.000Z</time>
      </trkpt>
      <trkpt lat="47.32825" lon="-2.42018">
        <ele>44.799999237061</ele>
        <time>2019-08-11T09:17:31.000Z</time>
      </trkpt>
      <trkpt lat="47.32834" lon="-2.42044">
        <ele>44.799999237061</ele>
        <time>2019-08-11T09:17:35.000Z</time>
      </trkpt>
      <trkpt lat="47.32847" lon="-2.42073">
        <ele>44.799999237061</ele>
        <time>2019-08-11T09:17:39.000Z</time>
      </trkpt>
      <trkpt lat="47.32863" lon="-2.42111">
        <ele>44.799999237061</ele>
        <time>2019-08-11T09:17:44.000Z</time>
      </trkpt>
      <trkpt lat="47.32865" lon="-2.42118">
        <ele>44.799999237061</ele>
        <time>2019-08-11T09:17:45.000Z</time>
      </trkpt>
      <trkpt lat="47.32867" lon="-2.42125">
        <ele>44.799999237061</ele>
        <time>2019-08-11T09:17:46.000Z</time>
      </trkpt>
      <trkpt lat="47.32874" lon="-2.42142">
        <ele>44.799999237061</ele>
        <time>2019-08-11T09:17:49.000Z</time>
      </trkpt>
      <trkpt lat="47.32884" lon="-2.42168">
        <ele>44.799999237061</ele>
        <time>2019-08-11T09:17:55.000Z</time>
      </trkpt>
      <trkpt lat="47.32891" lon="-2.42188">
        <ele>44.799999237061</ele>
        <time>2019-08-11T09:18:01.000Z</time>
      </trkpt>
      <trkpt lat="47.32893" lon="-2.42215">
        <ele>44.799999237061</ele>
        <time>2019-08-11T09:18:05.000Z</time>
      </trkpt>
      <trkpt lat="47.32889" lon="-2.42258">
        <ele>44.799999237061</ele>
        <time>2019-08-11T09:18:10.000Z</time>
      </trkpt>
      <trkpt lat="47.32884" lon="-2.42315">
        <ele>44.799999237061</ele>
        <time>2019-08-11T09:18:17.000Z</time>
      </trkpt>
      <trkpt lat="47.32881" lon="-2.42361">
        <ele>44.799999237061</ele>
        <time>2019-08-11T09:18:24.000Z</time>
      </trkpt>
      <trkpt lat="47.32881" lon="-2.42388">
        <ele>44.799999237061</ele>
        <time>2019-08-11T09:18:29.000Z</time>
      </trkpt>
      <trkpt lat="47.32883" lon="-2.42428">
        <ele>44.799999237061</ele>
        <time>2019-08-11T09:18:35.000Z</time>
      </trkpt>
      <trkpt lat="47.32884" lon="-2.42443">
        <ele>44.799999237061</ele>
        <time>2019-08-11T09:18:37.000Z</time>
      </trkpt>
      <trkpt lat="47.32885" lon="-2.4245">
        <ele>45.400001525879</ele>
        <time>2019-08-11T09:18:38.000Z</time>
      </trkpt>
      <trkpt lat="47.32886" lon="-2.42457">
        <ele>45.799999237061</ele>
        <time>2019-08-11T09:18:39.000Z</time>
      </trkpt>
      <trkpt lat="47.32887" lon="-2.42464">
        <ele>46.200000762939</ele>
        <time>2019-08-11T09:18:40.000Z</time>
      </trkpt>
      <trkpt lat="47.32888" lon="-2.4247">
        <ele>46.599998474121</ele>
        <time>2019-08-11T09:18:41.000Z</time>
      </trkpt>
      <trkpt lat="47.32889" lon="-2.42477">
        <ele>47</ele>
        <time>2019-08-11T09:18:42.000Z</time>
      </trkpt>
      <trkpt lat="47.3289" lon="-2.42483">
        <ele>47</ele>
        <time>2019-08-11T09:18:43.000Z</time>
      </trkpt>
      <trkpt lat="47.32892" lon="-2.42509">
        <ele>47</ele>
        <time>2019-08-11T09:18:47.000Z</time>
      </trkpt>
      <trkpt lat="47.32901" lon="-2.42543">
        <ele>47</ele>
        <time>2019-08-11T09:18:53.000Z</time>
      </trkpt>
      <trkpt lat="47.32901" lon="-2.4256">
        <ele>47</ele>
        <time>2019-08-11T09:18:57.000Z</time>
      </trkpt>
      <trkpt lat="47.32895" lon="-2.42582">
        <ele>47</ele>
        <time>2019-08-11T09:19:02.000Z</time>
      </trkpt>
      <trkpt lat="47.32892" lon="-2.42599">
        <ele>47</ele>
        <time>2019-08-11T09:19:06.000Z</time>
      </trkpt>
      <trkpt lat="47.32892" lon="-2.42615">
        <ele>47</ele>
        <time>2019-08-11T09:19:11.000Z</time>
      </trkpt>
      <trkpt lat="47.32891" lon="-2.4262">
        <ele>47</ele>
        <time>2019-08-11T09:19:12.000Z</time>
      </trkpt>
      <trkpt lat="47.32886" lon="-2.42635">
        <ele>47</ele>
        <time>2019-08-11T09:19:15.000Z</time>
      </trkpt>
      <trkpt lat="47.32879" lon="-2.42663">
        <ele>47</ele>
        <time>2019-08-11T09:19:20.000Z</time>
      </trkpt>
      <trkpt lat="47.32871" lon="-2.42692">
        <ele>47</ele>
        <time>2019-08-11T09:19:26.000Z</time>
      </trkpt>
      <trkpt lat="47.3287" lon="-2.427">
        <ele>47.400001525879</ele>
        <time>2019-08-11T09:19:28.000Z</time>
      </trkpt>
      <trkpt lat="47.3287" lon="-2.42703">
        <ele>47.799999237061</ele>
        <time>2019-08-11T09:19:29.000Z</time>
      </trkpt>
      <trkpt lat="47.32869" lon="-2.42706">
        <ele>48.200000762939</ele>
        <time>2019-08-11T09:19:30.000Z</time>
      </trkpt>
      <trkpt lat="47.32868" lon="-2.42709">
        <ele>48.599998474121</ele>
        <time>2019-08-11T09:19:31.000Z</time>
      </trkpt>
      <trkpt lat="47.32865" lon="-2.4271">
        <ele>49</ele>
        <time>2019-08-11T09:19:32.000Z</time>
      </trkpt>
      <trkpt lat="47.32857" lon="-2.42707">
        <ele>49</ele>
        <time>2019-08-11T09:19:35.000Z</time>
      </trkpt>
      <trkpt lat="47.32851" lon="-2.42707">
        <ele>49</ele>
        <time>2019-08-11T09:19:37.000Z</time>
      </trkpt>
      <trkpt lat="47.32841" lon="-2.42707">
        <ele>49</ele>
        <time>2019-08-11T09:19:40.000Z</time>
      </trkpt>
      <trkpt lat="47.32823" lon="-2.42703">
        <ele>49</ele>
        <time>2019-08-11T09:19:45.000Z</time>
      </trkpt>
      <trkpt lat="47.32799" lon="-2.42701">
        <ele>49</ele>
        <time>2019-08-11T09:19:52.000Z</time>
      </trkpt>
      <trkpt lat="47.32782" lon="-2.42692">
        <ele>49</ele>
        <time>2019-08-11T09:19:57.000Z</time>
      </trkpt>
      <trkpt lat="47.32767" lon="-2.42692">
        <ele>49</ele>
        <time>2019-08-11T09:20:01.000Z</time>
      </trkpt>
      <trkpt lat="47.32755" lon="-2.42693">
        <ele>49</ele>
        <time>2019-08-11T09:20:06.000Z</time>
      </trkpt>
      <trkpt lat="47.32744" lon="-2.4269">
        <ele>49</ele>
        <time>2019-08-11T09:20:11.000Z</time>
      </trkpt>
      <trkpt lat="47.32743" lon="-2.42691">
        <ele>49</ele>
        <time>2019-08-11T09:20:12.000Z</time>
      </trkpt>
      <trkpt lat="47.3273" lon="-2.42693">
        <ele>49</ele>
        <time>2019-08-11T09:20:19.000Z</time>
      </trkpt>
      <trkpt lat="47.3272" lon="-2.42697">
        <ele>49</ele>
        <time>2019-08-11T09:20:26.000Z</time>
      </trkpt>
      <trkpt lat="47.32716" lon="-2.42697">
        <ele>49</ele>
        <time>2019-08-11T09:20:29.000Z</time>
      </trkpt>
      <trkpt lat="47.32711" lon="-2.42703">
        <ele>49</ele>
        <time>2019-08-11T09:20:31.000Z</time>
      </trkpt>
      <trkpt lat="47.32704" lon="-2.42711">
        <ele>49</ele>
        <time>2019-08-11T09:20:33.000Z</time>
      </trkpt>
      <trkpt lat="47.32694" lon="-2.42725">
        <ele>49</ele>
        <time>2019-08-11T09:20:36.000Z</time>
      </trkpt>
      <trkpt lat="47.32687" lon="-2.42736">
        <ele>49</ele>
        <time>2019-08-11T09:20:38.000Z</time>
      </trkpt>
      <trkpt lat="47.32682" lon="-2.42748">
        <ele>49</ele>
        <time>2019-08-11T09:20:40.000Z</time>
      </trkpt>
      <trkpt lat="47.32679" lon="-2.42753">
        <ele>49</ele>
        <time>2019-08-11T09:20:41.000Z</time>
      </trkpt>
      <trkpt lat="47.32671" lon="-2.42769">
        <ele>49</ele>
        <time>2019-08-11T09:20:44.000Z</time>
      </trkpt>
      <trkpt lat="47.32661" lon="-2.4279">
        <ele>49</ele>
        <time>2019-08-11T09:20:48.000Z</time>
      </trkpt>
      <trkpt lat="47.32651" lon="-2.42818">
        <ele>49</ele>
        <time>2019-08-11T09:20:53.000Z</time>
      </trkpt>
      <trkpt lat="47.3264" lon="-2.42861">
        <ele>49</ele>
        <time>2019-08-11T09:21:00.000Z</time>
      </trkpt>
      <trkpt lat="47.32633" lon="-2.429">
        <ele>49</ele>
        <time>2019-08-11T09:21:07.000Z</time>
      </trkpt>
      <trkpt lat="47.32629" lon="-2.42925">
        <ele>49</ele>
        <time>2019-08-11T09:21:13.000Z</time>
      </trkpt>
      <trkpt lat="47.32626" lon="-2.42944">
        <ele>49</ele>
        <time>2019-08-11T09:21:17.000Z</time>
      </trkpt>
      <trkpt lat="47.3262" lon="-2.42967">
        <ele>49</ele>
        <time>2019-08-11T09:21:21.000Z</time>
      </trkpt>
      <trkpt lat="47.3262" lon="-2.42973">
        <ele>49</ele>
        <time>2019-08-11T09:21:22.000Z</time>
      </trkpt>
      <trkpt lat="47.3262" lon="-2.42996">
        <ele>49</ele>
        <time>2019-08-11T09:21:26.000Z</time>
      </trkpt>
      <trkpt lat="47.32623" lon="-2.43033">
        <ele>49</ele>
        <time>2019-08-11T09:21:33.000Z</time>
      </trkpt>
      <trkpt lat="47.32626" lon="-2.43056">
        <ele>49</ele>
        <time>2019-08-11T09:21:38.000Z</time>
      </trkpt>
      <trkpt lat="47.32619" lon="-2.43067">
        <ele>49</ele>
        <time>2019-08-11T09:21:41.000Z</time>
      </trkpt>
      <trkpt lat="47.32615" lon="-2.43067">
        <ele>49</ele>
        <time>2019-08-11T09:21:42.000Z</time>
      </trkpt>
      <trkpt lat="47.32588" lon="-2.43072">
        <ele>49</ele>
        <time>2019-08-11T09:21:48.000Z</time>
      </trkpt>
      <trkpt lat="47.32554" lon="-2.43079">
        <ele>49</ele>
        <time>2019-08-11T09:21:54.000Z</time>
      </trkpt>
      <trkpt lat="47.32541" lon="-2.4308">
        <ele>48.599998474121</ele>
        <time>2019-08-11T09:21:56.000Z</time>
      </trkpt>
      <trkpt lat="47.32535" lon="-2.43079">
        <ele>48.200000762939</ele>
        <time>2019-08-11T09:21:57.000Z</time>
      </trkpt>
      <trkpt lat="47.32528" lon="-2.43079">
        <ele>47.799999237061</ele>
        <time>2019-08-11T09:21:58.000Z</time>
      </trkpt>
      <trkpt lat="47.32521" lon="-2.43079">
        <ele>47.400001525879</ele>
        <time>2019-08-11T09:21:59.000Z</time>
      </trkpt>
      <trkpt lat="47.32514" lon="-2.43079">
        <ele>47</ele>
        <time>2019-08-11T09:22:00.000Z</time>
      </trkpt>
      <trkpt lat="47.325" lon="-2.43078">
        <ele>47</ele>
        <time>2019-08-11T09:22:02.000Z</time>
      </trkpt>
      <trkpt lat="47.32476" lon="-2.43078">
        <ele>46.599998474121</ele>
        <time>2019-08-11T09:22:05.000Z</time>
      </trkpt>
      <trkpt lat="47.32467" lon="-2.43077">
        <ele>46.200000762939</ele>
        <time>2019-08-11T09:22:06.000Z</time>
      </trkpt>
      <trkpt lat="47.32459" lon="-2.43076">
        <ele>45.599998474121</ele>
        <time>2019-08-11T09:22:07.000Z</time>
      </trkpt>
      <trkpt lat="47.3245" lon="-2.43076">
        <ele>45.200000762939</ele>
        <time>2019-08-11T09:22:08.000Z</time>
      </trkpt>
      <trkpt lat="47.32441" lon="-2.43074">
        <ele>44.799999237061</ele>
        <time>2019-08-11T09:22:09.000Z</time>
      </trkpt>
      <trkpt lat="47.32414" lon="-2.4307">
        <ele>44.400001525879</ele>
        <time>2019-08-11T09:22:12.000Z</time>
      </trkpt>
      <trkpt lat="47.32405" lon="-2.43068">
        <ele>43.799999237061</ele>
        <time>2019-08-11T09:22:13.000Z</time>
      </trkpt>
      <trkpt lat="47.32395" lon="-2.43067">
        <ele>43.400001525879</ele>
        <time>2019-08-11T09:22:14.000Z</time>
      </trkpt>
      <trkpt lat="47.32386" lon="-2.43067">
        <ele>42.799999237061</ele>
        <time>2019-08-11T09:22:15.000Z</time>
      </trkpt>
      <trkpt lat="47.32376" lon="-2.4307">
        <ele>42.400001525879</ele>
        <time>2019-08-11T09:22:16.000Z</time>
      </trkpt>
      <trkpt lat="47.32366" lon="-2.43074">
        <ele>42</ele>
        <time>2019-08-11T09:22:17.000Z</time>
      </trkpt>
      <trkpt lat="47.32357" lon="-2.43077">
        <ele>41.599998474121</ele>
        <time>2019-08-11T09:22:18.000Z</time>
      </trkpt>
      <trkpt lat="47.32347" lon="-2.43079">
        <ele>41.200000762939</ele>
        <time>2019-08-11T09:22:19.000Z</time>
      </trkpt>
      <trkpt lat="47.32338" lon="-2.43082">
        <ele>40.599998474121</ele>
        <time>2019-08-11T09:22:20.000Z</time>
      </trkpt>
      <trkpt lat="47.32329" lon="-2.43086">
        <ele>40.200000762939</ele>
        <time>2019-08-11T09:22:21.000Z</time>
      </trkpt>
      <trkpt lat="47.3232" lon="-2.43092">
        <ele>39.799999237061</ele>
        <time>2019-08-11T09:22:22.000Z</time>
      </trkpt>
      <trkpt lat="47.32312" lon="-2.43099">
        <ele>39.200000762939</ele>
        <time>2019-08-11T09:22:23.000Z</time>
      </trkpt>
      <trkpt lat="47.32304" lon="-2.43105">
        <ele>38.799999237061</ele>
        <time>2019-08-11T09:22:24.000Z</time>
      </trkpt>
      <trkpt lat="47.32296" lon="-2.43111">
        <ele>38.200000762939</ele>
        <time>2019-08-11T09:22:25.000Z</time>
      </trkpt>
      <trkpt lat="47.32289" lon="-2.43116">
        <ele>37.799999237061</ele>
        <time>2019-08-11T09:22:26.000Z</time>
      </trkpt>
      <trkpt lat="47.32281" lon="-2.4312">
        <ele>37.799999237061</ele>
        <time>2019-08-11T09:22:27.000Z</time>
      </trkpt>
      <trkpt lat="47.32267" lon="-2.43127">
        <ele>37.400001525879</ele>
        <time>2019-08-11T09:22:29.000Z</time>
      </trkpt>
      <trkpt lat="47.3226" lon="-2.4313">
        <ele>37</ele>
        <time>2019-08-11T09:22:30.000Z</time>
      </trkpt>
      <trkpt lat="47.32253" lon="-2.43133">
        <ele>36.599998474121</ele>
        <time>2019-08-11T09:22:31.000Z</time>
      </trkpt>
      <trkpt lat="47.32247" lon="-2.43135">
        <ele>36</ele>
        <time>2019-08-11T09:22:32.000Z</time>
      </trkpt>
      <trkpt lat="47.3224" lon="-2.43137">
        <ele>35.599998474121</ele>
        <time>2019-08-11T09:22:33.000Z</time>
      </trkpt>
      <trkpt lat="47.32206" lon="-2.43155">
        <ele>35.599998474121</ele>
        <time>2019-08-11T09:22:38.000Z</time>
      </trkpt>
      <trkpt lat="47.32157" lon="-2.43178">
        <ele>35.599998474121</ele>
        <time>2019-08-11T09:22:45.000Z</time>
      </trkpt>
      <trkpt lat="47.32106" lon="-2.43202">
        <ele>35.599998474121</ele>
        <time>2019-08-11T09:22:52.000Z</time>
      </trkpt>
      <trkpt lat="47.32099" lon="-2.43205">
        <ele>35.200000762939</ele>
        <time>2019-08-11T09:22:53.000Z</time>
      </trkpt>
      <trkpt lat="47.32091" lon="-2.43208">
        <ele>34.799999237061</ele>
        <time>2019-08-11T09:22:54.000Z</time>
      </trkpt>
      <trkpt lat="47.32084" lon="-2.4321">
        <ele>34.400001525879</ele>
        <time>2019-08-11T09:22:55.000Z</time>
      </trkpt>
      <trkpt lat="47.32077" lon="-2.43213">
        <ele>34</ele>
        <time>2019-08-11T09:22:56.000Z</time>
      </trkpt>
      <trkpt lat="47.3207" lon="-2.43216">
        <ele>33.599998474121</ele>
        <time>2019-08-11T09:22:57.000Z</time>
      </trkpt>
      <trkpt lat="47.32063" lon="-2.43221">
        <ele>33.599998474121</ele>
        <time>2019-08-11T09:22:58.000Z</time>
      </trkpt>
      <trkpt lat="47.32056" lon="-2.43226">
        <ele>32.799999237061</ele>
        <time>2019-08-11T09:22:59.000Z</time>
      </trkpt>
      <trkpt lat="47.32049" lon="-2.43232">
        <ele>32.400001525879</ele>
        <time>2019-08-11T09:23:00.000Z</time>
      </trkpt>
      <trkpt lat="47.32041" lon="-2.43237">
        <ele>32</ele>
        <time>2019-08-11T09:23:01.000Z</time>
      </trkpt>
      <trkpt lat="47.32034" lon="-2.43242">
        <ele>31.60000038147</ele>
        <time>2019-08-11T09:23:02.000Z</time>
      </trkpt>
      <trkpt lat="47.32011" lon="-2.43259">
        <ele>31.60000038147</ele>
        <time>2019-08-11T09:23:05.000Z</time>
      </trkpt>
      <trkpt lat="47.32003" lon="-2.43265">
        <ele>31.200000762939</ele>
        <time>2019-08-11T09:23:06.000Z</time>
      </trkpt>
      <trkpt lat="47.31995" lon="-2.4327">
        <ele>30.799999237061</ele>
        <time>2019-08-11T09:23:07.000Z</time>
      </trkpt>
      <trkpt lat="47.31987" lon="-2.43276">
        <ele>30.39999961853</ele>
        <time>2019-08-11T09:23:08.000Z</time>
      </trkpt>
      <trkpt lat="47.31978" lon="-2.43282">
        <ele>30</ele>
        <time>2019-08-11T09:23:09.000Z</time>
      </trkpt>
      <trkpt lat="47.31969" lon="-2.43287">
        <ele>29.60000038147</ele>
        <time>2019-08-11T09:23:10.000Z</time>
      </trkpt>
      <trkpt lat="47.31949" lon="-2.43295">
        <ele>29.60000038147</ele>
        <time>2019-08-11T09:23:12.000Z</time>
      </trkpt>
      <trkpt lat="47.31939" lon="-2.433">
        <ele>29</ele>
        <time>2019-08-11T09:23:13.000Z</time>
      </trkpt>
      <trkpt lat="47.31929" lon="-2.43305">
        <ele>28.60000038147</ele>
        <time>2019-08-11T09:23:14.000Z</time>
      </trkpt>
      <trkpt lat="47.31918" lon="-2.4331">
        <ele>28.200000762939</ele>
        <time>2019-08-11T09:23:15.000Z</time>
      </trkpt>
      <trkpt lat="47.31907" lon="-2.43316">
        <ele>27.60000038147</ele>
        <time>2019-08-11T09:23:16.000Z</time>
      </trkpt>
      <trkpt lat="47.31896" lon="-2.43323">
        <ele>27</ele>
        <time>2019-08-11T09:23:17.000Z</time>
      </trkpt>
      <trkpt lat="47.31886" lon="-2.4333">
        <ele>26.200000762939</ele>
        <time>2019-08-11T09:23:18.000Z</time>
      </trkpt>
      <trkpt lat="47.31876" lon="-2.43338">
        <ele>25.60000038147</ele>
        <time>2019-08-11T09:23:19.000Z</time>
      </trkpt>
      <trkpt lat="47.31866" lon="-2.43346">
        <ele>25.200000762939</ele>
        <time>2019-08-11T09:23:20.000Z</time>
      </trkpt>
      <trkpt lat="47.31856" lon="-2.43354">
        <ele>24.60000038147</ele>
        <time>2019-08-11T09:23:21.000Z</time>
      </trkpt>
      <trkpt lat="47.31846" lon="-2.43362">
        <ele>24</ele>
        <time>2019-08-11T09:23:22.000Z</time>
      </trkpt>
      <trkpt lat="47.31836" lon="-2.4337">
        <ele>23.39999961853</ele>
        <time>2019-08-11T09:23:23.000Z</time>
      </trkpt>
      <trkpt lat="47.31826" lon="-2.43378">
        <ele>22.200000762939</ele>
        <time>2019-08-11T09:23:24.000Z</time>
      </trkpt>
      <trkpt lat="47.31816" lon="-2.43385">
        <ele>21.60000038147</ele>
        <time>2019-08-11T09:23:25.000Z</time>
      </trkpt>
      <trkpt lat="47.31806" lon="-2.43391">
        <ele>21</ele>
        <time>2019-08-11T09:23:26.000Z</time>
      </trkpt>
      <trkpt lat="47.31777" lon="-2.43407">
        <ele>21</ele>
        <time>2019-08-11T09:23:29.000Z</time>
      </trkpt>
      <trkpt lat="47.31767" lon="-2.43412">
        <ele>20.39999961853</ele>
        <time>2019-08-11T09:23:30.000Z</time>
      </trkpt>
      <trkpt lat="47.31757" lon="-2.43417">
        <ele>20</ele>
        <time>2019-08-11T09:23:31.000Z</time>
      </trkpt>
      <trkpt lat="47.31748" lon="-2.43423">
        <ele>19.60000038147</ele>
        <time>2019-08-11T09:23:32.000Z</time>
      </trkpt>
      <trkpt lat="47.31739" lon="-2.43428">
        <ele>19.200000762939</ele>
        <time>2019-08-11T09:23:33.000Z</time>
      </trkpt>
      <trkpt lat="47.3173" lon="-2.43434">
        <ele>18.799999237061</ele>
        <time>2019-08-11T09:23:34.000Z</time>
      </trkpt>
      <trkpt lat="47.31714" lon="-2.4345">
        <ele>18.799999237061</ele>
        <time>2019-08-11T09:23:36.000Z</time>
      </trkpt>
      <trkpt lat="47.31708" lon="-2.4346">
        <ele>18.39999961853</ele>
        <time>2019-08-11T09:23:37.000Z</time>
      </trkpt>
      <trkpt lat="47.31702" lon="-2.43472">
        <ele>17.799999237061</ele>
        <time>2019-08-11T09:23:38.000Z</time>
      </trkpt>
      <trkpt lat="47.31698" lon="-2.43484">
        <ele>17.39999961853</ele>
        <time>2019-08-11T09:23:39.000Z</time>
      </trkpt>
      <trkpt lat="47.31693" lon="-2.43495">
        <ele>17</ele>
        <time>2019-08-11T09:23:40.000Z</time>
      </trkpt>
      <trkpt lat="47.31688" lon="-2.43506">
        <ele>16.60000038147</ele>
        <time>2019-08-11T09:23:41.000Z</time>
      </trkpt>
      <trkpt lat="47.31682" lon="-2.43515">
        <ele>16.200000762939</ele>
        <time>2019-08-11T09:23:42.000Z</time>
      </trkpt>
      <trkpt lat="47.31677" lon="-2.43525">
        <ele>15.800000190735</ele>
        <time>2019-08-11T09:23:43.000Z</time>
      </trkpt>
      <trkpt lat="47.31671" lon="-2.43533">
        <ele>15.39999961853</ele>
        <time>2019-08-11T09:23:44.000Z</time>
      </trkpt>
      <trkpt lat="47.31666" lon="-2.43541">
        <ele>15</ele>
        <time>2019-08-11T09:23:45.000Z</time>
      </trkpt>
      <trkpt lat="47.31662" lon="-2.43548">
        <ele>14.60000038147</ele>
        <time>2019-08-11T09:23:46.000Z</time>
      </trkpt>
      <trkpt lat="47.31659" lon="-2.43551">
        <ele>14</ele>
        <time>2019-08-11T09:23:47.000Z</time>
      </trkpt>
      <trkpt lat="47.31658" lon="-2.43554">
        <ele>13.60000038147</ele>
        <time>2019-08-11T09:23:48.000Z</time>
      </trkpt>
      <trkpt lat="47.31657" lon="-2.43556">
        <ele>12.39999961853</ele>
        <time>2019-08-11T09:23:49.000Z</time>
      </trkpt>
      <trkpt lat="47.31655" lon="-2.43557">
        <ele>12</ele>
        <time>2019-08-11T09:23:50.000Z</time>
      </trkpt>
      <trkpt lat="47.31654" lon="-2.43558">
        <ele>12</ele>
        <time>2019-08-11T09:23:51.000Z</time>
      </trkpt>
      <trkpt lat="47.31644" lon="-2.43568">
        <ele>12</ele>
        <time>2019-08-11T09:23:57.000Z</time>
      </trkpt>
      <trkpt lat="47.31631" lon="-2.43582">
        <ele>12</ele>
        <time>2019-08-11T09:24:04.000Z</time>
      </trkpt>
      <trkpt lat="47.31623" lon="-2.4359">
        <ele>11.60000038147</ele>
        <time>2019-08-11T09:24:08.000Z</time>
      </trkpt>
      <trkpt lat="47.31621" lon="-2.43592">
        <ele>11.199999809265</ele>
        <time>2019-08-11T09:24:09.000Z</time>
      </trkpt>
      <trkpt lat="47.31619" lon="-2.43593">
        <ele>10.800000190735</ele>
        <time>2019-08-11T09:24:10.000Z</time>
      </trkpt>
      <trkpt lat="47.31617" lon="-2.43596">
        <ele>10.39999961853</ele>
        <time>2019-08-11T09:24:11.000Z</time>
      </trkpt>
      <trkpt lat="47.31614" lon="-2.43597">
        <ele>10</ele>
        <time>2019-08-11T09:24:12.000Z</time>
      </trkpt>
      <trkpt lat="47.31603" lon="-2.43605">
        <ele>10</ele>
        <time>2019-08-11T09:24:15.000Z</time>
      </trkpt>
      <trkpt lat="47.3159" lon="-2.43616">
        <ele>10</ele>
        <time>2019-08-11T09:24:18.000Z</time>
      </trkpt>
      <trkpt lat="47.3158" lon="-2.43623">
        <ele>10</ele>
        <time>2019-08-11T09:24:20.000Z</time>
      </trkpt>
      <trkpt lat="47.31543" lon="-2.43651">
        <ele>10</ele>
        <time>2019-08-11T09:24:27.000Z</time>
      </trkpt>
      <trkpt lat="47.31499" lon="-2.43685">
        <ele>10</ele>
        <time>2019-08-11T09:24:34.000Z</time>
      </trkpt>
      <trkpt lat="47.31455" lon="-2.43717">
        <ele>10</ele>
        <time>2019-08-11T09:24:40.000Z</time>
      </trkpt>
      <trkpt lat="47.31407" lon="-2.43751">
        <ele>10</ele>
        <time>2019-08-11T09:24:46.000Z</time>
      </trkpt>
      <trkpt lat="47.31358" lon="-2.43789">
        <ele>10</ele>
        <time>2019-08-11T09:24:53.000Z</time>
      </trkpt>
      <trkpt lat="47.31351" lon="-2.43794">
        <ele>9.3999996185303</ele>
        <time>2019-08-11T09:24:54.000Z</time>
      </trkpt>
      <trkpt lat="47.31345" lon="-2.438">
        <ele>9</ele>
        <time>2019-08-11T09:24:55.000Z</time>
      </trkpt>
      <trkpt lat="47.31339" lon="-2.43806">
        <ele>8.3999996185303</ele>
        <time>2019-08-11T09:24:56.000Z</time>
      </trkpt>
      <trkpt lat="47.31333" lon="-2.43812">
        <ele>8</ele>
        <time>2019-08-11T09:24:57.000Z</time>
      </trkpt>
      <trkpt lat="47.31329" lon="-2.43816">
        <ele>7.4000000953674</ele>
        <time>2019-08-11T09:24:58.000Z</time>
      </trkpt>
      <trkpt lat="47.31316" lon="-2.43825">
        <ele>7.4000000953674</ele>
        <time>2019-08-11T09:25:02.000Z</time>
      </trkpt>
      <trkpt lat="47.31305" lon="-2.43817">
        <ele>7.4000000953674</ele>
        <time>2019-08-11T09:25:05.000Z</time>
      </trkpt>
      <trkpt lat="47.3129" lon="-2.43789">
        <ele>7.4000000953674</ele>
        <time>2019-08-11T09:25:09.000Z</time>
      </trkpt>
      <trkpt lat="47.31268" lon="-2.43738">
        <ele>7.4000000953674</ele>
        <time>2019-08-11T09:25:15.000Z</time>
      </trkpt>
      <trkpt lat="47.31246" lon="-2.43679">
        <ele>7.4000000953674</ele>
        <time>2019-08-11T09:25:21.000Z</time>
      </trkpt>
      <trkpt lat="47.31236" lon="-2.43626">
        <ele>7.4000000953674</ele>
        <time>2019-08-11T09:25:26.000Z</time>
      </trkpt>
      <trkpt lat="47.31225" lon="-2.43552">
        <ele>7.4000000953674</ele>
        <time>2019-08-11T09:25:33.000Z</time>
      </trkpt>
      <trkpt lat="47.31214" lon="-2.43474">
        <ele>7.4000000953674</ele>
        <time>2019-08-11T09:25:40.000Z</time>
      </trkpt>
      <trkpt lat="47.31213" lon="-2.43463">
        <ele>7.4000000953674</ele>
        <time>2019-08-11T09:25:41.000Z</time>
      </trkpt>
      <trkpt lat="47.312" lon="-2.43375">
        <ele>7.4000000953674</ele>
        <time>2019-08-11T09:25:49.000Z</time>
      </trkpt>
      <trkpt lat="47.31194" lon="-2.43343">
        <ele>7.4000000953674</ele>
        <time>2019-08-11T09:25:52.000Z</time>
      </trkpt>
      <trkpt lat="47.31185" lon="-2.43314">
        <ele>7.4000000953674</ele>
        <time>2019-08-11T09:25:55.000Z</time>
      </trkpt>
      <trkpt lat="47.31162" lon="-2.43271">
        <ele>7.4000000953674</ele>
        <time>2019-08-11T09:26:00.000Z</time>
      </trkpt>
      <trkpt lat="47.31121" lon="-2.43208">
        <ele>7.4000000953674</ele>
        <time>2019-08-11T09:26:08.000Z</time>
      </trkpt>
      <trkpt lat="47.31117" lon="-2.432">
        <ele>7.4000000953674</ele>
        <time>2019-08-11T09:26:09.000Z</time>
      </trkpt>
      <trkpt lat="47.31112" lon="-2.43194">
        <ele>7.4000000953674</ele>
        <time>2019-08-11T09:26:10.000Z</time>
      </trkpt>
      <trkpt lat="47.311" lon="-2.43193">
        <ele>7.4000000953674</ele>
        <time>2019-08-11T09:26:12.000Z</time>
      </trkpt>
      <trkpt lat="47.31087" lon="-2.43206">
        <ele>7.4000000953674</ele>
        <time>2019-08-11T09:26:15.000Z</time>
      </trkpt>
      <trkpt lat="47.31083" lon="-2.43211">
        <ele>7.4000000953674</ele>
        <time>2019-08-11T09:26:16.000Z</time>
      </trkpt>
      <trkpt lat="47.31073" lon="-2.4322">
        <ele>7.4000000953674</ele>
        <time>2019-08-11T09:26:18.000Z</time>
      </trkpt>
      <trkpt lat="47.31052" lon="-2.43238">
        <ele>7.4000000953674</ele>
        <time>2019-08-11T09:26:22.000Z</time>
      </trkpt>
      <trkpt lat="47.31038" lon="-2.43255">
        <ele>7.4000000953674</ele>
        <time>2019-08-11T09:26:25.000Z</time>
      </trkpt>
      <trkpt lat="47.31021" lon="-2.4328">
        <ele>7.4000000953674</ele>
        <time>2019-08-11T09:26:29.000Z</time>
      </trkpt>
      <trkpt lat="47.31002" lon="-2.43303">
        <ele>7</ele>
        <time>2019-08-11T09:26:33.000Z</time>
      </trkpt>
      <trkpt lat="47.30996" lon="-2.43308">
        <ele>6.5999999046326</ele>
        <time>2019-08-11T09:26:34.000Z</time>
      </trkpt>
      <trkpt lat="47.3099" lon="-2.43311">
        <ele>6.1999998092651</ele>
        <time>2019-08-11T09:26:35.000Z</time>
      </trkpt>
      <trkpt lat="47.30984" lon="-2.43315">
        <ele>5.8000001907349</ele>
        <time>2019-08-11T09:26:36.000Z</time>
      </trkpt>
      <trkpt lat="47.30979" lon="-2.43317">
        <ele>5.4000000953674</ele>
        <time>2019-08-11T09:26:37.000Z</time>
      </trkpt>
      <trkpt lat="47.30958" lon="-2.43327">
        <ele>5.4000000953674</ele>
        <time>2019-08-11T09:26:41.000Z</time>
      </trkpt>
      <trkpt lat="47.30911" lon="-2.43345">
        <ele>5.4000000953674</ele>
        <time>2019-08-11T09:26:50.000Z</time>
      </trkpt>
      <trkpt lat="47.30881" lon="-2.43358">
        <ele>5.4000000953674</ele>
        <time>2019-08-11T09:26:56.000Z</time>
      </trkpt>
      <trkpt lat="47.30844" lon="-2.43373">
        <ele>5.4000000953674</ele>
        <time>2019-08-11T09:27:03.000Z</time>
      </trkpt>
      <trkpt lat="47.30811" lon="-2.43387">
        <ele>5</ele>
        <time>2019-08-11T09:27:09.000Z</time>
      </trkpt>
      <trkpt lat="47.30806" lon="-2.43389">
        <ele>4.5999999046326</ele>
        <time>2019-08-11T09:27:10.000Z</time>
      </trkpt>
      <trkpt lat="47.308" lon="-2.4339">
        <ele>4.1999998092651</ele>
        <time>2019-08-11T09:27:11.000Z</time>
      </trkpt>
      <trkpt lat="47.30795" lon="-2.4339">
        <ele>3.7999999523163</ele>
        <time>2019-08-11T09:27:12.000Z</time>
      </trkpt>
      <trkpt lat="47.30789" lon="-2.4339">
        <ele>3.2000000476837</ele>
        <time>2019-08-11T09:27:13.000Z</time>
      </trkpt>
      <trkpt lat="47.30767" lon="-2.43389">
        <ele>3.2000000476837</ele>
        <time>2019-08-11T09:27:17.000Z</time>
      </trkpt>
      <trkpt lat="47.30725" lon="-2.4339">
        <ele>3.2000000476837</ele>
        <time>2019-08-11T09:27:24.000Z</time>
      </trkpt>
      <trkpt lat="47.30685" lon="-2.43392">
        <ele>3.2000000476837</ele>
        <time>2019-08-11T09:27:31.000Z</time>
      </trkpt>
      <trkpt lat="47.30645" lon="-2.434">
        <ele>3.2000000476837</ele>
        <time>2019-08-11T09:27:38.000Z</time>
      </trkpt>
      <trkpt lat="47.30605" lon="-2.4341">
        <ele>3.2000000476837</ele>
        <time>2019-08-11T09:27:45.000Z</time>
      </trkpt>
      <trkpt lat="47.3056" lon="-2.4342">
        <ele>3.2000000476837</ele>
        <time>2019-08-11T09:27:53.000Z</time>
      </trkpt>
      <trkpt lat="47.30548" lon="-2.4342">
        <ele>3.2000000476837</ele>
        <time>2019-08-11T09:27:55.000Z</time>
      </trkpt>
      <trkpt lat="47.30525" lon="-2.43416">
        <ele>3.2000000476837</ele>
        <time>2019-08-11T09:27:59.000Z</time>
      </trkpt>
      <trkpt lat="47.30479" lon="-2.43411">
        <ele>3.2000000476837</ele>
        <time>2019-08-11T09:28:07.000Z</time>
      </trkpt>
      <trkpt lat="47.30468" lon="-2.43412">
        <ele>3.2000000476837</ele>
        <time>2019-08-11T09:28:09.000Z</time>
      </trkpt>
      <trkpt lat="47.30453" lon="-2.43419">
        <ele>3.2000000476837</ele>
        <time>2019-08-11T09:28:12.000Z</time>
      </trkpt>
      <trkpt lat="47.30443" lon="-2.43421">
        <ele>3.2000000476837</ele>
        <time>2019-08-11T09:28:14.000Z</time>
      </trkpt>
      <trkpt lat="47.30432" lon="-2.43415">
        <ele>3.2000000476837</ele>
        <time>2019-08-11T09:28:16.000Z</time>
      </trkpt>
      <trkpt lat="47.30425" lon="-2.43391">
        <ele>3.2000000476837</ele>
        <time>2019-08-11T09:28:19.000Z</time>
      </trkpt>
      <trkpt lat="47.30424" lon="-2.43382">
        <ele>3.2000000476837</ele>
        <time>2019-08-11T09:28:20.000Z</time>
      </trkpt>
      <trkpt lat="47.30413" lon="-2.43321">
        <ele>3.2000000476837</ele>
        <time>2019-08-11T09:28:27.000Z</time>
      </trkpt>
      <trkpt lat="47.30393" lon="-2.43253">
        <ele>3.2000000476837</ele>
        <time>2019-08-11T09:28:35.000Z</time>
      </trkpt>
      <trkpt lat="47.30389" lon="-2.43246">
        <ele>3.2000000476837</ele>
        <time>2019-08-11T09:28:36.000Z</time>
      </trkpt>
      <trkpt lat="47.30379" lon="-2.43237">
        <ele>3.2000000476837</ele>
        <time>2019-08-11T09:28:38.000Z</time>
      </trkpt>
      <trkpt lat="47.30359" lon="-2.43238">
        <ele>3.2000000476837</ele>
        <time>2019-08-11T09:28:41.000Z</time>
      </trkpt>
      <trkpt lat="47.30346" lon="-2.43242">
        <ele>3.2000000476837</ele>
        <time>2019-08-11T09:28:43.000Z</time>
      </trkpt>
      <trkpt lat="47.30321" lon="-2.43249">
        <ele>3.2000000476837</ele>
        <time>2019-08-11T09:28:47.000Z</time>
      </trkpt>
      <trkpt lat="47.30295" lon="-2.43254">
        <ele>3.2000000476837</ele>
        <time>2019-08-11T09:28:51.000Z</time>
      </trkpt>
      <trkpt lat="47.30289" lon="-2.43257">
        <ele>3.2000000476837</ele>
        <time>2019-08-11T09:28:52.000Z</time>
      </trkpt>
      <trkpt lat="47.30243" lon="-2.43273">
        <ele>3.2000000476837</ele>
        <time>2019-08-11T09:28:59.000Z</time>
      </trkpt>
      <trkpt lat="47.30198" lon="-2.43292">
        <ele>3.2000000476837</ele>
        <time>2019-08-11T09:29:06.000Z</time>
      </trkpt>
      <trkpt lat="47.30148" lon="-2.43313">
        <ele>3.2000000476837</ele>
        <time>2019-08-11T09:29:14.000Z</time>
      </trkpt>
      <trkpt lat="47.30129" lon="-2.43319">
        <ele>3.2000000476837</ele>
        <time>2019-08-11T09:29:17.000Z</time>
      </trkpt>
      <trkpt lat="47.30104" lon="-2.43325">
        <ele>3.2000000476837</ele>
        <time>2019-08-11T09:29:21.000Z</time>
      </trkpt>
      <trkpt lat="47.30047" lon="-2.43337">
        <ele>3.2000000476837</ele>
        <time>2019-08-11T09:29:30.000Z</time>
      </trkpt>
      <trkpt lat="47.30029" lon="-2.43337">
        <ele>3.2000000476837</ele>
        <time>2019-08-11T09:29:33.000Z</time>
      </trkpt>
      <trkpt lat="47.30016" lon="-2.43332">
        <ele>3.2000000476837</ele>
        <time>2019-08-11T09:29:35.000Z</time>
      </trkpt>
      <trkpt lat="47.29994" lon="-2.43316">
        <ele>3.2000000476837</ele>
        <time>2019-08-11T09:29:39.000Z</time>
      </trkpt>
      <trkpt lat="47.29989" lon="-2.43311">
        <ele>3.2000000476837</ele>
        <time>2019-08-11T09:29:40.000Z</time>
      </trkpt>
      <trkpt lat="47.29973" lon="-2.43298">
        <ele>3.2000000476837</ele>
        <time>2019-08-11T09:29:43.000Z</time>
      </trkpt>
      <trkpt lat="47.29961" lon="-2.43295">
        <ele>3.2000000476837</ele>
        <time>2019-08-11T09:29:45.000Z</time>
      </trkpt>
      <trkpt lat="47.29944" lon="-2.43302">
        <ele>3.2000000476837</ele>
        <time>2019-08-11T09:29:48.000Z</time>
      </trkpt>
      <trkpt lat="47.29939" lon="-2.43304">
        <ele>3.2000000476837</ele>
        <time>2019-08-11T09:29:49.000Z</time>
      </trkpt>
      <trkpt lat="47.29908" lon="-2.43316">
        <ele>3.2000000476837</ele>
        <time>2019-08-11T09:29:55.000Z</time>
      </trkpt>
      <trkpt lat="47.29886" lon="-2.43325">
        <ele>3.2000000476837</ele>
        <time>2019-08-11T09:30:01.000Z</time>
      </trkpt>
      <trkpt lat="47.29884" lon="-2.43326">
        <ele>3.2000000476837</ele>
        <time>2019-08-11T09:30:04.000Z</time>
      </trkpt>
      <trkpt lat="47.29883" lon="-2.43327">
        <ele>3.2000000476837</ele>
        <time>2019-08-11T09:30:08.000Z</time>
      </trkpt>
      <trkpt lat="47.29872" lon="-2.43337">
        <ele>3.2000000476837</ele>
        <time>2019-08-11T09:30:13.000Z</time>
      </trkpt>
      <trkpt lat="47.29853" lon="-2.43355">
        <ele>3.2000000476837</ele>
        <time>2019-08-11T09:30:18.000Z</time>
      </trkpt>
      <trkpt lat="47.29826" lon="-2.43386">
        <ele>3.2000000476837</ele>
        <time>2019-08-11T09:30:24.000Z</time>
      </trkpt>
      <trkpt lat="47.29786" lon="-2.43431">
        <ele>3.2000000476837</ele>
        <time>2019-08-11T09:30:32.000Z</time>
      </trkpt>
      <trkpt lat="47.29751" lon="-2.43466">
        <ele>3.2000000476837</ele>
        <time>2019-08-11T09:30:38.000Z</time>
      </trkpt>
      <trkpt lat="47.29702" lon="-2.43508">
        <ele>3.2000000476837</ele>
        <time>2019-08-11T09:30:46.000Z</time>
      </trkpt>
      <trkpt lat="47.2967" lon="-2.4353">
        <ele>3.2000000476837</ele>
        <time>2019-08-11T09:30:52.000Z</time>
      </trkpt>
      <trkpt lat="47.29652" lon="-2.43539">
        <ele>3.2000000476837</ele>
        <time>2019-08-11T09:30:56.000Z</time>
      </trkpt>
      <trkpt lat="47.29649" lon="-2.43541">
        <ele>3.2000000476837</ele>
        <time>2019-08-11T09:30:57.000Z</time>
      </trkpt>
      <trkpt lat="47.29646" lon="-2.43544">
        <ele>3.2000000476837</ele>
        <time>2019-08-11T09:31:00.000Z</time>
      </trkpt>
      <trkpt lat="47.29637" lon="-2.43555">
        <ele>3.2000000476837</ele>
        <time>2019-08-11T09:31:05.000Z</time>
      </trkpt>
      <trkpt lat="47.29628" lon="-2.43555">
        <ele>3.2000000476837</ele>
        <time>2019-08-11T09:31:07.000Z</time>
      </trkpt>
      <trkpt lat="47.29624" lon="-2.43552">
        <ele>3.2000000476837</ele>
        <time>2019-08-11T09:31:08.000Z</time>
      </trkpt>
      <trkpt lat="47.29622" lon="-2.43545">
        <ele>3.2000000476837</ele>
        <time>2019-08-11T09:31:09.000Z</time>
      </trkpt>
      <trkpt lat="47.29622" lon="-2.43538">
        <ele>3.2000000476837</ele>
        <time>2019-08-11T09:31:10.000Z</time>
      </trkpt>
      <trkpt lat="47.29626" lon="-2.43513">
        <ele>3.2000000476837</ele>
        <time>2019-08-11T09:31:13.000Z</time>
      </trkpt>
      <trkpt lat="47.29615" lon="-2.43496">
        <ele>3.2000000476837</ele>
        <time>2019-08-11T09:31:16.000Z</time>
      </trkpt>
      <trkpt lat="47.2961" lon="-2.43495">
        <ele>3.2000000476837</ele>
        <time>2019-08-11T09:31:17.000Z</time>
      </trkpt>
      <trkpt lat="47.29604" lon="-2.43497">
        <ele>3.2000000476837</ele>
        <time>2019-08-11T09:31:18.000Z</time>
      </trkpt>
      <trkpt lat="47.29591" lon="-2.43502">
        <ele>3.2000000476837</ele>
        <time>2019-08-11T09:31:20.000Z</time>
      </trkpt>
      <trkpt lat="47.2957" lon="-2.43499">
        <ele>3.2000000476837</ele>
        <time>2019-08-11T09:31:23.000Z</time>
      </trkpt>
      <trkpt lat="47.29563" lon="-2.43498">
        <ele>3.2000000476837</ele>
        <time>2019-08-11T09:31:24.000Z</time>
      </trkpt>
      <trkpt lat="47.2951" lon="-2.43488">
        <ele>3.2000000476837</ele>
        <time>2019-08-11T09:31:32.000Z</time>
      </trkpt>
      <trkpt lat="47.29489" lon="-2.43478">
        <ele>3.2000000476837</ele>
        <time>2019-08-11T09:31:35.000Z</time>
      </trkpt>
      <trkpt lat="47.2947" lon="-2.43465">
        <ele>3.2000000476837</ele>
        <time>2019-08-11T09:31:38.000Z</time>
      </trkpt>
      <trkpt lat="47.29452" lon="-2.43466">
        <ele>3.2000000476837</ele>
        <time>2019-08-11T09:31:41.000Z</time>
      </trkpt>
      <trkpt lat="47.29444" lon="-2.43456">
        <ele>3.2000000476837</ele>
        <time>2019-08-11T09:31:43.000Z</time>
      </trkpt>
      <trkpt lat="47.29443" lon="-2.4345">
        <ele>3.2000000476837</ele>
        <time>2019-08-11T09:31:44.000Z</time>
      </trkpt>
      <trkpt lat="47.29437" lon="-2.4343">
        <ele>3.2000000476837</ele>
        <time>2019-08-11T09:31:48.000Z</time>
      </trkpt>
      <trkpt lat="47.29436" lon="-2.43424">
        <ele>3.2000000476837</ele>
        <time>2019-08-11T09:31:49.000Z</time>
      </trkpt>
      <trkpt lat="47.29433" lon="-2.43405">
        <ele>3.2000000476837</ele>
        <time>2019-08-11T09:31:52.000Z</time>
      </trkpt>
      <trkpt lat="47.29428" lon="-2.43394">
        <ele>3.2000000476837</ele>
        <time>2019-08-11T09:31:54.000Z</time>
      </trkpt>
      <trkpt lat="47.29412" lon="-2.43386">
        <ele>3.2000000476837</ele>
        <time>2019-08-11T09:31:58.000Z</time>
      </trkpt>
      <trkpt lat="47.29408" lon="-2.43378">
        <ele>3.2000000476837</ele>
        <time>2019-08-11T09:32:00.000Z</time>
      </trkpt>
      <trkpt lat="47.29408" lon="-2.43372">
        <ele>3.2000000476837</ele>
        <time>2019-08-11T09:32:01.000Z</time>
      </trkpt>
      <trkpt lat="47.29401" lon="-2.43347">
        <ele>3.2000000476837</ele>
        <time>2019-08-11T09:32:05.000Z</time>
      </trkpt>
      <trkpt lat="47.29394" lon="-2.43338">
        <ele>3.2000000476837</ele>
        <time>2019-08-11T09:32:07.000Z</time>
      </trkpt>
      <trkpt lat="47.29379" lon="-2.43316">
        <ele>3.2000000476837</ele>
        <time>2019-08-11T09:32:11.000Z</time>
      </trkpt>
      <trkpt lat="47.29363" lon="-2.43291">
        <ele>3.2000000476837</ele>
        <time>2019-08-11T09:32:16.000Z</time>
      </trkpt>
      <trkpt lat="47.29361" lon="-2.43285">
        <ele>3.2000000476837</ele>
        <time>2019-08-11T09:32:17.000Z</time>
      </trkpt>
      <trkpt lat="47.29358" lon="-2.43259">
        <ele>3.2000000476837</ele>
        <time>2019-08-11T09:32:21.000Z</time>
      </trkpt>
      <trkpt lat="47.29358" lon="-2.43252">
        <ele>3.2000000476837</ele>
        <time>2019-08-11T09:32:22.000Z</time>
      </trkpt>
      <trkpt lat="47.2936" lon="-2.43241">
        <ele>3.2000000476837</ele>
        <time>2019-08-11T09:32:24.000Z</time>
      </trkpt>
      <trkpt lat="47.29364" lon="-2.43232">
        <ele>3.2000000476837</ele>
        <time>2019-08-11T09:32:26.000Z</time>
      </trkpt>
      <trkpt lat="47.29367" lon="-2.43226">
        <ele>3.2000000476837</ele>
        <time>2019-08-11T09:32:27.000Z</time>
      </trkpt>
      <trkpt lat="47.29372" lon="-2.43203">
        <ele>3.2000000476837</ele>
        <time>2019-08-11T09:32:30.000Z</time>
      </trkpt>
      <trkpt lat="47.2937" lon="-2.43187">
        <ele>3.2000000476837</ele>
        <time>2019-08-11T09:32:32.000Z</time>
      </trkpt>
      <trkpt lat="47.29367" lon="-2.43168">
        <ele>3.2000000476837</ele>
        <time>2019-08-11T09:32:34.000Z</time>
      </trkpt>
      <trkpt lat="47.2936" lon="-2.43142">
        <ele>3.2000000476837</ele>
        <time>2019-08-11T09:32:37.000Z</time>
      </trkpt>
      <trkpt lat="47.29347" lon="-2.4311">
        <ele>3.2000000476837</ele>
        <time>2019-08-11T09:32:41.000Z</time>
      </trkpt>
      <trkpt lat="47.29339" lon="-2.43096">
        <ele>3.2000000476837</ele>
        <time>2019-08-11T09:32:43.000Z</time>
      </trkpt>
      <trkpt lat="47.29322" lon="-2.43081">
        <ele>3.2000000476837</ele>
        <time>2019-08-11T09:32:46.000Z</time>
      </trkpt>
      <trkpt lat="47.29317" lon="-2.43078">
        <ele>3.2000000476837</ele>
        <time>2019-08-11T09:32:47.000Z</time>
      </trkpt>
      <trkpt lat="47.29312" lon="-2.43075">
        <ele>3.2000000476837</ele>
        <time>2019-08-11T09:32:48.000Z</time>
      </trkpt>
      <trkpt lat="47.29304" lon="-2.43063">
        <ele>3.2000000476837</ele>
        <time>2019-08-11T09:32:50.000Z</time>
      </trkpt>
      <trkpt lat="47.29303" lon="-2.43037">
        <ele>3.2000000476837</ele>
        <time>2019-08-11T09:32:53.000Z</time>
      </trkpt>
      <trkpt lat="47.29305" lon="-2.43028">
        <ele>3.2000000476837</ele>
        <time>2019-08-11T09:32:54.000Z</time>
      </trkpt>
      <trkpt lat="47.29308" lon="-2.42994">
        <ele>3.2000000476837</ele>
        <time>2019-08-11T09:32:58.000Z</time>
      </trkpt>
      <trkpt lat="47.2931" lon="-2.42977">
        <ele>3.2000000476837</ele>
        <time>2019-08-11T09:33:00.000Z</time>
      </trkpt>
      <trkpt lat="47.2931" lon="-2.42951">
        <ele>3.2000000476837</ele>
        <time>2019-08-11T09:33:03.000Z</time>
      </trkpt>
      <trkpt lat="47.29312" lon="-2.42926">
        <ele>3.2000000476837</ele>
        <time>2019-08-11T09:33:06.000Z</time>
      </trkpt>
      <trkpt lat="47.29324" lon="-2.42878">
        <ele>3.2000000476837</ele>
        <time>2019-08-11T09:33:12.000Z</time>
      </trkpt>
      <trkpt lat="47.29327" lon="-2.4287">
        <ele>3.2000000476837</ele>
        <time>2019-08-11T09:33:13.000Z</time>
      </trkpt>
      <trkpt lat="47.29341" lon="-2.4284">
        <ele>3.2000000476837</ele>
        <time>2019-08-11T09:33:17.000Z</time>
      </trkpt>
      <trkpt lat="47.2935" lon="-2.42826">
        <ele>3.2000000476837</ele>
        <time>2019-08-11T09:33:19.000Z</time>
      </trkpt>
      <trkpt lat="47.29364" lon="-2.42811">
        <ele>3.2000000476837</ele>
        <time>2019-08-11T09:33:22.000Z</time>
      </trkpt>
      <trkpt lat="47.29369" lon="-2.42807">
        <ele>3.2000000476837</ele>
        <time>2019-08-11T09:33:23.000Z</time>
      </trkpt>
      <trkpt lat="47.29378" lon="-2.42788">
        <ele>3.2000000476837</ele>
        <time>2019-08-11T09:33:26.000Z</time>
      </trkpt>
      <trkpt lat="47.2938" lon="-2.4278">
        <ele>3.2000000476837</ele>
        <time>2019-08-11T09:33:27.000Z</time>
      </trkpt>
      <trkpt lat="47.29382" lon="-2.42772">
        <ele>3.2000000476837</ele>
        <time>2019-08-11T09:33:28.000Z</time>
      </trkpt>
      <trkpt lat="47.29386" lon="-2.42756">
        <ele>3.2000000476837</ele>
        <time>2019-08-11T09:33:30.000Z</time>
      </trkpt>
      <trkpt lat="47.2939" lon="-2.42742">
        <ele>3.2000000476837</ele>
        <time>2019-08-11T09:33:32.000Z</time>
      </trkpt>
      <trkpt lat="47.29407" lon="-2.42695">
        <ele>3.2000000476837</ele>
        <time>2019-08-11T09:33:38.000Z</time>
      </trkpt>
      <trkpt lat="47.29413" lon="-2.42677">
        <ele>3.2000000476837</ele>
        <time>2019-08-11T09:33:40.000Z</time>
      </trkpt>
      <trkpt lat="47.29416" lon="-2.42657">
        <ele>3.2000000476837</ele>
        <time>2019-08-11T09:33:42.000Z</time>
      </trkpt>
      <trkpt lat="47.29419" lon="-2.42609">
        <ele>3.2000000476837</ele>
        <time>2019-08-11T09:33:47.000Z</time>
      </trkpt>
      <trkpt lat="47.29422" lon="-2.42591">
        <ele>3.2000000476837</ele>
        <time>2019-08-11T09:33:49.000Z</time>
      </trkpt>
      <trkpt lat="47.29434" lon="-2.42572">
        <ele>3.2000000476837</ele>
        <time>2019-08-11T09:33:52.000Z</time>
      </trkpt>
      <trkpt lat="47.29438" lon="-2.42567">
        <ele>3.2000000476837</ele>
        <time>2019-08-11T09:33:53.000Z</time>
      </trkpt>
      <trkpt lat="47.29452" lon="-2.42551">
        <ele>3.2000000476837</ele>
        <time>2019-08-11T09:33:56.000Z</time>
      </trkpt>
      <trkpt lat="47.29457" lon="-2.42548">
        <ele>3.2000000476837</ele>
        <time>2019-08-11T09:33:57.000Z</time>
      </trkpt>
      <trkpt lat="47.29486" lon="-2.42517">
        <ele>3.2000000476837</ele>
        <time>2019-08-11T09:34:03.000Z</time>
      </trkpt>
      <trkpt lat="47.29514" lon="-2.42487">
        <ele>3.2000000476837</ele>
        <time>2019-08-11T09:34:09.000Z</time>
      </trkpt>
      <trkpt lat="47.29531" lon="-2.42474">
        <ele>3.2000000476837</ele>
        <time>2019-08-11T09:34:12.000Z</time>
      </trkpt>
      <trkpt lat="47.29536" lon="-2.42469">
        <ele>3.2000000476837</ele>
        <time>2019-08-11T09:34:13.000Z</time>
      </trkpt>
      <trkpt lat="47.29547" lon="-2.42448">
        <ele>3.2000000476837</ele>
        <time>2019-08-11T09:34:16.000Z</time>
      </trkpt>
      <trkpt lat="47.29551" lon="-2.42441">
        <ele>3.2000000476837</ele>
        <time>2019-08-11T09:34:17.000Z</time>
      </trkpt>
      <trkpt lat="47.2957" lon="-2.42425">
        <ele>3.2000000476837</ele>
        <time>2019-08-11T09:34:21.000Z</time>
      </trkpt>
      <trkpt lat="47.29587" lon="-2.42426">
        <ele>3.2000000476837</ele>
        <time>2019-08-11T09:34:24.000Z</time>
      </trkpt>
      <trkpt lat="47.29593" lon="-2.42427">
        <ele>3.2000000476837</ele>
        <time>2019-08-11T09:34:25.000Z</time>
      </trkpt>
      <trkpt lat="47.29617" lon="-2.42436">
        <ele>3.2000000476837</ele>
        <time>2019-08-11T09:34:30.000Z</time>
      </trkpt>
      <trkpt lat="47.29624" lon="-2.42434">
        <ele>3.2000000476837</ele>
        <time>2019-08-11T09:34:32.000Z</time>
      </trkpt>
      <trkpt lat="47.29626" lon="-2.42429">
        <ele>3.2000000476837</ele>
        <time>2019-08-11T09:34:33.000Z</time>
      </trkpt>
      <trkpt lat="47.29632" lon="-2.42401">
        <ele>3.2000000476837</ele>
        <time>2019-08-11T09:34:37.000Z</time>
      </trkpt>
      <trkpt lat="47.29644" lon="-2.42349">
        <ele>3.2000000476837</ele>
        <time>2019-08-11T09:34:43.000Z</time>
      </trkpt>
      <trkpt lat="47.2966" lon="-2.42278">
        <ele>3.2000000476837</ele>
        <time>2019-08-11T09:34:51.000Z</time>
      </trkpt>
      <trkpt lat="47.29676" lon="-2.42225">
        <ele>3.2000000476837</ele>
        <time>2019-08-11T09:34:57.000Z</time>
      </trkpt>
      <trkpt lat="47.29686" lon="-2.42202">
        <ele>3.2000000476837</ele>
        <time>2019-08-11T09:35:00.000Z</time>
      </trkpt>
      <trkpt lat="47.29693" lon="-2.42188">
        <ele>3.2000000476837</ele>
        <time>2019-08-11T09:35:02.000Z</time>
      </trkpt>
      <trkpt lat="47.29712" lon="-2.42154">
        <ele>3.2000000476837</ele>
        <time>2019-08-11T09:35:08.000Z</time>
      </trkpt>
      <trkpt lat="47.29735" lon="-2.42113">
        <ele>3.2000000476837</ele>
        <time>2019-08-11T09:35:15.000Z</time>
      </trkpt>
      <trkpt lat="47.29761" lon="-2.42066">
        <ele>3.2000000476837</ele>
        <time>2019-08-11T09:35:23.000Z</time>
      </trkpt>
      <trkpt lat="47.29779" lon="-2.42034">
        <ele>3.2000000476837</ele>
        <time>2019-08-11T09:35:28.000Z</time>
      </trkpt>
      <trkpt lat="47.29784" lon="-2.4202">
        <ele>3.2000000476837</ele>
        <time>2019-08-11T09:35:30.000Z</time>
      </trkpt>
      <trkpt lat="47.29786" lon="-2.41995">
        <ele>3.2000000476837</ele>
        <time>2019-08-11T09:35:33.000Z</time>
      </trkpt>
      <trkpt lat="47.29782" lon="-2.4197">
        <ele>3.2000000476837</ele>
        <time>2019-08-11T09:35:36.000Z</time>
      </trkpt>
      <trkpt lat="47.2978" lon="-2.41962">
        <ele>3.2000000476837</ele>
        <time>2019-08-11T09:35:37.000Z</time>
      </trkpt>
      <trkpt lat="47.29766" lon="-2.4189">
        <ele>3.2000000476837</ele>
        <time>2019-08-11T09:35:46.000Z</time>
      </trkpt>
      <trkpt lat="47.29766" lon="-2.41847">
        <ele>3.2000000476837</ele>
        <time>2019-08-11T09:35:51.000Z</time>
      </trkpt>
      <trkpt lat="47.2977" lon="-2.41791">
        <ele>3.2000000476837</ele>
        <time>2019-08-11T09:35:58.000Z</time>
      </trkpt>
      <trkpt lat="47.29766" lon="-2.41756">
        <ele>3.2000000476837</ele>
        <time>2019-08-11T09:36:03.000Z</time>
      </trkpt>
      <trkpt lat="47.29754" lon="-2.41747">
        <ele>3.2000000476837</ele>
        <time>2019-08-11T09:36:06.000Z</time>
      </trkpt>
      <trkpt lat="47.29741" lon="-2.41756">
        <ele>3.2000000476837</ele>
        <time>2019-08-11T09:36:09.000Z</time>
      </trkpt>
      <trkpt lat="47.29727" lon="-2.41774">
        <ele>3.2000000476837</ele>
        <time>2019-08-11T09:36:12.000Z</time>
      </trkpt>
      <trkpt lat="47.29723" lon="-2.41781">
        <ele>3.2000000476837</ele>
        <time>2019-08-11T09:36:13.000Z</time>
      </trkpt>
      <trkpt lat="47.29719" lon="-2.41788">
        <ele>3.2000000476837</ele>
        <time>2019-08-11T09:36:14.000Z</time>
      </trkpt>
      <trkpt lat="47.29705" lon="-2.41811">
        <ele>3.2000000476837</ele>
        <time>2019-08-11T09:36:17.000Z</time>
      </trkpt>
      <trkpt lat="47.297" lon="-2.41816">
        <ele>3.2000000476837</ele>
        <time>2019-08-11T09:36:18.000Z</time>
      </trkpt>
      <trkpt lat="47.29681" lon="-2.41823">
        <ele>3.2000000476837</ele>
        <time>2019-08-11T09:36:21.000Z</time>
      </trkpt>
      <trkpt lat="47.29668" lon="-2.41826">
        <ele>3.2000000476837</ele>
        <time>2019-08-11T09:36:23.000Z</time>
      </trkpt>
      <trkpt lat="47.29656" lon="-2.41829">
        <ele>3.2000000476837</ele>
        <time>2019-08-11T09:36:25.000Z</time>
      </trkpt>
      <trkpt lat="47.2965" lon="-2.41828">
        <ele>3.2000000476837</ele>
        <time>2019-08-11T09:36:26.000Z</time>
      </trkpt>
      <trkpt lat="47.29637" lon="-2.41811">
        <ele>3.2000000476837</ele>
        <time>2019-08-11T09:36:29.000Z</time>
      </trkpt>
      <trkpt lat="47.29636" lon="-2.41794">
        <ele>3.2000000476837</ele>
        <time>2019-08-11T09:36:31.000Z</time>
      </trkpt>
      <trkpt lat="47.29635" lon="-2.41785">
        <ele>3.2000000476837</ele>
        <time>2019-08-11T09:36:32.000Z</time>
      </trkpt>
      <trkpt lat="47.29632" lon="-2.41777">
        <ele>3.2000000476837</ele>
        <time>2019-08-11T09:36:33.000Z</time>
      </trkpt>
      <trkpt lat="47.29615" lon="-2.41749">
        <ele>3.2000000476837</ele>
        <time>2019-08-11T09:36:37.000Z</time>
      </trkpt>
      <trkpt lat="47.29596" lon="-2.41726">
        <ele>3.2000000476837</ele>
        <time>2019-08-11T09:36:41.000Z</time>
      </trkpt>
      <trkpt lat="47.2959" lon="-2.41721">
        <ele>3.2000000476837</ele>
        <time>2019-08-11T09:36:42.000Z</time>
      </trkpt>
      <trkpt lat="47.29573" lon="-2.41711">
        <ele>3.2000000476837</ele>
        <time>2019-08-11T09:36:45.000Z</time>
      </trkpt>
      <trkpt lat="47.29561" lon="-2.41706">
        <ele>3.2000000476837</ele>
        <time>2019-08-11T09:36:47.000Z</time>
      </trkpt>
      <trkpt lat="47.29547" lon="-2.41692">
        <ele>3.2000000476837</ele>
        <time>2019-08-11T09:36:50.000Z</time>
      </trkpt>
      <trkpt lat="47.29538" lon="-2.4167">
        <ele>3.2000000476837</ele>
        <time>2019-08-11T09:36:53.000Z</time>
      </trkpt>
      <trkpt lat="47.29533" lon="-2.41655">
        <ele>3.2000000476837</ele>
        <time>2019-08-11T09:36:55.000Z</time>
      </trkpt>
      <trkpt lat="47.29525" lon="-2.41611">
        <ele>3.2000000476837</ele>
        <time>2019-08-11T09:37:00.000Z</time>
      </trkpt>
      <trkpt lat="47.29531" lon="-2.41573">
        <ele>3.2000000476837</ele>
        <time>2019-08-11T09:37:04.000Z</time>
      </trkpt>
      <trkpt lat="47.29539" lon="-2.41547">
        <ele>3.2000000476837</ele>
        <time>2019-08-11T09:37:07.000Z</time>
      </trkpt>
      <trkpt lat="47.2954" lon="-2.41529">
        <ele>3.2000000476837</ele>
        <time>2019-08-11T09:37:09.000Z</time>
      </trkpt>
      <trkpt lat="47.29532" lon="-2.41503">
        <ele>3.2000000476837</ele>
        <time>2019-08-11T09:37:12.000Z</time>
      </trkpt>
      <trkpt lat="47.29529" lon="-2.41495">
        <ele>3.2000000476837</ele>
        <time>2019-08-11T09:37:13.000Z</time>
      </trkpt>
      <trkpt lat="47.29519" lon="-2.41481">
        <ele>3.2000000476837</ele>
        <time>2019-08-11T09:37:15.000Z</time>
      </trkpt>
      <trkpt lat="47.29509" lon="-2.41472">
        <ele>3.2000000476837</ele>
        <time>2019-08-11T09:37:17.000Z</time>
      </trkpt>
      <trkpt lat="47.29499" lon="-2.41474">
        <ele>3.2000000476837</ele>
        <time>2019-08-11T09:37:19.000Z</time>
      </trkpt>
      <trkpt lat="47.29493" lon="-2.41478">
        <ele>3.2000000476837</ele>
        <time>2019-08-11T09:37:20.000Z</time>
      </trkpt>
      <trkpt lat="47.29488" lon="-2.41481">
        <ele>3.2000000476837</ele>
        <time>2019-08-11T09:37:21.000Z</time>
      </trkpt>
      <trkpt lat="47.29475" lon="-2.4148">
        <ele>3.2000000476837</ele>
        <time>2019-08-11T09:37:23.000Z</time>
      </trkpt>
      <trkpt lat="47.29451" lon="-2.41484">
        <ele>3.2000000476837</ele>
        <time>2019-08-11T09:37:27.000Z</time>
      </trkpt>
      <trkpt lat="47.29428" lon="-2.41478">
        <ele>3.2000000476837</ele>
        <time>2019-08-11T09:37:31.000Z</time>
      </trkpt>
      <trkpt lat="47.29423" lon="-2.41473">
        <ele>3.2000000476837</ele>
        <time>2019-08-11T09:37:32.000Z</time>
      </trkpt>
      <trkpt lat="47.29397" lon="-2.41435">
        <ele>3.2000000476837</ele>
        <time>2019-08-11T09:37:38.000Z</time>
      </trkpt>
      <trkpt lat="47.2938" lon="-2.41396">
        <ele>3.2000000476837</ele>
        <time>2019-08-11T09:37:43.000Z</time>
      </trkpt>
      <trkpt lat="47.29376" lon="-2.41389">
        <ele>3.2000000476837</ele>
        <time>2019-08-11T09:37:44.000Z</time>
      </trkpt>
      <trkpt lat="47.29354" lon="-2.41358">
        <ele>3.2000000476837</ele>
        <time>2019-08-11T09:37:49.000Z</time>
      </trkpt>
      <trkpt lat="47.2935" lon="-2.41351">
        <ele>3.2000000476837</ele>
        <time>2019-08-11T09:37:50.000Z</time>
      </trkpt>
      <trkpt lat="47.29349" lon="-2.41327">
        <ele>2.7999999523163</ele>
        <time>2019-08-11T09:37:53.000Z</time>
      </trkpt>
      <trkpt lat="47.29352" lon="-2.41319">
        <ele>2.4000000953674</ele>
        <time>2019-08-11T09:37:54.000Z</time>
      </trkpt>
      <trkpt lat="47.29355" lon="-2.41313">
        <ele>2</ele>
        <time>2019-08-11T09:37:55.000Z</time>
      </trkpt>
      <trkpt lat="47.29358" lon="-2.41306">
        <ele>1.6000000238419</ele>
        <time>2019-08-11T09:37:56.000Z</time>
      </trkpt>
      <trkpt lat="47.2936" lon="-2.41298">
        <ele>1.2000000476837</ele>
        <time>2019-08-11T09:37:57.000Z</time>
      </trkpt>
      <trkpt lat="47.29359" lon="-2.41276">
        <ele>1.2000000476837</ele>
        <time>2019-08-11T09:38:00.000Z</time>
      </trkpt>
      <trkpt lat="47.29355" lon="-2.4125">
        <ele>1.2000000476837</ele>
        <time>2019-08-11T09:38:05.000Z</time>
      </trkpt>
      <trkpt lat="47.29351" lon="-2.41242">
        <ele>1.2000000476837</ele>
        <time>2019-08-11T09:38:09.000Z</time>
      </trkpt>
      <trkpt lat="47.29344" lon="-2.41235">
        <ele>1.2000000476837</ele>
        <time>2019-08-11T09:38:12.000Z</time>
      </trkpt>
      <trkpt lat="47.29341" lon="-2.41232">
        <ele>1.2000000476837</ele>
        <time>2019-08-11T09:38:13.000Z</time>
      </trkpt>
      <trkpt lat="47.29317" lon="-2.41205">
        <ele>1.2000000476837</ele>
        <time>2019-08-11T09:38:19.000Z</time>
      </trkpt>
      <trkpt lat="47.29305" lon="-2.4119">
        <ele>1.2000000476837</ele>
        <time>2019-08-11T09:38:22.000Z</time>
      </trkpt>
      <trkpt lat="47.293" lon="-2.41178">
        <ele>1.2000000476837</ele>
        <time>2019-08-11T09:38:24.000Z</time>
      </trkpt>
      <trkpt lat="47.2929" lon="-2.41152">
        <ele>1.2000000476837</ele>
        <time>2019-08-11T09:38:28.000Z</time>
      </trkpt>
      <trkpt lat="47.29283" lon="-2.41139">
        <ele>1.2000000476837</ele>
        <time>2019-08-11T09:38:30.000Z</time>
      </trkpt>
      <trkpt lat="47.29257" lon="-2.41105">
        <ele>1.2000000476837</ele>
        <time>2019-08-11T09:38:36.000Z</time>
      </trkpt>
      <trkpt lat="47.29247" lon="-2.41086">
        <ele>1.2000000476837</ele>
        <time>2019-08-11T09:38:39.000Z</time>
      </trkpt>
      <trkpt lat="47.29246" lon="-2.41077">
        <ele>1.2000000476837</ele>
        <time>2019-08-11T09:38:40.000Z</time>
      </trkpt>
      <trkpt lat="47.29253" lon="-2.41065">
        <ele>1.2000000476837</ele>
        <time>2019-08-11T09:38:42.000Z</time>
      </trkpt>
      <trkpt lat="47.29256" lon="-2.41041">
        <ele>1.2000000476837</ele>
        <time>2019-08-11T09:38:45.000Z</time>
      </trkpt>
      <trkpt lat="47.29247" lon="-2.4103">
        <ele>1.2000000476837</ele>
        <time>2019-08-11T09:38:47.000Z</time>
      </trkpt>
      <trkpt lat="47.2923" lon="-2.41004">
        <ele>1.2000000476837</ele>
        <time>2019-08-11T09:38:51.000Z</time>
      </trkpt>
      <trkpt lat="47.29227" lon="-2.40997">
        <ele>1.2000000476837</ele>
        <time>2019-08-11T09:38:52.000Z</time>
      </trkpt>
      <trkpt lat="47.2921" lon="-2.40958">
        <ele>1.2000000476837</ele>
        <time>2019-08-11T09:38:57.000Z</time>
      </trkpt>
      <trkpt lat="47.29188" lon="-2.40946">
        <ele>1.2000000476837</ele>
        <time>2019-08-11T09:39:01.000Z</time>
      </trkpt>
      <trkpt lat="47.29165" lon="-2.40933">
        <ele>1.2000000476837</ele>
        <time>2019-08-11T09:39:05.000Z</time>
      </trkpt>
      <trkpt lat="47.29163" lon="-2.40909">
        <ele>1.2000000476837</ele>
        <time>2019-08-11T09:39:08.000Z</time>
      </trkpt>
      <trkpt lat="47.29174" lon="-2.40867">
        <ele>1.2000000476837</ele>
        <time>2019-08-11T09:39:13.000Z</time>
      </trkpt>
      <trkpt lat="47.29173" lon="-2.40839">
        <ele>1.2000000476837</ele>
        <time>2019-08-11T09:39:16.000Z</time>
      </trkpt>
      <trkpt lat="47.29175" lon="-2.40802">
        <ele>1.2000000476837</ele>
        <time>2019-08-11T09:39:20.000Z</time>
      </trkpt>
      <trkpt lat="47.29182" lon="-2.40786">
        <ele>1.2000000476837</ele>
        <time>2019-08-11T09:39:22.000Z</time>
      </trkpt>
      <trkpt lat="47.29188" lon="-2.4077">
        <ele>1.2000000476837</ele>
        <time>2019-08-11T09:39:24.000Z</time>
      </trkpt>
      <trkpt lat="47.29194" lon="-2.40753">
        <ele>1.2000000476837</ele>
        <time>2019-08-11T09:39:26.000Z</time>
      </trkpt>
      <trkpt lat="47.29208" lon="-2.40734">
        <ele>1.2000000476837</ele>
        <time>2019-08-11T09:39:29.000Z</time>
      </trkpt>
      <trkpt lat="47.29212" lon="-2.40728">
        <ele>1.2000000476837</ele>
        <time>2019-08-11T09:39:30.000Z</time>
      </trkpt>
      <trkpt lat="47.29228" lon="-2.407">
        <ele>1.2000000476837</ele>
        <time>2019-08-11T09:39:34.000Z</time>
      </trkpt>
      <trkpt lat="47.29231" lon="-2.40692">
        <ele>1.2000000476837</ele>
        <time>2019-08-11T09:39:35.000Z</time>
      </trkpt>
      <trkpt lat="47.29233" lon="-2.40664">
        <ele>1.2000000476837</ele>
        <time>2019-08-11T09:39:38.000Z</time>
      </trkpt>
      <trkpt lat="47.29219" lon="-2.40628">
        <ele>1.2000000476837</ele>
        <time>2019-08-11T09:39:42.000Z</time>
      </trkpt>
      <trkpt lat="47.29198" lon="-2.40609">
        <ele>1.2000000476837</ele>
        <time>2019-08-11T09:39:46.000Z</time>
      </trkpt>
      <trkpt lat="47.29182" lon="-2.40621">
        <ele>1.2000000476837</ele>
        <time>2019-08-11T09:39:49.000Z</time>
      </trkpt>
      <trkpt lat="47.29176" lon="-2.40625">
        <ele>1.2000000476837</ele>
        <time>2019-08-11T09:39:50.000Z</time>
      </trkpt>
      <trkpt lat="47.2916" lon="-2.40638">
        <ele>1.2000000476837</ele>
        <time>2019-08-11T09:39:53.000Z</time>
      </trkpt>
      <trkpt lat="47.29149" lon="-2.40642">
        <ele>1.2000000476837</ele>
        <time>2019-08-11T09:39:55.000Z</time>
      </trkpt>
      <trkpt lat="47.29144" lon="-2.4064">
        <ele>1.2000000476837</ele>
        <time>2019-08-11T09:39:56.000Z</time>
      </trkpt>
      <trkpt lat="47.29141" lon="-2.40627">
        <ele>1.2000000476837</ele>
        <time>2019-08-11T09:39:58.000Z</time>
      </trkpt>
      <trkpt lat="47.29136" lon="-2.40594">
        <ele>1.2000000476837</ele>
        <time>2019-08-11T09:40:02.000Z</time>
      </trkpt>
      <trkpt lat="47.29133" lon="-2.40586">
        <ele>1.2000000476837</ele>
        <time>2019-08-11T09:40:03.000Z</time>
      </trkpt>
      <trkpt lat="47.29129" lon="-2.40579">
        <ele>1.2000000476837</ele>
        <time>2019-08-11T09:40:04.000Z</time>
      </trkpt>
      <trkpt lat="47.29121" lon="-2.40566">
        <ele>1.2000000476837</ele>
        <time>2019-08-11T09:40:06.000Z</time>
      </trkpt>
      <trkpt lat="47.29102" lon="-2.40544">
        <ele>1.2000000476837</ele>
        <time>2019-08-11T09:40:10.000Z</time>
      </trkpt>
      <trkpt lat="47.29099" lon="-2.40536">
        <ele>1.2000000476837</ele>
        <time>2019-08-11T09:40:11.000Z</time>
      </trkpt>
      <trkpt lat="47.29102" lon="-2.40519">
        <ele>1.2000000476837</ele>
        <time>2019-08-11T09:40:13.000Z</time>
      </trkpt>
      <trkpt lat="47.29114" lon="-2.40501">
        <ele>1.2000000476837</ele>
        <time>2019-08-11T09:40:16.000Z</time>
      </trkpt>
      <trkpt lat="47.29131" lon="-2.40491">
        <ele>1.2000000476837</ele>
        <time>2019-08-11T09:40:19.000Z</time>
      </trkpt>
      <trkpt lat="47.29137" lon="-2.40488">
        <ele>1.2000000476837</ele>
        <time>2019-08-11T09:40:20.000Z</time>
      </trkpt>
      <trkpt lat="47.29143" lon="-2.40486">
        <ele>1.2000000476837</ele>
        <time>2019-08-11T09:40:21.000Z</time>
      </trkpt>
      <trkpt lat="47.29161" lon="-2.40491">
        <ele>1.2000000476837</ele>
        <time>2019-08-11T09:40:24.000Z</time>
      </trkpt>
      <trkpt lat="47.29177" lon="-2.40516">
        <ele>1.2000000476837</ele>
        <time>2019-08-11T09:40:28.000Z</time>
      </trkpt>
      <trkpt lat="47.29188" lon="-2.40518">
        <ele>1.2000000476837</ele>
        <time>2019-08-11T09:40:30.000Z</time>
      </trkpt>
      <trkpt lat="47.29193" lon="-2.40516">
        <ele>1.2000000476837</ele>
        <time>2019-08-11T09:40:31.000Z</time>
      </trkpt>
      <trkpt lat="47.29206" lon="-2.4051">
        <ele>1.2000000476837</ele>
        <time>2019-08-11T09:40:33.000Z</time>
      </trkpt>
      <trkpt lat="47.29217" lon="-2.40503">
        <ele>1.2000000476837</ele>
        <time>2019-08-11T09:40:35.000Z</time>
      </trkpt>
      <trkpt lat="47.29255" lon="-2.4048">
        <ele>1.2000000476837</ele>
        <time>2019-08-11T09:40:41.000Z</time>
      </trkpt>
      <trkpt lat="47.29268" lon="-2.40474">
        <ele>1.2000000476837</ele>
        <time>2019-08-11T09:40:43.000Z</time>
      </trkpt>
      <trkpt lat="47.29281" lon="-2.4047">
        <ele>1.2000000476837</ele>
        <time>2019-08-11T09:40:45.000Z</time>
      </trkpt>
      <trkpt lat="47.29287" lon="-2.40465">
        <ele>1.2000000476837</ele>
        <time>2019-08-11T09:40:46.000Z</time>
      </trkpt>
      <trkpt lat="47.29299" lon="-2.40442">
        <ele>1.2000000476837</ele>
        <time>2019-08-11T09:40:49.000Z</time>
      </trkpt>
      <trkpt lat="47.29301" lon="-2.40433">
        <ele>1.2000000476837</ele>
        <time>2019-08-11T09:40:50.000Z</time>
      </trkpt>
      <trkpt lat="47.29307" lon="-2.40415">
        <ele>1.2000000476837</ele>
        <time>2019-08-11T09:40:52.000Z</time>
      </trkpt>
      <trkpt lat="47.29305" lon="-2.40397">
        <ele>1.2000000476837</ele>
        <time>2019-08-11T09:40:54.000Z</time>
      </trkpt>
      <trkpt lat="47.29297" lon="-2.40381">
        <ele>1.2000000476837</ele>
        <time>2019-08-11T09:40:56.000Z</time>
      </trkpt>
      <trkpt lat="47.29289" lon="-2.40364">
        <ele>1.2000000476837</ele>
        <time>2019-08-11T09:40:58.000Z</time>
      </trkpt>
      <trkpt lat="47.29287" lon="-2.40355">
        <ele>1.2000000476837</ele>
        <time>2019-08-11T09:40:59.000Z</time>
      </trkpt>
      <trkpt lat="47.29289" lon="-2.40339">
        <ele>1.2000000476837</ele>
        <time>2019-08-11T09:41:01.000Z</time>
      </trkpt>
      <trkpt lat="47.29303" lon="-2.40324">
        <ele>1.2000000476837</ele>
        <time>2019-08-11T09:41:04.000Z</time>
      </trkpt>
      <trkpt lat="47.29309" lon="-2.40318">
        <ele>1.2000000476837</ele>
        <time>2019-08-11T09:41:05.000Z</time>
      </trkpt>
      <trkpt lat="47.29319" lon="-2.40307">
        <ele>1.2000000476837</ele>
        <time>2019-08-11T09:41:07.000Z</time>
      </trkpt>
      <trkpt lat="47.29334" lon="-2.40289">
        <ele>1.2000000476837</ele>
        <time>2019-08-11T09:41:10.000Z</time>
      </trkpt>
      <trkpt lat="47.29363" lon="-2.40262">
        <ele>1.2000000476837</ele>
        <time>2019-08-11T09:41:15.000Z</time>
      </trkpt>
      <trkpt lat="47.29384" lon="-2.40243">
        <ele>1.2000000476837</ele>
        <time>2019-08-11T09:41:19.000Z</time>
      </trkpt>
      <trkpt lat="47.2939" lon="-2.40239">
        <ele>1.2000000476837</ele>
        <time>2019-08-11T09:41:20.000Z</time>
      </trkpt>
      <trkpt lat="47.29407" lon="-2.40228">
        <ele>1.2000000476837</ele>
        <time>2019-08-11T09:41:23.000Z</time>
      </trkpt>
      <trkpt lat="47.29425" lon="-2.40219">
        <ele>1.2000000476837</ele>
        <time>2019-08-11T09:41:26.000Z</time>
      </trkpt>
      <trkpt lat="47.29431" lon="-2.40218">
        <ele>1.2000000476837</ele>
        <time>2019-08-11T09:41:27.000Z</time>
      </trkpt>
      <trkpt lat="47.29443" lon="-2.40218">
        <ele>1.2000000476837</ele>
        <time>2019-08-11T09:41:29.000Z</time>
      </trkpt>
      <trkpt lat="47.29451" lon="-2.40207">
        <ele>1.2000000476837</ele>
        <time>2019-08-11T09:41:31.000Z</time>
      </trkpt>
      <trkpt lat="47.29455" lon="-2.40174">
        <ele>1.2000000476837</ele>
        <time>2019-08-11T09:41:35.000Z</time>
      </trkpt>
      <trkpt lat="47.29456" lon="-2.40166">
        <ele>1.2000000476837</ele>
        <time>2019-08-11T09:41:36.000Z</time>
      </trkpt>
      <trkpt lat="47.29457" lon="-2.40125">
        <ele>1.2000000476837</ele>
        <time>2019-08-11T09:41:41.000Z</time>
      </trkpt>
      <trkpt lat="47.29459" lon="-2.40108">
        <ele>1.2000000476837</ele>
        <time>2019-08-11T09:41:43.000Z</time>
      </trkpt>
      <trkpt lat="47.29463" lon="-2.40074">
        <ele>1.2000000476837</ele>
        <time>2019-08-11T09:41:47.000Z</time>
      </trkpt>
      <trkpt lat="47.29463" lon="-2.40065">
        <ele>1.2000000476837</ele>
        <time>2019-08-11T09:41:48.000Z</time>
      </trkpt>
      <trkpt lat="47.29462" lon="-2.40029">
        <ele>1.2000000476837</ele>
        <time>2019-08-11T09:41:52.000Z</time>
      </trkpt>
      <trkpt lat="47.29461" lon="-2.39998">
        <ele>1.2000000476837</ele>
        <time>2019-08-11T09:41:56.000Z</time>
      </trkpt>
      <trkpt lat="47.29462" lon="-2.39991">
        <ele>1.2000000476837</ele>
        <time>2019-08-11T09:41:57.000Z</time>
      </trkpt>
      <trkpt lat="47.29465" lon="-2.39976">
        <ele>1.2000000476837</ele>
        <time>2019-08-11T09:41:59.000Z</time>
      </trkpt>
      <trkpt lat="47.29471" lon="-2.39957">
        <ele>1.2000000476837</ele>
        <time>2019-08-11T09:42:02.000Z</time>
      </trkpt>
      <trkpt lat="47.29482" lon="-2.39933">
        <ele>1.2000000476837</ele>
        <time>2019-08-11T09:42:07.000Z</time>
      </trkpt>
      <trkpt lat="47.29483" lon="-2.39913">
        <ele>1.2000000476837</ele>
        <time>2019-08-11T09:42:12.000Z</time>
      </trkpt>
      <trkpt lat="47.29478" lon="-2.39896">
        <ele>1.2000000476837</ele>
        <time>2019-08-11T09:42:18.000Z</time>
      </trkpt>
      <trkpt lat="47.29483" lon="-2.39891">
        <ele>1.2000000476837</ele>
        <time>2019-08-11T09:42:21.000Z</time>
      </trkpt>
      <trkpt lat="47.29491" lon="-2.39896">
        <ele>1.2000000476837</ele>
        <time>2019-08-11T09:42:24.000Z</time>
      </trkpt>
      <trkpt lat="47.29502" lon="-2.39894">
        <ele>1.2000000476837</ele>
        <time>2019-08-11T09:42:27.000Z</time>
      </trkpt>
      <trkpt lat="47.29507" lon="-2.39885">
        <ele>1.2000000476837</ele>
        <time>2019-08-11T09:42:29.000Z</time>
      </trkpt>
      <trkpt lat="47.29513" lon="-2.39874">
        <ele>1.2000000476837</ele>
        <time>2019-08-11T09:42:31.000Z</time>
      </trkpt>
      <trkpt lat="47.29533" lon="-2.3983">
        <ele>1.2000000476837</ele>
        <time>2019-08-11T09:42:38.000Z</time>
      </trkpt>
      <trkpt lat="47.29551" lon="-2.39799">
        <ele>1.2000000476837</ele>
        <time>2019-08-11T09:42:43.000Z</time>
      </trkpt>
      <trkpt lat="47.29554" lon="-2.39792">
        <ele>1.2000000476837</ele>
        <time>2019-08-11T09:42:44.000Z</time>
      </trkpt>
      <trkpt lat="47.29557" lon="-2.39785">
        <ele>1.2000000476837</ele>
        <time>2019-08-11T09:42:45.000Z</time>
      </trkpt>
      <trkpt lat="47.29569" lon="-2.39755">
        <ele>1.2000000476837</ele>
        <time>2019-08-11T09:42:49.000Z</time>
      </trkpt>
      <trkpt lat="47.29591" lon="-2.39713">
        <ele>1.2000000476837</ele>
        <time>2019-08-11T09:42:55.000Z</time>
      </trkpt>
      <trkpt lat="47.29595" lon="-2.39706">
        <ele>1.2000000476837</ele>
        <time>2019-08-11T09:42:56.000Z</time>
      </trkpt>
      <trkpt lat="47.29615" lon="-2.39671">
        <ele>1.2000000476837</ele>
        <time>2019-08-11T09:43:01.000Z</time>
      </trkpt>
      <trkpt lat="47.29618" lon="-2.39664">
        <ele>1.2000000476837</ele>
        <time>2019-08-11T09:43:02.000Z</time>
      </trkpt>
      <trkpt lat="47.29622" lon="-2.39657">
        <ele>1.2000000476837</ele>
        <time>2019-08-11T09:43:03.000Z</time>
      </trkpt>
      <trkpt lat="47.29626" lon="-2.3964">
        <ele>1.2000000476837</ele>
        <time>2019-08-11T09:43:05.000Z</time>
      </trkpt>
      <trkpt lat="47.29628" lon="-2.39613">
        <ele>1.2000000476837</ele>
        <time>2019-08-11T09:43:08.000Z</time>
      </trkpt>
      <trkpt lat="47.29628" lon="-2.39605">
        <ele>1.2000000476837</ele>
        <time>2019-08-11T09:43:09.000Z</time>
      </trkpt>
      <trkpt lat="47.29629" lon="-2.39597">
        <ele>1.2000000476837</ele>
        <time>2019-08-11T09:43:10.000Z</time>
      </trkpt>
      <trkpt lat="47.29629" lon="-2.39581">
        <ele>1.2000000476837</ele>
        <time>2019-08-11T09:43:12.000Z</time>
      </trkpt>
      <trkpt lat="47.29627" lon="-2.39572">
        <ele>1.2000000476837</ele>
        <time>2019-08-11T09:43:14.000Z</time>
      </trkpt>
      <trkpt lat="47.29619" lon="-2.39561">
        <ele>1.2000000476837</ele>
        <time>2019-08-11T09:43:18.000Z</time>
      </trkpt>
      <trkpt lat="47.29619" lon="-2.39559">
        <ele>1.7999999523163</ele>
        <time>2019-08-11T09:43:19.000Z</time>
      </trkpt>
      <trkpt lat="47.29621" lon="-2.39558">
        <ele>2.2000000476837</ele>
        <time>2019-08-11T09:43:20.000Z</time>
      </trkpt>
      <trkpt lat="47.29623" lon="-2.39559">
        <ele>2.5999999046326</ele>
        <time>2019-08-11T09:43:21.000Z</time>
      </trkpt>
      <trkpt lat="47.29626" lon="-2.39558">
        <ele>3</ele>
        <time>2019-08-11T09:43:22.000Z</time>
      </trkpt>
      <trkpt lat="47.29629" lon="-2.39556">
        <ele>3.4000000953674</ele>
        <time>2019-08-11T09:43:23.000Z</time>
      </trkpt>
      <trkpt lat="47.2963" lon="-2.39553">
        <ele>3.4000000953674</ele>
        <time>2019-08-11T09:43:24.000Z</time>
      </trkpt>
      <trkpt lat="47.29628" lon="-2.39548">
        <ele>3.7999999523163</ele>
        <time>2019-08-11T09:43:26.000Z</time>
      </trkpt>
      <trkpt lat="47.29626" lon="-2.39546">
        <ele>4.1999998092651</ele>
        <time>2019-08-11T09:43:27.000Z</time>
      </trkpt>
      <trkpt lat="47.29624" lon="-2.39546">
        <ele>4.5999999046326</ele>
        <time>2019-08-11T09:43:28.000Z</time>
      </trkpt>
      <trkpt lat="47.29621" lon="-2.39545">
        <ele>5.1999998092651</ele>
        <time>2019-08-11T09:43:29.000Z</time>
      </trkpt>
      <trkpt lat="47.29615" lon="-2.39546">
        <ele>5.5999999046326</ele>
        <time>2019-08-11T09:43:30.000Z</time>
      </trkpt>
      <trkpt lat="47.29611" lon="-2.39547">
        <ele>5.5999999046326</ele>
        <time>2019-08-11T09:43:31.000Z</time>
      </trkpt>
      <trkpt lat="47.29607" lon="-2.39548">
        <ele>5.5999999046326</ele>
        <time>2019-08-11T09:43:32.000Z</time>
      </trkpt>
      <trkpt lat="47.29596" lon="-2.39548">
        <ele>6</ele>
        <time>2019-08-11T09:43:35.000Z</time>
      </trkpt>
      <trkpt lat="47.29593" lon="-2.39548">
        <ele>6.4000000953674</ele>
        <time>2019-08-11T09:43:36.000Z</time>
      </trkpt>
      <trkpt lat="47.29589" lon="-2.39547">
        <ele>6.8000001907349</ele>
        <time>2019-08-11T09:43:37.000Z</time>
      </trkpt>
      <trkpt lat="47.29585" lon="-2.39547">
        <ele>7.4000000953674</ele>
        <time>2019-08-11T09:43:38.000Z</time>
      </trkpt>
      <trkpt lat="47.29581" lon="-2.39546">
        <ele>7.8000001907349</ele>
        <time>2019-08-11T09:43:39.000Z</time>
      </trkpt>
      <trkpt lat="47.2956" lon="-2.39541">
        <ele>7.8000001907349</ele>
        <time>2019-08-11T09:43:43.000Z</time>
      </trkpt>
      <trkpt lat="47.29557" lon="-2.39537">
        <ele>7.8000001907349</ele>
        <time>2019-08-11T09:43:44.000Z</time>
      </trkpt>
      <trkpt lat="47.29557" lon="-2.39532">
        <ele>7.8000001907349</ele>
        <time>2019-08-11T09:43:45.000Z</time>
      </trkpt>
      <trkpt lat="47.29557" lon="-2.39522">
        <ele>7.1999998092651</ele>
        <time>2019-08-11T09:43:47.000Z</time>
      </trkpt>
      <trkpt lat="47.29557" lon="-2.39518">
        <ele>6.8000001907349</ele>
        <time>2019-08-11T09:43:48.000Z</time>
      </trkpt>
      <trkpt lat="47.29556" lon="-2.39514">
        <ele>6.4000000953674</ele>
        <time>2019-08-11T09:43:49.000Z</time>
      </trkpt>
      <trkpt lat="47.29556" lon="-2.39511">
        <ele>6</ele>
        <time>2019-08-11T09:43:50.000Z</time>
      </trkpt>
      <trkpt lat="47.29557" lon="-2.39509">
        <ele>5.4000000953674</ele>
        <time>2019-08-11T09:43:51.000Z</time>
      </trkpt>
      <trkpt lat="47.29557" lon="-2.39505">
        <ele>5.4000000953674</ele>
        <time>2019-08-11T09:43:52.000Z</time>
      </trkpt>
      <trkpt lat="47.29557" lon="-2.39502">
        <ele>5</ele>
        <time>2019-08-11T09:43:53.000Z</time>
      </trkpt>
      <trkpt lat="47.29557" lon="-2.39498">
        <ele>4.5999999046326</ele>
        <time>2019-08-11T09:43:54.000Z</time>
      </trkpt>
      <trkpt lat="47.2956" lon="-2.39495">
        <ele>4</ele>
        <time>2019-08-11T09:43:55.000Z</time>
      </trkpt>
      <trkpt lat="47.29564" lon="-2.39494">
        <ele>3.5999999046326</ele>
        <time>2019-08-11T09:43:56.000Z</time>
      </trkpt>
      <trkpt lat="47.29568" lon="-2.39494">
        <ele>3.2000000476837</ele>
        <time>2019-08-11T09:43:57.000Z</time>
      </trkpt>
      <trkpt lat="47.29573" lon="-2.39495">
        <ele>3.2000000476837</ele>
        <time>2019-08-11T09:43:58.000Z</time>
      </trkpt>
      <trkpt lat="47.29577" lon="-2.39497">
        <ele>3.2000000476837</ele>
        <time>2019-08-11T09:43:59.000Z</time>
      </trkpt>
      <trkpt lat="47.29583" lon="-2.39498">
        <ele>3.2000000476837</ele>
        <time>2019-08-11T09:44:00.000Z</time>
      </trkpt>
      <trkpt lat="47.29593" lon="-2.39495">
        <ele>3.2000000476837</ele>
        <time>2019-08-11T09:44:02.000Z</time>
      </trkpt>
      <trkpt lat="47.29604" lon="-2.39479">
        <ele>3.2000000476837</ele>
        <time>2019-08-11T09:44:05.000Z</time>
      </trkpt>
      <trkpt lat="47.29608" lon="-2.39473">
        <ele>3.2000000476837</ele>
        <time>2019-08-11T09:44:06.000Z</time>
      </trkpt>
      <trkpt lat="47.29618" lon="-2.39456">
        <ele>3.2000000476837</ele>
        <time>2019-08-11T09:44:09.000Z</time>
      </trkpt>
      <trkpt lat="47.29624" lon="-2.39445">
        <ele>3.2000000476837</ele>
        <time>2019-08-11T09:44:11.000Z</time>
      </trkpt>
      <trkpt lat="47.29632" lon="-2.39423">
        <ele>3.2000000476837</ele>
        <time>2019-08-11T09:44:15.000Z</time>
      </trkpt>
      <trkpt lat="47.29632" lon="-2.39417">
        <ele>3.2000000476837</ele>
        <time>2019-08-11T09:44:16.000Z</time>
      </trkpt>
      <trkpt lat="47.29635" lon="-2.39392">
        <ele>3.2000000476837</ele>
        <time>2019-08-11T09:44:21.000Z</time>
      </trkpt>
      <trkpt lat="47.29639" lon="-2.39373">
        <ele>3.2000000476837</ele>
        <time>2019-08-11T09:44:25.000Z</time>
      </trkpt>
      <trkpt lat="47.29641" lon="-2.39351">
        <ele>3.2000000476837</ele>
        <time>2019-08-11T09:44:30.000Z</time>
      </trkpt>
      <trkpt lat="47.29644" lon="-2.39332">
        <ele>3.2000000476837</ele>
        <time>2019-08-11T09:44:35.000Z</time>
      </trkpt>
      <trkpt lat="47.29644" lon="-2.39334">
        <ele>3.2000000476837</ele>
        <time>2019-08-11T09:44:37.000Z</time>
      </trkpt>
      <trkpt lat="47.29644" lon="-2.39336">
        <ele>3.2000000476837</ele>
        <time>2019-08-11T09:44:38.000Z</time>
      </trkpt>
      <trkpt lat="47.29643" lon="-2.39352">
        <ele>3.2000000476837</ele>
        <time>2019-08-11T09:44:42.000Z</time>
      </trkpt>
      <trkpt lat="47.29639" lon="-2.39386">
        <ele>3.2000000476837</ele>
        <time>2019-08-11T09:44:46.000Z</time>
      </trkpt>
      <trkpt lat="47.29632" lon="-2.39421">
        <ele>3.2000000476837</ele>
        <time>2019-08-11T09:44:50.000Z</time>
      </trkpt>
      <trkpt lat="47.2963" lon="-2.3943">
        <ele>3.2000000476837</ele>
        <time>2019-08-11T09:44:51.000Z</time>
      </trkpt>
      <trkpt lat="47.29623" lon="-2.39444">
        <ele>3.2000000476837</ele>
        <time>2019-08-11T09:44:53.000Z</time>
      </trkpt>
      <trkpt lat="47.29612" lon="-2.39463">
        <ele>3.2000000476837</ele>
        <time>2019-08-11T09:44:56.000Z</time>
      </trkpt>
      <trkpt lat="47.29605" lon="-2.39474">
        <ele>3.2000000476837</ele>
        <time>2019-08-11T09:44:58.000Z</time>
      </trkpt>
      <trkpt lat="47.29588" lon="-2.39501">
        <ele>3.2000000476837</ele>
        <time>2019-08-11T09:45:04.000Z</time>
      </trkpt>
      <trkpt lat="47.29575" lon="-2.395">
        <ele>3.2000000476837</ele>
        <time>2019-08-11T09:45:08.000Z</time>
      </trkpt>
      <trkpt lat="47.29562" lon="-2.39493">
        <ele>3.2000000476837</ele>
        <time>2019-08-11T09:45:13.000Z</time>
      </trkpt>
      <trkpt lat="47.2956" lon="-2.39492">
        <ele>3.2000000476837</ele>
        <time>2019-08-11T09:45:14.000Z</time>
      </trkpt>
      <trkpt lat="47.29559" lon="-2.39489">
        <ele>3.2000000476837</ele>
        <time>2019-08-11T09:45:16.000Z</time>
      </trkpt>
      <trkpt lat="47.29563" lon="-2.39487">
        <ele>2.7999999523163</ele>
        <time>2019-08-11T09:45:19.000Z</time>
      </trkpt>
      <trkpt lat="47.29565" lon="-2.39489">
        <ele>2.4000000953674</ele>
        <time>2019-08-11T09:45:20.000Z</time>
      </trkpt>
      <trkpt lat="47.29567" lon="-2.39492">
        <ele>2</ele>
        <time>2019-08-11T09:45:21.000Z</time>
      </trkpt>
      <trkpt lat="47.29568" lon="-2.39495">
        <ele>1.6000000238419</ele>
        <time>2019-08-11T09:45:22.000Z</time>
      </trkpt>
      <trkpt lat="47.29571" lon="-2.39497">
        <ele>1</ele>
        <time>2019-08-11T09:45:23.000Z</time>
      </trkpt>
      <trkpt lat="47.29578" lon="-2.39499">
        <ele>1</ele>
        <time>2019-08-11T09:45:25.000Z</time>
      </trkpt>
      <trkpt lat="47.29582" lon="-2.39499">
        <ele>1</ele>
        <time>2019-08-11T09:45:26.000Z</time>
      </trkpt>
      <trkpt lat="47.29596" lon="-2.39487">
        <ele>1</ele>
        <time>2019-08-11T09:45:29.000Z</time>
      </trkpt>
      <trkpt lat="47.29604" lon="-2.39473">
        <ele>1</ele>
        <time>2019-08-11T09:45:31.000Z</time>
      </trkpt>
      <trkpt lat="47.29617" lon="-2.39452">
        <ele>1</ele>
        <time>2019-08-11T09:45:34.000Z</time>
      </trkpt>
      <trkpt lat="47.29625" lon="-2.39437">
        <ele>1</ele>
        <time>2019-08-11T09:45:36.000Z</time>
      </trkpt>
      <trkpt lat="47.2963" lon="-2.39419">
        <ele>1</ele>
        <time>2019-08-11T09:45:38.000Z</time>
      </trkpt>
      <trkpt lat="47.29635" lon="-2.39391">
        <ele>1</ele>
        <time>2019-08-11T09:45:41.000Z</time>
      </trkpt>
      <trkpt lat="47.29638" lon="-2.39374">
        <ele>1</ele>
        <time>2019-08-11T09:45:43.000Z</time>
      </trkpt>
      <trkpt lat="47.29641" lon="-2.39356">
        <ele>1.3999999761581</ele>
        <time>2019-08-11T09:45:45.000Z</time>
      </trkpt>
      <trkpt lat="47.29642" lon="-2.39346">
        <ele>1.7999999523163</ele>
        <time>2019-08-11T09:45:46.000Z</time>
      </trkpt>
      <trkpt lat="47.29643" lon="-2.39337">
        <ele>2.4000000953674</ele>
        <time>2019-08-11T09:45:47.000Z</time>
      </trkpt>
      <trkpt lat="47.29643" lon="-2.39328">
        <ele>2.7999999523163</ele>
        <time>2019-08-11T09:45:48.000Z</time>
      </trkpt>
      <trkpt lat="47.29644" lon="-2.39319">
        <ele>3.2000000476837</ele>
        <time>2019-08-11T09:45:49.000Z</time>
      </trkpt>
      <trkpt lat="47.29646" lon="-2.39301">
        <ele>3.2000000476837</ele>
        <time>2019-08-11T09:45:51.000Z</time>
      </trkpt>
      <trkpt lat="47.29647" lon="-2.39286">
        <ele>3.2000000476837</ele>
        <time>2019-08-11T09:45:53.000Z</time>
      </trkpt>
      <trkpt lat="47.2965" lon="-2.39263">
        <ele>3.2000000476837</ele>
        <time>2019-08-11T09:45:56.000Z</time>
      </trkpt>
      <trkpt lat="47.29652" lon="-2.3925">
        <ele>3.2000000476837</ele>
        <time>2019-08-11T09:45:58.000Z</time>
      </trkpt>
      <trkpt lat="47.29657" lon="-2.39227">
        <ele>3.2000000476837</ele>
        <time>2019-08-11T09:46:02.000Z</time>
      </trkpt>
      <trkpt lat="47.29663" lon="-2.392">
        <ele>3.2000000476837</ele>
        <time>2019-08-11T09:46:08.000Z</time>
      </trkpt>
      <trkpt lat="47.29664" lon="-2.39195">
        <ele>3.2000000476837</ele>
        <time>2019-08-11T09:46:11.000Z</time>
      </trkpt>
      <trkpt lat="47.29664" lon="-2.39192">
        <ele>3.2000000476837</ele>
        <time>2019-08-11T09:46:17.000Z</time>
      </trkpt>
      <trkpt lat="47.29657" lon="-2.39185">
        <ele>3.2000000476837</ele>
        <time>2019-08-11T09:46:21.000Z</time>
      </trkpt>
      <trkpt lat="47.29651" lon="-2.39183">
        <ele>3.2000000476837</ele>
        <time>2019-08-11T09:46:23.000Z</time>
      </trkpt>
      <trkpt lat="47.29647" lon="-2.39182">
        <ele>3.2000000476837</ele>
        <time>2019-08-11T09:46:24.000Z</time>
      </trkpt>
      <trkpt lat="47.29638" lon="-2.39178">
        <ele>3.2000000476837</ele>
        <time>2019-08-11T09:46:26.000Z</time>
      </trkpt>
      <trkpt lat="47.29606" lon="-2.39169">
        <ele>3.2000000476837</ele>
        <time>2019-08-11T09:46:32.000Z</time>
      </trkpt>
      <trkpt lat="47.29566" lon="-2.39167">
        <ele>3.2000000476837</ele>
        <time>2019-08-11T09:46:39.000Z</time>
      </trkpt>
      <trkpt lat="47.29523" lon="-2.39173">
        <ele>3.2000000476837</ele>
        <time>2019-08-11T09:46:46.000Z</time>
      </trkpt>
      <trkpt lat="47.29489" lon="-2.39173">
        <ele>3.2000000476837</ele>
        <time>2019-08-11T09:46:52.000Z</time>
      </trkpt>
      <trkpt lat="47.2945" lon="-2.39177">
        <ele>3.2000000476837</ele>
        <time>2019-08-11T09:46:59.000Z</time>
      </trkpt>
      <trkpt lat="47.29422" lon="-2.39176">
        <ele>3.2000000476837</ele>
        <time>2019-08-11T09:47:05.000Z</time>
      </trkpt>
      <trkpt lat="47.2941" lon="-2.39176">
        <ele>3.2000000476837</ele>
        <time>2019-08-11T09:47:08.000Z</time>
      </trkpt>
      <trkpt lat="47.29401" lon="-2.39176">
        <ele>3.2000000476837</ele>
        <time>2019-08-11T09:47:10.000Z</time>
      </trkpt>
      <trkpt lat="47.29371" lon="-2.39169">
        <ele>3.2000000476837</ele>
        <time>2019-08-11T09:47:16.000Z</time>
      </trkpt>
      <trkpt lat="47.29361" lon="-2.39168">
        <ele>3.2000000476837</ele>
        <time>2019-08-11T09:47:18.000Z</time>
      </trkpt>
      <trkpt lat="47.29355" lon="-2.3917">
        <ele>3.2000000476837</ele>
        <time>2019-08-11T09:47:20.000Z</time>
      </trkpt>
      <trkpt lat="47.29349" lon="-2.39164">
        <ele>3.2000000476837</ele>
        <time>2019-08-11T09:47:23.000Z</time>
      </trkpt>
      <trkpt lat="47.29347" lon="-2.3916">
        <ele>3.2000000476837</ele>
        <time>2019-08-11T09:47:24.000Z</time>
      </trkpt>
      <trkpt lat="47.29341" lon="-2.39154">
        <ele>3.2000000476837</ele>
        <time>2019-08-11T09:47:26.000Z</time>
      </trkpt>
      <trkpt lat="47.29337" lon="-2.39152">
        <ele>3.2000000476837</ele>
        <time>2019-08-11T09:47:27.000Z</time>
      </trkpt>
      <trkpt lat="47.29309" lon="-2.39138">
        <ele>3.2000000476837</ele>
        <time>2019-08-11T09:47:33.000Z</time>
      </trkpt>
      <trkpt lat="47.29289" lon="-2.39125">
        <ele>2.7999999523163</ele>
        <time>2019-08-11T09:47:37.000Z</time>
      </trkpt>
      <trkpt lat="47.29284" lon="-2.39121">
        <ele>2.2000000476837</ele>
        <time>2019-08-11T09:47:38.000Z</time>
      </trkpt>
      <trkpt lat="47.2928" lon="-2.39118">
        <ele>1.7999999523163</ele>
        <time>2019-08-11T09:47:39.000Z</time>
      </trkpt>
      <trkpt lat="47.29276" lon="-2.39115">
        <ele>1</ele>
        <time>2019-08-11T09:47:40.000Z</time>
      </trkpt>
      <trkpt lat="47.29268" lon="-2.39113">
        <ele>1</ele>
        <time>2019-08-11T09:47:42.000Z</time>
      </trkpt>
      <trkpt lat="47.29261" lon="-2.39118">
        <ele>1</ele>
        <time>2019-08-11T09:47:44.000Z</time>
      </trkpt>
      <trkpt lat="47.29259" lon="-2.39139">
        <ele>1</ele>
        <time>2019-08-11T09:47:47.000Z</time>
      </trkpt>
      <trkpt lat="47.29254" lon="-2.39185">
        <ele>1</ele>
        <time>2019-08-11T09:47:53.000Z</time>
      </trkpt>
      <trkpt lat="47.29253" lon="-2.39193">
        <ele>1</ele>
        <time>2019-08-11T09:47:54.000Z</time>
      </trkpt>
      <trkpt lat="47.29251" lon="-2.39225">
        <ele>1</ele>
        <time>2019-08-11T09:47:58.000Z</time>
      </trkpt>
      <trkpt lat="47.29252" lon="-2.39232">
        <ele>1</ele>
        <time>2019-08-11T09:47:59.000Z</time>
      </trkpt>
      <trkpt lat="47.29262" lon="-2.39266">
        <ele>1</ele>
        <time>2019-08-11T09:48:04.000Z</time>
      </trkpt>
      <trkpt lat="47.29269" lon="-2.39286">
        <ele>1</ele>
        <time>2019-08-11T09:48:08.000Z</time>
      </trkpt>
      <trkpt lat="47.29268" lon="-2.3929">
        <ele>1</ele>
        <time>2019-08-11T09:48:09.000Z</time>
      </trkpt>
      <trkpt lat="47.29256" lon="-2.39299">
        <ele>1</ele>
        <time>2019-08-11T09:48:12.000Z</time>
      </trkpt>
      <trkpt lat="47.29247" lon="-2.39303">
        <ele>1</ele>
        <time>2019-08-11T09:48:14.000Z</time>
      </trkpt>
      <trkpt lat="47.29226" lon="-2.39314">
        <ele>1</ele>
        <time>2019-08-11T09:48:18.000Z</time>
      </trkpt>
      <trkpt lat="47.29209" lon="-2.3932">
        <ele>1</ele>
        <time>2019-08-11T09:48:21.000Z</time>
      </trkpt>
      <trkpt lat="47.2919" lon="-2.39324">
        <ele>1</ele>
        <time>2019-08-11T09:48:24.000Z</time>
      </trkpt>
      <trkpt lat="47.29173" lon="-2.39328">
        <ele>1</ele>
        <time>2019-08-11T09:48:27.000Z</time>
      </trkpt>
      <trkpt lat="47.29161" lon="-2.39334">
        <ele>1</ele>
        <time>2019-08-11T09:48:29.000Z</time>
      </trkpt>
      <trkpt lat="47.29151" lon="-2.39342">
        <ele>1</ele>
        <time>2019-08-11T09:48:31.000Z</time>
      </trkpt>
      <trkpt lat="47.29146" lon="-2.39347">
        <ele>1</ele>
        <time>2019-08-11T09:48:32.000Z</time>
      </trkpt>
      <trkpt lat="47.29137" lon="-2.39358">
        <ele>1</ele>
        <time>2019-08-11T09:48:34.000Z</time>
      </trkpt>
      <trkpt lat="47.29132" lon="-2.39362">
        <ele>1</ele>
        <time>2019-08-11T09:48:35.000Z</time>
      </trkpt>
      <trkpt lat="47.29118" lon="-2.3937">
        <ele>1</ele>
        <time>2019-08-11T09:48:38.000Z</time>
      </trkpt>
      <trkpt lat="47.29113" lon="-2.39373">
        <ele>1</ele>
        <time>2019-08-11T09:48:39.000Z</time>
      </trkpt>
      <trkpt lat="47.29103" lon="-2.3938">
        <ele>1</ele>
        <time>2019-08-11T09:48:41.000Z</time>
      </trkpt>
      <trkpt lat="47.29098" lon="-2.39382">
        <ele>1.3999999761581</ele>
        <time>2019-08-11T09:48:42.000Z</time>
      </trkpt>
      <trkpt lat="47.29093" lon="-2.39381">
        <ele>2</ele>
        <time>2019-08-11T09:48:43.000Z</time>
      </trkpt>
      <trkpt lat="47.29088" lon="-2.39377">
        <ele>2.4000000953674</ele>
        <time>2019-08-11T09:48:44.000Z</time>
      </trkpt>
      <trkpt lat="47.29084" lon="-2.39371">
        <ele>2.7999999523163</ele>
        <time>2019-08-11T09:48:45.000Z</time>
      </trkpt>
      <trkpt lat="47.29079" lon="-2.39365">
        <ele>3.2000000476837</ele>
        <time>2019-08-11T09:48:46.000Z</time>
      </trkpt>
      <trkpt lat="47.29065" lon="-2.39356">
        <ele>3.2000000476837</ele>
        <time>2019-08-11T09:48:48.000Z</time>
      </trkpt>
      <trkpt lat="47.29051" lon="-2.39348">
        <ele>3.2000000476837</ele>
        <time>2019-08-11T09:48:50.000Z</time>
      </trkpt>
      <trkpt lat="47.28998" lon="-2.39323">
        <ele>3.2000000476837</ele>
        <time>2019-08-11T09:48:57.000Z</time>
      </trkpt>
      <trkpt lat="47.28966" lon="-2.39319">
        <ele>3.2000000476837</ele>
        <time>2019-08-11T09:49:02.000Z</time>
      </trkpt>
      <trkpt lat="47.2895" lon="-2.3932">
        <ele>3.2000000476837</ele>
        <time>2019-08-11T09:49:05.000Z</time>
      </trkpt>
      <trkpt lat="47.28947" lon="-2.39317">
        <ele>3.2000000476837</ele>
        <time>2019-08-11T09:49:06.000Z</time>
      </trkpt>
      <trkpt lat="47.28938" lon="-2.39297">
        <ele>3.2000000476837</ele>
        <time>2019-08-11T09:49:09.000Z</time>
      </trkpt>
      <trkpt lat="47.28936" lon="-2.39289">
        <ele>3.2000000476837</ele>
        <time>2019-08-11T09:49:10.000Z</time>
      </trkpt>
      <trkpt lat="47.28931" lon="-2.39262">
        <ele>3.2000000476837</ele>
        <time>2019-08-11T09:49:13.000Z</time>
      </trkpt>
      <trkpt lat="47.28931" lon="-2.39252">
        <ele>3.2000000476837</ele>
        <time>2019-08-11T09:49:14.000Z</time>
      </trkpt>
      <trkpt lat="47.2893" lon="-2.39242">
        <ele>3.2000000476837</ele>
        <time>2019-08-11T09:49:15.000Z</time>
      </trkpt>
      <trkpt lat="47.2893" lon="-2.392">
        <ele>3.2000000476837</ele>
        <time>2019-08-11T09:49:19.000Z</time>
      </trkpt>
      <trkpt lat="47.28933" lon="-2.39147">
        <ele>3.2000000476837</ele>
        <time>2019-08-11T09:49:24.000Z</time>
      </trkpt>
      <trkpt lat="47.28934" lon="-2.39137">
        <ele>3.2000000476837</ele>
        <time>2019-08-11T09:49:25.000Z</time>
      </trkpt>
      <trkpt lat="47.28943" lon="-2.39072">
        <ele>3.2000000476837</ele>
        <time>2019-08-11T09:49:31.000Z</time>
      </trkpt>
      <trkpt lat="47.28946" lon="-2.3904">
        <ele>3.2000000476837</ele>
        <time>2019-08-11T09:49:34.000Z</time>
      </trkpt>
      <trkpt lat="47.28948" lon="-2.39019">
        <ele>3.2000000476837</ele>
        <time>2019-08-11T09:49:36.000Z</time>
      </trkpt>
      <trkpt lat="47.28952" lon="-2.38965">
        <ele>3.2000000476837</ele>
        <time>2019-08-11T09:49:41.000Z</time>
      </trkpt>
      <trkpt lat="47.28956" lon="-2.38892">
        <ele>3.2000000476837</ele>
        <time>2019-08-11T09:49:48.000Z</time>
      </trkpt>
      <trkpt lat="47.28959" lon="-2.3884">
        <ele>3.2000000476837</ele>
        <time>2019-08-11T09:49:53.000Z</time>
      </trkpt>
      <trkpt lat="47.2896" lon="-2.38819">
        <ele>3.2000000476837</ele>
        <time>2019-08-11T09:49:55.000Z</time>
      </trkpt>
      <trkpt lat="47.28959" lon="-2.38789">
        <ele>3.2000000476837</ele>
        <time>2019-08-11T09:49:59.000Z</time>
      </trkpt>
      <trkpt lat="47.28959" lon="-2.38768">
        <ele>3.2000000476837</ele>
        <time>2019-08-11T09:50:01.000Z</time>
      </trkpt>
      <trkpt lat="47.28958" lon="-2.38689">
        <ele>3.2000000476837</ele>
        <time>2019-08-11T09:50:09.000Z</time>
      </trkpt>
      <trkpt lat="47.28957" lon="-2.38607">
        <ele>3.2000000476837</ele>
        <time>2019-08-11T09:50:17.000Z</time>
      </trkpt>
      <trkpt lat="47.2895" lon="-2.38544">
        <ele>3.2000000476837</ele>
        <time>2019-08-11T09:50:23.000Z</time>
      </trkpt>
      <trkpt lat="47.28945" lon="-2.38493">
        <ele>3.2000000476837</ele>
        <time>2019-08-11T09:50:28.000Z</time>
      </trkpt>
      <trkpt lat="47.28943" lon="-2.38471">
        <ele>3.2000000476837</ele>
        <time>2019-08-11T09:50:30.000Z</time>
      </trkpt>
      <trkpt lat="47.28937" lon="-2.38399">
        <ele>3.2000000476837</ele>
        <time>2019-08-11T09:50:37.000Z</time>
      </trkpt>
      <trkpt lat="47.28933" lon="-2.38323">
        <ele>3.2000000476837</ele>
        <time>2019-08-11T09:50:44.000Z</time>
      </trkpt>
      <trkpt lat="47.28934" lon="-2.3829">
        <ele>3.2000000476837</ele>
        <time>2019-08-11T09:50:47.000Z</time>
      </trkpt>
      <trkpt lat="47.28935" lon="-2.3827">
        <ele>3.2000000476837</ele>
        <time>2019-08-11T09:50:49.000Z</time>
      </trkpt>
      <trkpt lat="47.28937" lon="-2.38243">
        <ele>3.2000000476837</ele>
        <time>2019-08-11T09:50:52.000Z</time>
      </trkpt>
      <trkpt lat="47.28935" lon="-2.38235">
        <ele>3.2000000476837</ele>
        <time>2019-08-11T09:50:53.000Z</time>
      </trkpt>
      <trkpt lat="47.28924" lon="-2.38218">
        <ele>3.2000000476837</ele>
        <time>2019-08-11T09:50:56.000Z</time>
      </trkpt>
      <trkpt lat="47.28914" lon="-2.38211">
        <ele>3.2000000476837</ele>
        <time>2019-08-11T09:50:58.000Z</time>
      </trkpt>
      <trkpt lat="47.28904" lon="-2.38203">
        <ele>3.2000000476837</ele>
        <time>2019-08-11T09:51:00.000Z</time>
      </trkpt>
      <trkpt lat="47.28901" lon="-2.38196">
        <ele>3.2000000476837</ele>
        <time>2019-08-11T09:51:01.000Z</time>
      </trkpt>
      <trkpt lat="47.28901" lon="-2.38168">
        <ele>3.2000000476837</ele>
        <time>2019-08-11T09:51:04.000Z</time>
      </trkpt>
      <trkpt lat="47.28902" lon="-2.38158">
        <ele>3.2000000476837</ele>
        <time>2019-08-11T09:51:05.000Z</time>
      </trkpt>
      <trkpt lat="47.28906" lon="-2.38093">
        <ele>3.2000000476837</ele>
        <time>2019-08-11T09:51:11.000Z</time>
      </trkpt>
      <trkpt lat="47.28909" lon="-2.38014">
        <ele>3.2000000476837</ele>
        <time>2019-08-11T09:51:18.000Z</time>
      </trkpt>
      <trkpt lat="47.28914" lon="-2.37933">
        <ele>3.2000000476837</ele>
        <time>2019-08-11T09:51:25.000Z</time>
      </trkpt>
      <trkpt lat="47.28921" lon="-2.37854">
        <ele>3.2000000476837</ele>
        <time>2019-08-11T09:51:32.000Z</time>
      </trkpt>
      <trkpt lat="47.28927" lon="-2.37776">
        <ele>3.2000000476837</ele>
        <time>2019-08-11T09:51:39.000Z</time>
      </trkpt>
      <trkpt lat="47.28931" lon="-2.37714">
        <ele>3.2000000476837</ele>
        <time>2019-08-11T09:51:45.000Z</time>
      </trkpt>
      <trkpt lat="47.28934" lon="-2.37671">
        <ele>3.2000000476837</ele>
        <time>2019-08-11T09:51:50.000Z</time>
      </trkpt>
      <trkpt lat="47.28933" lon="-2.37657">
        <ele>3.2000000476837</ele>
        <time>2019-08-11T09:51:52.000Z</time>
      </trkpt>
      <trkpt lat="47.28927" lon="-2.37645">
        <ele>3.2000000476837</ele>
        <time>2019-08-11T09:51:54.000Z</time>
      </trkpt>
      <trkpt lat="47.28916" lon="-2.37639">
        <ele>3.2000000476837</ele>
        <time>2019-08-11T09:51:57.000Z</time>
      </trkpt>
      <trkpt lat="47.289" lon="-2.37644">
        <ele>3.2000000476837</ele>
        <time>2019-08-11T09:52:00.000Z</time>
      </trkpt>
      <trkpt lat="47.28894" lon="-2.37646">
        <ele>3.2000000476837</ele>
        <time>2019-08-11T09:52:01.000Z</time>
      </trkpt>
      <trkpt lat="47.28874" lon="-2.37652">
        <ele>3.2000000476837</ele>
        <time>2019-08-11T09:52:05.000Z</time>
      </trkpt>
      <trkpt lat="47.28865" lon="-2.37648">
        <ele>3.2000000476837</ele>
        <time>2019-08-11T09:52:07.000Z</time>
      </trkpt>
      <trkpt lat="47.28862" lon="-2.37628">
        <ele>3.2000000476837</ele>
        <time>2019-08-11T09:52:10.000Z</time>
      </trkpt>
      <trkpt lat="47.28862" lon="-2.37599">
        <ele>3.2000000476837</ele>
        <time>2019-08-11T09:52:15.000Z</time>
      </trkpt>
      <trkpt lat="47.28866" lon="-2.3758">
        <ele>3.2000000476837</ele>
        <time>2019-08-11T09:52:19.000Z</time>
      </trkpt>
      <trkpt lat="47.28871" lon="-2.37554">
        <ele>3.2000000476837</ele>
        <time>2019-08-11T09:52:23.000Z</time>
      </trkpt>
      <trkpt lat="47.28881" lon="-2.37529">
        <ele>3.2000000476837</ele>
        <time>2019-08-11T09:52:27.000Z</time>
      </trkpt>
      <trkpt lat="47.28879" lon="-2.37495">
        <ele>3.2000000476837</ele>
        <time>2019-08-11T09:52:31.000Z</time>
      </trkpt>
      <trkpt lat="47.2887" lon="-2.37441">
        <ele>3.5999999046326</ele>
        <time>2019-08-11T09:52:37.000Z</time>
      </trkpt>
      <trkpt lat="47.28869" lon="-2.37432">
        <ele>4.4000000953674</ele>
        <time>2019-08-11T09:52:38.000Z</time>
      </trkpt>
      <trkpt lat="47.28868" lon="-2.37422">
        <ele>4.8000001907349</ele>
        <time>2019-08-11T09:52:39.000Z</time>
      </trkpt>
      <trkpt lat="47.28867" lon="-2.37412">
        <ele>5.1999998092651</ele>
        <time>2019-08-11T09:52:40.000Z</time>
      </trkpt>
      <trkpt lat="47.28863" lon="-2.37373">
        <ele>5.1999998092651</ele>
        <time>2019-08-11T09:52:44.000Z</time>
      </trkpt>
      <trkpt lat="47.28858" lon="-2.37307">
        <ele>5.1999998092651</ele>
        <time>2019-08-11T09:52:51.000Z</time>
      </trkpt>
      <trkpt lat="47.28855" lon="-2.37274">
        <ele>5.1999998092651</ele>
        <time>2019-08-11T09:52:55.000Z</time>
      </trkpt>
      <trkpt lat="47.28854" lon="-2.37259">
        <ele>5.1999998092651</ele>
        <time>2019-08-11T09:52:57.000Z</time>
      </trkpt>
      <trkpt lat="47.28851" lon="-2.37246">
        <ele>5.1999998092651</ele>
        <time>2019-08-11T09:52:59.000Z</time>
      </trkpt>
      <trkpt lat="47.28845" lon="-2.37236">
        <ele>5.1999998092651</ele>
        <time>2019-08-11T09:53:01.000Z</time>
      </trkpt>
      <trkpt lat="47.28842" lon="-2.37219">
        <ele>5.1999998092651</ele>
        <time>2019-08-11T09:53:04.000Z</time>
      </trkpt>
      <trkpt lat="47.28841" lon="-2.37214">
        <ele>5.1999998092651</ele>
        <time>2019-08-11T09:53:05.000Z</time>
      </trkpt>
      <trkpt lat="47.28834" lon="-2.37178">
        <ele>5.1999998092651</ele>
        <time>2019-08-11T09:53:10.000Z</time>
      </trkpt>
      <trkpt lat="47.2883" lon="-2.3715">
        <ele>5.1999998092651</ele>
        <time>2019-08-11T09:53:14.000Z</time>
      </trkpt>
      <trkpt lat="47.28829" lon="-2.37144">
        <ele>5.1999998092651</ele>
        <time>2019-08-11T09:53:15.000Z</time>
      </trkpt>
      <trkpt lat="47.28828" lon="-2.37136">
        <ele>5.1999998092651</ele>
        <time>2019-08-11T09:53:16.000Z</time>
      </trkpt>
      <trkpt lat="47.28828" lon="-2.37129">
        <ele>5.5999999046326</ele>
        <time>2019-08-11T09:53:17.000Z</time>
      </trkpt>
      <trkpt lat="47.28829" lon="-2.37124">
        <ele>6</ele>
        <time>2019-08-11T09:53:18.000Z</time>
      </trkpt>
      <trkpt lat="47.28829" lon="-2.37118">
        <ele>6.4000000953674</ele>
        <time>2019-08-11T09:53:19.000Z</time>
      </trkpt>
      <trkpt lat="47.2883" lon="-2.37112">
        <ele>6.8000001907349</ele>
        <time>2019-08-11T09:53:20.000Z</time>
      </trkpt>
      <trkpt lat="47.2883" lon="-2.37106">
        <ele>7.1999998092651</ele>
        <time>2019-08-11T09:53:21.000Z</time>
      </trkpt>
      <trkpt lat="47.2883" lon="-2.37094">
        <ele>7.1999998092651</ele>
        <time>2019-08-11T09:53:23.000Z</time>
      </trkpt>
      <trkpt lat="47.28829" lon="-2.37087">
        <ele>7.1999998092651</ele>
        <time>2019-08-11T09:53:24.000Z</time>
      </trkpt>
      <trkpt lat="47.28827" lon="-2.37068">
        <ele>7.1999998092651</ele>
        <time>2019-08-11T09:53:27.000Z</time>
      </trkpt>
      <trkpt lat="47.28822" lon="-2.37056">
        <ele>7.1999998092651</ele>
        <time>2019-08-11T09:53:29.000Z</time>
      </trkpt>
      <trkpt lat="47.28816" lon="-2.37043">
        <ele>7.1999998092651</ele>
        <time>2019-08-11T09:53:31.000Z</time>
      </trkpt>
      <trkpt lat="47.2881" lon="-2.37021">
        <ele>7.1999998092651</ele>
        <time>2019-08-11T09:53:34.000Z</time>
      </trkpt>
      <trkpt lat="47.28794" lon="-2.36964">
        <ele>7.1999998092651</ele>
        <time>2019-08-11T09:53:41.000Z</time>
      </trkpt>
      <trkpt lat="47.28787" lon="-2.36925">
        <ele>7.1999998092651</ele>
        <time>2019-08-11T09:53:46.000Z</time>
      </trkpt>
      <trkpt lat="47.28786" lon="-2.36918">
        <ele>7.1999998092651</ele>
        <time>2019-08-11T09:53:47.000Z</time>
      </trkpt>
      <trkpt lat="47.28783" lon="-2.36915">
        <ele>7.1999998092651</ele>
        <time>2019-08-11T09:53:48.000Z</time>
      </trkpt>
      <trkpt lat="47.28777" lon="-2.36911">
        <ele>7.1999998092651</ele>
        <time>2019-08-11T09:53:50.000Z</time>
      </trkpt>
      <trkpt lat="47.28763" lon="-2.36906">
        <ele>7.5999999046326</ele>
        <time>2019-08-11T09:53:54.000Z</time>
      </trkpt>
      <trkpt lat="47.28759" lon="-2.36906">
        <ele>8.1999998092651</ele>
        <time>2019-08-11T09:53:55.000Z</time>
      </trkpt>
      <trkpt lat="47.28757" lon="-2.36906">
        <ele>8.6000003814697</ele>
        <time>2019-08-11T09:53:56.000Z</time>
      </trkpt>
      <trkpt lat="47.28754" lon="-2.36906">
        <ele>9</ele>
        <time>2019-08-11T09:53:57.000Z</time>
      </trkpt>
      <trkpt lat="47.28751" lon="-2.36906">
        <ele>9.3999996185303</ele>
        <time>2019-08-11T09:53:58.000Z</time>
      </trkpt>
      <trkpt lat="47.28743" lon="-2.36908">
        <ele>9.8000001907349</ele>
        <time>2019-08-11T09:54:01.000Z</time>
      </trkpt>
      <trkpt lat="47.28738" lon="-2.36909">
        <ele>10.199999809265</ele>
        <time>2019-08-11T09:54:02.000Z</time>
      </trkpt>
      <trkpt lat="47.28735" lon="-2.3691">
        <ele>10.800000190735</ele>
        <time>2019-08-11T09:54:03.000Z</time>
      </trkpt>
      <trkpt lat="47.28732" lon="-2.36908">
        <ele>11.199999809265</ele>
        <time>2019-08-11T09:54:04.000Z</time>
      </trkpt>
      <trkpt lat="47.2873" lon="-2.36907">
        <ele>11.60000038147</ele>
        <time>2019-08-11T09:54:05.000Z</time>
      </trkpt>
      <trkpt lat="47.28728" lon="-2.36905">
        <ele>11.60000038147</ele>
        <time>2019-08-11T09:54:06.000Z</time>
      </trkpt>
      <trkpt lat="47.28725" lon="-2.36904">
        <ele>12.199999809265</ele>
        <time>2019-08-11T09:54:07.000Z</time>
      </trkpt>
      <trkpt lat="47.28723" lon="-2.36901">
        <ele>12.60000038147</ele>
        <time>2019-08-11T09:54:08.000Z</time>
      </trkpt>
      <trkpt lat="47.28721" lon="-2.36899">
        <ele>13</ele>
        <time>2019-08-11T09:54:09.000Z</time>
      </trkpt>
      <trkpt lat="47.28719" lon="-2.36896">
        <ele>13.60000038147</ele>
        <time>2019-08-11T09:54:10.000Z</time>
      </trkpt>
      <trkpt lat="47.28718" lon="-2.36892">
        <ele>14</ele>
        <time>2019-08-11T09:54:11.000Z</time>
      </trkpt>
      <trkpt lat="47.28717" lon="-2.36889">
        <ele>14</ele>
        <time>2019-08-11T09:54:12.000Z</time>
      </trkpt>
      <trkpt lat="47.28713" lon="-2.36879">
        <ele>14.39999961853</ele>
        <time>2019-08-11T09:54:15.000Z</time>
      </trkpt>
      <trkpt lat="47.28711" lon="-2.36876">
        <ele>15.199999809265</ele>
        <time>2019-08-11T09:54:16.000Z</time>
      </trkpt>
      <trkpt lat="47.28709" lon="-2.36873">
        <ele>15.60000038147</ele>
        <time>2019-08-11T09:54:17.000Z</time>
      </trkpt>
      <trkpt lat="47.28707" lon="-2.36869">
        <ele>16</ele>
        <time>2019-08-11T09:54:18.000Z</time>
      </trkpt>
      <trkpt lat="47.2869" lon="-2.36841">
        <ele>16</ele>
        <time>2019-08-11T09:54:24.000Z</time>
      </trkpt>
      <trkpt lat="47.28684" lon="-2.36831">
        <ele>16.39999961853</ele>
        <time>2019-08-11T09:54:26.000Z</time>
      </trkpt>
      <trkpt lat="47.28681" lon="-2.36826">
        <ele>16.799999237061</ele>
        <time>2019-08-11T09:54:27.000Z</time>
      </trkpt>
      <trkpt lat="47.28679" lon="-2.36822">
        <ele>17.200000762939</ele>
        <time>2019-08-11T09:54:28.000Z</time>
      </trkpt>
      <trkpt lat="47.28676" lon="-2.36818">
        <ele>17.60000038147</ele>
        <time>2019-08-11T09:54:29.000Z</time>
      </trkpt>
      <trkpt lat="47.28673" lon="-2.36813">
        <ele>18</ele>
        <time>2019-08-11T09:54:30.000Z</time>
      </trkpt>
      <trkpt lat="47.28661" lon="-2.36804">
        <ele>18</ele>
        <time>2019-08-11T09:54:33.000Z</time>
      </trkpt>
      <trkpt lat="47.28656" lon="-2.36804">
        <ele>18</ele>
        <time>2019-08-11T09:54:34.000Z</time>
      </trkpt>
      <trkpt lat="47.28644" lon="-2.36813">
        <ele>18</ele>
        <time>2019-08-11T09:54:37.000Z</time>
      </trkpt>
      <trkpt lat="47.28615" lon="-2.36841">
        <ele>18</ele>
        <time>2019-08-11T09:54:43.000Z</time>
      </trkpt>
      <trkpt lat="47.28609" lon="-2.36844">
        <ele>18</ele>
        <time>2019-08-11T09:54:44.000Z</time>
      </trkpt>
      <trkpt lat="47.28598" lon="-2.36841">
        <ele>18</ele>
        <time>2019-08-11T09:54:46.000Z</time>
      </trkpt>
      <trkpt lat="47.28584" lon="-2.36824">
        <ele>18</ele>
        <time>2019-08-11T09:54:49.000Z</time>
      </trkpt>
      <trkpt lat="47.28577" lon="-2.3681">
        <ele>18</ele>
        <time>2019-08-11T09:54:51.000Z</time>
      </trkpt>
      <trkpt lat="47.28566" lon="-2.3679">
        <ele>18</ele>
        <time>2019-08-11T09:54:54.000Z</time>
      </trkpt>
      <trkpt lat="47.28545" lon="-2.36752">
        <ele>18</ele>
        <time>2019-08-11T09:55:00.000Z</time>
      </trkpt>
      <trkpt lat="47.28526" lon="-2.36718">
        <ele>18</ele>
        <time>2019-08-11T09:55:06.000Z</time>
      </trkpt>
      <trkpt lat="47.28518" lon="-2.36702">
        <ele>18.60000038147</ele>
        <time>2019-08-11T09:55:09.000Z</time>
      </trkpt>
      <trkpt lat="47.28515" lon="-2.36698">
        <ele>19</ele>
        <time>2019-08-11T09:55:10.000Z</time>
      </trkpt>
      <trkpt lat="47.28511" lon="-2.36693">
        <ele>19.39999961853</ele>
        <time>2019-08-11T09:55:11.000Z</time>
      </trkpt>
      <trkpt lat="47.28508" lon="-2.36689">
        <ele>20</ele>
        <time>2019-08-11T09:55:12.000Z</time>
      </trkpt>
      <trkpt lat="47.28504" lon="-2.36685">
        <ele>20.39999961853</ele>
        <time>2019-08-11T09:55:13.000Z</time>
      </trkpt>
      <trkpt lat="47.285" lon="-2.36683">
        <ele>20.39999961853</ele>
        <time>2019-08-11T09:55:14.000Z</time>
      </trkpt>
      <trkpt lat="47.28493" lon="-2.36682">
        <ele>20.39999961853</ele>
        <time>2019-08-11T09:55:16.000Z</time>
      </trkpt>
      <trkpt lat="47.28474" lon="-2.36697">
        <ele>20.39999961853</ele>
        <time>2019-08-11T09:55:20.000Z</time>
      </trkpt>
      <trkpt lat="47.28454" lon="-2.36716">
        <ele>20.39999961853</ele>
        <time>2019-08-11T09:55:25.000Z</time>
      </trkpt>
      <trkpt lat="47.28449" lon="-2.36717">
        <ele>20.39999961853</ele>
        <time>2019-08-11T09:55:26.000Z</time>
      </trkpt>
      <trkpt lat="47.28439" lon="-2.36706">
        <ele>20.39999961853</ele>
        <time>2019-08-11T09:55:29.000Z</time>
      </trkpt>
      <trkpt lat="47.28425" lon="-2.36674">
        <ele>20.39999961853</ele>
        <time>2019-08-11T09:55:35.000Z</time>
      </trkpt>
      <trkpt lat="47.28422" lon="-2.36668">
        <ele>20.39999961853</ele>
        <time>2019-08-11T09:55:36.000Z</time>
      </trkpt>
      <trkpt lat="47.28408" lon="-2.3664">
        <ele>20.39999961853</ele>
        <time>2019-08-11T09:55:40.000Z</time>
      </trkpt>
      <trkpt lat="47.28383" lon="-2.36603">
        <ele>20.39999961853</ele>
        <time>2019-08-11T09:55:45.000Z</time>
      </trkpt>
      <trkpt lat="47.28373" lon="-2.36589">
        <ele>20</ele>
        <time>2019-08-11T09:55:47.000Z</time>
      </trkpt>
      <trkpt lat="47.28369" lon="-2.36583">
        <ele>19.60000038147</ele>
        <time>2019-08-11T09:55:48.000Z</time>
      </trkpt>
      <trkpt lat="47.28364" lon="-2.36579">
        <ele>19.200000762939</ele>
        <time>2019-08-11T09:55:49.000Z</time>
      </trkpt>
      <trkpt lat="47.28358" lon="-2.36577">
        <ele>18.60000038147</ele>
        <time>2019-08-11T09:55:50.000Z</time>
      </trkpt>
      <trkpt lat="47.28353" lon="-2.36577">
        <ele>18.200000762939</ele>
        <time>2019-08-11T09:55:51.000Z</time>
      </trkpt>
      <trkpt lat="47.28349" lon="-2.36581">
        <ele>17.60000038147</ele>
        <time>2019-08-11T09:55:52.000Z</time>
      </trkpt>
      <trkpt lat="47.28345" lon="-2.36584">
        <ele>17</ele>
        <time>2019-08-11T09:55:53.000Z</time>
      </trkpt>
      <trkpt lat="47.2834" lon="-2.36589">
        <ele>16.39999961853</ele>
        <time>2019-08-11T09:55:54.000Z</time>
      </trkpt>
      <trkpt lat="47.28335" lon="-2.36593">
        <ele>15.800000190735</ele>
        <time>2019-08-11T09:55:55.000Z</time>
      </trkpt>
      <trkpt lat="47.28324" lon="-2.36606">
        <ele>15.800000190735</ele>
        <time>2019-08-11T09:55:57.000Z</time>
      </trkpt>
      <trkpt lat="47.28317" lon="-2.36614">
        <ele>15.39999961853</ele>
        <time>2019-08-11T09:55:58.000Z</time>
      </trkpt>
      <trkpt lat="47.2831" lon="-2.36622">
        <ele>15</ele>
        <time>2019-08-11T09:55:59.000Z</time>
      </trkpt>
      <trkpt lat="47.28302" lon="-2.36631">
        <ele>14.39999961853</ele>
        <time>2019-08-11T09:56:00.000Z</time>
      </trkpt>
      <trkpt lat="47.28295" lon="-2.3664">
        <ele>13.60000038147</ele>
        <time>2019-08-11T09:56:01.000Z</time>
      </trkpt>
      <trkpt lat="47.28287" lon="-2.36649">
        <ele>12.800000190735</ele>
        <time>2019-08-11T09:56:02.000Z</time>
      </trkpt>
      <trkpt lat="47.28279" lon="-2.36659">
        <ele>12</ele>
        <time>2019-08-11T09:56:03.000Z</time>
      </trkpt>
      <trkpt lat="47.28271" lon="-2.36669">
        <ele>11.199999809265</ele>
        <time>2019-08-11T09:56:04.000Z</time>
      </trkpt>
      <trkpt lat="47.28262" lon="-2.36679">
        <ele>10.39999961853</ele>
        <time>2019-08-11T09:56:05.000Z</time>
      </trkpt>
      <trkpt lat="47.28225" lon="-2.36723">
        <ele>10.39999961853</ele>
        <time>2019-08-11T09:56:10.000Z</time>
      </trkpt>
      <trkpt lat="47.28218" lon="-2.36731">
        <ele>10</ele>
        <time>2019-08-11T09:56:11.000Z</time>
      </trkpt>
      <trkpt lat="47.28212" lon="-2.36738">
        <ele>9.6000003814697</ele>
        <time>2019-08-11T09:56:12.000Z</time>
      </trkpt>
      <trkpt lat="47.28206" lon="-2.36745">
        <ele>9.1999998092651</ele>
        <time>2019-08-11T09:56:13.000Z</time>
      </trkpt>
      <trkpt lat="47.28201" lon="-2.36751">
        <ele>8.8000001907349</ele>
        <time>2019-08-11T09:56:14.000Z</time>
      </trkpt>
      <trkpt lat="47.28195" lon="-2.36758">
        <ele>8.3999996185303</ele>
        <time>2019-08-11T09:56:15.000Z</time>
      </trkpt>
      <trkpt lat="47.28179" lon="-2.36777">
        <ele>7.8000001907349</ele>
        <time>2019-08-11T09:56:18.000Z</time>
      </trkpt>
      <trkpt lat="47.28173" lon="-2.36784">
        <ele>7.4000000953674</ele>
        <time>2019-08-11T09:56:19.000Z</time>
      </trkpt>
      <trkpt lat="47.28167" lon="-2.36791">
        <ele>6.4000000953674</ele>
        <time>2019-08-11T09:56:20.000Z</time>
      </trkpt>
      <trkpt lat="47.28162" lon="-2.36798">
        <ele>6</ele>
        <time>2019-08-11T09:56:21.000Z</time>
      </trkpt>
      <trkpt lat="47.28146" lon="-2.36819">
        <ele>5.5999999046326</ele>
        <time>2019-08-11T09:56:24.000Z</time>
      </trkpt>
      <trkpt lat="47.28142" lon="-2.36827">
        <ele>5</ele>
        <time>2019-08-11T09:56:25.000Z</time>
      </trkpt>
      <trkpt lat="47.2814" lon="-2.36836">
        <ele>4.5999999046326</ele>
        <time>2019-08-11T09:56:26.000Z</time>
      </trkpt>
      <trkpt lat="47.28139" lon="-2.36846">
        <ele>4.1999998092651</ele>
        <time>2019-08-11T09:56:27.000Z</time>
      </trkpt>
      <trkpt lat="47.28139" lon="-2.36856">
        <ele>3.5999999046326</ele>
        <time>2019-08-11T09:56:28.000Z</time>
      </trkpt>
      <trkpt lat="47.28138" lon="-2.36866">
        <ele>3.5999999046326</ele>
        <time>2019-08-11T09:56:29.000Z</time>
      </trkpt>
      <trkpt lat="47.28125" lon="-2.36887">
        <ele>3.5999999046326</ele>
        <time>2019-08-11T09:56:32.000Z</time>
      </trkpt>
      <trkpt lat="47.28107" lon="-2.36889">
        <ele>3.5999999046326</ele>
        <time>2019-08-11T09:56:35.000Z</time>
      </trkpt>
      <trkpt lat="47.28095" lon="-2.36886">
        <ele>3.5999999046326</ele>
        <time>2019-08-11T09:56:37.000Z</time>
      </trkpt>
      <trkpt lat="47.28089" lon="-2.36888">
        <ele>3.5999999046326</ele>
        <time>2019-08-11T09:56:38.000Z</time>
      </trkpt>
      <trkpt lat="47.28083" lon="-2.36892">
        <ele>3.5999999046326</ele>
        <time>2019-08-11T09:56:39.000Z</time>
      </trkpt>
      <trkpt lat="47.28063" lon="-2.36915">
        <ele>3.5999999046326</ele>
        <time>2019-08-11T09:56:43.000Z</time>
      </trkpt>
      <trkpt lat="47.28038" lon="-2.36942">
        <ele>3.5999999046326</ele>
        <time>2019-08-11T09:56:48.000Z</time>
      </trkpt>
      <trkpt lat="47.28018" lon="-2.36965">
        <ele>3.5999999046326</ele>
        <time>2019-08-11T09:56:52.000Z</time>
      </trkpt>
      <trkpt lat="47.28009" lon="-2.36976">
        <ele>3.5999999046326</ele>
        <time>2019-08-11T09:56:54.000Z</time>
      </trkpt>
      <trkpt lat="47.2798" lon="-2.37009">
        <ele>3.5999999046326</ele>
        <time>2019-08-11T09:57:00.000Z</time>
      </trkpt>
      <trkpt lat="47.27975" lon="-2.37014">
        <ele>3.5999999046326</ele>
        <time>2019-08-11T09:57:01.000Z</time>
      </trkpt>
      <trkpt lat="47.27946" lon="-2.37046">
        <ele>3.5999999046326</ele>
        <time>2019-08-11T09:57:07.000Z</time>
      </trkpt>
      <trkpt lat="47.27936" lon="-2.37058">
        <ele>4.1999998092651</ele>
        <time>2019-08-11T09:57:09.000Z</time>
      </trkpt>
      <trkpt lat="47.27931" lon="-2.37063">
        <ele>4.5999999046326</ele>
        <time>2019-08-11T09:57:10.000Z</time>
      </trkpt>
      <trkpt lat="47.27927" lon="-2.37069">
        <ele>5</ele>
        <time>2019-08-11T09:57:11.000Z</time>
      </trkpt>
      <trkpt lat="47.27922" lon="-2.37075">
        <ele>5.4000000953674</ele>
        <time>2019-08-11T09:57:12.000Z</time>
      </trkpt>
      <trkpt lat="47.27917" lon="-2.37081">
        <ele>5.8000001907349</ele>
        <time>2019-08-11T09:57:13.000Z</time>
      </trkpt>
      <trkpt lat="47.27912" lon="-2.37086">
        <ele>5.8000001907349</ele>
        <time>2019-08-11T09:57:14.000Z</time>
      </trkpt>
      <trkpt lat="47.2788" lon="-2.37123">
        <ele>5.8000001907349</ele>
        <time>2019-08-11T09:57:21.000Z</time>
      </trkpt>
      <trkpt lat="47.2786" lon="-2.37147">
        <ele>5.8000001907349</ele>
        <time>2019-08-11T09:57:27.000Z</time>
      </trkpt>
      <trkpt lat="47.27839" lon="-2.37171">
        <ele>5.8000001907349</ele>
        <time>2019-08-11T09:57:33.000Z</time>
      </trkpt>
      <trkpt lat="47.27833" lon="-2.37182">
        <ele>5.8000001907349</ele>
        <time>2019-08-11T09:57:37.000Z</time>
      </trkpt>
      <trkpt lat="47.2783" lon="-2.37194">
        <ele>5.8000001907349</ele>
        <time>2019-08-11T09:57:39.000Z</time>
      </trkpt>
      <trkpt lat="47.27823" lon="-2.37198">
        <ele>5.8000001907349</ele>
        <time>2019-08-11T09:57:41.000Z</time>
      </trkpt>
      <trkpt lat="47.27814" lon="-2.37182">
        <ele>5.8000001907349</ele>
        <time>2019-08-11T09:57:44.000Z</time>
      </trkpt>
      <trkpt lat="47.27806" lon="-2.37155">
        <ele>5.8000001907349</ele>
        <time>2019-08-11T09:57:48.000Z</time>
      </trkpt>
      <trkpt lat="47.27801" lon="-2.37139">
        <ele>5.8000001907349</ele>
        <time>2019-08-11T09:57:50.000Z</time>
      </trkpt>
      <trkpt lat="47.27795" lon="-2.37112">
        <ele>5.8000001907349</ele>
        <time>2019-08-11T09:57:53.000Z</time>
      </trkpt>
      <trkpt lat="47.27775" lon="-2.37041">
        <ele>5.8000001907349</ele>
        <time>2019-08-11T09:58:01.000Z</time>
      </trkpt>
      <trkpt lat="47.27758" lon="-2.36979">
        <ele>5.8000001907349</ele>
        <time>2019-08-11T09:58:08.000Z</time>
      </trkpt>
      <trkpt lat="47.27744" lon="-2.36927">
        <ele>5.8000001907349</ele>
        <time>2019-08-11T09:58:14.000Z</time>
      </trkpt>
      <trkpt lat="47.27727" lon="-2.36872">
        <ele>5.8000001907349</ele>
        <time>2019-08-11T09:58:20.000Z</time>
      </trkpt>
      <trkpt lat="47.27705" lon="-2.36796">
        <ele>5.8000001907349</ele>
        <time>2019-08-11T09:58:28.000Z</time>
      </trkpt>
      <trkpt lat="47.277" lon="-2.36776">
        <ele>5.8000001907349</ele>
        <time>2019-08-11T09:58:30.000Z</time>
      </trkpt>
      <trkpt lat="47.27673" lon="-2.36701">
        <ele>5.8000001907349</ele>
        <time>2019-08-11T09:58:38.000Z</time>
      </trkpt>
      <trkpt lat="47.27662" lon="-2.36664">
        <ele>5.8000001907349</ele>
        <time>2019-08-11T09:58:43.000Z</time>
      </trkpt>
      <trkpt lat="47.27656" lon="-2.36651">
        <ele>5.8000001907349</ele>
        <time>2019-08-11T09:58:47.000Z</time>
      </trkpt>
      <trkpt lat="47.27647" lon="-2.3662">
        <ele>5.8000001907349</ele>
        <time>2019-08-11T09:58:52.000Z</time>
      </trkpt>
      <trkpt lat="47.27628" lon="-2.36566">
        <ele>5.8000001907349</ele>
        <time>2019-08-11T09:58:59.000Z</time>
      </trkpt>
      <trkpt lat="47.2761" lon="-2.36515">
        <ele>5.8000001907349</ele>
        <time>2019-08-11T09:59:05.000Z</time>
      </trkpt>
      <trkpt lat="47.27606" lon="-2.36507">
        <ele>5.8000001907349</ele>
        <time>2019-08-11T09:59:06.000Z</time>
      </trkpt>
      <trkpt lat="47.27587" lon="-2.36458">
        <ele>5.8000001907349</ele>
        <time>2019-08-11T09:59:12.000Z</time>
      </trkpt>
      <trkpt lat="47.27558" lon="-2.36383">
        <ele>5.8000001907349</ele>
        <time>2019-08-11T09:59:21.000Z</time>
      </trkpt>
      <trkpt lat="47.2753" lon="-2.3631">
        <ele>5.8000001907349</ele>
        <time>2019-08-11T09:59:30.000Z</time>
      </trkpt>
      <trkpt lat="47.27523" lon="-2.36294">
        <ele>5.8000001907349</ele>
        <time>2019-08-11T09:59:32.000Z</time>
      </trkpt>
      <trkpt lat="47.27507" lon="-2.36253">
        <ele>5.8000001907349</ele>
        <time>2019-08-11T09:59:37.000Z</time>
      </trkpt>
      <trkpt lat="47.27497" lon="-2.36228">
        <ele>5.8000001907349</ele>
        <time>2019-08-11T09:59:40.000Z</time>
      </trkpt>
      <trkpt lat="47.27469" lon="-2.36153">
        <ele>5.8000001907349</ele>
        <time>2019-08-11T09:59:49.000Z</time>
      </trkpt>
      <trkpt lat="47.27463" lon="-2.36136">
        <ele>5.8000001907349</ele>
        <time>2019-08-11T09:59:51.000Z</time>
      </trkpt>
      <trkpt lat="47.27448" lon="-2.36095">
        <ele>5.8000001907349</ele>
        <time>2019-08-11T09:59:56.000Z</time>
      </trkpt>
      <trkpt lat="47.27445" lon="-2.36087">
        <ele>5.8000001907349</ele>
        <time>2019-08-11T09:59:57.000Z</time>
      </trkpt>
      <trkpt lat="47.27441" lon="-2.36079">
        <ele>5.8000001907349</ele>
        <time>2019-08-11T09:59:58.000Z</time>
      </trkpt>
      <trkpt lat="47.27433" lon="-2.36054">
        <ele>5.8000001907349</ele>
        <time>2019-08-11T10:00:01.000Z</time>
      </trkpt>
      <trkpt lat="47.27408" lon="-2.35997">
        <ele>5.8000001907349</ele>
        <time>2019-08-11T10:00:08.000Z</time>
      </trkpt>
      <trkpt lat="47.27387" lon="-2.35944">
        <ele>5.8000001907349</ele>
        <time>2019-08-11T10:00:14.000Z</time>
      </trkpt>
      <trkpt lat="47.27366" lon="-2.35891">
        <ele>5.8000001907349</ele>
        <time>2019-08-11T10:00:20.000Z</time>
      </trkpt>
      <trkpt lat="47.27337" lon="-2.35818">
        <ele>5.8000001907349</ele>
        <time>2019-08-11T10:00:28.000Z</time>
      </trkpt>
      <trkpt lat="47.27333" lon="-2.35809">
        <ele>5.8000001907349</ele>
        <time>2019-08-11T10:00:29.000Z</time>
      </trkpt>
      <trkpt lat="47.27312" lon="-2.35754">
        <ele>5.8000001907349</ele>
        <time>2019-08-11T10:00:35.000Z</time>
      </trkpt>
      <trkpt lat="47.27301" lon="-2.35729">
        <ele>5.8000001907349</ele>
        <time>2019-08-11T10:00:38.000Z</time>
      </trkpt>
      <trkpt lat="47.273" lon="-2.3572">
        <ele>5.8000001907349</ele>
        <time>2019-08-11T10:00:39.000Z</time>
      </trkpt>
      <trkpt lat="47.27285" lon="-2.35688">
        <ele>5.8000001907349</ele>
        <time>2019-08-11T10:00:43.000Z</time>
      </trkpt>
      <trkpt lat="47.27261" lon="-2.35636">
        <ele>5.8000001907349</ele>
        <time>2019-08-11T10:00:49.000Z</time>
      </trkpt>
      <trkpt lat="47.27239" lon="-2.35588">
        <ele>5.8000001907349</ele>
        <time>2019-08-11T10:00:54.000Z</time>
      </trkpt>
      <trkpt lat="47.27207" lon="-2.35516">
        <ele>5.8000001907349</ele>
        <time>2019-08-11T10:01:01.000Z</time>
      </trkpt>
      <trkpt lat="47.27197" lon="-2.35497">
        <ele>5.8000001907349</ele>
        <time>2019-08-11T10:01:03.000Z</time>
      </trkpt>
      <trkpt lat="47.27162" lon="-2.35432">
        <ele>5.8000001907349</ele>
        <time>2019-08-11T10:01:10.000Z</time>
      </trkpt>
      <trkpt lat="47.27157" lon="-2.35422">
        <ele>5.8000001907349</ele>
        <time>2019-08-11T10:01:11.000Z</time>
      </trkpt>
      <trkpt lat="47.27118" lon="-2.35354">
        <ele>5.8000001907349</ele>
        <time>2019-08-11T10:01:19.000Z</time>
      </trkpt>
      <trkpt lat="47.27082" lon="-2.35294">
        <ele>5.8000001907349</ele>
        <time>2019-08-11T10:01:26.000Z</time>
      </trkpt>
      <trkpt lat="47.27043" lon="-2.35233">
        <ele>5.8000001907349</ele>
        <time>2019-08-11T10:01:33.000Z</time>
      </trkpt>
      <trkpt lat="47.27004" lon="-2.35173">
        <ele>5.8000001907349</ele>
        <time>2019-08-11T10:01:40.000Z</time>
      </trkpt>
      <trkpt lat="47.26998" lon="-2.35164">
        <ele>5.8000001907349</ele>
        <time>2019-08-11T10:01:41.000Z</time>
      </trkpt>
      <trkpt lat="47.26959" lon="-2.35104">
        <ele>5.8000001907349</ele>
        <time>2019-08-11T10:01:48.000Z</time>
      </trkpt>
      <trkpt lat="47.26947" lon="-2.35088">
        <ele>5.8000001907349</ele>
        <time>2019-08-11T10:01:50.000Z</time>
      </trkpt>
      <trkpt lat="47.26915" lon="-2.35035">
        <ele>5.8000001907349</ele>
        <time>2019-08-11T10:01:56.000Z</time>
      </trkpt>
      <trkpt lat="47.26885" lon="-2.3499">
        <ele>5.8000001907349</ele>
        <time>2019-08-11T10:02:02.000Z</time>
      </trkpt>
      <trkpt lat="47.26846" lon="-2.34933">
        <ele>5.8000001907349</ele>
        <time>2019-08-11T10:02:10.000Z</time>
      </trkpt>
      <trkpt lat="47.26808" lon="-2.34875">
        <ele>5.8000001907349</ele>
        <time>2019-08-11T10:02:17.000Z</time>
      </trkpt>
      <trkpt lat="47.26802" lon="-2.34867">
        <ele>5.8000001907349</ele>
        <time>2019-08-11T10:02:18.000Z</time>
      </trkpt>
      <trkpt lat="47.26765" lon="-2.34813">
        <ele>5.8000001907349</ele>
        <time>2019-08-11T10:02:25.000Z</time>
      </trkpt>
      <trkpt lat="47.26719" lon="-2.34755">
        <ele>5.8000001907349</ele>
        <time>2019-08-11T10:02:33.000Z</time>
      </trkpt>
      <trkpt lat="47.26688" lon="-2.3472">
        <ele>5.4000000953674</ele>
        <time>2019-08-11T10:02:39.000Z</time>
      </trkpt>
      <trkpt lat="47.26686" lon="-2.34717">
        <ele>5</ele>
        <time>2019-08-11T10:02:40.000Z</time>
      </trkpt>
      <trkpt lat="47.26683" lon="-2.34715">
        <ele>4.4000000953674</ele>
        <time>2019-08-11T10:02:41.000Z</time>
      </trkpt>
      <trkpt lat="47.26681" lon="-2.34712">
        <ele>4</ele>
        <time>2019-08-11T10:02:42.000Z</time>
      </trkpt>
      <trkpt lat="47.26678" lon="-2.34708">
        <ele>3.5999999046326</ele>
        <time>2019-08-11T10:02:43.000Z</time>
      </trkpt>
      <trkpt lat="47.26676" lon="-2.34703">
        <ele>3.5999999046326</ele>
        <time>2019-08-11T10:02:44.000Z</time>
      </trkpt>
      <trkpt lat="47.26665" lon="-2.34689">
        <ele>3.5999999046326</ele>
        <time>2019-08-11T10:02:47.000Z</time>
      </trkpt>
      <trkpt lat="47.26661" lon="-2.34684">
        <ele>3.5999999046326</ele>
        <time>2019-08-11T10:02:48.000Z</time>
      </trkpt>
      <trkpt lat="47.26642" lon="-2.34662">
        <ele>3.5999999046326</ele>
        <time>2019-08-11T10:02:52.000Z</time>
      </trkpt>
      <trkpt lat="47.26607" lon="-2.34619">
        <ele>3.5999999046326</ele>
        <time>2019-08-11T10:02:59.000Z</time>
      </trkpt>
      <trkpt lat="47.26561" lon="-2.34568">
        <ele>3.5999999046326</ele>
        <time>2019-08-11T10:03:08.000Z</time>
      </trkpt>
      <trkpt lat="47.26541" lon="-2.34549">
        <ele>3.5999999046326</ele>
        <time>2019-08-11T10:03:13.000Z</time>
      </trkpt>
      <trkpt lat="47.26521" lon="-2.3453">
        <ele>3.5999999046326</ele>
        <time>2019-08-11T10:03:19.000Z</time>
      </trkpt>
      <trkpt lat="47.26512" lon="-2.34522">
        <ele>3.5999999046326</ele>
        <time>2019-08-11T10:03:21.000Z</time>
      </trkpt>
      <trkpt lat="47.26496" lon="-2.34512">
        <ele>3.5999999046326</ele>
        <time>2019-08-11T10:03:24.000Z</time>
      </trkpt>
      <trkpt lat="47.26458" lon="-2.34484">
        <ele>3.5999999046326</ele>
        <time>2019-08-11T10:03:31.000Z</time>
      </trkpt>
      <trkpt lat="47.2642" lon="-2.34458">
        <ele>3.5999999046326</ele>
        <time>2019-08-11T10:03:38.000Z</time>
      </trkpt>
      <trkpt lat="47.26382" lon="-2.34427">
        <ele>3.5999999046326</ele>
        <time>2019-08-11T10:03:45.000Z</time>
      </trkpt>
      <trkpt lat="47.26341" lon="-2.3439">
        <ele>3.5999999046326</ele>
        <time>2019-08-11T10:03:53.000Z</time>
      </trkpt>
      <trkpt lat="47.2633" lon="-2.34384">
        <ele>3.5999999046326</ele>
        <time>2019-08-11T10:03:55.000Z</time>
      </trkpt>
      <trkpt lat="47.26319" lon="-2.34378">
        <ele>3.5999999046326</ele>
        <time>2019-08-11T10:03:57.000Z</time>
      </trkpt>
      <trkpt lat="47.26307" lon="-2.34357">
        <ele>3.5999999046326</ele>
        <time>2019-08-11T10:04:00.000Z</time>
      </trkpt>
      <trkpt lat="47.26291" lon="-2.34342">
        <ele>3.5999999046326</ele>
        <time>2019-08-11T10:04:03.000Z</time>
      </trkpt>
      <trkpt lat="47.26286" lon="-2.34337">
        <ele>3.5999999046326</ele>
        <time>2019-08-11T10:04:04.000Z</time>
      </trkpt>
      <trkpt lat="47.26254" lon="-2.34303">
        <ele>3.5999999046326</ele>
        <time>2019-08-11T10:04:10.000Z</time>
      </trkpt>
      <trkpt lat="47.26207" lon="-2.34254">
        <ele>3.5999999046326</ele>
        <time>2019-08-11T10:04:19.000Z</time>
      </trkpt>
      <trkpt lat="47.26165" lon="-2.3421">
        <ele>3.5999999046326</ele>
        <time>2019-08-11T10:04:27.000Z</time>
      </trkpt>
      <trkpt lat="47.26142" lon="-2.34186">
        <ele>3.5999999046326</ele>
        <time>2019-08-11T10:04:32.000Z</time>
      </trkpt>
      <trkpt lat="47.26136" lon="-2.34185">
        <ele>3.5999999046326</ele>
        <time>2019-08-11T10:04:33.000Z</time>
      </trkpt>
      <trkpt lat="47.26115" lon="-2.34168">
        <ele>3.5999999046326</ele>
        <time>2019-08-11T10:04:37.000Z</time>
      </trkpt>
      <trkpt lat="47.2608" lon="-2.34149">
        <ele>3.5999999046326</ele>
        <time>2019-08-11T10:04:43.000Z</time>
      </trkpt>
      <trkpt lat="47.26031" lon="-2.34123">
        <ele>3.5999999046326</ele>
        <time>2019-08-11T10:04:51.000Z</time>
      </trkpt>
      <trkpt lat="47.25994" lon="-2.34105">
        <ele>3.5999999046326</ele>
        <time>2019-08-11T10:04:57.000Z</time>
      </trkpt>
      <trkpt lat="47.25946" lon="-2.34083">
        <ele>3.5999999046326</ele>
        <time>2019-08-11T10:05:05.000Z</time>
      </trkpt>
      <trkpt lat="47.25916" lon="-2.34075">
        <ele>3.5999999046326</ele>
        <time>2019-08-11T10:05:10.000Z</time>
      </trkpt>
      <trkpt lat="47.2591" lon="-2.3408">
        <ele>3.5999999046326</ele>
        <time>2019-08-11T10:05:11.000Z</time>
      </trkpt>
      <trkpt lat="47.25896" lon="-2.34103">
        <ele>3.5999999046326</ele>
        <time>2019-08-11T10:05:14.000Z</time>
      </trkpt>
      <trkpt lat="47.25889" lon="-2.34119">
        <ele>3.5999999046326</ele>
        <time>2019-08-11T10:05:16.000Z</time>
      </trkpt>
      <trkpt lat="47.25878" lon="-2.34148">
        <ele>3.5999999046326</ele>
        <time>2019-08-11T10:05:20.000Z</time>
      </trkpt>
      <trkpt lat="47.25871" lon="-2.34167">
        <ele>3.5999999046326</ele>
        <time>2019-08-11T10:05:23.000Z</time>
      </trkpt>
      <trkpt lat="47.25866" lon="-2.34167">
        <ele>3.5999999046326</ele>
        <time>2019-08-11T10:05:24.000Z</time>
      </trkpt>
      <trkpt lat="47.25858" lon="-2.34164">
        <ele>3</ele>
        <time>2019-08-11T10:05:26.000Z</time>
      </trkpt>
      <trkpt lat="47.25855" lon="-2.34164">
        <ele>2.5999999046326</ele>
        <time>2019-08-11T10:05:27.000Z</time>
      </trkpt>
      <trkpt lat="47.25851" lon="-2.34162">
        <ele>2.2000000476837</ele>
        <time>2019-08-11T10:05:28.000Z</time>
      </trkpt>
      <trkpt lat="47.25848" lon="-2.34162">
        <ele>1.7999999523163</ele>
        <time>2019-08-11T10:05:29.000Z</time>
      </trkpt>
      <trkpt lat="47.25845" lon="-2.34161">
        <ele>1.3999999761581</ele>
        <time>2019-08-11T10:05:30.000Z</time>
      </trkpt>
      <trkpt lat="47.25838" lon="-2.34159">
        <ele>1.3999999761581</ele>
        <time>2019-08-11T10:05:32.000Z</time>
      </trkpt>
      <trkpt lat="47.25834" lon="-2.34161">
        <ele>1.3999999761581</ele>
        <time>2019-08-11T10:05:34.000Z</time>
      </trkpt>
      <trkpt lat="47.25834" lon="-2.34165">
        <ele>1.3999999761581</ele>
        <time>2019-08-11T10:05:35.000Z</time>
      </trkpt>
      <trkpt lat="47.25829" lon="-2.34178">
        <ele>1.3999999761581</ele>
        <time>2019-08-11T10:05:38.000Z</time>
      </trkpt>
      <trkpt lat="47.25813" lon="-2.34178">
        <ele>1.3999999761581</ele>
        <time>2019-08-11T10:05:42.000Z</time>
      </trkpt>
      <trkpt lat="47.25808" lon="-2.34176">
        <ele>1.3999999761581</ele>
        <time>2019-08-11T10:05:43.000Z</time>
      </trkpt>
      <trkpt lat="47.25804" lon="-2.34174">
        <ele>1.3999999761581</ele>
        <time>2019-08-11T10:05:44.000Z</time>
      </trkpt>
      <trkpt lat="47.25796" lon="-2.34171">
        <ele>1.3999999761581</ele>
        <time>2019-08-11T10:05:46.000Z</time>
      </trkpt>
      <trkpt lat="47.25777" lon="-2.34175">
        <ele>1.3999999761581</ele>
        <time>2019-08-11T10:05:50.000Z</time>
      </trkpt>
      <trkpt lat="47.25772" lon="-2.34176">
        <ele>1.3999999761581</ele>
        <time>2019-08-11T10:05:51.000Z</time>
      </trkpt>
      <trkpt lat="47.25753" lon="-2.34177">
        <ele>1.3999999761581</ele>
        <time>2019-08-11T10:05:55.000Z</time>
      </trkpt>
      <trkpt lat="47.25748" lon="-2.34179">
        <ele>1.3999999761581</ele>
        <time>2019-08-11T10:05:56.000Z</time>
      </trkpt>
      <trkpt lat="47.25735" lon="-2.3418">
        <ele>1.3999999761581</ele>
        <time>2019-08-11T10:05:59.000Z</time>
      </trkpt>
      <trkpt lat="47.25726" lon="-2.34182">
        <ele>1.3999999761581</ele>
        <time>2019-08-11T10:06:01.000Z</time>
      </trkpt>
      <trkpt lat="47.25699" lon="-2.34188">
        <ele>1.3999999761581</ele>
        <time>2019-08-11T10:06:07.000Z</time>
      </trkpt>
      <trkpt lat="47.25691" lon="-2.34188">
        <ele>1.7999999523163</ele>
        <time>2019-08-11T10:06:09.000Z</time>
      </trkpt>
      <trkpt lat="47.25688" lon="-2.34188">
        <ele>2.7999999523163</ele>
        <time>2019-08-11T10:06:10.000Z</time>
      </trkpt>
      <trkpt lat="47.25687" lon="-2.34189">
        <ele>3.2000000476837</ele>
        <time>2019-08-11T10:06:11.000Z</time>
      </trkpt>
      <trkpt lat="47.25684" lon="-2.3419">
        <ele>3.5999999046326</ele>
        <time>2019-08-11T10:06:12.000Z</time>
      </trkpt>
      <trkpt lat="47.25674" lon="-2.34189">
        <ele>3.5999999046326</ele>
        <time>2019-08-11T10:06:18.000Z</time>
      </trkpt>
      <trkpt lat="47.25667" lon="-2.34181">
        <ele>3.5999999046326</ele>
        <time>2019-08-11T10:06:24.000Z</time>
      </trkpt>
      <trkpt lat="47.25665" lon="-2.34179">
        <ele>3.5999999046326</ele>
        <time>2019-08-11T10:06:25.000Z</time>
      </trkpt>
      <trkpt lat="47.25656" lon="-2.34163">
        <ele>3.5999999046326</ele>
        <time>2019-08-11T10:06:29.000Z</time>
      </trkpt>
      <trkpt lat="47.25642" lon="-2.34128">
        <ele>3.5999999046326</ele>
        <time>2019-08-11T10:06:36.000Z</time>
      </trkpt>
      <trkpt lat="47.2564" lon="-2.34116">
        <ele>3.5999999046326</ele>
        <time>2019-08-11T10:06:38.000Z</time>
      </trkpt>
      <trkpt lat="47.25638" lon="-2.3409">
        <ele>3.5999999046326</ele>
        <time>2019-08-11T10:06:42.000Z</time>
      </trkpt>
      <trkpt lat="47.25639" lon="-2.34077">
        <ele>3.5999999046326</ele>
        <time>2019-08-11T10:06:44.000Z</time>
      </trkpt>
      <trkpt lat="47.25642" lon="-2.34054">
        <ele>3.5999999046326</ele>
        <time>2019-08-11T10:06:47.000Z</time>
      </trkpt>
      <trkpt lat="47.25651" lon="-2.34009">
        <ele>3.5999999046326</ele>
        <time>2019-08-11T10:06:53.000Z</time>
      </trkpt>
      <trkpt lat="47.25652" lon="-2.34001">
        <ele>3.5999999046326</ele>
        <time>2019-08-11T10:06:54.000Z</time>
      </trkpt>
      <trkpt lat="47.25659" lon="-2.33963">
        <ele>3.5999999046326</ele>
        <time>2019-08-11T10:06:59.000Z</time>
      </trkpt>
      <trkpt lat="47.2566" lon="-2.33947">
        <ele>3.5999999046326</ele>
        <time>2019-08-11T10:07:01.000Z</time>
      </trkpt>
      <trkpt lat="47.25657" lon="-2.33932">
        <ele>3.5999999046326</ele>
        <time>2019-08-11T10:07:03.000Z</time>
      </trkpt>
      <trkpt lat="47.25654" lon="-2.33917">
        <ele>3.5999999046326</ele>
        <time>2019-08-11T10:07:05.000Z</time>
      </trkpt>
      <trkpt lat="47.25652" lon="-2.33894">
        <ele>3.5999999046326</ele>
        <time>2019-08-11T10:07:08.000Z</time>
      </trkpt>
      <trkpt lat="47.2565" lon="-2.33886">
        <ele>3.5999999046326</ele>
        <time>2019-08-11T10:07:09.000Z</time>
      </trkpt>
      <trkpt lat="47.25647" lon="-2.33872">
        <ele>3.5999999046326</ele>
        <time>2019-08-11T10:07:11.000Z</time>
      </trkpt>
      <trkpt lat="47.25644" lon="-2.33856">
        <ele>3.5999999046326</ele>
        <time>2019-08-11T10:07:13.000Z</time>
      </trkpt>
      <trkpt lat="47.25635" lon="-2.33815">
        <ele>3.5999999046326</ele>
        <time>2019-08-11T10:07:18.000Z</time>
      </trkpt>
      <trkpt lat="47.25635" lon="-2.33807">
        <ele>3.5999999046326</ele>
        <time>2019-08-11T10:07:19.000Z</time>
      </trkpt>
      <trkpt lat="47.25627" lon="-2.33777">
        <ele>3.5999999046326</ele>
        <time>2019-08-11T10:07:23.000Z</time>
      </trkpt>
      <trkpt lat="47.25624" lon="-2.3377">
        <ele>3.5999999046326</ele>
        <time>2019-08-11T10:07:24.000Z</time>
      </trkpt>
      <trkpt lat="47.25609" lon="-2.33756">
        <ele>4</ele>
        <time>2019-08-11T10:07:27.000Z</time>
      </trkpt>
      <trkpt lat="47.25602" lon="-2.33754">
        <ele>4.4000000953674</ele>
        <time>2019-08-11T10:07:28.000Z</time>
      </trkpt>
      <trkpt lat="47.25595" lon="-2.33753">
        <ele>4.8000001907349</ele>
        <time>2019-08-11T10:07:29.000Z</time>
      </trkpt>
      <trkpt lat="47.25588" lon="-2.33753">
        <ele>5.1999998092651</ele>
        <time>2019-08-11T10:07:30.000Z</time>
      </trkpt>
      <trkpt lat="47.25581" lon="-2.33753">
        <ele>5.5999999046326</ele>
        <time>2019-08-11T10:07:31.000Z</time>
      </trkpt>
      <trkpt lat="47.25573" lon="-2.33755">
        <ele>5.5999999046326</ele>
        <time>2019-08-11T10:07:32.000Z</time>
      </trkpt>
      <trkpt lat="47.25528" lon="-2.33759">
        <ele>5.5999999046326</ele>
        <time>2019-08-11T10:07:38.000Z</time>
      </trkpt>
      <trkpt lat="47.25473" lon="-2.33753">
        <ele>5.5999999046326</ele>
        <time>2019-08-11T10:07:45.000Z</time>
      </trkpt>
      <trkpt lat="47.2546" lon="-2.33746">
        <ele>5.5999999046326</ele>
        <time>2019-08-11T10:07:47.000Z</time>
      </trkpt>
      <trkpt lat="47.25448" lon="-2.33735">
        <ele>5.5999999046326</ele>
        <time>2019-08-11T10:07:49.000Z</time>
      </trkpt>
      <trkpt lat="47.25437" lon="-2.33721">
        <ele>5.5999999046326</ele>
        <time>2019-08-11T10:07:51.000Z</time>
      </trkpt>
      <trkpt lat="47.25433" lon="-2.33713">
        <ele>5.5999999046326</ele>
        <time>2019-08-11T10:07:52.000Z</time>
      </trkpt>
      <trkpt lat="47.25428" lon="-2.33704">
        <ele>5.5999999046326</ele>
        <time>2019-08-11T10:07:53.000Z</time>
      </trkpt>
      <trkpt lat="47.25401" lon="-2.33653">
        <ele>5.5999999046326</ele>
        <time>2019-08-11T10:08:00.000Z</time>
      </trkpt>
      <trkpt lat="47.25399" lon="-2.33646">
        <ele>5.5999999046326</ele>
        <time>2019-08-11T10:08:01.000Z</time>
      </trkpt>
      <trkpt lat="47.25403" lon="-2.3363">
        <ele>5.5999999046326</ele>
        <time>2019-08-11T10:08:03.000Z</time>
      </trkpt>
      <trkpt lat="47.25405" lon="-2.33592">
        <ele>5.5999999046326</ele>
        <time>2019-08-11T10:08:07.000Z</time>
      </trkpt>
      <trkpt lat="47.25401" lon="-2.33573">
        <ele>5.5999999046326</ele>
        <time>2019-08-11T10:08:09.000Z</time>
      </trkpt>
      <trkpt lat="47.25398" lon="-2.33552">
        <ele>5.5999999046326</ele>
        <time>2019-08-11T10:08:11.000Z</time>
      </trkpt>
      <trkpt lat="47.25397" lon="-2.33532">
        <ele>5.5999999046326</ele>
        <time>2019-08-11T10:08:13.000Z</time>
      </trkpt>
      <trkpt lat="47.25401" lon="-2.33513">
        <ele>5.5999999046326</ele>
        <time>2019-08-11T10:08:15.000Z</time>
      </trkpt>
      <trkpt lat="47.25416" lon="-2.33481">
        <ele>5.5999999046326</ele>
        <time>2019-08-11T10:08:19.000Z</time>
      </trkpt>
      <trkpt lat="47.25419" lon="-2.33472">
        <ele>5.5999999046326</ele>
        <time>2019-08-11T10:08:20.000Z</time>
      </trkpt>
      <trkpt lat="47.25424" lon="-2.33454">
        <ele>5.5999999046326</ele>
        <time>2019-08-11T10:08:22.000Z</time>
      </trkpt>
      <trkpt lat="47.25425" lon="-2.33443">
        <ele>5.5999999046326</ele>
        <time>2019-08-11T10:08:23.000Z</time>
      </trkpt>
      <trkpt lat="47.25427" lon="-2.33379">
        <ele>5.5999999046326</ele>
        <time>2019-08-11T10:08:29.000Z</time>
      </trkpt>
      <trkpt lat="47.25428" lon="-2.33339">
        <ele>5.5999999046326</ele>
        <time>2019-08-11T10:08:33.000Z</time>
      </trkpt>
      <trkpt lat="47.25436" lon="-2.33323">
        <ele>5.5999999046326</ele>
        <time>2019-08-11T10:08:35.000Z</time>
      </trkpt>
      <trkpt lat="47.25445" lon="-2.33285">
        <ele>5.5999999046326</ele>
        <time>2019-08-11T10:08:39.000Z</time>
      </trkpt>
      <trkpt lat="47.25435" lon="-2.33257">
        <ele>5.5999999046326</ele>
        <time>2019-08-11T10:08:42.000Z</time>
      </trkpt>
      <trkpt lat="47.2542" lon="-2.33221">
        <ele>5.5999999046326</ele>
        <time>2019-08-11T10:08:46.000Z</time>
      </trkpt>
      <trkpt lat="47.25413" lon="-2.33204">
        <ele>5.5999999046326</ele>
        <time>2019-08-11T10:08:48.000Z</time>
      </trkpt>
      <trkpt lat="47.25388" lon="-2.3315">
        <ele>5.5999999046326</ele>
        <time>2019-08-11T10:08:55.000Z</time>
      </trkpt>
      <trkpt lat="47.25385" lon="-2.33147">
        <ele>5.5999999046326</ele>
        <time>2019-08-11T10:08:56.000Z</time>
      </trkpt>
      <trkpt lat="47.2538" lon="-2.33142">
        <ele>5.5999999046326</ele>
        <time>2019-08-11T10:08:58.000Z</time>
      </trkpt>
      <trkpt lat="47.25375" lon="-2.33124">
        <ele>5.5999999046326</ele>
        <time>2019-08-11T10:09:03.000Z</time>
      </trkpt>
      <trkpt lat="47.25373" lon="-2.33121">
        <ele>5.5999999046326</ele>
        <time>2019-08-11T10:09:04.000Z</time>
      </trkpt>
      <trkpt lat="47.2537" lon="-2.33115">
        <ele>5.5999999046326</ele>
        <time>2019-08-11T10:09:07.000Z</time>
      </trkpt>
      <trkpt lat="47.25369" lon="-2.33115">
        <ele>5.5999999046326</ele>
        <time>2019-08-11T10:09:10.000Z</time>
      </trkpt>
      <trkpt lat="47.25372" lon="-2.33108">
        <ele>3.5999999046326</ele>
        <time>2019-08-11T10:23:48.000Z</time>
      </trkpt>
      <trkpt lat="47.25366" lon="-2.33092">
        <ele>3.5999999046326</ele>
        <time>2019-08-11T10:23:52.000Z</time>
      </trkpt>
      <trkpt lat="47.25354" lon="-2.33065">
        <ele>3.5999999046326</ele>
        <time>2019-08-11T10:23:59.000Z</time>
      </trkpt>
      <trkpt lat="47.25341" lon="-2.3303">
        <ele>3.5999999046326</ele>
        <time>2019-08-11T10:24:05.000Z</time>
      </trkpt>
      <trkpt lat="47.25323" lon="-2.32986">
        <ele>3.5999999046326</ele>
        <time>2019-08-11T10:24:12.000Z</time>
      </trkpt>
      <trkpt lat="47.25307" lon="-2.32942">
        <ele>3.5999999046326</ele>
        <time>2019-08-11T10:24:19.000Z</time>
      </trkpt>
      <trkpt lat="47.25306" lon="-2.32935">
        <ele>3.5999999046326</ele>
        <time>2019-08-11T10:24:20.000Z</time>
      </trkpt>
      <trkpt lat="47.25314" lon="-2.32916">
        <ele>3.5999999046326</ele>
        <time>2019-08-11T10:24:23.000Z</time>
      </trkpt>
      <trkpt lat="47.25328" lon="-2.32903">
        <ele>3.5999999046326</ele>
        <time>2019-08-11T10:24:26.000Z</time>
      </trkpt>
      <trkpt lat="47.25337" lon="-2.32894">
        <ele>3.5999999046326</ele>
        <time>2019-08-11T10:24:28.000Z</time>
      </trkpt>
      <trkpt lat="47.2537" lon="-2.32863">
        <ele>3.5999999046326</ele>
        <time>2019-08-11T10:24:35.000Z</time>
      </trkpt>
      <trkpt lat="47.25389" lon="-2.32844">
        <ele>3.5999999046326</ele>
        <time>2019-08-11T10:24:39.000Z</time>
      </trkpt>
      <trkpt lat="47.25397" lon="-2.32832">
        <ele>3.5999999046326</ele>
        <time>2019-08-11T10:24:41.000Z</time>
      </trkpt>
      <trkpt lat="47.25408" lon="-2.32819">
        <ele>3.5999999046326</ele>
        <time>2019-08-11T10:24:45.000Z</time>
      </trkpt>
      <trkpt lat="47.25407" lon="-2.32819">
        <ele>3.5999999046326</ele>
        <time>2019-08-11T10:24:46.000Z</time>
      </trkpt>
      <trkpt lat="47.25408" lon="-2.32814">
        <ele>3.5999999046326</ele>
        <time>2019-08-11T10:26:57.000Z</time>
      </trkpt>
      <trkpt lat="47.25409" lon="-2.32811">
        <ele>3.5999999046326</ele>
        <time>2019-08-11T10:26:58.000Z</time>
      </trkpt>
      <trkpt lat="47.25419" lon="-2.32795">
        <ele>3.5999999046326</ele>
        <time>2019-08-11T10:27:03.000Z</time>
      </trkpt>
      <trkpt lat="47.25428" lon="-2.32771">
        <ele>3.5999999046326</ele>
        <time>2019-08-11T10:27:08.000Z</time>
      </trkpt>
      <trkpt lat="47.25432" lon="-2.32767">
        <ele>4</ele>
        <time>2019-08-11T10:27:09.000Z</time>
      </trkpt>
      <trkpt lat="47.25436" lon="-2.32762">
        <ele>4.4000000953674</ele>
        <time>2019-08-11T10:27:10.000Z</time>
      </trkpt>
      <trkpt lat="47.2544" lon="-2.32757">
        <ele>5.1999998092651</ele>
        <time>2019-08-11T10:27:11.000Z</time>
      </trkpt>
      <trkpt lat="47.25445" lon="-2.32751">
        <ele>5.5999999046326</ele>
        <time>2019-08-11T10:27:12.000Z</time>
      </trkpt>
      <trkpt lat="47.25472" lon="-2.32716">
        <ele>5.5999999046326</ele>
        <time>2019-08-11T10:27:18.000Z</time>
      </trkpt>
      <trkpt lat="47.25476" lon="-2.3271">
        <ele>5.5999999046326</ele>
        <time>2019-08-11T10:27:19.000Z</time>
      </trkpt>
      <trkpt lat="47.25484" lon="-2.32695">
        <ele>5.5999999046326</ele>
        <time>2019-08-11T10:27:21.000Z</time>
      </trkpt>
      <trkpt lat="47.25487" lon="-2.32678">
        <ele>5.5999999046326</ele>
        <time>2019-08-11T10:27:23.000Z</time>
      </trkpt>
      <trkpt lat="47.25487" lon="-2.32669">
        <ele>6</ele>
        <time>2019-08-11T10:27:24.000Z</time>
      </trkpt>
      <trkpt lat="47.25487" lon="-2.3266">
        <ele>6.4000000953674</ele>
        <time>2019-08-11T10:27:25.000Z</time>
      </trkpt>
      <trkpt lat="47.25486" lon="-2.32652">
        <ele>6.8000001907349</ele>
        <time>2019-08-11T10:27:26.000Z</time>
      </trkpt>
      <trkpt lat="47.25484" lon="-2.32643">
        <ele>7.1999998092651</ele>
        <time>2019-08-11T10:27:27.000Z</time>
      </trkpt>
      <trkpt lat="47.25483" lon="-2.32635">
        <ele>7.5999999046326</ele>
        <time>2019-08-11T10:27:28.000Z</time>
      </trkpt>
      <trkpt lat="47.2548" lon="-2.32618">
        <ele>7.5999999046326</ele>
        <time>2019-08-11T10:27:30.000Z</time>
      </trkpt>
      <trkpt lat="47.25477" lon="-2.32594">
        <ele>7.5999999046326</ele>
        <time>2019-08-11T10:27:33.000Z</time>
      </trkpt>
      <trkpt lat="47.25476" lon="-2.32571">
        <ele>7.5999999046326</ele>
        <time>2019-08-11T10:27:36.000Z</time>
      </trkpt>
      <trkpt lat="47.25479" lon="-2.32565">
        <ele>7.5999999046326</ele>
        <time>2019-08-11T10:27:37.000Z</time>
      </trkpt>
      <trkpt lat="47.25493" lon="-2.32551">
        <ele>7.5999999046326</ele>
        <time>2019-08-11T10:27:40.000Z</time>
      </trkpt>
      <trkpt lat="47.25535" lon="-2.32511">
        <ele>7.5999999046326</ele>
        <time>2019-08-11T10:27:48.000Z</time>
      </trkpt>
      <trkpt lat="47.25551" lon="-2.32497">
        <ele>7.1999998092651</ele>
        <time>2019-08-11T10:27:51.000Z</time>
      </trkpt>
      <trkpt lat="47.25557" lon="-2.32492">
        <ele>6.8000001907349</ele>
        <time>2019-08-11T10:27:52.000Z</time>
      </trkpt>
      <trkpt lat="47.25563" lon="-2.32488">
        <ele>6.1999998092651</ele>
        <time>2019-08-11T10:27:53.000Z</time>
      </trkpt>
      <trkpt lat="47.25569" lon="-2.32482">
        <ele>5.8000001907349</ele>
        <time>2019-08-11T10:27:54.000Z</time>
      </trkpt>
      <trkpt lat="47.25574" lon="-2.32476">
        <ele>5.4000000953674</ele>
        <time>2019-08-11T10:27:55.000Z</time>
      </trkpt>
      <trkpt lat="47.25596" lon="-2.32451">
        <ele>5.4000000953674</ele>
        <time>2019-08-11T10:27:59.000Z</time>
      </trkpt>
      <trkpt lat="47.25609" lon="-2.32437">
        <ele>4.5999999046326</ele>
        <time>2019-08-11T10:28:01.000Z</time>
      </trkpt>
      <trkpt lat="47.25615" lon="-2.32431">
        <ele>4</ele>
        <time>2019-08-11T10:28:02.000Z</time>
      </trkpt>
      <trkpt lat="47.25621" lon="-2.32424">
        <ele>3.5999999046326</ele>
        <time>2019-08-11T10:28:03.000Z</time>
      </trkpt>
      <trkpt lat="47.25627" lon="-2.32417">
        <ele>3.2000000476837</ele>
        <time>2019-08-11T10:28:04.000Z</time>
      </trkpt>
      <trkpt lat="47.2564" lon="-2.32406">
        <ele>3.2000000476837</ele>
        <time>2019-08-11T10:28:06.000Z</time>
      </trkpt>
      <trkpt lat="47.2566" lon="-2.32401">
        <ele>2.7999999523163</ele>
        <time>2019-08-11T10:28:09.000Z</time>
      </trkpt>
      <trkpt lat="47.25664" lon="-2.32401">
        <ele>2.4000000953674</ele>
        <time>2019-08-11T10:28:10.000Z</time>
      </trkpt>
      <trkpt lat="47.25668" lon="-2.32403">
        <ele>2</ele>
        <time>2019-08-11T10:28:11.000Z</time>
      </trkpt>
      <trkpt lat="47.25671" lon="-2.32407">
        <ele>1.6000000238419</ele>
        <time>2019-08-11T10:28:12.000Z</time>
      </trkpt>
      <trkpt lat="47.25674" lon="-2.32412">
        <ele>1.2000000476837</ele>
        <time>2019-08-11T10:28:13.000Z</time>
      </trkpt>
      <trkpt lat="47.25689" lon="-2.32419">
        <ele>1.2000000476837</ele>
        <time>2019-08-11T10:28:16.000Z</time>
      </trkpt>
      <trkpt lat="47.25695" lon="-2.3242">
        <ele>1.2000000476837</ele>
        <time>2019-08-11T10:28:17.000Z</time>
      </trkpt>
      <trkpt lat="47.25726" lon="-2.32423">
        <ele>1.2000000476837</ele>
        <time>2019-08-11T10:28:22.000Z</time>
      </trkpt>
      <trkpt lat="47.25757" lon="-2.32421">
        <ele>1.2000000476837</ele>
        <time>2019-08-11T10:28:27.000Z</time>
      </trkpt>
      <trkpt lat="47.25762" lon="-2.32418">
        <ele>1.2000000476837</ele>
        <time>2019-08-11T10:28:28.000Z</time>
      </trkpt>
      <trkpt lat="47.25786" lon="-2.32422">
        <ele>1.2000000476837</ele>
        <time>2019-08-11T10:28:32.000Z</time>
      </trkpt>
      <trkpt lat="47.25799" lon="-2.32444">
        <ele>1.2000000476837</ele>
        <time>2019-08-11T10:28:35.000Z</time>
      </trkpt>
      <trkpt lat="47.25805" lon="-2.3245">
        <ele>1.2000000476837</ele>
        <time>2019-08-11T10:28:36.000Z</time>
      </trkpt>
      <trkpt lat="47.25817" lon="-2.32461">
        <ele>1.2000000476837</ele>
        <time>2019-08-11T10:28:38.000Z</time>
      </trkpt>
      <trkpt lat="47.2585" lon="-2.32475">
        <ele>1.2000000476837</ele>
        <time>2019-08-11T10:28:43.000Z</time>
      </trkpt>
      <trkpt lat="47.25869" lon="-2.32475">
        <ele>1.2000000476837</ele>
        <time>2019-08-11T10:28:46.000Z</time>
      </trkpt>
      <trkpt lat="47.25882" lon="-2.32472">
        <ele>1.2000000476837</ele>
        <time>2019-08-11T10:28:48.000Z</time>
      </trkpt>
      <trkpt lat="47.25894" lon="-2.32466">
        <ele>1.2000000476837</ele>
        <time>2019-08-11T10:28:50.000Z</time>
      </trkpt>
      <trkpt lat="47.25904" lon="-2.32454">
        <ele>1.2000000476837</ele>
        <time>2019-08-11T10:28:52.000Z</time>
      </trkpt>
      <trkpt lat="47.25939" lon="-2.32407">
        <ele>1.2000000476837</ele>
        <time>2019-08-11T10:28:59.000Z</time>
      </trkpt>
      <trkpt lat="47.25974" lon="-2.32362">
        <ele>1.2000000476837</ele>
        <time>2019-08-11T10:29:06.000Z</time>
      </trkpt>
      <trkpt lat="47.26012" lon="-2.32313">
        <ele>1.2000000476837</ele>
        <time>2019-08-11T10:29:14.000Z</time>
      </trkpt>
      <trkpt lat="47.26048" lon="-2.3227">
        <ele>1.2000000476837</ele>
        <time>2019-08-11T10:29:21.000Z</time>
      </trkpt>
      <trkpt lat="47.26078" lon="-2.32237">
        <ele>1.2000000476837</ele>
        <time>2019-08-11T10:29:27.000Z</time>
      </trkpt>
      <trkpt lat="47.26103" lon="-2.32195">
        <ele>1.2000000476837</ele>
        <time>2019-08-11T10:29:33.000Z</time>
      </trkpt>
      <trkpt lat="47.26121" lon="-2.32148">
        <ele>1.2000000476837</ele>
        <time>2019-08-11T10:29:39.000Z</time>
      </trkpt>
      <trkpt lat="47.26139" lon="-2.3209">
        <ele>1.2000000476837</ele>
        <time>2019-08-11T10:29:46.000Z</time>
      </trkpt>
      <trkpt lat="47.26154" lon="-2.32042">
        <ele>1.2000000476837</ele>
        <time>2019-08-11T10:29:52.000Z</time>
      </trkpt>
      <trkpt lat="47.26162" lon="-2.32022">
        <ele>1.2000000476837</ele>
        <time>2019-08-11T10:29:55.000Z</time>
      </trkpt>
      <trkpt lat="47.26171" lon="-2.32017">
        <ele>1.2000000476837</ele>
        <time>2019-08-11T10:29:57.000Z</time>
      </trkpt>
      <trkpt lat="47.26186" lon="-2.32021">
        <ele>1.2000000476837</ele>
        <time>2019-08-11T10:30:01.000Z</time>
      </trkpt>
      <trkpt lat="47.26189" lon="-2.32022">
        <ele>1.2000000476837</ele>
        <time>2019-08-11T10:30:02.000Z</time>
      </trkpt>
      <trkpt lat="47.2619" lon="-2.32023">
        <ele>0.80000001192093</ele>
        <time>2019-08-11T10:30:03.000Z</time>
      </trkpt>
      <trkpt lat="47.26192" lon="-2.32024">
        <ele>0.40000000596046</ele>
        <time>2019-08-11T10:30:04.000Z</time>
      </trkpt>
      <trkpt lat="47.26193" lon="-2.32024">
        <ele>-0.60000002384186</ele>
        <time>2019-08-11T10:30:05.000Z</time>
      </trkpt>
      <trkpt lat="47.26194" lon="-2.32022">
        <ele>-1</ele>
        <time>2019-08-11T10:30:06.000Z</time>
      </trkpt>
      <trkpt lat="47.26194" lon="-2.32017">
        <ele>-1</ele>
        <time>2019-08-11T10:30:08.000Z</time>
      </trkpt>
      <trkpt lat="47.26199" lon="-2.32006">
        <ele>-1</ele>
        <time>2019-08-11T10:30:12.000Z</time>
      </trkpt>
      <trkpt lat="47.26211" lon="-2.31995">
        <ele>-1</ele>
        <time>2019-08-11T10:30:17.000Z</time>
      </trkpt>
      <trkpt lat="47.26213" lon="-2.31991">
        <ele>-1</ele>
        <time>2019-08-11T10:30:18.000Z</time>
      </trkpt>
      <trkpt lat="47.26231" lon="-2.31968">
        <ele>-1</ele>
        <time>2019-08-11T10:30:23.000Z</time>
      </trkpt>
      <trkpt lat="47.26239" lon="-2.31958">
        <ele>-1</ele>
        <time>2019-08-11T10:30:25.000Z</time>
      </trkpt>
      <trkpt lat="47.26248" lon="-2.31943">
        <ele>-1</ele>
        <time>2019-08-11T10:30:28.000Z</time>
      </trkpt>
      <trkpt lat="47.2627" lon="-2.31912">
        <ele>-1</ele>
        <time>2019-08-11T10:30:35.000Z</time>
      </trkpt>
      <trkpt lat="47.26289" lon="-2.31894">
        <ele>-1</ele>
        <time>2019-08-11T10:30:40.000Z</time>
      </trkpt>
      <trkpt lat="47.26292" lon="-2.31882">
        <ele>-1</ele>
        <time>2019-08-11T10:30:42.000Z</time>
      </trkpt>
      <trkpt lat="47.26292" lon="-2.31876">
        <ele>-1</ele>
        <time>2019-08-11T10:30:43.000Z</time>
      </trkpt>
      <trkpt lat="47.26297" lon="-2.31832">
        <ele>-1</ele>
        <time>2019-08-11T10:30:49.000Z</time>
      </trkpt>
      <trkpt lat="47.26299" lon="-2.31805">
        <ele>-1</ele>
        <time>2019-08-11T10:30:53.000Z</time>
      </trkpt>
      <trkpt lat="47.263" lon="-2.3179">
        <ele>-1</ele>
        <time>2019-08-11T10:30:55.000Z</time>
      </trkpt>
      <trkpt lat="47.26298" lon="-2.31735">
        <ele>-1</ele>
        <time>2019-08-11T10:31:02.000Z</time>
      </trkpt>
      <trkpt lat="47.26299" lon="-2.31728">
        <ele>-1</ele>
        <time>2019-08-11T10:31:03.000Z</time>
      </trkpt>
      <trkpt lat="47.26307" lon="-2.31718">
        <ele>-1</ele>
        <time>2019-08-11T10:31:05.000Z</time>
      </trkpt>
      <trkpt lat="47.26317" lon="-2.31712">
        <ele>-1</ele>
        <time>2019-08-11T10:31:08.000Z</time>
      </trkpt>
      <trkpt lat="47.26324" lon="-2.31709">
        <ele>-0.60000002384186</ele>
        <time>2019-08-11T10:31:10.000Z</time>
      </trkpt>
      <trkpt lat="47.26328" lon="-2.31705">
        <ele>-0.20000000298023</ele>
        <time>2019-08-11T10:31:11.000Z</time>
      </trkpt>
      <trkpt lat="47.26331" lon="-2.31699">
        <ele>0.20000000298023</ele>
        <time>2019-08-11T10:31:12.000Z</time>
      </trkpt>
      <trkpt lat="47.26332" lon="-2.31693">
        <ele>0.80000001192093</ele>
        <time>2019-08-11T10:31:13.000Z</time>
      </trkpt>
      <trkpt lat="47.26336" lon="-2.3169">
        <ele>1.2000000476837</ele>
        <time>2019-08-11T10:31:14.000Z</time>
      </trkpt>
      <trkpt lat="47.26343" lon="-2.31687">
        <ele>1.2000000476837</ele>
        <time>2019-08-11T10:31:16.000Z</time>
      </trkpt>
      <trkpt lat="47.26347" lon="-2.31686">
        <ele>1.2000000476837</ele>
        <time>2019-08-11T10:31:17.000Z</time>
      </trkpt>
      <trkpt lat="47.26355" lon="-2.31682">
        <ele>1.6000000238419</ele>
        <time>2019-08-11T10:31:19.000Z</time>
      </trkpt>
      <trkpt lat="47.26359" lon="-2.3168">
        <ele>2</ele>
        <time>2019-08-11T10:31:20.000Z</time>
      </trkpt>
      <trkpt lat="47.26363" lon="-2.31678">
        <ele>2.4000000953674</ele>
        <time>2019-08-11T10:31:21.000Z</time>
      </trkpt>
      <trkpt lat="47.26367" lon="-2.31676">
        <ele>2.7999999523163</ele>
        <time>2019-08-11T10:31:22.000Z</time>
      </trkpt>
      <trkpt lat="47.26371" lon="-2.31675">
        <ele>3.2000000476837</ele>
        <time>2019-08-11T10:31:23.000Z</time>
      </trkpt>
      <trkpt lat="47.2639" lon="-2.31664">
        <ele>3.2000000476837</ele>
        <time>2019-08-11T10:31:28.000Z</time>
      </trkpt>
      <trkpt lat="47.26406" lon="-2.31655">
        <ele>3.2000000476837</ele>
        <time>2019-08-11T10:31:33.000Z</time>
      </trkpt>
      <trkpt lat="47.2641" lon="-2.31646">
        <ele>3.2000000476837</ele>
        <time>2019-08-11T10:31:35.000Z</time>
      </trkpt>
      <trkpt lat="47.2641" lon="-2.31641">
        <ele>3.2000000476837</ele>
        <time>2019-08-11T10:31:36.000Z</time>
      </trkpt>
      <trkpt lat="47.26409" lon="-2.31602">
        <ele>3.2000000476837</ele>
        <time>2019-08-11T10:31:43.000Z</time>
      </trkpt>
      <trkpt lat="47.26409" lon="-2.31597">
        <ele>4</ele>
        <time>2019-08-11T10:31:44.000Z</time>
      </trkpt>
      <trkpt lat="47.26409" lon="-2.31592">
        <ele>4.4000000953674</ele>
        <time>2019-08-11T10:31:45.000Z</time>
      </trkpt>
      <trkpt lat="47.26409" lon="-2.31587">
        <ele>4.8000001907349</ele>
        <time>2019-08-11T10:31:46.000Z</time>
      </trkpt>
      <trkpt lat="47.2641" lon="-2.31582">
        <ele>5.1999998092651</ele>
        <time>2019-08-11T10:31:47.000Z</time>
      </trkpt>
      <trkpt lat="47.2641" lon="-2.31567">
        <ele>5.1999998092651</ele>
        <time>2019-08-11T10:31:50.000Z</time>
      </trkpt>
      <trkpt lat="47.26414" lon="-2.31553">
        <ele>5.1999998092651</ele>
        <time>2019-08-11T10:31:54.000Z</time>
      </trkpt>
      <trkpt lat="47.26417" lon="-2.31553">
        <ele>5.1999998092651</ele>
        <time>2019-08-11T10:31:57.000Z</time>
      </trkpt>
    </trkseg>
  </trk>
</gpx>